<?xml version="1.0" encoding="UTF-8" standalone="no" ?>
<gpx xmlns="http://www.topografix.com/GPX/1/1" xmlns:xsi="http://www.w3.org/2001/XMLSchema-instance" xsi:schemaLocation="http://www.topografix.com/GPX/1/1 http://www.topografix.com/GPX/1/1/gpx.xsd" version="1.1" creator="VisuGPX - https://www.visugpx.com">
  <metadata>
    <name>NDDA GVL x2</name>
    <desc><![CDATA[Belle trace]]></desc>
  </metadata>
  <trk>
    <name><![CDATA[2022-07-02 12-34-31]]></name>
    <extensions>
      <line xmlns="http://www.topografix.com/GPX/gpx_style/0/2">
        <color>0000FF</color>
        <width>4</width>
      </line>
    </extensions>
    <trkseg>
      <trkpt lat="43.2343" lon="6.09409">
        <ele>106.36</ele>
        <time>2022-07-02T05:53:33Z</time>
      </trkpt>
      <trkpt lat="43.23417" lon="6.09588">
        <ele>104.92</ele>
        <time>2022-07-02T05:53:53Z</time>
      </trkpt>
      <trkpt lat="43.23416" lon="6.09805">
        <ele>101.08</ele>
        <time>2022-07-02T05:54:17Z</time>
      </trkpt>
      <trkpt lat="43.23424" lon="6.09995">
        <ele>98.67</ele>
        <time>2022-07-02T05:54:38Z</time>
      </trkpt>
      <trkpt lat="43.23436" lon="6.10104">
        <ele>97.71</ele>
        <time>2022-07-02T05:54:50Z</time>
      </trkpt>
      <trkpt lat="43.23439" lon="6.10112">
        <ele>97.23</ele>
        <time>2022-07-02T05:54:51Z</time>
      </trkpt>
      <trkpt lat="43.23443" lon="6.1012">
        <ele>97.23</ele>
        <time>2022-07-02T05:54:52Z</time>
      </trkpt>
      <trkpt lat="43.23447" lon="6.10128">
        <ele>97.23</ele>
        <time>2022-07-02T05:54:53Z</time>
      </trkpt>
      <trkpt lat="43.23451" lon="6.10135">
        <ele>97.23</ele>
        <time>2022-07-02T05:54:54Z</time>
      </trkpt>
      <trkpt lat="43.23456" lon="6.10141">
        <ele>97.23</ele>
        <time>2022-07-02T05:54:55Z</time>
      </trkpt>
      <trkpt lat="43.23582" lon="6.10305">
        <ele>95.79</ele>
        <time>2022-07-02T05:55:21Z</time>
      </trkpt>
      <trkpt lat="43.23586" lon="6.10312">
        <ele>95.79</ele>
        <time>2022-07-02T05:55:22Z</time>
      </trkpt>
      <trkpt lat="43.23589" lon="6.1032">
        <ele>95.79</ele>
        <time>2022-07-02T05:55:23Z</time>
      </trkpt>
      <trkpt lat="43.23595" lon="6.10337">
        <ele>95.79</ele>
        <time>2022-07-02T05:55:25Z</time>
      </trkpt>
      <trkpt lat="43.23599" lon="6.10344">
        <ele>95.79</ele>
        <time>2022-07-02T05:55:26Z</time>
      </trkpt>
      <trkpt lat="43.23605" lon="6.10348">
        <ele>95.79</ele>
        <time>2022-07-02T05:55:27Z</time>
      </trkpt>
      <trkpt lat="43.23622" lon="6.10361">
        <ele>94.83</ele>
        <time>2022-07-02T05:55:30Z</time>
      </trkpt>
      <trkpt lat="43.23627" lon="6.10367">
        <ele>94.83</ele>
        <time>2022-07-02T05:55:31Z</time>
      </trkpt>
      <trkpt lat="43.2374" lon="6.10519">
        <ele>93.39</ele>
        <time>2022-07-02T05:55:55Z</time>
      </trkpt>
      <trkpt lat="43.23788" lon="6.10638">
        <ele>93.39</ele>
        <time>2022-07-02T05:56:10Z</time>
      </trkpt>
      <trkpt lat="43.23802" lon="6.10815">
        <ele>90.5</ele>
        <time>2022-07-02T05:56:29Z</time>
      </trkpt>
      <trkpt lat="43.23816" lon="6.11015">
        <ele>88.58</ele>
        <time>2022-07-02T05:56:50Z</time>
      </trkpt>
      <trkpt lat="43.23819" lon="6.11034">
        <ele>88.58</ele>
        <time>2022-07-02T05:56:52Z</time>
      </trkpt>
      <trkpt lat="43.23839" lon="6.11125">
        <ele>88.58</ele>
        <time>2022-07-02T05:57:02Z</time>
      </trkpt>
      <trkpt lat="43.23841" lon="6.11269">
        <ele>86.66</ele>
        <time>2022-07-02T05:57:17Z</time>
      </trkpt>
      <trkpt lat="43.23842" lon="6.11316">
        <ele>85.69</ele>
        <time>2022-07-02T05:57:22Z</time>
      </trkpt>
      <trkpt lat="43.23843" lon="6.11325">
        <ele>85.21</ele>
        <time>2022-07-02T05:57:23Z</time>
      </trkpt>
      <trkpt lat="43.23845" lon="6.11334">
        <ele>85.21</ele>
        <time>2022-07-02T05:57:24Z</time>
      </trkpt>
      <trkpt lat="43.2385" lon="6.11351">
        <ele>85.69</ele>
        <time>2022-07-02T05:57:26Z</time>
      </trkpt>
      <trkpt lat="43.23851" lon="6.1136">
        <ele>85.69</ele>
        <time>2022-07-02T05:57:27Z</time>
      </trkpt>
      <trkpt lat="43.23851" lon="6.11369">
        <ele>85.69</ele>
        <time>2022-07-02T05:57:28Z</time>
      </trkpt>
      <trkpt lat="43.23851" lon="6.11386">
        <ele>85.21</ele>
        <time>2022-07-02T05:57:30Z</time>
      </trkpt>
      <trkpt lat="43.23852" lon="6.11395">
        <ele>84.25</ele>
        <time>2022-07-02T05:57:31Z</time>
      </trkpt>
      <trkpt lat="43.23855" lon="6.11405">
        <ele>83.77</ele>
        <time>2022-07-02T05:57:32Z</time>
      </trkpt>
      <trkpt lat="43.23858" lon="6.11414">
        <ele>83.77</ele>
        <time>2022-07-02T05:57:33Z</time>
      </trkpt>
      <trkpt lat="43.23861" lon="6.11422">
        <ele>83.77</ele>
        <time>2022-07-02T05:57:34Z</time>
      </trkpt>
      <trkpt lat="43.2391" lon="6.11585">
        <ele>80.89</ele>
        <time>2022-07-02T05:57:52Z</time>
      </trkpt>
      <trkpt lat="43.23921" lon="6.1164">
        <ele>80.89</ele>
        <time>2022-07-02T05:57:58Z</time>
      </trkpt>
      <trkpt lat="43.23922" lon="6.11649">
        <ele>80.89</ele>
        <time>2022-07-02T05:57:59Z</time>
      </trkpt>
      <trkpt lat="43.23922" lon="6.11658">
        <ele>80.89</ele>
        <time>2022-07-02T05:58:00Z</time>
      </trkpt>
      <trkpt lat="43.2392" lon="6.11667">
        <ele>80.89</ele>
        <time>2022-07-02T05:58:01Z</time>
      </trkpt>
      <trkpt lat="43.23918" lon="6.11676">
        <ele>80.41</ele>
        <time>2022-07-02T05:58:02Z</time>
      </trkpt>
      <trkpt lat="43.23916" lon="6.11685">
        <ele>80.41</ele>
        <time>2022-07-02T05:58:03Z</time>
      </trkpt>
      <trkpt lat="43.23878" lon="6.11836">
        <ele>78.48</ele>
        <time>2022-07-02T05:58:20Z</time>
      </trkpt>
      <trkpt lat="43.23849" lon="6.12006">
        <ele>77.04</ele>
        <time>2022-07-02T05:58:39Z</time>
      </trkpt>
      <trkpt lat="43.23843" lon="6.12058">
        <ele>76.56</ele>
        <time>2022-07-02T05:58:45Z</time>
      </trkpt>
      <trkpt lat="43.23843" lon="6.12067">
        <ele>76.56</ele>
        <time>2022-07-02T05:58:46Z</time>
      </trkpt>
      <trkpt lat="43.23844" lon="6.12076">
        <ele>76.56</ele>
        <time>2022-07-02T05:58:47Z</time>
      </trkpt>
      <trkpt lat="43.23874" lon="6.1223">
        <ele>75.12</ele>
        <time>2022-07-02T05:59:05Z</time>
      </trkpt>
      <trkpt lat="43.23879" lon="6.12256">
        <ele>75.12</ele>
        <time>2022-07-02T05:59:08Z</time>
      </trkpt>
      <trkpt lat="43.23879" lon="6.12264">
        <ele>75.12</ele>
        <time>2022-07-02T05:59:09Z</time>
      </trkpt>
      <trkpt lat="43.23879" lon="6.12273">
        <ele>75.12</ele>
        <time>2022-07-02T05:59:10Z</time>
      </trkpt>
      <trkpt lat="43.23877" lon="6.12282">
        <ele>75.12</ele>
        <time>2022-07-02T05:59:11Z</time>
      </trkpt>
      <trkpt lat="43.23875" lon="6.1229">
        <ele>75.12</ele>
        <time>2022-07-02T05:59:12Z</time>
      </trkpt>
      <trkpt lat="43.23872" lon="6.12298">
        <ele>75.12</ele>
        <time>2022-07-02T05:59:13Z</time>
      </trkpt>
      <trkpt lat="43.23809" lon="6.12472">
        <ele>73.68</ele>
        <time>2022-07-02T05:59:35Z</time>
      </trkpt>
      <trkpt lat="43.23749" lon="6.12634">
        <ele>71.27</ele>
        <time>2022-07-02T05:59:55Z</time>
      </trkpt>
      <trkpt lat="43.23747" lon="6.12642">
        <ele>71.27</ele>
        <time>2022-07-02T05:59:56Z</time>
      </trkpt>
      <trkpt lat="43.23746" lon="6.12651">
        <ele>71.27</ele>
        <time>2022-07-02T05:59:57Z</time>
      </trkpt>
      <trkpt lat="43.23746" lon="6.1266">
        <ele>70.79</ele>
        <time>2022-07-02T05:59:58Z</time>
      </trkpt>
      <trkpt lat="43.23746" lon="6.1267">
        <ele>70.79</ele>
        <time>2022-07-02T05:59:59Z</time>
      </trkpt>
      <trkpt lat="43.23746" lon="6.12679">
        <ele>70.79</ele>
        <time>2022-07-02T06:00:00Z</time>
      </trkpt>
      <trkpt lat="43.23734" lon="6.12835">
        <ele>69.35</ele>
        <time>2022-07-02T06:00:17Z</time>
      </trkpt>
      <trkpt lat="43.23718" lon="6.13031">
        <ele>65.99</ele>
        <time>2022-07-02T06:00:38Z</time>
      </trkpt>
      <trkpt lat="43.23719" lon="6.1304">
        <ele>65.99</ele>
        <time>2022-07-02T06:00:39Z</time>
      </trkpt>
      <trkpt lat="43.2372" lon="6.13049">
        <ele>65.51</ele>
        <time>2022-07-02T06:00:40Z</time>
      </trkpt>
      <trkpt lat="43.23722" lon="6.13058">
        <ele>65.51</ele>
        <time>2022-07-02T06:00:41Z</time>
      </trkpt>
      <trkpt lat="43.23725" lon="6.13067">
        <ele>65.03</ele>
        <time>2022-07-02T06:00:42Z</time>
      </trkpt>
      <trkpt lat="43.23728" lon="6.13076">
        <ele>65.03</ele>
        <time>2022-07-02T06:00:43Z</time>
      </trkpt>
      <trkpt lat="43.23733" lon="6.13094">
        <ele>64.07</ele>
        <time>2022-07-02T06:00:45Z</time>
      </trkpt>
      <trkpt lat="43.23733" lon="6.13104">
        <ele>63.58</ele>
        <time>2022-07-02T06:00:46Z</time>
      </trkpt>
      <trkpt lat="43.23731" lon="6.13114">
        <ele>63.58</ele>
        <time>2022-07-02T06:00:47Z</time>
      </trkpt>
      <trkpt lat="43.23728" lon="6.13123">
        <ele>62.62</ele>
        <time>2022-07-02T06:00:48Z</time>
      </trkpt>
      <trkpt lat="43.23725" lon="6.13133">
        <ele>62.62</ele>
        <time>2022-07-02T06:00:49Z</time>
      </trkpt>
      <trkpt lat="43.23688" lon="6.13243">
        <ele>60.22</ele>
        <time>2022-07-02T06:01:01Z</time>
      </trkpt>
      <trkpt lat="43.23684" lon="6.1325">
        <ele>60.22</ele>
        <time>2022-07-02T06:01:02Z</time>
      </trkpt>
      <trkpt lat="43.23678" lon="6.13256">
        <ele>60.22</ele>
        <time>2022-07-02T06:01:03Z</time>
      </trkpt>
      <trkpt lat="43.23672" lon="6.13261">
        <ele>60.22</ele>
        <time>2022-07-02T06:01:04Z</time>
      </trkpt>
      <trkpt lat="43.23665" lon="6.13266">
        <ele>60.7</ele>
        <time>2022-07-02T06:01:05Z</time>
      </trkpt>
      <trkpt lat="43.23654" lon="6.13275">
        <ele>60.7</ele>
        <time>2022-07-02T06:01:07Z</time>
      </trkpt>
      <trkpt lat="43.23648" lon="6.1328">
        <ele>60.7</ele>
        <time>2022-07-02T06:01:08Z</time>
      </trkpt>
      <trkpt lat="43.23643" lon="6.13287">
        <ele>60.7</ele>
        <time>2022-07-02T06:01:09Z</time>
      </trkpt>
      <trkpt lat="43.23635" lon="6.13301">
        <ele>60.7</ele>
        <time>2022-07-02T06:01:11Z</time>
      </trkpt>
      <trkpt lat="43.23633" lon="6.13309">
        <ele>60.22</ele>
        <time>2022-07-02T06:01:12Z</time>
      </trkpt>
      <trkpt lat="43.23632" lon="6.13317">
        <ele>60.22</ele>
        <time>2022-07-02T06:01:13Z</time>
      </trkpt>
      <trkpt lat="43.23632" lon="6.13326">
        <ele>60.22</ele>
        <time>2022-07-02T06:01:14Z</time>
      </trkpt>
      <trkpt lat="43.23633" lon="6.13335">
        <ele>60.22</ele>
        <time>2022-07-02T06:01:15Z</time>
      </trkpt>
      <trkpt lat="43.23662" lon="6.13523">
        <ele>61.18</ele>
        <time>2022-07-02T06:01:37Z</time>
      </trkpt>
      <trkpt lat="43.23686" lon="6.13701">
        <ele>61.18</ele>
        <time>2022-07-02T06:01:58Z</time>
      </trkpt>
      <trkpt lat="43.23683" lon="6.13841">
        <ele>60.7</ele>
        <time>2022-07-02T06:02:14Z</time>
      </trkpt>
      <trkpt lat="43.23685" lon="6.13849">
        <ele>60.7</ele>
        <time>2022-07-02T06:02:15Z</time>
      </trkpt>
      <trkpt lat="43.23711" lon="6.14002">
        <ele>61.18</ele>
        <time>2022-07-02T06:02:33Z</time>
      </trkpt>
      <trkpt lat="43.2374" lon="6.14219">
        <ele>62.62</ele>
        <time>2022-07-02T06:03:00Z</time>
      </trkpt>
      <trkpt lat="43.2375" lon="6.14381">
        <ele>63.58</ele>
        <time>2022-07-02T06:03:20Z</time>
      </trkpt>
      <trkpt lat="43.23759" lon="6.14569">
        <ele>64.07</ele>
        <time>2022-07-02T06:03:43Z</time>
      </trkpt>
      <trkpt lat="43.2375" lon="6.14686">
        <ele>63.58</ele>
        <time>2022-07-02T06:03:57Z</time>
      </trkpt>
      <trkpt lat="43.23749" lon="6.14694">
        <ele>63.58</ele>
        <time>2022-07-02T06:03:58Z</time>
      </trkpt>
      <trkpt lat="43.23734" lon="6.14847">
        <ele>61.18</ele>
        <time>2022-07-02T06:04:14Z</time>
      </trkpt>
      <trkpt lat="43.23753" lon="6.1495">
        <ele>61.18</ele>
        <time>2022-07-02T06:04:26Z</time>
      </trkpt>
      <trkpt lat="43.23761" lon="6.14982">
        <ele>61.66</ele>
        <time>2022-07-02T06:04:31Z</time>
      </trkpt>
      <trkpt lat="43.23764" lon="6.14987">
        <ele>61.66</ele>
        <time>2022-07-02T06:04:32Z</time>
      </trkpt>
      <trkpt lat="43.23769" lon="6.1499">
        <ele>61.66</ele>
        <time>2022-07-02T06:04:33Z</time>
      </trkpt>
      <trkpt lat="43.23773" lon="6.14993">
        <ele>61.66</ele>
        <time>2022-07-02T06:04:34Z</time>
      </trkpt>
      <trkpt lat="43.23778" lon="6.14996">
        <ele>62.14</ele>
        <time>2022-07-02T06:04:35Z</time>
      </trkpt>
      <trkpt lat="43.23862" lon="6.15036">
        <ele>65.03</ele>
        <time>2022-07-02T06:04:52Z</time>
      </trkpt>
      <trkpt lat="43.23872" lon="6.15039">
        <ele>65.03</ele>
        <time>2022-07-02T06:04:54Z</time>
      </trkpt>
      <trkpt lat="43.23876" lon="6.15043">
        <ele>65.03</ele>
        <time>2022-07-02T06:04:55Z</time>
      </trkpt>
      <trkpt lat="43.23878" lon="6.15048">
        <ele>65.03</ele>
        <time>2022-07-02T06:04:56Z</time>
      </trkpt>
      <trkpt lat="43.23878" lon="6.15055">
        <ele>65.51</ele>
        <time>2022-07-02T06:04:57Z</time>
      </trkpt>
      <trkpt lat="43.23877" lon="6.15061">
        <ele>65.51</ele>
        <time>2022-07-02T06:04:58Z</time>
      </trkpt>
      <trkpt lat="43.23877" lon="6.15067">
        <ele>65.03</ele>
        <time>2022-07-02T06:04:59Z</time>
      </trkpt>
      <trkpt lat="43.23877" lon="6.15074">
        <ele>64.55</ele>
        <time>2022-07-02T06:05:00Z</time>
      </trkpt>
      <trkpt lat="43.23878" lon="6.15081">
        <ele>64.07</ele>
        <time>2022-07-02T06:05:01Z</time>
      </trkpt>
      <trkpt lat="43.23878" lon="6.1509">
        <ele>63.58</ele>
        <time>2022-07-02T06:05:02Z</time>
      </trkpt>
      <trkpt lat="43.23909" lon="6.15231">
        <ele>62.62</ele>
        <time>2022-07-02T06:05:19Z</time>
      </trkpt>
      <trkpt lat="43.23945" lon="6.15311">
        <ele>62.62</ele>
        <time>2022-07-02T06:05:31Z</time>
      </trkpt>
      <trkpt lat="43.23958" lon="6.15338">
        <ele>62.62</ele>
        <time>2022-07-02T06:05:35Z</time>
      </trkpt>
      <trkpt lat="43.24036" lon="6.15465">
        <ele>64.55</ele>
        <time>2022-07-02T06:05:56Z</time>
      </trkpt>
      <trkpt lat="43.24072" lon="6.15519">
        <ele>66.47</ele>
        <time>2022-07-02T06:06:06Z</time>
      </trkpt>
      <trkpt lat="43.24092" lon="6.15571">
        <ele>67.43</ele>
        <time>2022-07-02T06:06:14Z</time>
      </trkpt>
      <trkpt lat="43.24096" lon="6.15576">
        <ele>67.43</ele>
        <time>2022-07-02T06:06:15Z</time>
      </trkpt>
      <trkpt lat="43.241" lon="6.15579">
        <ele>67.43</ele>
        <time>2022-07-02T06:06:16Z</time>
      </trkpt>
      <trkpt lat="43.24105" lon="6.15582">
        <ele>67.91</ele>
        <time>2022-07-02T06:06:17Z</time>
      </trkpt>
      <trkpt lat="43.24109" lon="6.15584">
        <ele>68.39</ele>
        <time>2022-07-02T06:06:18Z</time>
      </trkpt>
      <trkpt lat="43.24114" lon="6.15585">
        <ele>68.39</ele>
        <time>2022-07-02T06:06:19Z</time>
      </trkpt>
      <trkpt lat="43.24126" lon="6.15588">
        <ele>68.87</ele>
        <time>2022-07-02T06:06:22Z</time>
      </trkpt>
      <trkpt lat="43.24167" lon="6.15597">
        <ele>72.72</ele>
        <time>2022-07-02T06:06:33Z</time>
      </trkpt>
      <trkpt lat="43.24218" lon="6.15613">
        <ele>76.56</ele>
        <time>2022-07-02T06:06:47Z</time>
      </trkpt>
      <trkpt lat="43.24222" lon="6.15616">
        <ele>76.56</ele>
        <time>2022-07-02T06:06:48Z</time>
      </trkpt>
      <trkpt lat="43.24226" lon="6.15619">
        <ele>76.56</ele>
        <time>2022-07-02T06:06:49Z</time>
      </trkpt>
      <trkpt lat="43.24229" lon="6.15623">
        <ele>76.56</ele>
        <time>2022-07-02T06:06:50Z</time>
      </trkpt>
      <trkpt lat="43.24291" lon="6.15716">
        <ele>79.45</ele>
        <time>2022-07-02T06:07:12Z</time>
      </trkpt>
      <trkpt lat="43.24356" lon="6.15816">
        <ele>80.89</ele>
        <time>2022-07-02T06:07:33Z</time>
      </trkpt>
      <trkpt lat="43.24434" lon="6.15958">
        <ele>83.29</ele>
        <time>2022-07-02T06:08:00Z</time>
      </trkpt>
      <trkpt lat="43.24495" lon="6.16062">
        <ele>82.81</ele>
        <time>2022-07-02T06:08:19Z</time>
      </trkpt>
      <trkpt lat="43.24503" lon="6.16075">
        <ele>81.85</ele>
        <time>2022-07-02T06:08:21Z</time>
      </trkpt>
      <trkpt lat="43.24507" lon="6.16083">
        <ele>81.37</ele>
        <time>2022-07-02T06:08:22Z</time>
      </trkpt>
      <trkpt lat="43.2451" lon="6.16092">
        <ele>80.89</ele>
        <time>2022-07-02T06:08:23Z</time>
      </trkpt>
      <trkpt lat="43.24512" lon="6.16102">
        <ele>80.41</ele>
        <time>2022-07-02T06:08:24Z</time>
      </trkpt>
      <trkpt lat="43.24514" lon="6.16112">
        <ele>79.93</ele>
        <time>2022-07-02T06:08:25Z</time>
      </trkpt>
      <trkpt lat="43.24516" lon="6.16122">
        <ele>79.93</ele>
        <time>2022-07-02T06:08:26Z</time>
      </trkpt>
      <trkpt lat="43.24519" lon="6.16131">
        <ele>79.45</ele>
        <time>2022-07-02T06:08:27Z</time>
      </trkpt>
      <trkpt lat="43.24522" lon="6.1614">
        <ele>78.97</ele>
        <time>2022-07-02T06:08:28Z</time>
      </trkpt>
      <trkpt lat="43.24548" lon="6.16237">
        <ele>79.93</ele>
        <time>2022-07-02T06:08:40Z</time>
      </trkpt>
      <trkpt lat="43.24574" lon="6.1636">
        <ele>84.25</ele>
        <time>2022-07-02T06:08:59Z</time>
      </trkpt>
      <trkpt lat="43.24613" lon="6.16496">
        <ele>87.62</ele>
        <time>2022-07-02T06:09:21Z</time>
      </trkpt>
      <trkpt lat="43.24653" lon="6.16567">
        <ele>84.73</ele>
        <time>2022-07-02T06:09:32Z</time>
      </trkpt>
      <trkpt lat="43.24685" lon="6.16602">
        <ele>81.37</ele>
        <time>2022-07-02T06:09:37Z</time>
      </trkpt>
      <trkpt lat="43.24691" lon="6.16611">
        <ele>80.89</ele>
        <time>2022-07-02T06:09:38Z</time>
      </trkpt>
      <trkpt lat="43.24696" lon="6.1662">
        <ele>80.41</ele>
        <time>2022-07-02T06:09:39Z</time>
      </trkpt>
      <trkpt lat="43.24758" lon="6.16723">
        <ele>80.41</ele>
        <time>2022-07-02T06:09:52Z</time>
      </trkpt>
      <trkpt lat="43.24778" lon="6.16755">
        <ele>80.41</ele>
        <time>2022-07-02T06:09:57Z</time>
      </trkpt>
      <trkpt lat="43.2478" lon="6.16762">
        <ele>80.41</ele>
        <time>2022-07-02T06:09:58Z</time>
      </trkpt>
      <trkpt lat="43.2478" lon="6.16768">
        <ele>79.93</ele>
        <time>2022-07-02T06:09:59Z</time>
      </trkpt>
      <trkpt lat="43.24778" lon="6.16775">
        <ele>79.45</ele>
        <time>2022-07-02T06:10:00Z</time>
      </trkpt>
      <trkpt lat="43.24775" lon="6.16781">
        <ele>78.97</ele>
        <time>2022-07-02T06:10:01Z</time>
      </trkpt>
      <trkpt lat="43.2477" lon="6.16786">
        <ele>78</ele>
        <time>2022-07-02T06:10:02Z</time>
      </trkpt>
      <trkpt lat="43.24766" lon="6.16793">
        <ele>78</ele>
        <time>2022-07-02T06:10:03Z</time>
      </trkpt>
      <trkpt lat="43.24699" lon="6.16894">
        <ele>74.64</ele>
        <time>2022-07-02T06:10:17Z</time>
      </trkpt>
      <trkpt lat="43.24647" lon="6.16967">
        <ele>73.68</ele>
        <time>2022-07-02T06:10:29Z</time>
      </trkpt>
      <trkpt lat="43.24645" lon="6.16973">
        <ele>73.2</ele>
        <time>2022-07-02T06:10:30Z</time>
      </trkpt>
      <trkpt lat="43.24644" lon="6.1698">
        <ele>73.2</ele>
        <time>2022-07-02T06:10:31Z</time>
      </trkpt>
      <trkpt lat="43.24647" lon="6.16986">
        <ele>73.2</ele>
        <time>2022-07-02T06:10:32Z</time>
      </trkpt>
      <trkpt lat="43.24651" lon="6.16991">
        <ele>73.2</ele>
        <time>2022-07-02T06:10:33Z</time>
      </trkpt>
      <trkpt lat="43.24656" lon="6.16994">
        <ele>73.2</ele>
        <time>2022-07-02T06:10:34Z</time>
      </trkpt>
      <trkpt lat="43.24662" lon="6.16997">
        <ele>73.2</ele>
        <time>2022-07-02T06:10:35Z</time>
      </trkpt>
      <trkpt lat="43.24711" lon="6.17053">
        <ele>73.68</ele>
        <time>2022-07-02T06:10:46Z</time>
      </trkpt>
      <trkpt lat="43.24716" lon="6.17059">
        <ele>74.64</ele>
        <time>2022-07-02T06:10:47Z</time>
      </trkpt>
      <trkpt lat="43.2472" lon="6.17064">
        <ele>75.12</ele>
        <time>2022-07-02T06:10:48Z</time>
      </trkpt>
      <trkpt lat="43.24725" lon="6.17068">
        <ele>75.12</ele>
        <time>2022-07-02T06:10:49Z</time>
      </trkpt>
      <trkpt lat="43.2473" lon="6.17072">
        <ele>75.12</ele>
        <time>2022-07-02T06:10:50Z</time>
      </trkpt>
      <trkpt lat="43.24739" lon="6.1708">
        <ele>76.08</ele>
        <time>2022-07-02T06:10:52Z</time>
      </trkpt>
      <trkpt lat="43.24742" lon="6.17086">
        <ele>76.08</ele>
        <time>2022-07-02T06:10:53Z</time>
      </trkpt>
      <trkpt lat="43.24744" lon="6.17092">
        <ele>76.08</ele>
        <time>2022-07-02T06:10:54Z</time>
      </trkpt>
      <trkpt lat="43.24745" lon="6.17099">
        <ele>76.08</ele>
        <time>2022-07-02T06:10:55Z</time>
      </trkpt>
      <trkpt lat="43.24744" lon="6.17106">
        <ele>76.08</ele>
        <time>2022-07-02T06:10:56Z</time>
      </trkpt>
      <trkpt lat="43.24744" lon="6.17114">
        <ele>76.56</ele>
        <time>2022-07-02T06:10:57Z</time>
      </trkpt>
      <trkpt lat="43.24741" lon="6.17142">
        <ele>76.56</ele>
        <time>2022-07-02T06:11:01Z</time>
      </trkpt>
      <trkpt lat="43.24738" lon="6.17148">
        <ele>77.04</ele>
        <time>2022-07-02T06:11:02Z</time>
      </trkpt>
      <trkpt lat="43.24734" lon="6.17152">
        <ele>77.04</ele>
        <time>2022-07-02T06:11:03Z</time>
      </trkpt>
      <trkpt lat="43.24729" lon="6.17153">
        <ele>77.04</ele>
        <time>2022-07-02T06:11:04Z</time>
      </trkpt>
      <trkpt lat="43.24723" lon="6.17152">
        <ele>77.04</ele>
        <time>2022-07-02T06:11:05Z</time>
      </trkpt>
      <trkpt lat="43.24718" lon="6.17151">
        <ele>77.04</ele>
        <time>2022-07-02T06:11:06Z</time>
      </trkpt>
      <trkpt lat="43.24632" lon="6.17123">
        <ele>78.97</ele>
        <time>2022-07-02T06:11:23Z</time>
      </trkpt>
      <trkpt lat="43.24511" lon="6.17087">
        <ele>78</ele>
        <time>2022-07-02T06:11:44Z</time>
      </trkpt>
      <trkpt lat="43.2441" lon="6.17046">
        <ele>76.56</ele>
        <time>2022-07-02T06:12:01Z</time>
      </trkpt>
      <trkpt lat="43.24315" lon="6.17032">
        <ele>75.6</ele>
        <time>2022-07-02T06:12:17Z</time>
      </trkpt>
      <trkpt lat="43.24235" lon="6.17012">
        <ele>74.64</ele>
        <time>2022-07-02T06:12:30Z</time>
      </trkpt>
      <trkpt lat="43.24159" lon="6.17007">
        <ele>74.64</ele>
        <time>2022-07-02T06:12:42Z</time>
      </trkpt>
      <trkpt lat="43.24116" lon="6.17002">
        <ele>72.72</ele>
        <time>2022-07-02T06:12:49Z</time>
      </trkpt>
      <trkpt lat="43.24109" lon="6.16998">
        <ele>72.24</ele>
        <time>2022-07-02T06:12:50Z</time>
      </trkpt>
      <trkpt lat="43.24104" lon="6.16992">
        <ele>72.24</ele>
        <time>2022-07-02T06:12:51Z</time>
      </trkpt>
      <trkpt lat="43.24096" lon="6.16977">
        <ele>72.24</ele>
        <time>2022-07-02T06:12:53Z</time>
      </trkpt>
      <trkpt lat="43.24092" lon="6.1697">
        <ele>72.24</ele>
        <time>2022-07-02T06:12:54Z</time>
      </trkpt>
      <trkpt lat="43.24086" lon="6.16966">
        <ele>72.24</ele>
        <time>2022-07-02T06:12:55Z</time>
      </trkpt>
      <trkpt lat="43.2408" lon="6.16963">
        <ele>72.72</ele>
        <time>2022-07-02T06:12:56Z</time>
      </trkpt>
      <trkpt lat="43.24074" lon="6.16962">
        <ele>73.2</ele>
        <time>2022-07-02T06:12:57Z</time>
      </trkpt>
      <trkpt lat="43.24068" lon="6.16961">
        <ele>73.2</ele>
        <time>2022-07-02T06:12:58Z</time>
      </trkpt>
      <trkpt lat="43.24062" lon="6.16961">
        <ele>73.68</ele>
        <time>2022-07-02T06:12:59Z</time>
      </trkpt>
      <trkpt lat="43.24056" lon="6.16962">
        <ele>74.16</ele>
        <time>2022-07-02T06:13:00Z</time>
      </trkpt>
      <trkpt lat="43.24009" lon="6.16956">
        <ele>74.64</ele>
        <time>2022-07-02T06:13:10Z</time>
      </trkpt>
      <trkpt lat="43.24006" lon="6.16957">
        <ele>74.64</ele>
        <time>2022-07-02T06:13:11Z</time>
      </trkpt>
      <trkpt lat="43.24004" lon="6.16961">
        <ele>74.64</ele>
        <time>2022-07-02T06:13:12Z</time>
      </trkpt>
      <trkpt lat="43.24003" lon="6.16966">
        <ele>74.64</ele>
        <time>2022-07-02T06:13:13Z</time>
      </trkpt>
      <trkpt lat="43.24003" lon="6.16971">
        <ele>74.64</ele>
        <time>2022-07-02T06:13:14Z</time>
      </trkpt>
      <trkpt lat="43.24002" lon="6.16977">
        <ele>74.64</ele>
        <time>2022-07-02T06:13:15Z</time>
      </trkpt>
      <trkpt lat="43.23999" lon="6.17051">
        <ele>78</ele>
        <time>2022-07-02T06:13:29Z</time>
      </trkpt>
      <trkpt lat="43.23995" lon="6.17121">
        <ele>78.48</ele>
        <time>2022-07-02T06:13:43Z</time>
      </trkpt>
      <trkpt lat="43.24" lon="6.17191">
        <ele>82.81</ele>
        <time>2022-07-02T06:13:55Z</time>
      </trkpt>
      <trkpt lat="43.24018" lon="6.17298">
        <ele>83.77</ele>
        <time>2022-07-02T06:14:12Z</time>
      </trkpt>
      <trkpt lat="43.24019" lon="6.17304">
        <ele>83.77</ele>
        <time>2022-07-02T06:14:13Z</time>
      </trkpt>
      <trkpt lat="43.24029" lon="6.17352">
        <ele>85.21</ele>
        <time>2022-07-02T06:14:21Z</time>
      </trkpt>
      <trkpt lat="43.2403" lon="6.17358">
        <ele>85.21</ele>
        <time>2022-07-02T06:14:22Z</time>
      </trkpt>
      <trkpt lat="43.24045" lon="6.17433">
        <ele>88.58</ele>
        <time>2022-07-02T06:14:37Z</time>
      </trkpt>
      <trkpt lat="43.24035" lon="6.17501">
        <ele>90.5</ele>
        <time>2022-07-02T06:14:50Z</time>
      </trkpt>
      <trkpt lat="43.24007" lon="6.17616">
        <ele>90.98</ele>
        <time>2022-07-02T06:15:10Z</time>
      </trkpt>
      <trkpt lat="43.24005" lon="6.1763">
        <ele>90.98</ele>
        <time>2022-07-02T06:15:12Z</time>
      </trkpt>
      <trkpt lat="43.24005" lon="6.17638">
        <ele>90.5</ele>
        <time>2022-07-02T06:15:13Z</time>
      </trkpt>
      <trkpt lat="43.24005" lon="6.17646">
        <ele>90.5</ele>
        <time>2022-07-02T06:15:14Z</time>
      </trkpt>
      <trkpt lat="43.24005" lon="6.17654">
        <ele>90.02</ele>
        <time>2022-07-02T06:15:15Z</time>
      </trkpt>
      <trkpt lat="43.24006" lon="6.17662">
        <ele>90.02</ele>
        <time>2022-07-02T06:15:16Z</time>
      </trkpt>
      <trkpt lat="43.2404" lon="6.17759">
        <ele>86.66</ele>
        <time>2022-07-02T06:15:29Z</time>
      </trkpt>
      <trkpt lat="43.2404" lon="6.17765">
        <ele>86.18</ele>
        <time>2022-07-02T06:15:30Z</time>
      </trkpt>
      <trkpt lat="43.24038" lon="6.1777">
        <ele>85.21</ele>
        <time>2022-07-02T06:15:31Z</time>
      </trkpt>
      <trkpt lat="43.24035" lon="6.17773">
        <ele>84.73</ele>
        <time>2022-07-02T06:15:32Z</time>
      </trkpt>
      <trkpt lat="43.2403" lon="6.17775">
        <ele>83.77</ele>
        <time>2022-07-02T06:15:33Z</time>
      </trkpt>
      <trkpt lat="43.24026" lon="6.17776">
        <ele>83.29</ele>
        <time>2022-07-02T06:15:34Z</time>
      </trkpt>
      <trkpt lat="43.24021" lon="6.17777">
        <ele>82.81</ele>
        <time>2022-07-02T06:15:35Z</time>
      </trkpt>
      <trkpt lat="43.23993" lon="6.17789">
        <ele>80.89</ele>
        <time>2022-07-02T06:15:40Z</time>
      </trkpt>
      <trkpt lat="43.23943" lon="6.1783">
        <ele>79.45</ele>
        <time>2022-07-02T06:15:49Z</time>
      </trkpt>
      <trkpt lat="43.23931" lon="6.17838">
        <ele>79.45</ele>
        <time>2022-07-02T06:15:51Z</time>
      </trkpt>
      <trkpt lat="43.23926" lon="6.17843">
        <ele>79.45</ele>
        <time>2022-07-02T06:15:52Z</time>
      </trkpt>
      <trkpt lat="43.23923" lon="6.17848">
        <ele>79.93</ele>
        <time>2022-07-02T06:15:53Z</time>
      </trkpt>
      <trkpt lat="43.23919" lon="6.17852">
        <ele>80.41</ele>
        <time>2022-07-02T06:15:54Z</time>
      </trkpt>
      <trkpt lat="43.23916" lon="6.17856">
        <ele>80.41</ele>
        <time>2022-07-02T06:15:55Z</time>
      </trkpt>
      <trkpt lat="43.23894" lon="6.17878">
        <ele>84.25</ele>
        <time>2022-07-02T06:16:06Z</time>
      </trkpt>
      <trkpt lat="43.23864" lon="6.17894">
        <ele>89.54</ele>
        <time>2022-07-02T06:16:19Z</time>
      </trkpt>
      <trkpt lat="43.23866" lon="6.17928">
        <ele>92.9</ele>
        <time>2022-07-02T06:16:31Z</time>
      </trkpt>
      <trkpt lat="43.23889" lon="6.17961">
        <ele>96.75</ele>
        <time>2022-07-02T06:16:45Z</time>
      </trkpt>
      <trkpt lat="43.23909" lon="6.1801">
        <ele>97.71</ele>
        <time>2022-07-02T06:17:00Z</time>
      </trkpt>
      <trkpt lat="43.23919" lon="6.18075">
        <ele>102.04</ele>
        <time>2022-07-02T06:17:18Z</time>
      </trkpt>
      <trkpt lat="43.23902" lon="6.18116">
        <ele>103</ele>
        <time>2022-07-02T06:17:30Z</time>
      </trkpt>
      <trkpt lat="43.23879" lon="6.18157">
        <ele>104.92</ele>
        <time>2022-07-02T06:17:45Z</time>
      </trkpt>
      <trkpt lat="43.23871" lon="6.18209">
        <ele>106.84</ele>
        <time>2022-07-02T06:18:01Z</time>
      </trkpt>
      <trkpt lat="43.2387" lon="6.18257">
        <ele>110.21</ele>
        <time>2022-07-02T06:18:15Z</time>
      </trkpt>
      <trkpt lat="43.23868" lon="6.18304">
        <ele>113.09</ele>
        <time>2022-07-02T06:18:29Z</time>
      </trkpt>
      <trkpt lat="43.23868" lon="6.18352">
        <ele>115.98</ele>
        <time>2022-07-02T06:18:43Z</time>
      </trkpt>
      <trkpt lat="43.23874" lon="6.18406">
        <ele>120.78</ele>
        <time>2022-07-02T06:18:59Z</time>
      </trkpt>
      <trkpt lat="43.23887" lon="6.18453">
        <ele>125.59</ele>
        <time>2022-07-02T06:19:14Z</time>
      </trkpt>
      <trkpt lat="43.23901" lon="6.18489">
        <ele>127.99</ele>
        <time>2022-07-02T06:19:26Z</time>
      </trkpt>
      <trkpt lat="43.23904" lon="6.18527">
        <ele>129.92</ele>
        <time>2022-07-02T06:19:36Z</time>
      </trkpt>
      <trkpt lat="43.23904" lon="6.18581">
        <ele>131.84</ele>
        <time>2022-07-02T06:19:52Z</time>
      </trkpt>
      <trkpt lat="43.23918" lon="6.18627">
        <ele>135.2</ele>
        <time>2022-07-02T06:20:06Z</time>
      </trkpt>
      <trkpt lat="43.23936" lon="6.18658">
        <ele>137.13</ele>
        <time>2022-07-02T06:20:18Z</time>
      </trkpt>
      <trkpt lat="43.23972" lon="6.187">
        <ele>139.05</ele>
        <time>2022-07-02T06:20:37Z</time>
      </trkpt>
      <trkpt lat="43.23994" lon="6.18742">
        <ele>142.41</ele>
        <time>2022-07-02T06:20:53Z</time>
      </trkpt>
      <trkpt lat="43.24024" lon="6.18794">
        <ele>143.85</ele>
        <time>2022-07-02T06:21:12Z</time>
      </trkpt>
      <trkpt lat="43.24041" lon="6.18843">
        <ele>148.18</ele>
        <time>2022-07-02T06:21:28Z</time>
      </trkpt>
      <trkpt lat="43.24055" lon="6.18886">
        <ele>152.99</ele>
        <time>2022-07-02T06:21:42Z</time>
      </trkpt>
      <trkpt lat="43.24075" lon="6.18928">
        <ele>156.35</ele>
        <time>2022-07-02T06:21:57Z</time>
      </trkpt>
      <trkpt lat="43.24103" lon="6.18964">
        <ele>158.27</ele>
        <time>2022-07-02T06:22:12Z</time>
      </trkpt>
      <trkpt lat="43.24144" lon="6.19007">
        <ele>160.68</ele>
        <time>2022-07-02T06:22:31Z</time>
      </trkpt>
      <trkpt lat="43.24173" lon="6.19042">
        <ele>163.56</ele>
        <time>2022-07-02T06:22:46Z</time>
      </trkpt>
      <trkpt lat="43.24193" lon="6.1908">
        <ele>166.93</ele>
        <time>2022-07-02T06:23:00Z</time>
      </trkpt>
      <trkpt lat="43.24204" lon="6.19128">
        <ele>166.93</ele>
        <time>2022-07-02T06:23:13Z</time>
      </trkpt>
      <trkpt lat="43.24212" lon="6.19182">
        <ele>172.21</ele>
        <time>2022-07-02T06:23:28Z</time>
      </trkpt>
      <trkpt lat="43.24218" lon="6.1923">
        <ele>174.62</ele>
        <time>2022-07-02T06:23:41Z</time>
      </trkpt>
      <trkpt lat="43.24214" lon="6.19282">
        <ele>176.54</ele>
        <time>2022-07-02T06:23:55Z</time>
      </trkpt>
      <trkpt lat="43.24204" lon="6.19321">
        <ele>179.9</ele>
        <time>2022-07-02T06:24:07Z</time>
      </trkpt>
      <trkpt lat="43.24191" lon="6.1937">
        <ele>183.27</ele>
        <time>2022-07-02T06:24:23Z</time>
      </trkpt>
      <trkpt lat="43.24177" lon="6.19428">
        <ele>185.19</ele>
        <time>2022-07-02T06:24:40Z</time>
      </trkpt>
      <trkpt lat="43.24158" lon="6.19512">
        <ele>187.11</ele>
        <time>2022-07-02T06:25:00Z</time>
      </trkpt>
      <trkpt lat="43.24149" lon="6.19575">
        <ele>189.52</ele>
        <time>2022-07-02T06:25:14Z</time>
      </trkpt>
      <trkpt lat="43.24147" lon="6.19662">
        <ele>191.44</ele>
        <time>2022-07-02T06:25:32Z</time>
      </trkpt>
      <trkpt lat="43.24155" lon="6.19712">
        <ele>192.88</ele>
        <time>2022-07-02T06:25:43Z</time>
      </trkpt>
      <trkpt lat="43.2419" lon="6.19758">
        <ele>192.88</ele>
        <time>2022-07-02T06:25:56Z</time>
      </trkpt>
      <trkpt lat="43.24248" lon="6.19837">
        <ele>192.4</ele>
        <time>2022-07-02T06:26:14Z</time>
      </trkpt>
      <trkpt lat="43.24255" lon="6.19845">
        <ele>192.4</ele>
        <time>2022-07-02T06:26:16Z</time>
      </trkpt>
      <trkpt lat="43.24327" lon="6.19899">
        <ele>188.56</ele>
        <time>2022-07-02T06:26:30Z</time>
      </trkpt>
      <trkpt lat="43.24343" lon="6.19911">
        <ele>187.59</ele>
        <time>2022-07-02T06:26:33Z</time>
      </trkpt>
      <trkpt lat="43.24347" lon="6.19916">
        <ele>188.08</ele>
        <time>2022-07-02T06:26:34Z</time>
      </trkpt>
      <trkpt lat="43.2435" lon="6.19921">
        <ele>188.08</ele>
        <time>2022-07-02T06:26:35Z</time>
      </trkpt>
      <trkpt lat="43.24394" lon="6.19982">
        <ele>185.67</ele>
        <time>2022-07-02T06:26:47Z</time>
      </trkpt>
      <trkpt lat="43.24397" lon="6.19988">
        <ele>185.19</ele>
        <time>2022-07-02T06:26:48Z</time>
      </trkpt>
      <trkpt lat="43.24399" lon="6.19993">
        <ele>185.19</ele>
        <time>2022-07-02T06:26:49Z</time>
      </trkpt>
      <trkpt lat="43.24416" lon="6.20017">
        <ele>184.23</ele>
        <time>2022-07-02T06:26:54Z</time>
      </trkpt>
      <trkpt lat="43.24423" lon="6.20026">
        <ele>183.75</ele>
        <time>2022-07-02T06:26:56Z</time>
      </trkpt>
      <trkpt lat="43.24431" lon="6.20033">
        <ele>183.75</ele>
        <time>2022-07-02T06:26:58Z</time>
      </trkpt>
      <trkpt lat="43.24435" lon="6.20036">
        <ele>183.75</ele>
        <time>2022-07-02T06:26:59Z</time>
      </trkpt>
      <trkpt lat="43.24439" lon="6.2004">
        <ele>183.75</ele>
        <time>2022-07-02T06:27:00Z</time>
      </trkpt>
      <trkpt lat="43.24443" lon="6.20044">
        <ele>183.75</ele>
        <time>2022-07-02T06:27:01Z</time>
      </trkpt>
      <trkpt lat="43.24446" lon="6.2005">
        <ele>185.19</ele>
        <time>2022-07-02T06:27:02Z</time>
      </trkpt>
      <trkpt lat="43.24449" lon="6.20056">
        <ele>185.67</ele>
        <time>2022-07-02T06:27:03Z</time>
      </trkpt>
      <trkpt lat="43.2445" lon="6.20063">
        <ele>186.15</ele>
        <time>2022-07-02T06:27:04Z</time>
      </trkpt>
      <trkpt lat="43.24451" lon="6.20069">
        <ele>186.63</ele>
        <time>2022-07-02T06:27:05Z</time>
      </trkpt>
      <trkpt lat="43.24453" lon="6.201">
        <ele>188.56</ele>
        <time>2022-07-02T06:27:10Z</time>
      </trkpt>
      <trkpt lat="43.24453" lon="6.20106">
        <ele>188.56</ele>
        <time>2022-07-02T06:27:11Z</time>
      </trkpt>
      <trkpt lat="43.24454" lon="6.20117">
        <ele>189.52</ele>
        <time>2022-07-02T06:27:13Z</time>
      </trkpt>
      <trkpt lat="43.24464" lon="6.20178">
        <ele>191.92</ele>
        <time>2022-07-02T06:27:24Z</time>
      </trkpt>
      <trkpt lat="43.24468" lon="6.20189">
        <ele>191.92</ele>
        <time>2022-07-02T06:27:26Z</time>
      </trkpt>
      <trkpt lat="43.2447" lon="6.20195">
        <ele>191.44</ele>
        <time>2022-07-02T06:27:27Z</time>
      </trkpt>
      <trkpt lat="43.24484" lon="6.20244">
        <ele>191.92</ele>
        <time>2022-07-02T06:27:35Z</time>
      </trkpt>
      <trkpt lat="43.24485" lon="6.20249">
        <ele>192.4</ele>
        <time>2022-07-02T06:27:36Z</time>
      </trkpt>
      <trkpt lat="43.24487" lon="6.20255">
        <ele>192.4</ele>
        <time>2022-07-02T06:27:37Z</time>
      </trkpt>
      <trkpt lat="43.24489" lon="6.2026">
        <ele>192.4</ele>
        <time>2022-07-02T06:27:38Z</time>
      </trkpt>
      <trkpt lat="43.24491" lon="6.20266">
        <ele>192.4</ele>
        <time>2022-07-02T06:27:39Z</time>
      </trkpt>
      <trkpt lat="43.24499" lon="6.20288">
        <ele>193.36</ele>
        <time>2022-07-02T06:27:43Z</time>
      </trkpt>
      <trkpt lat="43.24507" lon="6.20301">
        <ele>193.36</ele>
        <time>2022-07-02T06:27:46Z</time>
      </trkpt>
      <trkpt lat="43.2451" lon="6.20305">
        <ele>193.36</ele>
        <time>2022-07-02T06:27:47Z</time>
      </trkpt>
      <trkpt lat="43.24514" lon="6.20308">
        <ele>194.32</ele>
        <time>2022-07-02T06:27:48Z</time>
      </trkpt>
      <trkpt lat="43.24525" lon="6.2032">
        <ele>194.32</ele>
        <time>2022-07-02T06:27:51Z</time>
      </trkpt>
      <trkpt lat="43.24528" lon="6.20325">
        <ele>194.8</ele>
        <time>2022-07-02T06:27:52Z</time>
      </trkpt>
      <trkpt lat="43.24531" lon="6.2033">
        <ele>194.32</ele>
        <time>2022-07-02T06:27:53Z</time>
      </trkpt>
      <trkpt lat="43.24534" lon="6.20335">
        <ele>194.32</ele>
        <time>2022-07-02T06:27:54Z</time>
      </trkpt>
      <trkpt lat="43.24537" lon="6.2034">
        <ele>194.8</ele>
        <time>2022-07-02T06:27:55Z</time>
      </trkpt>
      <trkpt lat="43.24539" lon="6.20345">
        <ele>194.8</ele>
        <time>2022-07-02T06:27:56Z</time>
      </trkpt>
      <trkpt lat="43.24541" lon="6.2035">
        <ele>195.28</ele>
        <time>2022-07-02T06:27:57Z</time>
      </trkpt>
      <trkpt lat="43.24549" lon="6.20391">
        <ele>197.69</ele>
        <time>2022-07-02T06:28:08Z</time>
      </trkpt>
      <trkpt lat="43.24554" lon="6.20423">
        <ele>201.53</ele>
        <time>2022-07-02T06:28:19Z</time>
      </trkpt>
      <trkpt lat="43.24563" lon="6.2047">
        <ele>205.86</ele>
        <time>2022-07-02T06:28:35Z</time>
      </trkpt>
      <trkpt lat="43.24576" lon="6.20512">
        <ele>208.26</ele>
        <time>2022-07-02T06:28:50Z</time>
      </trkpt>
      <trkpt lat="43.24583" lon="6.20549">
        <ele>211.15</ele>
        <time>2022-07-02T06:29:03Z</time>
      </trkpt>
      <trkpt lat="43.24589" lon="6.20597">
        <ele>212.11</ele>
        <time>2022-07-02T06:29:18Z</time>
      </trkpt>
      <trkpt lat="43.24591" lon="6.20617">
        <ele>214.03</ele>
        <time>2022-07-02T06:29:24Z</time>
      </trkpt>
      <trkpt lat="43.24591" lon="6.2062">
        <ele>214.51</ele>
        <time>2022-07-02T06:29:25Z</time>
      </trkpt>
      <trkpt lat="43.24591" lon="6.20623">
        <ele>214.99</ele>
        <time>2022-07-02T06:29:26Z</time>
      </trkpt>
      <trkpt lat="43.24592" lon="6.20626">
        <ele>214.99</ele>
        <time>2022-07-02T06:29:27Z</time>
      </trkpt>
      <trkpt lat="43.24592" lon="6.20629">
        <ele>214.99</ele>
        <time>2022-07-02T06:29:28Z</time>
      </trkpt>
      <trkpt lat="43.24592" lon="6.20631">
        <ele>215.47</ele>
        <time>2022-07-02T06:29:29Z</time>
      </trkpt>
      <trkpt lat="43.24597" lon="6.20678">
        <ele>221.72</ele>
        <time>2022-07-02T06:29:44Z</time>
      </trkpt>
      <trkpt lat="43.24594" lon="6.2073">
        <ele>226.05</ele>
        <time>2022-07-02T06:29:59Z</time>
      </trkpt>
      <trkpt lat="43.24589" lon="6.2079">
        <ele>227.97</ele>
        <time>2022-07-02T06:30:16Z</time>
      </trkpt>
      <trkpt lat="43.24586" lon="6.20845">
        <ele>230.37</ele>
        <time>2022-07-02T06:30:32Z</time>
      </trkpt>
      <trkpt lat="43.24582" lon="6.20892">
        <ele>230.37</ele>
        <time>2022-07-02T06:30:46Z</time>
      </trkpt>
      <trkpt lat="43.24574" lon="6.20932">
        <ele>233.26</ele>
        <time>2022-07-02T06:30:58Z</time>
      </trkpt>
      <trkpt lat="43.24575" lon="6.20951">
        <ele>235.66</ele>
        <time>2022-07-02T06:31:04Z</time>
      </trkpt>
      <trkpt lat="43.24576" lon="6.20953">
        <ele>235.66</ele>
        <time>2022-07-02T06:31:05Z</time>
      </trkpt>
      <trkpt lat="43.24577" lon="6.20956">
        <ele>236.62</ele>
        <time>2022-07-02T06:31:06Z</time>
      </trkpt>
      <trkpt lat="43.24577" lon="6.20958">
        <ele>237.1</ele>
        <time>2022-07-02T06:31:07Z</time>
      </trkpt>
      <trkpt lat="43.24578" lon="6.20961">
        <ele>237.58</ele>
        <time>2022-07-02T06:31:08Z</time>
      </trkpt>
      <trkpt lat="43.24577" lon="6.20981">
        <ele>238.54</ele>
        <time>2022-07-02T06:31:14Z</time>
      </trkpt>
      <trkpt lat="43.24574" lon="6.20983">
        <ele>239.02</ele>
        <time>2022-07-02T06:31:15Z</time>
      </trkpt>
      <trkpt lat="43.24545" lon="6.21021">
        <ele>243.35</ele>
        <time>2022-07-02T06:31:31Z</time>
      </trkpt>
      <trkpt lat="43.24529" lon="6.21079">
        <ele>243.35</ele>
        <time>2022-07-02T06:31:48Z</time>
      </trkpt>
      <trkpt lat="43.24521" lon="6.21127">
        <ele>242.87</ele>
        <time>2022-07-02T06:32:01Z</time>
      </trkpt>
      <trkpt lat="43.24546" lon="6.21159">
        <ele>245.27</ele>
        <time>2022-07-02T06:32:15Z</time>
      </trkpt>
      <trkpt lat="43.24589" lon="6.21171">
        <ele>246.72</ele>
        <time>2022-07-02T06:32:29Z</time>
      </trkpt>
      <trkpt lat="43.24622" lon="6.21203">
        <ele>247.2</ele>
        <time>2022-07-02T06:32:41Z</time>
      </trkpt>
      <trkpt lat="43.24653" lon="6.21258">
        <ele>249.12</ele>
        <time>2022-07-02T06:32:57Z</time>
      </trkpt>
      <trkpt lat="43.24676" lon="6.2131">
        <ele>252.96</ele>
        <time>2022-07-02T06:33:10Z</time>
      </trkpt>
      <trkpt lat="43.24702" lon="6.21357">
        <ele>255.37</ele>
        <time>2022-07-02T06:33:24Z</time>
      </trkpt>
      <trkpt lat="43.24732" lon="6.21415">
        <ele>257.77</ele>
        <time>2022-07-02T06:33:38Z</time>
      </trkpt>
      <trkpt lat="43.24734" lon="6.21419">
        <ele>257.77</ele>
        <time>2022-07-02T06:33:39Z</time>
      </trkpt>
      <trkpt lat="43.24736" lon="6.21423">
        <ele>258.25</ele>
        <time>2022-07-02T06:33:40Z</time>
      </trkpt>
      <trkpt lat="43.24738" lon="6.21428">
        <ele>258.73</ele>
        <time>2022-07-02T06:33:41Z</time>
      </trkpt>
      <trkpt lat="43.2474" lon="6.21432">
        <ele>259.21</ele>
        <time>2022-07-02T06:33:42Z</time>
      </trkpt>
      <trkpt lat="43.24749" lon="6.21473">
        <ele>266.42</ele>
        <time>2022-07-02T06:33:52Z</time>
      </trkpt>
      <trkpt lat="43.24734" lon="6.21501">
        <ele>271.23</ele>
        <time>2022-07-02T06:33:59Z</time>
      </trkpt>
      <trkpt lat="43.24684" lon="6.21543">
        <ele>279.4</ele>
        <time>2022-07-02T06:34:14Z</time>
      </trkpt>
      <trkpt lat="43.24673" lon="6.2155">
        <ele>281.32</ele>
        <time>2022-07-02T06:34:17Z</time>
      </trkpt>
      <trkpt lat="43.24669" lon="6.21553">
        <ele>281.8</ele>
        <time>2022-07-02T06:34:18Z</time>
      </trkpt>
      <trkpt lat="43.24619" lon="6.21604">
        <ele>283.25</ele>
        <time>2022-07-02T06:34:33Z</time>
      </trkpt>
      <trkpt lat="43.24611" lon="6.21644">
        <ele>271.71</ele>
        <time>2022-07-02T06:34:41Z</time>
      </trkpt>
      <trkpt lat="43.24611" lon="6.2165">
        <ele>270.75</ele>
        <time>2022-07-02T06:34:42Z</time>
      </trkpt>
      <trkpt lat="43.24619" lon="6.21729">
        <ele>264.5</ele>
        <time>2022-07-02T06:34:54Z</time>
      </trkpt>
      <trkpt lat="43.24641" lon="6.21814">
        <ele>264.02</ele>
        <time>2022-07-02T06:35:11Z</time>
      </trkpt>
      <trkpt lat="43.2468" lon="6.21851">
        <ele>265.94</ele>
        <time>2022-07-02T06:35:25Z</time>
      </trkpt>
      <trkpt lat="43.24701" lon="6.21909">
        <ele>264.98</ele>
        <time>2022-07-02T06:35:39Z</time>
      </trkpt>
      <trkpt lat="43.24731" lon="6.21975">
        <ele>267.86</ele>
        <time>2022-07-02T06:35:57Z</time>
      </trkpt>
      <trkpt lat="43.24735" lon="6.2202">
        <ele>271.23</ele>
        <time>2022-07-02T06:36:09Z</time>
      </trkpt>
      <trkpt lat="43.24718" lon="6.22072">
        <ele>275.07</ele>
        <time>2022-07-02T06:36:22Z</time>
      </trkpt>
      <trkpt lat="43.24693" lon="6.22116">
        <ele>280.84</ele>
        <time>2022-07-02T06:36:36Z</time>
      </trkpt>
      <trkpt lat="43.24673" lon="6.22169">
        <ele>282.77</ele>
        <time>2022-07-02T06:36:55Z</time>
      </trkpt>
      <trkpt lat="43.24659" lon="6.22196">
        <ele>282.28</ele>
        <time>2022-07-02T06:37:06Z</time>
      </trkpt>
      <trkpt lat="43.24645" lon="6.22227">
        <ele>282.77</ele>
        <time>2022-07-02T06:37:18Z</time>
      </trkpt>
      <trkpt lat="43.24652" lon="6.22255">
        <ele>282.77</ele>
        <time>2022-07-02T06:37:28Z</time>
      </trkpt>
      <trkpt lat="43.2469" lon="6.2225">
        <ele>281.8</ele>
        <time>2022-07-02T06:37:40Z</time>
      </trkpt>
      <trkpt lat="43.24694" lon="6.22249">
        <ele>281.8</ele>
        <time>2022-07-02T06:37:41Z</time>
      </trkpt>
      <trkpt lat="43.24698" lon="6.22248">
        <ele>281.8</ele>
        <time>2022-07-02T06:37:42Z</time>
      </trkpt>
      <trkpt lat="43.24749" lon="6.22258">
        <ele>282.77</ele>
        <time>2022-07-02T06:37:56Z</time>
      </trkpt>
      <trkpt lat="43.24793" lon="6.22258">
        <ele>285.65</ele>
        <time>2022-07-02T06:38:09Z</time>
      </trkpt>
      <trkpt lat="43.24842" lon="6.22272">
        <ele>287.09</ele>
        <time>2022-07-02T06:38:25Z</time>
      </trkpt>
      <trkpt lat="43.24859" lon="6.22298">
        <ele>287.57</ele>
        <time>2022-07-02T06:38:32Z</time>
      </trkpt>
      <trkpt lat="43.2486" lon="6.22303">
        <ele>287.57</ele>
        <time>2022-07-02T06:38:33Z</time>
      </trkpt>
      <trkpt lat="43.24868" lon="6.22333">
        <ele>287.09</ele>
        <time>2022-07-02T06:38:39Z</time>
      </trkpt>
      <trkpt lat="43.24869" lon="6.22338">
        <ele>287.09</ele>
        <time>2022-07-02T06:38:40Z</time>
      </trkpt>
      <trkpt lat="43.2487" lon="6.22344">
        <ele>286.61</ele>
        <time>2022-07-02T06:38:41Z</time>
      </trkpt>
      <trkpt lat="43.24872" lon="6.22349">
        <ele>287.09</ele>
        <time>2022-07-02T06:38:42Z</time>
      </trkpt>
      <trkpt lat="43.24874" lon="6.22354">
        <ele>287.57</ele>
        <time>2022-07-02T06:38:43Z</time>
      </trkpt>
      <trkpt lat="43.24897" lon="6.2243">
        <ele>290.46</ele>
        <time>2022-07-02T06:38:59Z</time>
      </trkpt>
      <trkpt lat="43.24917" lon="6.22497">
        <ele>294.3</ele>
        <time>2022-07-02T06:39:15Z</time>
      </trkpt>
      <trkpt lat="43.24941" lon="6.22551">
        <ele>296.7</ele>
        <time>2022-07-02T06:39:31Z</time>
      </trkpt>
      <trkpt lat="43.24992" lon="6.22606">
        <ele>297.18</ele>
        <time>2022-07-02T06:39:49Z</time>
      </trkpt>
      <trkpt lat="43.25027" lon="6.22658">
        <ele>301.51</ele>
        <time>2022-07-02T06:40:04Z</time>
      </trkpt>
      <trkpt lat="43.25036" lon="6.22741">
        <ele>303.43</ele>
        <time>2022-07-02T06:40:20Z</time>
      </trkpt>
      <trkpt lat="43.25058" lon="6.22819">
        <ele>306.8</ele>
        <time>2022-07-02T06:40:38Z</time>
      </trkpt>
      <trkpt lat="43.2507" lon="6.22879">
        <ele>310.16</ele>
        <time>2022-07-02T06:40:54Z</time>
      </trkpt>
      <trkpt lat="43.2507" lon="6.22882">
        <ele>310.16</ele>
        <time>2022-07-02T06:40:55Z</time>
      </trkpt>
      <trkpt lat="43.25075" lon="6.22911">
        <ele>309.2</ele>
        <time>2022-07-02T06:41:07Z</time>
      </trkpt>
      <trkpt lat="43.25079" lon="6.22918">
        <ele>310.64</ele>
        <time>2022-07-02T06:41:37Z</time>
      </trkpt>
      <trkpt lat="43.25079" lon="6.22922">
        <ele>310.64</ele>
        <time>2022-07-02T06:41:38Z</time>
      </trkpt>
      <trkpt lat="43.25079" lon="6.22962">
        <ele>308.72</ele>
        <time>2022-07-02T06:41:45Z</time>
      </trkpt>
      <trkpt lat="43.25081" lon="6.2297">
        <ele>308.24</ele>
        <time>2022-07-02T06:41:46Z</time>
      </trkpt>
      <trkpt lat="43.25089" lon="6.23013">
        <ele>306.32</ele>
        <time>2022-07-02T06:41:51Z</time>
      </trkpt>
      <trkpt lat="43.25092" lon="6.2302">
        <ele>306.32</ele>
        <time>2022-07-02T06:41:52Z</time>
      </trkpt>
      <trkpt lat="43.25096" lon="6.23027">
        <ele>305.84</ele>
        <time>2022-07-02T06:41:53Z</time>
      </trkpt>
      <trkpt lat="43.25114" lon="6.23053">
        <ele>303.43</ele>
        <time>2022-07-02T06:41:57Z</time>
      </trkpt>
      <trkpt lat="43.25118" lon="6.23061">
        <ele>302.95</ele>
        <time>2022-07-02T06:41:58Z</time>
      </trkpt>
      <trkpt lat="43.25125" lon="6.23079">
        <ele>300.55</ele>
        <time>2022-07-02T06:42:00Z</time>
      </trkpt>
      <trkpt lat="43.2513" lon="6.23087">
        <ele>299.59</ele>
        <time>2022-07-02T06:42:01Z</time>
      </trkpt>
      <trkpt lat="43.25135" lon="6.23095">
        <ele>298.63</ele>
        <time>2022-07-02T06:42:02Z</time>
      </trkpt>
      <trkpt lat="43.2514" lon="6.23101">
        <ele>297.18</ele>
        <time>2022-07-02T06:42:03Z</time>
      </trkpt>
      <trkpt lat="43.25146" lon="6.23106">
        <ele>296.22</ele>
        <time>2022-07-02T06:42:04Z</time>
      </trkpt>
      <trkpt lat="43.25157" lon="6.23118">
        <ele>295.74</ele>
        <time>2022-07-02T06:42:06Z</time>
      </trkpt>
      <trkpt lat="43.25162" lon="6.23125">
        <ele>295.74</ele>
        <time>2022-07-02T06:42:07Z</time>
      </trkpt>
      <trkpt lat="43.25167" lon="6.23135">
        <ele>295.26</ele>
        <time>2022-07-02T06:42:08Z</time>
      </trkpt>
      <trkpt lat="43.25171" lon="6.23145">
        <ele>294.78</ele>
        <time>2022-07-02T06:42:09Z</time>
      </trkpt>
      <trkpt lat="43.25176" lon="6.23154">
        <ele>294.78</ele>
        <time>2022-07-02T06:42:10Z</time>
      </trkpt>
      <trkpt lat="43.25184" lon="6.23171">
        <ele>293.82</ele>
        <time>2022-07-02T06:42:12Z</time>
      </trkpt>
      <trkpt lat="43.25197" lon="6.23207">
        <ele>291.42</ele>
        <time>2022-07-02T06:42:16Z</time>
      </trkpt>
      <trkpt lat="43.25203" lon="6.23214">
        <ele>291.9</ele>
        <time>2022-07-02T06:42:17Z</time>
      </trkpt>
      <trkpt lat="43.25233" lon="6.23251">
        <ele>289.97</ele>
        <time>2022-07-02T06:42:24Z</time>
      </trkpt>
      <trkpt lat="43.25238" lon="6.23255">
        <ele>289.97</ele>
        <time>2022-07-02T06:42:25Z</time>
      </trkpt>
      <trkpt lat="43.25242" lon="6.2326">
        <ele>289.97</ele>
        <time>2022-07-02T06:42:26Z</time>
      </trkpt>
      <trkpt lat="43.25277" lon="6.23317">
        <ele>290.46</ele>
        <time>2022-07-02T06:42:36Z</time>
      </trkpt>
      <trkpt lat="43.25282" lon="6.23333">
        <ele>289.97</ele>
        <time>2022-07-02T06:42:38Z</time>
      </trkpt>
      <trkpt lat="43.25283" lon="6.23341">
        <ele>289.97</ele>
        <time>2022-07-02T06:42:39Z</time>
      </trkpt>
      <trkpt lat="43.25284" lon="6.2335">
        <ele>289.97</ele>
        <time>2022-07-02T06:42:40Z</time>
      </trkpt>
      <trkpt lat="43.25284" lon="6.23359">
        <ele>289.97</ele>
        <time>2022-07-02T06:42:41Z</time>
      </trkpt>
      <trkpt lat="43.25283" lon="6.23367">
        <ele>289.97</ele>
        <time>2022-07-02T06:42:42Z</time>
      </trkpt>
      <trkpt lat="43.25282" lon="6.23384">
        <ele>289.97</ele>
        <time>2022-07-02T06:42:44Z</time>
      </trkpt>
      <trkpt lat="43.2528" lon="6.23392">
        <ele>289.97</ele>
        <time>2022-07-02T06:42:45Z</time>
      </trkpt>
      <trkpt lat="43.25278" lon="6.234">
        <ele>289.49</ele>
        <time>2022-07-02T06:42:46Z</time>
      </trkpt>
      <trkpt lat="43.25275" lon="6.23407">
        <ele>289.49</ele>
        <time>2022-07-02T06:42:47Z</time>
      </trkpt>
      <trkpt lat="43.25272" lon="6.23413">
        <ele>289.01</ele>
        <time>2022-07-02T06:42:48Z</time>
      </trkpt>
      <trkpt lat="43.25267" lon="6.23419">
        <ele>289.01</ele>
        <time>2022-07-02T06:42:49Z</time>
      </trkpt>
      <trkpt lat="43.25263" lon="6.23425">
        <ele>289.01</ele>
        <time>2022-07-02T06:42:50Z</time>
      </trkpt>
      <trkpt lat="43.25238" lon="6.23459">
        <ele>287.57</ele>
        <time>2022-07-02T06:42:56Z</time>
      </trkpt>
      <trkpt lat="43.25233" lon="6.23463">
        <ele>287.57</ele>
        <time>2022-07-02T06:42:57Z</time>
      </trkpt>
      <trkpt lat="43.25223" lon="6.23471">
        <ele>287.09</ele>
        <time>2022-07-02T06:42:59Z</time>
      </trkpt>
      <trkpt lat="43.25219" lon="6.23476">
        <ele>287.09</ele>
        <time>2022-07-02T06:43:00Z</time>
      </trkpt>
      <trkpt lat="43.25216" lon="6.23481">
        <ele>286.61</ele>
        <time>2022-07-02T06:43:01Z</time>
      </trkpt>
      <trkpt lat="43.25213" lon="6.23487">
        <ele>286.61</ele>
        <time>2022-07-02T06:43:02Z</time>
      </trkpt>
      <trkpt lat="43.25212" lon="6.23494">
        <ele>286.61</ele>
        <time>2022-07-02T06:43:03Z</time>
      </trkpt>
      <trkpt lat="43.25211" lon="6.23501">
        <ele>286.61</ele>
        <time>2022-07-02T06:43:04Z</time>
      </trkpt>
      <trkpt lat="43.2521" lon="6.23509">
        <ele>286.61</ele>
        <time>2022-07-02T06:43:05Z</time>
      </trkpt>
      <trkpt lat="43.25211" lon="6.23517">
        <ele>286.61</ele>
        <time>2022-07-02T06:43:06Z</time>
      </trkpt>
      <trkpt lat="43.2521" lon="6.23538">
        <ele>286.13</ele>
        <time>2022-07-02T06:43:09Z</time>
      </trkpt>
      <trkpt lat="43.25208" lon="6.23544">
        <ele>285.65</ele>
        <time>2022-07-02T06:43:10Z</time>
      </trkpt>
      <trkpt lat="43.25199" lon="6.23568">
        <ele>285.17</ele>
        <time>2022-07-02T06:43:14Z</time>
      </trkpt>
      <trkpt lat="43.25197" lon="6.23575">
        <ele>284.69</ele>
        <time>2022-07-02T06:43:15Z</time>
      </trkpt>
      <trkpt lat="43.25195" lon="6.23581">
        <ele>284.69</ele>
        <time>2022-07-02T06:43:16Z</time>
      </trkpt>
      <trkpt lat="43.25196" lon="6.23587">
        <ele>284.69</ele>
        <time>2022-07-02T06:43:17Z</time>
      </trkpt>
      <trkpt lat="43.25198" lon="6.23594">
        <ele>285.17</ele>
        <time>2022-07-02T06:43:18Z</time>
      </trkpt>
      <trkpt lat="43.252" lon="6.23598">
        <ele>285.17</ele>
        <time>2022-07-02T06:43:19Z</time>
      </trkpt>
      <trkpt lat="43.25202" lon="6.23601">
        <ele>285.65</ele>
        <time>2022-07-02T06:43:20Z</time>
      </trkpt>
      <trkpt lat="43.25205" lon="6.23604">
        <ele>286.13</ele>
        <time>2022-07-02T06:43:21Z</time>
      </trkpt>
      <trkpt lat="43.25209" lon="6.23607">
        <ele>286.61</ele>
        <time>2022-07-02T06:43:22Z</time>
      </trkpt>
      <trkpt lat="43.25279" lon="6.23643">
        <ele>288.05</ele>
        <time>2022-07-02T06:43:34Z</time>
      </trkpt>
      <trkpt lat="43.25309" lon="6.23667">
        <ele>286.61</ele>
        <time>2022-07-02T06:43:39Z</time>
      </trkpt>
      <trkpt lat="43.25334" lon="6.23699">
        <ele>285.17</ele>
        <time>2022-07-02T06:43:44Z</time>
      </trkpt>
      <trkpt lat="43.25338" lon="6.23706">
        <ele>284.69</ele>
        <time>2022-07-02T06:43:45Z</time>
      </trkpt>
      <trkpt lat="43.25341" lon="6.23715">
        <ele>285.17</ele>
        <time>2022-07-02T06:43:46Z</time>
      </trkpt>
      <trkpt lat="43.25344" lon="6.23723">
        <ele>284.69</ele>
        <time>2022-07-02T06:43:47Z</time>
      </trkpt>
      <trkpt lat="43.25346" lon="6.23731">
        <ele>284.21</ele>
        <time>2022-07-02T06:43:48Z</time>
      </trkpt>
      <trkpt lat="43.25348" lon="6.2374">
        <ele>284.69</ele>
        <time>2022-07-02T06:43:49Z</time>
      </trkpt>
      <trkpt lat="43.2535" lon="6.23749">
        <ele>284.69</ele>
        <time>2022-07-02T06:43:50Z</time>
      </trkpt>
      <trkpt lat="43.25352" lon="6.23758">
        <ele>284.21</ele>
        <time>2022-07-02T06:43:51Z</time>
      </trkpt>
      <trkpt lat="43.25363" lon="6.23884">
        <ele>280.84</ele>
        <time>2022-07-02T06:44:05Z</time>
      </trkpt>
      <trkpt lat="43.25361" lon="6.23892">
        <ele>280.36</ele>
        <time>2022-07-02T06:44:06Z</time>
      </trkpt>
      <trkpt lat="43.25358" lon="6.239">
        <ele>280.36</ele>
        <time>2022-07-02T06:44:07Z</time>
      </trkpt>
      <trkpt lat="43.25354" lon="6.23907">
        <ele>280.36</ele>
        <time>2022-07-02T06:44:08Z</time>
      </trkpt>
      <trkpt lat="43.25349" lon="6.23912">
        <ele>280.36</ele>
        <time>2022-07-02T06:44:09Z</time>
      </trkpt>
      <trkpt lat="43.25344" lon="6.23917">
        <ele>280.36</ele>
        <time>2022-07-02T06:44:10Z</time>
      </trkpt>
      <trkpt lat="43.25338" lon="6.2392">
        <ele>280.36</ele>
        <time>2022-07-02T06:44:11Z</time>
      </trkpt>
      <trkpt lat="43.25331" lon="6.23922">
        <ele>280.36</ele>
        <time>2022-07-02T06:44:12Z</time>
      </trkpt>
      <trkpt lat="43.25287" lon="6.23938">
        <ele>280.36</ele>
        <time>2022-07-02T06:44:20Z</time>
      </trkpt>
      <trkpt lat="43.25283" lon="6.23941">
        <ele>280.36</ele>
        <time>2022-07-02T06:44:21Z</time>
      </trkpt>
      <trkpt lat="43.25281" lon="6.23946">
        <ele>280.36</ele>
        <time>2022-07-02T06:44:22Z</time>
      </trkpt>
      <trkpt lat="43.25281" lon="6.23951">
        <ele>280.36</ele>
        <time>2022-07-02T06:44:23Z</time>
      </trkpt>
      <trkpt lat="43.25283" lon="6.23956">
        <ele>280.84</ele>
        <time>2022-07-02T06:44:24Z</time>
      </trkpt>
      <trkpt lat="43.25286" lon="6.23961">
        <ele>281.32</ele>
        <time>2022-07-02T06:44:25Z</time>
      </trkpt>
      <trkpt lat="43.25289" lon="6.23967">
        <ele>281.8</ele>
        <time>2022-07-02T06:44:26Z</time>
      </trkpt>
      <trkpt lat="43.25296" lon="6.23978">
        <ele>282.28</ele>
        <time>2022-07-02T06:44:28Z</time>
      </trkpt>
      <trkpt lat="43.25297" lon="6.23985">
        <ele>282.77</ele>
        <time>2022-07-02T06:44:29Z</time>
      </trkpt>
      <trkpt lat="43.25299" lon="6.23992">
        <ele>282.77</ele>
        <time>2022-07-02T06:44:30Z</time>
      </trkpt>
      <trkpt lat="43.25299" lon="6.23999">
        <ele>282.77</ele>
        <time>2022-07-02T06:44:31Z</time>
      </trkpt>
      <trkpt lat="43.25298" lon="6.24006">
        <ele>283.25</ele>
        <time>2022-07-02T06:44:32Z</time>
      </trkpt>
      <trkpt lat="43.25297" lon="6.24013">
        <ele>283.73</ele>
        <time>2022-07-02T06:44:33Z</time>
      </trkpt>
      <trkpt lat="43.25296" lon="6.24042">
        <ele>284.69</ele>
        <time>2022-07-02T06:44:37Z</time>
      </trkpt>
      <trkpt lat="43.25297" lon="6.24049">
        <ele>285.17</ele>
        <time>2022-07-02T06:44:38Z</time>
      </trkpt>
      <trkpt lat="43.25297" lon="6.24056">
        <ele>285.65</ele>
        <time>2022-07-02T06:44:39Z</time>
      </trkpt>
      <trkpt lat="43.25297" lon="6.24062">
        <ele>286.13</ele>
        <time>2022-07-02T06:44:40Z</time>
      </trkpt>
      <trkpt lat="43.25297" lon="6.24068">
        <ele>286.61</ele>
        <time>2022-07-02T06:44:41Z</time>
      </trkpt>
      <trkpt lat="43.25298" lon="6.24074">
        <ele>286.61</ele>
        <time>2022-07-02T06:44:42Z</time>
      </trkpt>
      <trkpt lat="43.25299" lon="6.2408">
        <ele>287.09</ele>
        <time>2022-07-02T06:44:43Z</time>
      </trkpt>
      <trkpt lat="43.25303" lon="6.24085">
        <ele>287.57</ele>
        <time>2022-07-02T06:44:44Z</time>
      </trkpt>
      <trkpt lat="43.25308" lon="6.24087">
        <ele>288.05</ele>
        <time>2022-07-02T06:44:45Z</time>
      </trkpt>
      <trkpt lat="43.25313" lon="6.24089">
        <ele>288.53</ele>
        <time>2022-07-02T06:44:46Z</time>
      </trkpt>
      <trkpt lat="43.25318" lon="6.24091">
        <ele>289.01</ele>
        <time>2022-07-02T06:44:47Z</time>
      </trkpt>
      <trkpt lat="43.25323" lon="6.24095">
        <ele>289.01</ele>
        <time>2022-07-02T06:44:48Z</time>
      </trkpt>
      <trkpt lat="43.25329" lon="6.24099">
        <ele>289.01</ele>
        <time>2022-07-02T06:44:49Z</time>
      </trkpt>
      <trkpt lat="43.25335" lon="6.24104">
        <ele>289.01</ele>
        <time>2022-07-02T06:44:50Z</time>
      </trkpt>
      <trkpt lat="43.25339" lon="6.24109">
        <ele>289.49</ele>
        <time>2022-07-02T06:44:51Z</time>
      </trkpt>
      <trkpt lat="43.25344" lon="6.24115">
        <ele>289.49</ele>
        <time>2022-07-02T06:44:52Z</time>
      </trkpt>
      <trkpt lat="43.25349" lon="6.24122">
        <ele>289.49</ele>
        <time>2022-07-02T06:44:53Z</time>
      </trkpt>
      <trkpt lat="43.25353" lon="6.24129">
        <ele>289.49</ele>
        <time>2022-07-02T06:44:54Z</time>
      </trkpt>
      <trkpt lat="43.25355" lon="6.24138">
        <ele>289.01</ele>
        <time>2022-07-02T06:44:55Z</time>
      </trkpt>
      <trkpt lat="43.25358" lon="6.24147">
        <ele>288.53</ele>
        <time>2022-07-02T06:44:56Z</time>
      </trkpt>
      <trkpt lat="43.25359" lon="6.24156">
        <ele>288.05</ele>
        <time>2022-07-02T06:44:57Z</time>
      </trkpt>
      <trkpt lat="43.2536" lon="6.24165">
        <ele>287.57</ele>
        <time>2022-07-02T06:44:58Z</time>
      </trkpt>
      <trkpt lat="43.25361" lon="6.24175">
        <ele>286.61</ele>
        <time>2022-07-02T06:44:59Z</time>
      </trkpt>
      <trkpt lat="43.25369" lon="6.24283">
        <ele>278.92</ele>
        <time>2022-07-02T06:45:09Z</time>
      </trkpt>
      <trkpt lat="43.25366" lon="6.24303">
        <ele>277.48</ele>
        <time>2022-07-02T06:45:11Z</time>
      </trkpt>
      <trkpt lat="43.25364" lon="6.24312">
        <ele>276.52</ele>
        <time>2022-07-02T06:45:12Z</time>
      </trkpt>
      <trkpt lat="43.2536" lon="6.24322">
        <ele>276.04</ele>
        <time>2022-07-02T06:45:13Z</time>
      </trkpt>
      <trkpt lat="43.25352" lon="6.2434">
        <ele>274.59</ele>
        <time>2022-07-02T06:45:15Z</time>
      </trkpt>
      <trkpt lat="43.25341" lon="6.24364">
        <ele>273.15</ele>
        <time>2022-07-02T06:45:18Z</time>
      </trkpt>
      <trkpt lat="43.2534" lon="6.2437">
        <ele>272.19</ele>
        <time>2022-07-02T06:45:19Z</time>
      </trkpt>
      <trkpt lat="43.25343" lon="6.24377">
        <ele>272.19</ele>
        <time>2022-07-02T06:45:20Z</time>
      </trkpt>
      <trkpt lat="43.25347" lon="6.24382">
        <ele>272.19</ele>
        <time>2022-07-02T06:45:21Z</time>
      </trkpt>
      <trkpt lat="43.25351" lon="6.24384">
        <ele>272.19</ele>
        <time>2022-07-02T06:45:22Z</time>
      </trkpt>
      <trkpt lat="43.25356" lon="6.24386">
        <ele>272.67</ele>
        <time>2022-07-02T06:45:23Z</time>
      </trkpt>
      <trkpt lat="43.25361" lon="6.24387">
        <ele>272.67</ele>
        <time>2022-07-02T06:45:24Z</time>
      </trkpt>
      <trkpt lat="43.25365" lon="6.24389">
        <ele>272.67</ele>
        <time>2022-07-02T06:45:25Z</time>
      </trkpt>
      <trkpt lat="43.2537" lon="6.24392">
        <ele>272.67</ele>
        <time>2022-07-02T06:45:26Z</time>
      </trkpt>
      <trkpt lat="43.25375" lon="6.24395">
        <ele>273.15</ele>
        <time>2022-07-02T06:45:27Z</time>
      </trkpt>
      <trkpt lat="43.2538" lon="6.24399">
        <ele>273.15</ele>
        <time>2022-07-02T06:45:28Z</time>
      </trkpt>
      <trkpt lat="43.25384" lon="6.24404">
        <ele>273.15</ele>
        <time>2022-07-02T06:45:29Z</time>
      </trkpt>
      <trkpt lat="43.25394" lon="6.24413">
        <ele>273.15</ele>
        <time>2022-07-02T06:45:31Z</time>
      </trkpt>
      <trkpt lat="43.25399" lon="6.2442">
        <ele>273.15</ele>
        <time>2022-07-02T06:45:32Z</time>
      </trkpt>
      <trkpt lat="43.25404" lon="6.24428">
        <ele>272.67</ele>
        <time>2022-07-02T06:45:33Z</time>
      </trkpt>
      <trkpt lat="43.25409" lon="6.24436">
        <ele>272.19</ele>
        <time>2022-07-02T06:45:34Z</time>
      </trkpt>
      <trkpt lat="43.25412" lon="6.24445">
        <ele>272.19</ele>
        <time>2022-07-02T06:45:35Z</time>
      </trkpt>
      <trkpt lat="43.25415" lon="6.24456">
        <ele>271.23</ele>
        <time>2022-07-02T06:45:36Z</time>
      </trkpt>
      <trkpt lat="43.25458" lon="6.24561">
        <ele>264.5</ele>
        <time>2022-07-02T06:45:46Z</time>
      </trkpt>
      <trkpt lat="43.25466" lon="6.24583">
        <ele>263.06</ele>
        <time>2022-07-02T06:45:49Z</time>
      </trkpt>
      <trkpt lat="43.25464" lon="6.24589">
        <ele>262.58</ele>
        <time>2022-07-02T06:45:50Z</time>
      </trkpt>
      <trkpt lat="43.25463" lon="6.24596">
        <ele>262.1</ele>
        <time>2022-07-02T06:45:51Z</time>
      </trkpt>
      <trkpt lat="43.25463" lon="6.24602">
        <ele>261.62</ele>
        <time>2022-07-02T06:45:52Z</time>
      </trkpt>
      <trkpt lat="43.25463" lon="6.24609">
        <ele>261.62</ele>
        <time>2022-07-02T06:45:53Z</time>
      </trkpt>
      <trkpt lat="43.25464" lon="6.24615">
        <ele>262.1</ele>
        <time>2022-07-02T06:45:54Z</time>
      </trkpt>
      <trkpt lat="43.25465" lon="6.24621">
        <ele>262.1</ele>
        <time>2022-07-02T06:45:55Z</time>
      </trkpt>
      <trkpt lat="43.25466" lon="6.24626">
        <ele>262.58</ele>
        <time>2022-07-02T06:45:56Z</time>
      </trkpt>
      <trkpt lat="43.25467" lon="6.24631">
        <ele>262.58</ele>
        <time>2022-07-02T06:45:57Z</time>
      </trkpt>
      <trkpt lat="43.25469" lon="6.24678">
        <ele>264.98</ele>
        <time>2022-07-02T06:46:08Z</time>
      </trkpt>
      <trkpt lat="43.25471" lon="6.2473">
        <ele>264.98</ele>
        <time>2022-07-02T06:46:22Z</time>
      </trkpt>
      <trkpt lat="43.25472" lon="6.24759">
        <ele>264.98</ele>
        <time>2022-07-02T06:46:30Z</time>
      </trkpt>
      <trkpt lat="43.25471" lon="6.24763">
        <ele>265.46</ele>
        <time>2022-07-02T06:46:31Z</time>
      </trkpt>
      <trkpt lat="43.25469" lon="6.24767">
        <ele>264.98</ele>
        <time>2022-07-02T06:46:32Z</time>
      </trkpt>
      <trkpt lat="43.25468" lon="6.2477">
        <ele>264.98</ele>
        <time>2022-07-02T06:46:33Z</time>
      </trkpt>
      <trkpt lat="43.25465" lon="6.24773">
        <ele>264.98</ele>
        <time>2022-07-02T06:46:34Z</time>
      </trkpt>
      <trkpt lat="43.25463" lon="6.24775">
        <ele>265.46</ele>
        <time>2022-07-02T06:46:35Z</time>
      </trkpt>
      <trkpt lat="43.25461" lon="6.24778">
        <ele>265.94</ele>
        <time>2022-07-02T06:46:36Z</time>
      </trkpt>
      <trkpt lat="43.25459" lon="6.2478">
        <ele>266.42</ele>
        <time>2022-07-02T06:46:37Z</time>
      </trkpt>
      <trkpt lat="43.25456" lon="6.24782">
        <ele>266.42</ele>
        <time>2022-07-02T06:46:38Z</time>
      </trkpt>
      <trkpt lat="43.25453" lon="6.24783">
        <ele>266.42</ele>
        <time>2022-07-02T06:46:39Z</time>
      </trkpt>
      <trkpt lat="43.2545" lon="6.24784">
        <ele>266.42</ele>
        <time>2022-07-02T06:46:40Z</time>
      </trkpt>
      <trkpt lat="43.2541" lon="6.24799">
        <ele>266.9</ele>
        <time>2022-07-02T06:46:57Z</time>
      </trkpt>
      <trkpt lat="43.25375" lon="6.24821">
        <ele>269.79</ele>
        <time>2022-07-02T06:47:14Z</time>
      </trkpt>
      <trkpt lat="43.25347" lon="6.24842">
        <ele>273.15</ele>
        <time>2022-07-02T06:47:28Z</time>
      </trkpt>
      <trkpt lat="43.25324" lon="6.24873">
        <ele>278.92</ele>
        <time>2022-07-02T06:47:44Z</time>
      </trkpt>
      <trkpt lat="43.25325" lon="6.24876">
        <ele>279.4</ele>
        <time>2022-07-02T06:47:45Z</time>
      </trkpt>
      <trkpt lat="43.25329" lon="6.24882">
        <ele>280.84</ele>
        <time>2022-07-02T06:47:48Z</time>
      </trkpt>
      <trkpt lat="43.25331" lon="6.24883">
        <ele>281.32</ele>
        <time>2022-07-02T06:47:49Z</time>
      </trkpt>
      <trkpt lat="43.25334" lon="6.24884">
        <ele>281.8</ele>
        <time>2022-07-02T06:47:50Z</time>
      </trkpt>
      <trkpt lat="43.25336" lon="6.24884">
        <ele>282.28</ele>
        <time>2022-07-02T06:47:51Z</time>
      </trkpt>
      <trkpt lat="43.25338" lon="6.24884">
        <ele>282.77</ele>
        <time>2022-07-02T06:47:52Z</time>
      </trkpt>
      <trkpt lat="43.2534" lon="6.24884">
        <ele>282.77</ele>
        <time>2022-07-02T06:47:53Z</time>
      </trkpt>
      <trkpt lat="43.25373" lon="6.24891">
        <ele>289.49</ele>
        <time>2022-07-02T06:48:08Z</time>
      </trkpt>
      <trkpt lat="43.25408" lon="6.24897">
        <ele>295.26</ele>
        <time>2022-07-02T06:48:22Z</time>
      </trkpt>
      <trkpt lat="43.25445" lon="6.24917">
        <ele>298.63</ele>
        <time>2022-07-02T06:48:39Z</time>
      </trkpt>
      <trkpt lat="43.2547" lon="6.24958">
        <ele>297.18</ele>
        <time>2022-07-02T06:48:55Z</time>
      </trkpt>
      <trkpt lat="43.25474" lon="6.25011">
        <ele>297.67</ele>
        <time>2022-07-02T06:49:10Z</time>
      </trkpt>
      <trkpt lat="43.25475" lon="6.25062">
        <ele>298.63</ele>
        <time>2022-07-02T06:49:25Z</time>
      </trkpt>
      <trkpt lat="43.2548" lon="6.25115">
        <ele>303.91</ele>
        <time>2022-07-02T06:49:42Z</time>
      </trkpt>
      <trkpt lat="43.25481" lon="6.25162">
        <ele>305.36</ele>
        <time>2022-07-02T06:49:57Z</time>
      </trkpt>
      <trkpt lat="43.25475" lon="6.25203">
        <ele>309.68</ele>
        <time>2022-07-02T06:50:11Z</time>
      </trkpt>
      <trkpt lat="43.25498" lon="6.25218">
        <ele>311.6</ele>
        <time>2022-07-02T06:50:21Z</time>
      </trkpt>
      <trkpt lat="43.25529" lon="6.25254">
        <ele>314.97</ele>
        <time>2022-07-02T06:50:36Z</time>
      </trkpt>
      <trkpt lat="43.25532" lon="6.25293">
        <ele>314.97</ele>
        <time>2022-07-02T06:50:50Z</time>
      </trkpt>
      <trkpt lat="43.25516" lon="6.25326">
        <ele>315.93</ele>
        <time>2022-07-02T06:51:02Z</time>
      </trkpt>
      <trkpt lat="43.25517" lon="6.2533">
        <ele>315.93</ele>
        <time>2022-07-02T06:51:03Z</time>
      </trkpt>
      <trkpt lat="43.25518" lon="6.25334">
        <ele>315.93</ele>
        <time>2022-07-02T06:51:04Z</time>
      </trkpt>
      <trkpt lat="43.25519" lon="6.25338">
        <ele>316.41</ele>
        <time>2022-07-02T06:51:05Z</time>
      </trkpt>
      <trkpt lat="43.25521" lon="6.2534">
        <ele>316.41</ele>
        <time>2022-07-02T06:51:06Z</time>
      </trkpt>
      <trkpt lat="43.25523" lon="6.25342">
        <ele>316.41</ele>
        <time>2022-07-02T06:51:07Z</time>
      </trkpt>
      <trkpt lat="43.25526" lon="6.25344">
        <ele>316.41</ele>
        <time>2022-07-02T06:51:08Z</time>
      </trkpt>
      <trkpt lat="43.25528" lon="6.25345">
        <ele>316.41</ele>
        <time>2022-07-02T06:51:09Z</time>
      </trkpt>
      <trkpt lat="43.25566" lon="6.25356">
        <ele>318.81</ele>
        <time>2022-07-02T06:51:23Z</time>
      </trkpt>
      <trkpt lat="43.25599" lon="6.25392">
        <ele>321.22</ele>
        <time>2022-07-02T06:51:38Z</time>
      </trkpt>
      <trkpt lat="43.25596" lon="6.25428">
        <ele>323.62</ele>
        <time>2022-07-02T06:51:50Z</time>
      </trkpt>
      <trkpt lat="43.25579" lon="6.25471">
        <ele>326.5</ele>
        <time>2022-07-02T06:52:04Z</time>
      </trkpt>
      <trkpt lat="43.25565" lon="6.25517">
        <ele>330.83</ele>
        <time>2022-07-02T06:52:20Z</time>
      </trkpt>
      <trkpt lat="43.2554" lon="6.25555">
        <ele>334.68</ele>
        <time>2022-07-02T06:52:35Z</time>
      </trkpt>
      <trkpt lat="43.25522" lon="6.25582">
        <ele>337.08</ele>
        <time>2022-07-02T06:52:48Z</time>
      </trkpt>
      <trkpt lat="43.25539" lon="6.2562">
        <ele>339</ele>
        <time>2022-07-02T06:53:00Z</time>
      </trkpt>
      <trkpt lat="43.25532" lon="6.25666">
        <ele>340.92</ele>
        <time>2022-07-02T06:53:13Z</time>
      </trkpt>
      <trkpt lat="43.25526" lon="6.25692">
        <ele>341.41</ele>
        <time>2022-07-02T06:53:20Z</time>
      </trkpt>
      <trkpt lat="43.25527" lon="6.25696">
        <ele>341.41</ele>
        <time>2022-07-02T06:53:21Z</time>
      </trkpt>
      <trkpt lat="43.25528" lon="6.257">
        <ele>341.41</ele>
        <time>2022-07-02T06:53:22Z</time>
      </trkpt>
      <trkpt lat="43.2553" lon="6.25703">
        <ele>341.41</ele>
        <time>2022-07-02T06:53:23Z</time>
      </trkpt>
      <trkpt lat="43.25532" lon="6.25705">
        <ele>341.41</ele>
        <time>2022-07-02T06:53:24Z</time>
      </trkpt>
      <trkpt lat="43.25535" lon="6.25706">
        <ele>341.41</ele>
        <time>2022-07-02T06:53:25Z</time>
      </trkpt>
      <trkpt lat="43.25538" lon="6.25705">
        <ele>341.41</ele>
        <time>2022-07-02T06:53:26Z</time>
      </trkpt>
      <trkpt lat="43.25541" lon="6.25704">
        <ele>341.41</ele>
        <time>2022-07-02T06:53:27Z</time>
      </trkpt>
      <trkpt lat="43.25544" lon="6.25702">
        <ele>341.41</ele>
        <time>2022-07-02T06:53:28Z</time>
      </trkpt>
      <trkpt lat="43.25587" lon="6.25683">
        <ele>340.92</ele>
        <time>2022-07-02T06:53:42Z</time>
      </trkpt>
      <trkpt lat="43.2563" lon="6.25678">
        <ele>343.81</ele>
        <time>2022-07-02T06:53:58Z</time>
      </trkpt>
      <trkpt lat="43.25651" lon="6.25716">
        <ele>346.21</ele>
        <time>2022-07-02T06:54:10Z</time>
      </trkpt>
      <trkpt lat="43.25669" lon="6.25764">
        <ele>350.54</ele>
        <time>2022-07-02T06:54:25Z</time>
      </trkpt>
      <trkpt lat="43.25692" lon="6.2581">
        <ele>353.9</ele>
        <time>2022-07-02T06:54:42Z</time>
      </trkpt>
      <trkpt lat="43.25707" lon="6.25862">
        <ele>357.75</ele>
        <time>2022-07-02T06:54:59Z</time>
      </trkpt>
      <trkpt lat="43.25716" lon="6.25902">
        <ele>362.07</ele>
        <time>2022-07-02T06:55:12Z</time>
      </trkpt>
      <trkpt lat="43.25735" lon="6.25951">
        <ele>370.24</ele>
        <time>2022-07-02T06:55:29Z</time>
      </trkpt>
      <trkpt lat="43.25749" lon="6.25997">
        <ele>375.53</ele>
        <time>2022-07-02T06:55:42Z</time>
      </trkpt>
      <trkpt lat="43.25755" lon="6.26052">
        <ele>375.05</ele>
        <time>2022-07-02T06:55:56Z</time>
      </trkpt>
      <trkpt lat="43.25754" lon="6.26091">
        <ele>375.53</ele>
        <time>2022-07-02T06:56:08Z</time>
      </trkpt>
      <trkpt lat="43.25753" lon="6.26158">
        <ele>376.97</ele>
        <time>2022-07-02T06:56:26Z</time>
      </trkpt>
      <trkpt lat="43.25748" lon="6.26215">
        <ele>379.86</ele>
        <time>2022-07-02T06:56:43Z</time>
      </trkpt>
      <trkpt lat="43.2573" lon="6.26264">
        <ele>380.34</ele>
        <time>2022-07-02T06:57:00Z</time>
      </trkpt>
      <trkpt lat="43.25716" lon="6.26275">
        <ele>379.38</ele>
        <time>2022-07-02T06:57:07Z</time>
      </trkpt>
      <trkpt lat="43.25714" lon="6.26275">
        <ele>379.38</ele>
        <time>2022-07-02T06:57:08Z</time>
      </trkpt>
      <trkpt lat="43.25682" lon="6.26279">
        <ele>376.97</ele>
        <time>2022-07-02T06:57:21Z</time>
      </trkpt>
      <trkpt lat="43.25646" lon="6.26282">
        <ele>378.9</ele>
        <time>2022-07-02T06:57:37Z</time>
      </trkpt>
      <trkpt lat="43.25607" lon="6.26282">
        <ele>380.34</ele>
        <time>2022-07-02T06:57:55Z</time>
      </trkpt>
      <trkpt lat="43.25589" lon="6.26284">
        <ele>381.3</ele>
        <time>2022-07-02T06:58:06Z</time>
      </trkpt>
      <trkpt lat="43.25589" lon="6.26288">
        <ele>381.78</ele>
        <time>2022-07-02T06:58:07Z</time>
      </trkpt>
      <trkpt lat="43.25588" lon="6.26295">
        <ele>383.22</ele>
        <time>2022-07-02T06:58:08Z</time>
      </trkpt>
      <trkpt lat="43.25589" lon="6.26299">
        <ele>383.22</ele>
        <time>2022-07-02T06:58:09Z</time>
      </trkpt>
      <trkpt lat="43.2559" lon="6.26303">
        <ele>384.18</ele>
        <time>2022-07-02T06:58:10Z</time>
      </trkpt>
      <trkpt lat="43.25591" lon="6.26306">
        <ele>384.18</ele>
        <time>2022-07-02T06:58:11Z</time>
      </trkpt>
      <trkpt lat="43.25607" lon="6.26361">
        <ele>388.99</ele>
        <time>2022-07-02T06:58:27Z</time>
      </trkpt>
      <trkpt lat="43.25607" lon="6.26408">
        <ele>390.91</ele>
        <time>2022-07-02T06:58:41Z</time>
      </trkpt>
      <trkpt lat="43.25609" lon="6.2641">
        <ele>391.39</ele>
        <time>2022-07-02T06:58:42Z</time>
      </trkpt>
      <trkpt lat="43.2561" lon="6.26412">
        <ele>391.39</ele>
        <time>2022-07-02T06:58:43Z</time>
      </trkpt>
      <trkpt lat="43.25613" lon="6.26413">
        <ele>391.39</ele>
        <time>2022-07-02T06:58:44Z</time>
      </trkpt>
      <trkpt lat="43.25616" lon="6.26413">
        <ele>391.39</ele>
        <time>2022-07-02T06:58:45Z</time>
      </trkpt>
      <trkpt lat="43.25618" lon="6.26413">
        <ele>391.39</ele>
        <time>2022-07-02T06:58:46Z</time>
      </trkpt>
      <trkpt lat="43.25621" lon="6.26413">
        <ele>391.39</ele>
        <time>2022-07-02T06:58:47Z</time>
      </trkpt>
      <trkpt lat="43.25623" lon="6.26413">
        <ele>391.39</ele>
        <time>2022-07-02T06:58:48Z</time>
      </trkpt>
      <trkpt lat="43.25625" lon="6.26414">
        <ele>391.39</ele>
        <time>2022-07-02T06:58:49Z</time>
      </trkpt>
      <trkpt lat="43.25656" lon="6.26439">
        <ele>393.8</ele>
        <time>2022-07-02T06:59:05Z</time>
      </trkpt>
      <trkpt lat="43.25691" lon="6.26465">
        <ele>397.16</ele>
        <time>2022-07-02T06:59:20Z</time>
      </trkpt>
      <trkpt lat="43.2571" lon="6.26515">
        <ele>403.41</ele>
        <time>2022-07-02T06:59:37Z</time>
      </trkpt>
      <trkpt lat="43.25712" lon="6.26562">
        <ele>408.7</ele>
        <time>2022-07-02T06:59:51Z</time>
      </trkpt>
      <trkpt lat="43.25738" lon="6.26598">
        <ele>413.5</ele>
        <time>2022-07-02T07:00:05Z</time>
      </trkpt>
      <trkpt lat="43.25754" lon="6.26643">
        <ele>415.91</ele>
        <time>2022-07-02T07:00:21Z</time>
      </trkpt>
      <trkpt lat="43.25755" lon="6.26674">
        <ele>417.83</ele>
        <time>2022-07-02T07:00:31Z</time>
      </trkpt>
      <trkpt lat="43.25742" lon="6.26719">
        <ele>420.23</ele>
        <time>2022-07-02T07:00:45Z</time>
      </trkpt>
      <trkpt lat="43.2574" lon="6.26751">
        <ele>424.56</ele>
        <time>2022-07-02T07:00:55Z</time>
      </trkpt>
      <trkpt lat="43.25742" lon="6.26753">
        <ele>425.04</ele>
        <time>2022-07-02T07:00:56Z</time>
      </trkpt>
      <trkpt lat="43.25744" lon="6.26755">
        <ele>425.04</ele>
        <time>2022-07-02T07:00:57Z</time>
      </trkpt>
      <trkpt lat="43.25788" lon="6.26781">
        <ele>430.81</ele>
        <time>2022-07-02T07:01:15Z</time>
      </trkpt>
      <trkpt lat="43.25815" lon="6.26824">
        <ele>431.29</ele>
        <time>2022-07-02T07:01:32Z</time>
      </trkpt>
      <trkpt lat="43.25831" lon="6.26869">
        <ele>431.77</ele>
        <time>2022-07-02T07:01:48Z</time>
      </trkpt>
      <trkpt lat="43.25849" lon="6.26909">
        <ele>433.21</ele>
        <time>2022-07-02T07:02:02Z</time>
      </trkpt>
      <trkpt lat="43.25861" lon="6.26924">
        <ele>434.17</ele>
        <time>2022-07-02T07:02:16Z</time>
      </trkpt>
      <trkpt lat="43.25866" lon="6.26922">
        <ele>434.17</ele>
        <time>2022-07-02T07:03:17Z</time>
      </trkpt>
      <trkpt lat="43.25868" lon="6.26922">
        <ele>434.17</ele>
        <time>2022-07-02T07:03:18Z</time>
      </trkpt>
      <trkpt lat="43.25869" lon="6.26923">
        <ele>434.65</ele>
        <time>2022-07-02T07:03:19Z</time>
      </trkpt>
      <trkpt lat="43.25903" lon="6.26938">
        <ele>438.98</ele>
        <time>2022-07-02T07:03:34Z</time>
      </trkpt>
      <trkpt lat="43.25935" lon="6.26948">
        <ele>439.94</ele>
        <time>2022-07-02T07:03:48Z</time>
      </trkpt>
      <trkpt lat="43.25962" lon="6.26961">
        <ele>442.82</ele>
        <time>2022-07-02T07:04:00Z</time>
      </trkpt>
      <trkpt lat="43.25999" lon="6.26983">
        <ele>448.59</ele>
        <time>2022-07-02T07:04:18Z</time>
      </trkpt>
      <trkpt lat="43.26037" lon="6.2701">
        <ele>452.92</ele>
        <time>2022-07-02T07:04:35Z</time>
      </trkpt>
      <trkpt lat="43.26063" lon="6.27043">
        <ele>454.36</ele>
        <time>2022-07-02T07:04:50Z</time>
      </trkpt>
      <trkpt lat="43.2608" lon="6.27066">
        <ele>455.8</ele>
        <time>2022-07-02T07:05:01Z</time>
      </trkpt>
      <trkpt lat="43.26107" lon="6.27097">
        <ele>456.76</ele>
        <time>2022-07-02T07:05:13Z</time>
      </trkpt>
      <trkpt lat="43.26133" lon="6.27126">
        <ele>457.24</ele>
        <time>2022-07-02T07:05:27Z</time>
      </trkpt>
      <trkpt lat="43.26139" lon="6.27146">
        <ele>457.24</ele>
        <time>2022-07-02T07:05:34Z</time>
      </trkpt>
      <trkpt lat="43.26137" lon="6.27149">
        <ele>457.24</ele>
        <time>2022-07-02T07:05:35Z</time>
      </trkpt>
      <trkpt lat="43.26115" lon="6.27206">
        <ele>456.76</ele>
        <time>2022-07-02T07:05:53Z</time>
      </trkpt>
      <trkpt lat="43.26092" lon="6.27242">
        <ele>459.17</ele>
        <time>2022-07-02T07:06:06Z</time>
      </trkpt>
      <trkpt lat="43.26081" lon="6.27252">
        <ele>460.61</ele>
        <time>2022-07-02T07:06:12Z</time>
      </trkpt>
      <trkpt lat="43.26081" lon="6.27255">
        <ele>460.61</ele>
        <time>2022-07-02T07:06:13Z</time>
      </trkpt>
      <trkpt lat="43.26082" lon="6.27258">
        <ele>460.61</ele>
        <time>2022-07-02T07:06:14Z</time>
      </trkpt>
      <trkpt lat="43.26084" lon="6.2726">
        <ele>460.61</ele>
        <time>2022-07-02T07:06:15Z</time>
      </trkpt>
      <trkpt lat="43.26087" lon="6.2726">
        <ele>461.09</ele>
        <time>2022-07-02T07:06:16Z</time>
      </trkpt>
      <trkpt lat="43.26089" lon="6.27259">
        <ele>461.09</ele>
        <time>2022-07-02T07:06:17Z</time>
      </trkpt>
      <trkpt lat="43.26091" lon="6.27258">
        <ele>461.57</ele>
        <time>2022-07-02T07:06:18Z</time>
      </trkpt>
      <trkpt lat="43.26093" lon="6.27256">
        <ele>461.57</ele>
        <time>2022-07-02T07:06:19Z</time>
      </trkpt>
      <trkpt lat="43.26117" lon="6.27227">
        <ele>462.53</ele>
        <time>2022-07-02T07:06:32Z</time>
      </trkpt>
      <trkpt lat="43.26144" lon="6.27185">
        <ele>457.24</ele>
        <time>2022-07-02T07:06:47Z</time>
      </trkpt>
      <trkpt lat="43.26163" lon="6.2714">
        <ele>448.11</ele>
        <time>2022-07-02T07:07:02Z</time>
      </trkpt>
      <trkpt lat="43.26152" lon="6.271">
        <ele>443.79</ele>
        <time>2022-07-02T07:07:14Z</time>
      </trkpt>
      <trkpt lat="43.26129" lon="6.27056">
        <ele>437.06</ele>
        <time>2022-07-02T07:07:29Z</time>
      </trkpt>
      <trkpt lat="43.2611" lon="6.26999">
        <ele>436.58</ele>
        <time>2022-07-02T07:07:47Z</time>
      </trkpt>
      <trkpt lat="43.26127" lon="6.26977">
        <ele>454.84</ele>
        <time>2022-07-02T07:07:59Z</time>
      </trkpt>
      <trkpt lat="43.26161" lon="6.26955">
        <ele>463.49</ele>
        <time>2022-07-02T07:08:13Z</time>
      </trkpt>
      <trkpt lat="43.26186" lon="6.2692">
        <ele>469.26</ele>
        <time>2022-07-02T07:08:29Z</time>
      </trkpt>
      <trkpt lat="43.26204" lon="6.26871">
        <ele>475.99</ele>
        <time>2022-07-02T07:08:44Z</time>
      </trkpt>
      <trkpt lat="43.26225" lon="6.26816">
        <ele>483.2</ele>
        <time>2022-07-02T07:09:04Z</time>
      </trkpt>
      <trkpt lat="43.26243" lon="6.26768">
        <ele>490.41</ele>
        <time>2022-07-02T07:09:19Z</time>
      </trkpt>
      <trkpt lat="43.26252" lon="6.26719">
        <ele>497.14</ele>
        <time>2022-07-02T07:09:33Z</time>
      </trkpt>
      <trkpt lat="43.26248" lon="6.26662">
        <ele>502.43</ele>
        <time>2022-07-02T07:09:49Z</time>
      </trkpt>
      <trkpt lat="43.26246" lon="6.26602">
        <ele>509.64</ele>
        <time>2022-07-02T07:10:08Z</time>
      </trkpt>
      <trkpt lat="43.26235" lon="6.26552">
        <ele>516.37</ele>
        <time>2022-07-02T07:10:23Z</time>
      </trkpt>
      <trkpt lat="43.26218" lon="6.26499">
        <ele>522.61</ele>
        <time>2022-07-02T07:10:41Z</time>
      </trkpt>
      <trkpt lat="43.26217" lon="6.26484">
        <ele>522.61</ele>
        <time>2022-07-02T07:10:45Z</time>
      </trkpt>
      <trkpt lat="43.26218" lon="6.26475">
        <ele>520.21</ele>
        <time>2022-07-02T07:10:57Z</time>
      </trkpt>
      <trkpt lat="43.26216" lon="6.26472">
        <ele>516.37</ele>
        <time>2022-07-02T07:11:36Z</time>
      </trkpt>
      <trkpt lat="43.26216" lon="6.26471">
        <ele>516.37</ele>
        <time>2022-07-02T07:12:01Z</time>
      </trkpt>
      <trkpt lat="43.26216" lon="6.26469">
        <ele>516.37</ele>
        <time>2022-07-02T07:12:02Z</time>
      </trkpt>
      <trkpt lat="43.26216" lon="6.26466">
        <ele>516.37</ele>
        <time>2022-07-02T07:12:03Z</time>
      </trkpt>
      <trkpt lat="43.26218" lon="6.26464">
        <ele>516.37</ele>
        <time>2022-07-02T07:12:04Z</time>
      </trkpt>
      <trkpt lat="43.2622" lon="6.26461">
        <ele>516.37</ele>
        <time>2022-07-02T07:12:05Z</time>
      </trkpt>
      <trkpt lat="43.26222" lon="6.26459">
        <ele>516.37</ele>
        <time>2022-07-02T07:12:06Z</time>
      </trkpt>
      <trkpt lat="43.26224" lon="6.26457">
        <ele>516.37</ele>
        <time>2022-07-02T07:12:07Z</time>
      </trkpt>
      <trkpt lat="43.26259" lon="6.26418">
        <ele>517.33</ele>
        <time>2022-07-02T07:12:21Z</time>
      </trkpt>
      <trkpt lat="43.26297" lon="6.26373">
        <ele>520.21</ele>
        <time>2022-07-02T07:12:38Z</time>
      </trkpt>
      <trkpt lat="43.26317" lon="6.26346">
        <ele>519.73</ele>
        <time>2022-07-02T07:12:49Z</time>
      </trkpt>
      <trkpt lat="43.2632" lon="6.26345">
        <ele>519.73</ele>
        <time>2022-07-02T07:12:50Z</time>
      </trkpt>
      <trkpt lat="43.26322" lon="6.26346">
        <ele>520.21</ele>
        <time>2022-07-02T07:12:51Z</time>
      </trkpt>
      <trkpt lat="43.26323" lon="6.26348">
        <ele>520.21</ele>
        <time>2022-07-02T07:12:52Z</time>
      </trkpt>
      <trkpt lat="43.26325" lon="6.26352">
        <ele>520.21</ele>
        <time>2022-07-02T07:12:53Z</time>
      </trkpt>
      <trkpt lat="43.26347" lon="6.26416">
        <ele>519.73</ele>
        <time>2022-07-02T07:13:06Z</time>
      </trkpt>
      <trkpt lat="43.26352" lon="6.26435">
        <ele>519.73</ele>
        <time>2022-07-02T07:13:09Z</time>
      </trkpt>
      <trkpt lat="43.26353" lon="6.26531">
        <ele>518.77</ele>
        <time>2022-07-02T07:13:23Z</time>
      </trkpt>
      <trkpt lat="43.2635" lon="6.26583">
        <ele>519.25</ele>
        <time>2022-07-02T07:13:30Z</time>
      </trkpt>
      <trkpt lat="43.26354" lon="6.26614">
        <ele>518.29</ele>
        <time>2022-07-02T07:13:34Z</time>
      </trkpt>
      <trkpt lat="43.26357" lon="6.26629">
        <ele>519.25</ele>
        <time>2022-07-02T07:13:36Z</time>
      </trkpt>
      <trkpt lat="43.26358" lon="6.26637">
        <ele>519.25</ele>
        <time>2022-07-02T07:13:37Z</time>
      </trkpt>
      <trkpt lat="43.26358" lon="6.26644">
        <ele>519.73</ele>
        <time>2022-07-02T07:13:38Z</time>
      </trkpt>
      <trkpt lat="43.26358" lon="6.26651">
        <ele>520.21</ele>
        <time>2022-07-02T07:13:39Z</time>
      </trkpt>
      <trkpt lat="43.26356" lon="6.26658">
        <ele>520.21</ele>
        <time>2022-07-02T07:13:40Z</time>
      </trkpt>
      <trkpt lat="43.26355" lon="6.26665">
        <ele>520.21</ele>
        <time>2022-07-02T07:13:41Z</time>
      </trkpt>
      <trkpt lat="43.26325" lon="6.26743">
        <ele>518.77</ele>
        <time>2022-07-02T07:13:52Z</time>
      </trkpt>
      <trkpt lat="43.26323" lon="6.26752">
        <ele>517.81</ele>
        <time>2022-07-02T07:13:53Z</time>
      </trkpt>
      <trkpt lat="43.26322" lon="6.26761">
        <ele>518.29</ele>
        <time>2022-07-02T07:13:54Z</time>
      </trkpt>
      <trkpt lat="43.26323" lon="6.2677">
        <ele>518.29</ele>
        <time>2022-07-02T07:13:55Z</time>
      </trkpt>
      <trkpt lat="43.26324" lon="6.26779">
        <ele>517.81</ele>
        <time>2022-07-02T07:13:56Z</time>
      </trkpt>
      <trkpt lat="43.26325" lon="6.26789">
        <ele>517.81</ele>
        <time>2022-07-02T07:13:57Z</time>
      </trkpt>
      <trkpt lat="43.26327" lon="6.26798">
        <ele>517.33</ele>
        <time>2022-07-02T07:13:58Z</time>
      </trkpt>
      <trkpt lat="43.26329" lon="6.26807">
        <ele>516.85</ele>
        <time>2022-07-02T07:13:59Z</time>
      </trkpt>
      <trkpt lat="43.26332" lon="6.26816">
        <ele>516.37</ele>
        <time>2022-07-02T07:14:00Z</time>
      </trkpt>
      <trkpt lat="43.26335" lon="6.26832">
        <ele>516.37</ele>
        <time>2022-07-02T07:14:02Z</time>
      </trkpt>
      <trkpt lat="43.26359" lon="6.26947">
        <ele>515.4</ele>
        <time>2022-07-02T07:14:16Z</time>
      </trkpt>
      <trkpt lat="43.26369" lon="6.2706">
        <ele>513.48</ele>
        <time>2022-07-02T07:14:30Z</time>
      </trkpt>
      <trkpt lat="43.2637" lon="6.27068">
        <ele>513.48</ele>
        <time>2022-07-02T07:14:31Z</time>
      </trkpt>
      <trkpt lat="43.26372" lon="6.27076">
        <ele>513</ele>
        <time>2022-07-02T07:14:32Z</time>
      </trkpt>
      <trkpt lat="43.26373" lon="6.27085">
        <ele>513</ele>
        <time>2022-07-02T07:14:33Z</time>
      </trkpt>
      <trkpt lat="43.26375" lon="6.27093">
        <ele>512.52</ele>
        <time>2022-07-02T07:14:34Z</time>
      </trkpt>
      <trkpt lat="43.26387" lon="6.27143">
        <ele>511.56</ele>
        <time>2022-07-02T07:14:44Z</time>
      </trkpt>
      <trkpt lat="43.26387" lon="6.27169">
        <ele>513.48</ele>
        <time>2022-07-02T07:15:05Z</time>
      </trkpt>
      <trkpt lat="43.2638" lon="6.27208">
        <ele>513.96</ele>
        <time>2022-07-02T07:15:11Z</time>
      </trkpt>
      <trkpt lat="43.2638" lon="6.27215">
        <ele>513.96</ele>
        <time>2022-07-02T07:15:12Z</time>
      </trkpt>
      <trkpt lat="43.26376" lon="6.27285">
        <ele>513.96</ele>
        <time>2022-07-02T07:15:22Z</time>
      </trkpt>
      <trkpt lat="43.26366" lon="6.27353">
        <ele>513.48</ele>
        <time>2022-07-02T07:15:31Z</time>
      </trkpt>
      <trkpt lat="43.26355" lon="6.27404">
        <ele>513.48</ele>
        <time>2022-07-02T07:15:37Z</time>
      </trkpt>
      <trkpt lat="43.26352" lon="6.27413">
        <ele>513.48</ele>
        <time>2022-07-02T07:15:38Z</time>
      </trkpt>
      <trkpt lat="43.26345" lon="6.27445">
        <ele>513.48</ele>
        <time>2022-07-02T07:15:42Z</time>
      </trkpt>
      <trkpt lat="43.26344" lon="6.27453">
        <ele>513.96</ele>
        <time>2022-07-02T07:15:43Z</time>
      </trkpt>
      <trkpt lat="43.26343" lon="6.27461">
        <ele>513.96</ele>
        <time>2022-07-02T07:15:44Z</time>
      </trkpt>
      <trkpt lat="43.26343" lon="6.27469">
        <ele>513.96</ele>
        <time>2022-07-02T07:15:45Z</time>
      </trkpt>
      <trkpt lat="43.26343" lon="6.27476">
        <ele>513.96</ele>
        <time>2022-07-02T07:15:46Z</time>
      </trkpt>
      <trkpt lat="43.26343" lon="6.27483">
        <ele>513.96</ele>
        <time>2022-07-02T07:15:47Z</time>
      </trkpt>
      <trkpt lat="43.26344" lon="6.27488">
        <ele>513.96</ele>
        <time>2022-07-02T07:15:48Z</time>
      </trkpt>
      <trkpt lat="43.26345" lon="6.27491">
        <ele>513.96</ele>
        <time>2022-07-02T07:15:49Z</time>
      </trkpt>
      <trkpt lat="43.26347" lon="6.27491">
        <ele>515.4</ele>
        <time>2022-07-02T07:16:04Z</time>
      </trkpt>
      <trkpt lat="43.26353" lon="6.27513">
        <ele>514.92</ele>
        <time>2022-07-02T07:16:39Z</time>
      </trkpt>
      <trkpt lat="43.26377" lon="6.27569">
        <ele>517.33</ele>
        <time>2022-07-02T07:16:53Z</time>
      </trkpt>
      <trkpt lat="43.264" lon="6.27609">
        <ele>521.65</ele>
        <time>2022-07-02T07:17:05Z</time>
      </trkpt>
      <trkpt lat="43.26404" lon="6.2766">
        <ele>525.02</ele>
        <time>2022-07-02T07:17:18Z</time>
      </trkpt>
      <trkpt lat="43.26403" lon="6.27717">
        <ele>527.42</ele>
        <time>2022-07-02T07:17:33Z</time>
      </trkpt>
      <trkpt lat="43.26394" lon="6.27759">
        <ele>528.38</ele>
        <time>2022-07-02T07:17:44Z</time>
      </trkpt>
      <trkpt lat="43.26371" lon="6.27823">
        <ele>526.94</ele>
        <time>2022-07-02T07:18:02Z</time>
      </trkpt>
      <trkpt lat="43.2638" lon="6.27874">
        <ele>532.23</ele>
        <time>2022-07-02T07:18:16Z</time>
      </trkpt>
      <trkpt lat="43.26396" lon="6.27928">
        <ele>533.19</ele>
        <time>2022-07-02T07:18:31Z</time>
      </trkpt>
      <trkpt lat="43.26413" lon="6.28001">
        <ele>537.03</ele>
        <time>2022-07-02T07:18:50Z</time>
      </trkpt>
      <trkpt lat="43.26431" lon="6.28068">
        <ele>539.44</ele>
        <time>2022-07-02T07:19:07Z</time>
      </trkpt>
      <trkpt lat="43.26454" lon="6.28133">
        <ele>540.88</ele>
        <time>2022-07-02T07:19:24Z</time>
      </trkpt>
      <trkpt lat="43.26491" lon="6.28199">
        <ele>542.8</ele>
        <time>2022-07-02T07:19:41Z</time>
      </trkpt>
      <trkpt lat="43.26499" lon="6.28215">
        <ele>542.8</ele>
        <time>2022-07-02T07:19:44Z</time>
      </trkpt>
      <trkpt lat="43.265" lon="6.2822">
        <ele>542.8</ele>
        <time>2022-07-02T07:19:45Z</time>
      </trkpt>
      <trkpt lat="43.26519" lon="6.28315">
        <ele>539.44</ele>
        <time>2022-07-02T07:19:58Z</time>
      </trkpt>
      <trkpt lat="43.26525" lon="6.28344">
        <ele>537.99</ele>
        <time>2022-07-02T07:20:01Z</time>
      </trkpt>
      <trkpt lat="43.26549" lon="6.28422">
        <ele>538.48</ele>
        <time>2022-07-02T07:20:10Z</time>
      </trkpt>
      <trkpt lat="43.26553" lon="6.28438">
        <ele>539.44</ele>
        <time>2022-07-02T07:20:12Z</time>
      </trkpt>
      <trkpt lat="43.26554" lon="6.28447">
        <ele>539.44</ele>
        <time>2022-07-02T07:20:13Z</time>
      </trkpt>
      <trkpt lat="43.26554" lon="6.28456">
        <ele>538.96</ele>
        <time>2022-07-02T07:20:14Z</time>
      </trkpt>
      <trkpt lat="43.26553" lon="6.28464">
        <ele>538.96</ele>
        <time>2022-07-02T07:20:15Z</time>
      </trkpt>
      <trkpt lat="43.26553" lon="6.28472">
        <ele>539.44</ele>
        <time>2022-07-02T07:20:16Z</time>
      </trkpt>
      <trkpt lat="43.26552" lon="6.28481">
        <ele>539.44</ele>
        <time>2022-07-02T07:20:17Z</time>
      </trkpt>
      <trkpt lat="43.2655" lon="6.28489">
        <ele>539.44</ele>
        <time>2022-07-02T07:20:18Z</time>
      </trkpt>
      <trkpt lat="43.26547" lon="6.28511">
        <ele>540.4</ele>
        <time>2022-07-02T07:20:21Z</time>
      </trkpt>
      <trkpt lat="43.26546" lon="6.28517">
        <ele>540.88</ele>
        <time>2022-07-02T07:20:22Z</time>
      </trkpt>
      <trkpt lat="43.26543" lon="6.28523">
        <ele>541.36</ele>
        <time>2022-07-02T07:20:23Z</time>
      </trkpt>
      <trkpt lat="43.26541" lon="6.28528">
        <ele>540.88</ele>
        <time>2022-07-02T07:20:24Z</time>
      </trkpt>
      <trkpt lat="43.26539" lon="6.28534">
        <ele>541.36</ele>
        <time>2022-07-02T07:20:25Z</time>
      </trkpt>
      <trkpt lat="43.26536" lon="6.28538">
        <ele>541.84</ele>
        <time>2022-07-02T07:20:26Z</time>
      </trkpt>
      <trkpt lat="43.26533" lon="6.28543">
        <ele>541.84</ele>
        <time>2022-07-02T07:20:27Z</time>
      </trkpt>
      <trkpt lat="43.26531" lon="6.28547">
        <ele>541.84</ele>
        <time>2022-07-02T07:20:28Z</time>
      </trkpt>
      <trkpt lat="43.26513" lon="6.28588">
        <ele>543.76</ele>
        <time>2022-07-02T07:20:39Z</time>
      </trkpt>
      <trkpt lat="43.26528" lon="6.28649">
        <ele>544.72</ele>
        <time>2022-07-02T07:20:52Z</time>
      </trkpt>
      <trkpt lat="43.26545" lon="6.28712">
        <ele>545.69</ele>
        <time>2022-07-02T07:21:06Z</time>
      </trkpt>
      <trkpt lat="43.26549" lon="6.28735">
        <ele>545.2</ele>
        <time>2022-07-02T07:21:10Z</time>
      </trkpt>
      <trkpt lat="43.2655" lon="6.28766">
        <ele>544.72</ele>
        <time>2022-07-02T07:21:15Z</time>
      </trkpt>
      <trkpt lat="43.2655" lon="6.28771">
        <ele>544.72</ele>
        <time>2022-07-02T07:21:16Z</time>
      </trkpt>
      <trkpt lat="43.26554" lon="6.28794">
        <ele>545.69</ele>
        <time>2022-07-02T07:21:20Z</time>
      </trkpt>
      <trkpt lat="43.26555" lon="6.288">
        <ele>545.69</ele>
        <time>2022-07-02T07:21:21Z</time>
      </trkpt>
      <trkpt lat="43.26581" lon="6.28885">
        <ele>551.45</ele>
        <time>2022-07-02T07:21:37Z</time>
      </trkpt>
      <trkpt lat="43.26601" lon="6.28925">
        <ele>550.49</ele>
        <time>2022-07-02T07:21:45Z</time>
      </trkpt>
      <trkpt lat="43.26619" lon="6.28945">
        <ele>550.49</ele>
        <time>2022-07-02T07:21:49Z</time>
      </trkpt>
      <trkpt lat="43.2669" lon="6.29019">
        <ele>547.61</ele>
        <time>2022-07-02T07:22:00Z</time>
      </trkpt>
      <trkpt lat="43.26697" lon="6.29025">
        <ele>547.13</ele>
        <time>2022-07-02T07:22:01Z</time>
      </trkpt>
      <trkpt lat="43.2678" lon="6.29054">
        <ele>544.72</ele>
        <time>2022-07-02T07:22:12Z</time>
      </trkpt>
      <trkpt lat="43.26821" lon="6.29097">
        <ele>539.92</ele>
        <time>2022-07-02T07:22:18Z</time>
      </trkpt>
      <trkpt lat="43.26861" lon="6.2914">
        <ele>534.63</ele>
        <time>2022-07-02T07:22:23Z</time>
      </trkpt>
      <trkpt lat="43.26867" lon="6.29152">
        <ele>533.19</ele>
        <time>2022-07-02T07:22:24Z</time>
      </trkpt>
      <trkpt lat="43.26871" lon="6.29165">
        <ele>531.75</ele>
        <time>2022-07-02T07:22:25Z</time>
      </trkpt>
      <trkpt lat="43.26874" lon="6.29179">
        <ele>530.3</ele>
        <time>2022-07-02T07:22:26Z</time>
      </trkpt>
      <trkpt lat="43.26878" lon="6.29194">
        <ele>529.82</ele>
        <time>2022-07-02T07:22:27Z</time>
      </trkpt>
      <trkpt lat="43.26881" lon="6.29208">
        <ele>528.86</ele>
        <time>2022-07-02T07:22:28Z</time>
      </trkpt>
      <trkpt lat="43.26882" lon="6.29223">
        <ele>528.38</ele>
        <time>2022-07-02T07:22:29Z</time>
      </trkpt>
      <trkpt lat="43.26886" lon="6.29251">
        <ele>526.46</ele>
        <time>2022-07-02T07:22:31Z</time>
      </trkpt>
      <trkpt lat="43.26923" lon="6.29403">
        <ele>523.58</ele>
        <time>2022-07-02T07:22:44Z</time>
      </trkpt>
      <trkpt lat="43.2693" lon="6.29426">
        <ele>523.58</ele>
        <time>2022-07-02T07:22:46Z</time>
      </trkpt>
      <trkpt lat="43.26951" lon="6.29461">
        <ele>523.09</ele>
        <time>2022-07-02T07:22:50Z</time>
      </trkpt>
      <trkpt lat="43.2702" lon="6.29574">
        <ele>523.09</ele>
        <time>2022-07-02T07:23:03Z</time>
      </trkpt>
      <trkpt lat="43.27069" lon="6.29637">
        <ele>523.09</ele>
        <time>2022-07-02T07:23:11Z</time>
      </trkpt>
      <trkpt lat="43.27094" lon="6.29717">
        <ele>524.54</ele>
        <time>2022-07-02T07:23:21Z</time>
      </trkpt>
      <trkpt lat="43.2711" lon="6.29794">
        <ele>526.94</ele>
        <time>2022-07-02T07:23:37Z</time>
      </trkpt>
      <trkpt lat="43.27123" lon="6.29863">
        <ele>530.79</ele>
        <time>2022-07-02T07:23:54Z</time>
      </trkpt>
      <trkpt lat="43.27125" lon="6.29924">
        <ele>536.07</ele>
        <time>2022-07-02T07:24:10Z</time>
      </trkpt>
      <trkpt lat="43.27117" lon="6.29973">
        <ele>540.4</ele>
        <time>2022-07-02T07:24:22Z</time>
      </trkpt>
      <trkpt lat="43.27107" lon="6.30037">
        <ele>545.69</ele>
        <time>2022-07-02T07:24:38Z</time>
      </trkpt>
      <trkpt lat="43.27119" lon="6.30084">
        <ele>549.05</ele>
        <time>2022-07-02T07:24:49Z</time>
      </trkpt>
      <trkpt lat="43.27157" lon="6.301">
        <ele>555.78</ele>
        <time>2022-07-02T07:25:01Z</time>
      </trkpt>
      <trkpt lat="43.27221" lon="6.30086">
        <ele>556.26</ele>
        <time>2022-07-02T07:25:20Z</time>
      </trkpt>
      <trkpt lat="43.27266" lon="6.30112">
        <ele>552.41</ele>
        <time>2022-07-02T07:25:36Z</time>
      </trkpt>
      <trkpt lat="43.27311" lon="6.30133">
        <ele>555.3</ele>
        <time>2022-07-02T07:25:51Z</time>
      </trkpt>
      <trkpt lat="43.2735" lon="6.3011">
        <ele>554.82</ele>
        <time>2022-07-02T07:26:06Z</time>
      </trkpt>
      <trkpt lat="43.27402" lon="6.30096">
        <ele>558.18</ele>
        <time>2022-07-02T07:26:26Z</time>
      </trkpt>
      <trkpt lat="43.27453" lon="6.30085">
        <ele>560.59</ele>
        <time>2022-07-02T07:26:47Z</time>
      </trkpt>
      <trkpt lat="43.27491" lon="6.30077">
        <ele>561.55</ele>
        <time>2022-07-02T07:27:04Z</time>
      </trkpt>
      <trkpt lat="43.27538" lon="6.30067">
        <ele>563.47</ele>
        <time>2022-07-02T07:27:27Z</time>
      </trkpt>
      <trkpt lat="43.2758" lon="6.30045">
        <ele>571.16</ele>
        <time>2022-07-02T07:27:48Z</time>
      </trkpt>
      <trkpt lat="43.27588" lon="6.30005">
        <ele>583.18</ele>
        <time>2022-07-02T07:28:03Z</time>
      </trkpt>
      <trkpt lat="43.27589" lon="6.29952">
        <ele>595.67</ele>
        <time>2022-07-02T07:28:21Z</time>
      </trkpt>
      <trkpt lat="43.27583" lon="6.29901">
        <ele>605.77</ele>
        <time>2022-07-02T07:28:39Z</time>
      </trkpt>
      <trkpt lat="43.27581" lon="6.29869">
        <ele>611.06</ele>
        <time>2022-07-02T07:28:52Z</time>
      </trkpt>
      <trkpt lat="43.27571" lon="6.29835">
        <ele>615.38</ele>
        <time>2022-07-02T07:29:05Z</time>
      </trkpt>
      <trkpt lat="43.27557" lon="6.29798">
        <ele>617.3</ele>
        <time>2022-07-02T07:29:18Z</time>
      </trkpt>
      <trkpt lat="43.27559" lon="6.29751">
        <ele>614.42</ele>
        <time>2022-07-02T07:29:34Z</time>
      </trkpt>
      <trkpt lat="43.27588" lon="6.29718">
        <ele>608.17</ele>
        <time>2022-07-02T07:29:52Z</time>
      </trkpt>
      <trkpt lat="43.27627" lon="6.29703">
        <ele>607.69</ele>
        <time>2022-07-02T07:30:11Z</time>
      </trkpt>
      <trkpt lat="43.27664" lon="6.29688">
        <ele>606.25</ele>
        <time>2022-07-02T07:30:29Z</time>
      </trkpt>
      <trkpt lat="43.27708" lon="6.29668">
        <ele>604.81</ele>
        <time>2022-07-02T07:30:50Z</time>
      </trkpt>
      <trkpt lat="43.27741" lon="6.29637">
        <ele>608.17</ele>
        <time>2022-07-02T07:31:08Z</time>
      </trkpt>
      <trkpt lat="43.27765" lon="6.29593">
        <ele>615.38</ele>
        <time>2022-07-02T07:31:26Z</time>
      </trkpt>
      <trkpt lat="43.27779" lon="6.29549">
        <ele>624.99</ele>
        <time>2022-07-02T07:31:42Z</time>
      </trkpt>
      <trkpt lat="43.27791" lon="6.29509">
        <ele>632.2</ele>
        <time>2022-07-02T07:31:54Z</time>
      </trkpt>
      <trkpt lat="43.27813" lon="6.29485">
        <ele>638.93</ele>
        <time>2022-07-02T07:32:08Z</time>
      </trkpt>
      <trkpt lat="43.27843" lon="6.29481">
        <ele>643.26</ele>
        <time>2022-07-02T07:32:22Z</time>
      </trkpt>
      <trkpt lat="43.27877" lon="6.29462">
        <ele>644.22</ele>
        <time>2022-07-02T07:32:39Z</time>
      </trkpt>
      <trkpt lat="43.27885" lon="6.29438">
        <ele>648.55</ele>
        <time>2022-07-02T07:32:49Z</time>
      </trkpt>
      <trkpt lat="43.27885" lon="6.29425">
        <ele>650.47</ele>
        <time>2022-07-02T07:32:53Z</time>
      </trkpt>
      <trkpt lat="43.27885" lon="6.29386">
        <ele>660.08</ele>
        <time>2022-07-02T07:33:07Z</time>
      </trkpt>
      <trkpt lat="43.27887" lon="6.29341">
        <ele>667.77</ele>
        <time>2022-07-02T07:33:23Z</time>
      </trkpt>
      <trkpt lat="43.27889" lon="6.29311">
        <ele>673.54</ele>
        <time>2022-07-02T07:33:35Z</time>
      </trkpt>
      <trkpt lat="43.2788" lon="6.29269">
        <ele>678.83</ele>
        <time>2022-07-02T07:33:49Z</time>
      </trkpt>
      <trkpt lat="43.27867" lon="6.2922">
        <ele>682.67</ele>
        <time>2022-07-02T07:34:07Z</time>
      </trkpt>
      <trkpt lat="43.27869" lon="6.29193">
        <ele>682.67</ele>
        <time>2022-07-02T07:34:17Z</time>
      </trkpt>
      <trkpt lat="43.27871" lon="6.29192">
        <ele>683.15</ele>
        <time>2022-07-02T07:34:18Z</time>
      </trkpt>
      <trkpt lat="43.27878" lon="6.29192">
        <ele>683.15</ele>
        <time>2022-07-02T07:34:21Z</time>
      </trkpt>
      <trkpt lat="43.2788" lon="6.29194">
        <ele>683.15</ele>
        <time>2022-07-02T07:34:22Z</time>
      </trkpt>
      <trkpt lat="43.27881" lon="6.29197">
        <ele>683.15</ele>
        <time>2022-07-02T07:34:23Z</time>
      </trkpt>
      <trkpt lat="43.27882" lon="6.29201">
        <ele>683.15</ele>
        <time>2022-07-02T07:34:24Z</time>
      </trkpt>
      <trkpt lat="43.27884" lon="6.29204">
        <ele>683.15</ele>
        <time>2022-07-02T07:34:25Z</time>
      </trkpt>
      <trkpt lat="43.27898" lon="6.29241">
        <ele>683.63</ele>
        <time>2022-07-02T07:34:37Z</time>
      </trkpt>
      <trkpt lat="43.27912" lon="6.29277">
        <ele>683.63</ele>
        <time>2022-07-02T07:34:48Z</time>
      </trkpt>
      <trkpt lat="43.27925" lon="6.29322">
        <ele>684.6</ele>
        <time>2022-07-02T07:35:00Z</time>
      </trkpt>
      <trkpt lat="43.27936" lon="6.29364">
        <ele>685.56</ele>
        <time>2022-07-02T07:35:12Z</time>
      </trkpt>
      <trkpt lat="43.27947" lon="6.29398">
        <ele>687</ele>
        <time>2022-07-02T07:35:25Z</time>
      </trkpt>
      <trkpt lat="43.27957" lon="6.29437">
        <ele>687.48</ele>
        <time>2022-07-02T07:35:37Z</time>
      </trkpt>
      <trkpt lat="43.27961" lon="6.29466">
        <ele>687.48</ele>
        <time>2022-07-02T07:35:49Z</time>
      </trkpt>
      <trkpt lat="43.27955" lon="6.29509">
        <ele>687.48</ele>
        <time>2022-07-02T07:36:03Z</time>
      </trkpt>
      <trkpt lat="43.27942" lon="6.29552">
        <ele>687</ele>
        <time>2022-07-02T07:36:16Z</time>
      </trkpt>
      <trkpt lat="43.27919" lon="6.296">
        <ele>687.96</ele>
        <time>2022-07-02T07:36:32Z</time>
      </trkpt>
      <trkpt lat="43.27894" lon="6.29641">
        <ele>689.4</ele>
        <time>2022-07-02T07:36:47Z</time>
      </trkpt>
      <trkpt lat="43.27894" lon="6.29694">
        <ele>689.4</ele>
        <time>2022-07-02T07:37:00Z</time>
      </trkpt>
      <trkpt lat="43.27897" lon="6.29701">
        <ele>689.88</ele>
        <time>2022-07-02T07:37:02Z</time>
      </trkpt>
      <trkpt lat="43.27903" lon="6.29699">
        <ele>689.88</ele>
        <time>2022-07-02T07:37:05Z</time>
      </trkpt>
      <trkpt lat="43.27904" lon="6.29695">
        <ele>690.36</ele>
        <time>2022-07-02T07:37:06Z</time>
      </trkpt>
      <trkpt lat="43.27903" lon="6.29687">
        <ele>690.36</ele>
        <time>2022-07-02T07:37:08Z</time>
      </trkpt>
      <trkpt lat="43.27916" lon="6.29646">
        <ele>690.36</ele>
        <time>2022-07-02T07:37:21Z</time>
      </trkpt>
      <trkpt lat="43.27948" lon="6.29618">
        <ele>690.84</ele>
        <time>2022-07-02T07:37:34Z</time>
      </trkpt>
      <trkpt lat="43.27972" lon="6.29575">
        <ele>690.84</ele>
        <time>2022-07-02T07:37:47Z</time>
      </trkpt>
      <trkpt lat="43.27989" lon="6.29526">
        <ele>694.21</ele>
        <time>2022-07-02T07:38:01Z</time>
      </trkpt>
      <trkpt lat="43.28007" lon="6.29468">
        <ele>696.13</ele>
        <time>2022-07-02T07:38:16Z</time>
      </trkpt>
      <trkpt lat="43.28008" lon="6.29408">
        <ele>697.09</ele>
        <time>2022-07-02T07:38:30Z</time>
      </trkpt>
      <trkpt lat="43.28004" lon="6.29344">
        <ele>699.98</ele>
        <time>2022-07-02T07:38:43Z</time>
      </trkpt>
      <trkpt lat="43.27992" lon="6.29269">
        <ele>703.82</ele>
        <time>2022-07-02T07:38:59Z</time>
      </trkpt>
      <trkpt lat="43.27981" lon="6.2921">
        <ele>708.15</ele>
        <time>2022-07-02T07:39:13Z</time>
      </trkpt>
      <trkpt lat="43.27993" lon="6.29179">
        <ele>710.07</ele>
        <time>2022-07-02T07:39:22Z</time>
      </trkpt>
      <trkpt lat="43.28014" lon="6.29129">
        <ele>714.4</ele>
        <time>2022-07-02T07:39:37Z</time>
      </trkpt>
      <trkpt lat="43.28016" lon="6.29114">
        <ele>714.4</ele>
        <time>2022-07-02T07:39:41Z</time>
      </trkpt>
      <trkpt lat="43.28019" lon="6.29072">
        <ele>717.28</ele>
        <time>2022-07-02T07:39:52Z</time>
      </trkpt>
      <trkpt lat="43.28022" lon="6.29042">
        <ele>720.16</ele>
        <time>2022-07-02T07:40:00Z</time>
      </trkpt>
      <trkpt lat="43.28048" lon="6.29041">
        <ele>724.97</ele>
        <time>2022-07-02T07:40:12Z</time>
      </trkpt>
      <trkpt lat="43.2805" lon="6.29043">
        <ele>725.45</ele>
        <time>2022-07-02T07:40:13Z</time>
      </trkpt>
      <trkpt lat="43.28089" lon="6.29074">
        <ele>730.26</ele>
        <time>2022-07-02T07:40:30Z</time>
      </trkpt>
      <trkpt lat="43.28127" lon="6.29103">
        <ele>733.14</ele>
        <time>2022-07-02T07:40:46Z</time>
      </trkpt>
      <trkpt lat="43.28161" lon="6.2914">
        <ele>736.03</ele>
        <time>2022-07-02T07:41:02Z</time>
      </trkpt>
      <trkpt lat="43.28172" lon="6.29187">
        <ele>740.83</ele>
        <time>2022-07-02T07:41:17Z</time>
      </trkpt>
      <trkpt lat="43.28173" lon="6.29189">
        <ele>741.31</ele>
        <time>2022-07-02T07:41:18Z</time>
      </trkpt>
      <trkpt lat="43.28174" lon="6.29193">
        <ele>741.79</ele>
        <time>2022-07-02T07:41:19Z</time>
      </trkpt>
      <trkpt lat="43.28175" lon="6.29197">
        <ele>741.79</ele>
        <time>2022-07-02T07:41:20Z</time>
      </trkpt>
      <trkpt lat="43.28177" lon="6.29201">
        <ele>742.28</ele>
        <time>2022-07-02T07:41:21Z</time>
      </trkpt>
      <trkpt lat="43.28177" lon="6.29204">
        <ele>742.76</ele>
        <time>2022-07-02T07:41:22Z</time>
      </trkpt>
      <trkpt lat="43.28178" lon="6.29209">
        <ele>743.24</ele>
        <time>2022-07-02T07:41:23Z</time>
      </trkpt>
      <trkpt lat="43.28178" lon="6.29214">
        <ele>743.24</ele>
        <time>2022-07-02T07:41:24Z</time>
      </trkpt>
      <trkpt lat="43.28177" lon="6.29219">
        <ele>743.24</ele>
        <time>2022-07-02T07:41:25Z</time>
      </trkpt>
      <trkpt lat="43.28177" lon="6.29223">
        <ele>743.72</ele>
        <time>2022-07-02T07:41:26Z</time>
      </trkpt>
      <trkpt lat="43.28177" lon="6.29227">
        <ele>743.72</ele>
        <time>2022-07-02T07:41:27Z</time>
      </trkpt>
      <trkpt lat="43.28177" lon="6.2923">
        <ele>744.2</ele>
        <time>2022-07-02T07:41:28Z</time>
      </trkpt>
      <trkpt lat="43.28178" lon="6.29233">
        <ele>744.2</ele>
        <time>2022-07-02T07:41:29Z</time>
      </trkpt>
      <trkpt lat="43.28179" lon="6.29235">
        <ele>744.68</ele>
        <time>2022-07-02T07:41:30Z</time>
      </trkpt>
      <trkpt lat="43.2818" lon="6.29238">
        <ele>744.68</ele>
        <time>2022-07-02T07:41:31Z</time>
      </trkpt>
      <trkpt lat="43.28181" lon="6.29241">
        <ele>745.64</ele>
        <time>2022-07-02T07:41:32Z</time>
      </trkpt>
      <trkpt lat="43.28182" lon="6.29244">
        <ele>745.64</ele>
        <time>2022-07-02T07:41:33Z</time>
      </trkpt>
      <trkpt lat="43.28182" lon="6.29248">
        <ele>746.12</ele>
        <time>2022-07-02T07:41:34Z</time>
      </trkpt>
      <trkpt lat="43.28182" lon="6.29251">
        <ele>746.6</ele>
        <time>2022-07-02T07:41:35Z</time>
      </trkpt>
      <trkpt lat="43.28182" lon="6.29254">
        <ele>746.6</ele>
        <time>2022-07-02T07:41:36Z</time>
      </trkpt>
      <trkpt lat="43.2819" lon="6.29304">
        <ele>752.37</ele>
        <time>2022-07-02T07:41:50Z</time>
      </trkpt>
      <trkpt lat="43.2821" lon="6.29362">
        <ele>757.18</ele>
        <time>2022-07-02T07:42:06Z</time>
      </trkpt>
      <trkpt lat="43.28229" lon="6.29413">
        <ele>760.54</ele>
        <time>2022-07-02T07:42:22Z</time>
      </trkpt>
      <trkpt lat="43.28234" lon="6.29457">
        <ele>765.83</ele>
        <time>2022-07-02T07:42:35Z</time>
      </trkpt>
      <trkpt lat="43.28215" lon="6.29475">
        <ele>768.23</ele>
        <time>2022-07-02T07:42:44Z</time>
      </trkpt>
      <trkpt lat="43.28204" lon="6.29471">
        <ele>768.23</ele>
        <time>2022-07-02T07:42:48Z</time>
      </trkpt>
      <trkpt lat="43.28202" lon="6.29468">
        <ele>768.71</ele>
        <time>2022-07-02T07:42:49Z</time>
      </trkpt>
      <trkpt lat="43.282" lon="6.29466">
        <ele>768.71</ele>
        <time>2022-07-02T07:42:50Z</time>
      </trkpt>
      <trkpt lat="43.28199" lon="6.29464">
        <ele>768.71</ele>
        <time>2022-07-02T07:42:51Z</time>
      </trkpt>
      <trkpt lat="43.28198" lon="6.2946">
        <ele>768.71</ele>
        <time>2022-07-02T07:42:52Z</time>
      </trkpt>
      <trkpt lat="43.28197" lon="6.29457">
        <ele>769.19</ele>
        <time>2022-07-02T07:42:53Z</time>
      </trkpt>
      <trkpt lat="43.28196" lon="6.29454">
        <ele>769.19</ele>
        <time>2022-07-02T07:42:54Z</time>
      </trkpt>
      <trkpt lat="43.28188" lon="6.29408">
        <ele>770.63</ele>
        <time>2022-07-02T07:43:06Z</time>
      </trkpt>
      <trkpt lat="43.28176" lon="6.29378">
        <ele>770.63</ele>
        <time>2022-07-02T07:43:16Z</time>
      </trkpt>
      <trkpt lat="43.28147" lon="6.29345">
        <ele>768.23</ele>
        <time>2022-07-02T07:43:28Z</time>
      </trkpt>
      <trkpt lat="43.28146" lon="6.29342">
        <ele>768.23</ele>
        <time>2022-07-02T07:43:29Z</time>
      </trkpt>
      <trkpt lat="43.28146" lon="6.29338">
        <ele>768.23</ele>
        <time>2022-07-02T07:43:30Z</time>
      </trkpt>
      <trkpt lat="43.28145" lon="6.29334">
        <ele>767.75</ele>
        <time>2022-07-02T07:43:31Z</time>
      </trkpt>
      <trkpt lat="43.28144" lon="6.2933">
        <ele>767.27</ele>
        <time>2022-07-02T07:43:32Z</time>
      </trkpt>
      <trkpt lat="43.28134" lon="6.29305">
        <ele>765.83</ele>
        <time>2022-07-02T07:43:40Z</time>
      </trkpt>
      <trkpt lat="43.28131" lon="6.29303">
        <ele>765.83</ele>
        <time>2022-07-02T07:43:41Z</time>
      </trkpt>
      <trkpt lat="43.28128" lon="6.29303">
        <ele>765.35</ele>
        <time>2022-07-02T07:43:42Z</time>
      </trkpt>
      <trkpt lat="43.28125" lon="6.29302">
        <ele>765.35</ele>
        <time>2022-07-02T07:43:43Z</time>
      </trkpt>
      <trkpt lat="43.28122" lon="6.29302">
        <ele>765.35</ele>
        <time>2022-07-02T07:43:44Z</time>
      </trkpt>
      <trkpt lat="43.2812" lon="6.29302">
        <ele>765.35</ele>
        <time>2022-07-02T07:43:45Z</time>
      </trkpt>
      <trkpt lat="43.28118" lon="6.29303">
        <ele>765.35</ele>
        <time>2022-07-02T07:43:46Z</time>
      </trkpt>
      <trkpt lat="43.28116" lon="6.29304">
        <ele>765.83</ele>
        <time>2022-07-02T07:43:47Z</time>
      </trkpt>
      <trkpt lat="43.28114" lon="6.29303">
        <ele>765.83</ele>
        <time>2022-07-02T07:43:48Z</time>
      </trkpt>
      <trkpt lat="43.28112" lon="6.29303">
        <ele>765.83</ele>
        <time>2022-07-02T07:43:49Z</time>
      </trkpt>
      <trkpt lat="43.2811" lon="6.29303">
        <ele>765.35</ele>
        <time>2022-07-02T07:43:50Z</time>
      </trkpt>
      <trkpt lat="43.28108" lon="6.29303">
        <ele>765.35</ele>
        <time>2022-07-02T07:43:51Z</time>
      </trkpt>
      <trkpt lat="43.28106" lon="6.29303">
        <ele>765.35</ele>
        <time>2022-07-02T07:43:52Z</time>
      </trkpt>
      <trkpt lat="43.28104" lon="6.29304">
        <ele>764.87</ele>
        <time>2022-07-02T07:43:53Z</time>
      </trkpt>
      <trkpt lat="43.28096" lon="6.29304">
        <ele>766.79</ele>
        <time>2022-07-02T07:44:06Z</time>
      </trkpt>
      <trkpt lat="43.28097" lon="6.29307">
        <ele>771.6</ele>
        <time>2022-07-02T07:48:40Z</time>
      </trkpt>
      <trkpt lat="43.28102" lon="6.29306">
        <ele>771.6</ele>
        <time>2022-07-02T07:49:08Z</time>
      </trkpt>
      <trkpt lat="43.28103" lon="6.29306">
        <ele>771.11</ele>
        <time>2022-07-02T07:49:09Z</time>
      </trkpt>
      <trkpt lat="43.28105" lon="6.29305">
        <ele>771.11</ele>
        <time>2022-07-02T07:49:10Z</time>
      </trkpt>
      <trkpt lat="43.28108" lon="6.29304">
        <ele>771.11</ele>
        <time>2022-07-02T07:49:11Z</time>
      </trkpt>
      <trkpt lat="43.2811" lon="6.29304">
        <ele>771.11</ele>
        <time>2022-07-02T07:49:12Z</time>
      </trkpt>
      <trkpt lat="43.28112" lon="6.29304">
        <ele>771.11</ele>
        <time>2022-07-02T07:49:13Z</time>
      </trkpt>
      <trkpt lat="43.28115" lon="6.29304">
        <ele>770.63</ele>
        <time>2022-07-02T07:49:14Z</time>
      </trkpt>
      <trkpt lat="43.28136" lon="6.29303">
        <ele>768.23</ele>
        <time>2022-07-02T07:49:21Z</time>
      </trkpt>
      <trkpt lat="43.28138" lon="6.29307">
        <ele>768.71</ele>
        <time>2022-07-02T07:49:22Z</time>
      </trkpt>
      <trkpt lat="43.2814" lon="6.2931">
        <ele>768.71</ele>
        <time>2022-07-02T07:49:23Z</time>
      </trkpt>
      <trkpt lat="43.28149" lon="6.29348">
        <ele>766.79</ele>
        <time>2022-07-02T07:49:31Z</time>
      </trkpt>
      <trkpt lat="43.28152" lon="6.2935">
        <ele>766.79</ele>
        <time>2022-07-02T07:49:32Z</time>
      </trkpt>
      <trkpt lat="43.28155" lon="6.29353">
        <ele>766.79</ele>
        <time>2022-07-02T07:49:33Z</time>
      </trkpt>
      <trkpt lat="43.28173" lon="6.29375">
        <ele>765.35</ele>
        <time>2022-07-02T07:49:39Z</time>
      </trkpt>
      <trkpt lat="43.28177" lon="6.29379">
        <ele>764.87</ele>
        <time>2022-07-02T07:49:40Z</time>
      </trkpt>
      <trkpt lat="43.28184" lon="6.29389">
        <ele>764.39</ele>
        <time>2022-07-02T07:49:42Z</time>
      </trkpt>
      <trkpt lat="43.28187" lon="6.29395">
        <ele>763.9</ele>
        <time>2022-07-02T07:49:43Z</time>
      </trkpt>
      <trkpt lat="43.28189" lon="6.29402">
        <ele>763.42</ele>
        <time>2022-07-02T07:49:44Z</time>
      </trkpt>
      <trkpt lat="43.28191" lon="6.29409">
        <ele>762.94</ele>
        <time>2022-07-02T07:49:45Z</time>
      </trkpt>
      <trkpt lat="43.28191" lon="6.29417">
        <ele>762.46</ele>
        <time>2022-07-02T07:49:46Z</time>
      </trkpt>
      <trkpt lat="43.28192" lon="6.29426">
        <ele>761.02</ele>
        <time>2022-07-02T07:49:47Z</time>
      </trkpt>
      <trkpt lat="43.28194" lon="6.29435">
        <ele>760.54</ele>
        <time>2022-07-02T07:49:48Z</time>
      </trkpt>
      <trkpt lat="43.28196" lon="6.29445">
        <ele>759.58</ele>
        <time>2022-07-02T07:49:49Z</time>
      </trkpt>
      <trkpt lat="43.28202" lon="6.29469">
        <ele>757.18</ele>
        <time>2022-07-02T07:49:52Z</time>
      </trkpt>
      <trkpt lat="43.28206" lon="6.29473">
        <ele>756.69</ele>
        <time>2022-07-02T07:49:53Z</time>
      </trkpt>
      <trkpt lat="43.28212" lon="6.29474">
        <ele>755.25</ele>
        <time>2022-07-02T07:49:54Z</time>
      </trkpt>
      <trkpt lat="43.28218" lon="6.29471">
        <ele>753.81</ele>
        <time>2022-07-02T07:49:55Z</time>
      </trkpt>
      <trkpt lat="43.28223" lon="6.29466">
        <ele>752.37</ele>
        <time>2022-07-02T07:49:56Z</time>
      </trkpt>
      <trkpt lat="43.28228" lon="6.2946">
        <ele>751.41</ele>
        <time>2022-07-02T07:49:57Z</time>
      </trkpt>
      <trkpt lat="43.2823" lon="6.29451">
        <ele>751.41</ele>
        <time>2022-07-02T07:49:58Z</time>
      </trkpt>
      <trkpt lat="43.28229" lon="6.29442">
        <ele>749.97</ele>
        <time>2022-07-02T07:49:59Z</time>
      </trkpt>
      <trkpt lat="43.28229" lon="6.29432">
        <ele>749</ele>
        <time>2022-07-02T07:50:00Z</time>
      </trkpt>
      <trkpt lat="43.28227" lon="6.29413">
        <ele>746.6</ele>
        <time>2022-07-02T07:50:02Z</time>
      </trkpt>
      <trkpt lat="43.28225" lon="6.29403">
        <ele>745.16</ele>
        <time>2022-07-02T07:50:03Z</time>
      </trkpt>
      <trkpt lat="43.28222" lon="6.29394">
        <ele>745.64</ele>
        <time>2022-07-02T07:50:04Z</time>
      </trkpt>
      <trkpt lat="43.28215" lon="6.29376">
        <ele>743.24</ele>
        <time>2022-07-02T07:50:06Z</time>
      </trkpt>
      <trkpt lat="43.28197" lon="6.29338">
        <ele>739.39</ele>
        <time>2022-07-02T07:50:10Z</time>
      </trkpt>
      <trkpt lat="43.28193" lon="6.29326">
        <ele>738.43</ele>
        <time>2022-07-02T07:50:11Z</time>
      </trkpt>
      <trkpt lat="43.28191" lon="6.29315">
        <ele>737.95</ele>
        <time>2022-07-02T07:50:12Z</time>
      </trkpt>
      <trkpt lat="43.28189" lon="6.29302">
        <ele>736.99</ele>
        <time>2022-07-02T07:50:13Z</time>
      </trkpt>
      <trkpt lat="43.28187" lon="6.29289">
        <ele>736.03</ele>
        <time>2022-07-02T07:50:14Z</time>
      </trkpt>
      <trkpt lat="43.28163" lon="6.29161">
        <ele>728.82</ele>
        <time>2022-07-02T07:50:23Z</time>
      </trkpt>
      <trkpt lat="43.28154" lon="6.29144">
        <ele>726.41</ele>
        <time>2022-07-02T07:50:25Z</time>
      </trkpt>
      <trkpt lat="43.28151" lon="6.29137">
        <ele>726.41</ele>
        <time>2022-07-02T07:50:26Z</time>
      </trkpt>
      <trkpt lat="43.28146" lon="6.29126">
        <ele>725.93</ele>
        <time>2022-07-02T07:50:29Z</time>
      </trkpt>
      <trkpt lat="43.28148" lon="6.2912">
        <ele>729.3</ele>
        <time>2022-07-02T07:50:46Z</time>
      </trkpt>
      <trkpt lat="43.28141" lon="6.29123">
        <ele>729.3</ele>
        <time>2022-07-02T07:51:15Z</time>
      </trkpt>
      <trkpt lat="43.2814" lon="6.29122">
        <ele>729.3</ele>
        <time>2022-07-02T07:51:16Z</time>
      </trkpt>
      <trkpt lat="43.28137" lon="6.2912">
        <ele>729.3</ele>
        <time>2022-07-02T07:51:17Z</time>
      </trkpt>
      <trkpt lat="43.28133" lon="6.29117">
        <ele>729.78</ele>
        <time>2022-07-02T07:51:18Z</time>
      </trkpt>
      <trkpt lat="43.2813" lon="6.29114">
        <ele>729.78</ele>
        <time>2022-07-02T07:51:19Z</time>
      </trkpt>
      <trkpt lat="43.28123" lon="6.29106">
        <ele>729.78</ele>
        <time>2022-07-02T07:51:21Z</time>
      </trkpt>
      <trkpt lat="43.28118" lon="6.29103">
        <ele>729.3</ele>
        <time>2022-07-02T07:51:22Z</time>
      </trkpt>
      <trkpt lat="43.28059" lon="6.29052">
        <ele>728.34</ele>
        <time>2022-07-02T07:51:32Z</time>
      </trkpt>
      <trkpt lat="43.28044" lon="6.29041">
        <ele>727.86</ele>
        <time>2022-07-02T07:51:34Z</time>
      </trkpt>
      <trkpt lat="43.28017" lon="6.29063">
        <ele>726.41</ele>
        <time>2022-07-02T07:51:40Z</time>
      </trkpt>
      <trkpt lat="43.28017" lon="6.29095">
        <ele>725.45</ele>
        <time>2022-07-02T07:51:43Z</time>
      </trkpt>
      <trkpt lat="43.28013" lon="6.29129">
        <ele>724.01</ele>
        <time>2022-07-02T07:51:46Z</time>
      </trkpt>
      <trkpt lat="43.27994" lon="6.29173">
        <ele>722.57</ele>
        <time>2022-07-02T07:51:50Z</time>
      </trkpt>
      <trkpt lat="43.27982" lon="6.29232">
        <ele>718.24</ele>
        <time>2022-07-02T07:51:55Z</time>
      </trkpt>
      <trkpt lat="43.2801" lon="6.29394">
        <ele>714.4</ele>
        <time>2022-07-02T07:52:07Z</time>
      </trkpt>
      <trkpt lat="43.28012" lon="6.29444">
        <ele>713.92</ele>
        <time>2022-07-02T07:52:11Z</time>
      </trkpt>
      <trkpt lat="43.27973" lon="6.2957">
        <ele>710.07</ele>
        <time>2022-07-02T07:52:22Z</time>
      </trkpt>
      <trkpt lat="43.27956" lon="6.29606">
        <ele>708.63</ele>
        <time>2022-07-02T07:52:25Z</time>
      </trkpt>
      <trkpt lat="43.27902" lon="6.29664">
        <ele>701.42</ele>
        <time>2022-07-02T07:52:32Z</time>
      </trkpt>
      <trkpt lat="43.2791" lon="6.29715">
        <ele>699.5</ele>
        <time>2022-07-02T07:52:37Z</time>
      </trkpt>
      <trkpt lat="43.27932" lon="6.29718">
        <ele>697.57</ele>
        <time>2022-07-02T07:52:40Z</time>
      </trkpt>
      <trkpt lat="43.2803" lon="6.29718">
        <ele>689.4</ele>
        <time>2022-07-02T07:52:50Z</time>
      </trkpt>
      <trkpt lat="43.2807" lon="6.29733">
        <ele>687.48</ele>
        <time>2022-07-02T07:52:54Z</time>
      </trkpt>
      <trkpt lat="43.28131" lon="6.29814">
        <ele>681.71</ele>
        <time>2022-07-02T07:53:02Z</time>
      </trkpt>
      <trkpt lat="43.28174" lon="6.29927">
        <ele>678.83</ele>
        <time>2022-07-02T07:53:11Z</time>
      </trkpt>
      <trkpt lat="43.28178" lon="6.29971">
        <ele>678.83</ele>
        <time>2022-07-02T07:53:15Z</time>
      </trkpt>
      <trkpt lat="43.28179" lon="6.30033">
        <ele>677.39</ele>
        <time>2022-07-02T07:53:21Z</time>
      </trkpt>
      <trkpt lat="43.28183" lon="6.30055">
        <ele>676.91</ele>
        <time>2022-07-02T07:53:23Z</time>
      </trkpt>
      <trkpt lat="43.28203" lon="6.30134">
        <ele>674.98</ele>
        <time>2022-07-02T07:53:30Z</time>
      </trkpt>
      <trkpt lat="43.28222" lon="6.30212">
        <ele>674.02</ele>
        <time>2022-07-02T07:53:37Z</time>
      </trkpt>
      <trkpt lat="43.28225" lon="6.30267">
        <ele>674.02</ele>
        <time>2022-07-02T07:53:42Z</time>
      </trkpt>
      <trkpt lat="43.28227" lon="6.30298">
        <ele>673.54</ele>
        <time>2022-07-02T07:53:45Z</time>
      </trkpt>
      <trkpt lat="43.28223" lon="6.30334">
        <ele>673.54</ele>
        <time>2022-07-02T07:53:49Z</time>
      </trkpt>
      <trkpt lat="43.28225" lon="6.30396">
        <ele>672.58</ele>
        <time>2022-07-02T07:53:57Z</time>
      </trkpt>
      <trkpt lat="43.2823" lon="6.30417">
        <ele>674.02</ele>
        <time>2022-07-02T07:54:00Z</time>
      </trkpt>
      <trkpt lat="43.28236" lon="6.30435">
        <ele>674.02</ele>
        <time>2022-07-02T07:54:03Z</time>
      </trkpt>
      <trkpt lat="43.28245" lon="6.30465">
        <ele>674.02</ele>
        <time>2022-07-02T07:54:08Z</time>
      </trkpt>
      <trkpt lat="43.28248" lon="6.30504">
        <ele>676.42</ele>
        <time>2022-07-02T07:54:14Z</time>
      </trkpt>
      <trkpt lat="43.28248" lon="6.30529">
        <ele>677.39</ele>
        <time>2022-07-02T07:54:18Z</time>
      </trkpt>
      <trkpt lat="43.28257" lon="6.30579">
        <ele>679.79</ele>
        <time>2022-07-02T07:54:26Z</time>
      </trkpt>
      <trkpt lat="43.28264" lon="6.30598">
        <ele>679.79</ele>
        <time>2022-07-02T07:54:29Z</time>
      </trkpt>
      <trkpt lat="43.28287" lon="6.30638">
        <ele>680.75</ele>
        <time>2022-07-02T07:54:36Z</time>
      </trkpt>
      <trkpt lat="43.28294" lon="6.30647">
        <ele>681.23</ele>
        <time>2022-07-02T07:54:38Z</time>
      </trkpt>
      <trkpt lat="43.28305" lon="6.30666">
        <ele>682.19</ele>
        <time>2022-07-02T07:54:42Z</time>
      </trkpt>
      <trkpt lat="43.28314" lon="6.30679">
        <ele>683.15</ele>
        <time>2022-07-02T07:54:45Z</time>
      </trkpt>
      <trkpt lat="43.28352" lon="6.30739">
        <ele>685.08</ele>
        <time>2022-07-02T07:54:58Z</time>
      </trkpt>
      <trkpt lat="43.28367" lon="6.30764">
        <ele>685.56</ele>
        <time>2022-07-02T07:55:03Z</time>
      </trkpt>
      <trkpt lat="43.28384" lon="6.30789">
        <ele>686.52</ele>
        <time>2022-07-02T07:55:08Z</time>
      </trkpt>
      <trkpt lat="43.284" lon="6.30813">
        <ele>687</ele>
        <time>2022-07-02T07:55:12Z</time>
      </trkpt>
      <trkpt lat="43.28444" lon="6.30869">
        <ele>686.52</ele>
        <time>2022-07-02T07:55:22Z</time>
      </trkpt>
      <trkpt lat="43.28465" lon="6.30915">
        <ele>687</ele>
        <time>2022-07-02T07:55:30Z</time>
      </trkpt>
      <trkpt lat="43.28475" lon="6.30931">
        <ele>685.08</ele>
        <time>2022-07-02T07:55:33Z</time>
      </trkpt>
      <trkpt lat="43.28535" lon="6.30988">
        <ele>679.31</ele>
        <time>2022-07-02T07:55:43Z</time>
      </trkpt>
      <trkpt lat="43.28553" lon="6.30998">
        <ele>677.87</ele>
        <time>2022-07-02T07:55:45Z</time>
      </trkpt>
      <trkpt lat="43.28572" lon="6.31005">
        <ele>676.42</ele>
        <time>2022-07-02T07:55:47Z</time>
      </trkpt>
      <trkpt lat="43.28627" lon="6.31073">
        <ele>671.14</ele>
        <time>2022-07-02T07:55:54Z</time>
      </trkpt>
      <trkpt lat="43.28637" lon="6.31132">
        <ele>665.85</ele>
        <time>2022-07-02T07:55:58Z</time>
      </trkpt>
      <trkpt lat="43.28639" lon="6.31199">
        <ele>662.01</ele>
        <time>2022-07-02T07:56:02Z</time>
      </trkpt>
      <trkpt lat="43.28631" lon="6.31267">
        <ele>656.24</ele>
        <time>2022-07-02T07:56:06Z</time>
      </trkpt>
      <trkpt lat="43.28635" lon="6.3137">
        <ele>649.03</ele>
        <time>2022-07-02T07:56:12Z</time>
      </trkpt>
      <trkpt lat="43.28629" lon="6.31419">
        <ele>643.74</ele>
        <time>2022-07-02T07:56:18Z</time>
      </trkpt>
      <trkpt lat="43.28623" lon="6.31402">
        <ele>641.82</ele>
        <time>2022-07-02T07:56:20Z</time>
      </trkpt>
      <trkpt lat="43.28618" lon="6.3136">
        <ele>638.45</ele>
        <time>2022-07-02T07:56:24Z</time>
      </trkpt>
      <trkpt lat="43.28584" lon="6.31215">
        <ele>629.32</ele>
        <time>2022-07-02T07:56:35Z</time>
      </trkpt>
      <trkpt lat="43.28576" lon="6.31187">
        <ele>627.88</ele>
        <time>2022-07-02T07:56:37Z</time>
      </trkpt>
      <trkpt lat="43.28526" lon="6.31154">
        <ele>622.59</ele>
        <time>2022-07-02T07:56:43Z</time>
      </trkpt>
      <trkpt lat="43.28482" lon="6.31159">
        <ele>617.78</ele>
        <time>2022-07-02T07:56:47Z</time>
      </trkpt>
      <trkpt lat="43.28417" lon="6.31112">
        <ele>609.61</ele>
        <time>2022-07-02T07:56:54Z</time>
      </trkpt>
      <trkpt lat="43.28401" lon="6.31106">
        <ele>607.21</ele>
        <time>2022-07-02T07:56:59Z</time>
      </trkpt>
      <trkpt lat="43.28405" lon="6.31115">
        <ele>606.73</ele>
        <time>2022-07-02T07:57:00Z</time>
      </trkpt>
      <trkpt lat="43.2845" lon="6.31179">
        <ele>601.44</ele>
        <time>2022-07-02T07:57:08Z</time>
      </trkpt>
      <trkpt lat="43.28505" lon="6.31204">
        <ele>598.08</ele>
        <time>2022-07-02T07:57:15Z</time>
      </trkpt>
      <trkpt lat="43.28533" lon="6.31238">
        <ele>594.23</ele>
        <time>2022-07-02T07:57:21Z</time>
      </trkpt>
      <trkpt lat="43.2853" lon="6.31258">
        <ele>594.23</ele>
        <time>2022-07-02T07:57:23Z</time>
      </trkpt>
      <trkpt lat="43.28524" lon="6.31311">
        <ele>592.31</ele>
        <time>2022-07-02T07:57:27Z</time>
      </trkpt>
      <trkpt lat="43.28511" lon="6.31367">
        <ele>589.43</ele>
        <time>2022-07-02T07:57:31Z</time>
      </trkpt>
      <trkpt lat="43.28457" lon="6.31421">
        <ele>584.62</ele>
        <time>2022-07-02T07:57:37Z</time>
      </trkpt>
      <trkpt lat="43.28431" lon="6.31477">
        <ele>581.25</ele>
        <time>2022-07-02T07:57:42Z</time>
      </trkpt>
      <trkpt lat="43.28428" lon="6.31623">
        <ele>573.56</ele>
        <time>2022-07-02T07:57:52Z</time>
      </trkpt>
      <trkpt lat="43.28426" lon="6.31651">
        <ele>572.6</ele>
        <time>2022-07-02T07:57:54Z</time>
      </trkpt>
      <trkpt lat="43.2842" lon="6.3168">
        <ele>570.2</ele>
        <time>2022-07-02T07:57:56Z</time>
      </trkpt>
      <trkpt lat="43.28412" lon="6.31708">
        <ele>565.87</ele>
        <time>2022-07-02T07:57:58Z</time>
      </trkpt>
      <trkpt lat="43.28393" lon="6.31751">
        <ele>561.55</ele>
        <time>2022-07-02T07:58:01Z</time>
      </trkpt>
      <trkpt lat="43.2837" lon="6.31832">
        <ele>556.26</ele>
        <time>2022-07-02T07:58:06Z</time>
      </trkpt>
      <trkpt lat="43.28343" lon="6.319">
        <ele>553.86</ele>
        <time>2022-07-02T07:58:11Z</time>
      </trkpt>
      <trkpt lat="43.28327" lon="6.3192">
        <ele>554.34</ele>
        <time>2022-07-02T07:58:13Z</time>
      </trkpt>
      <trkpt lat="43.28284" lon="6.31951">
        <ele>552.41</ele>
        <time>2022-07-02T07:58:18Z</time>
      </trkpt>
      <trkpt lat="43.28243" lon="6.32015">
        <ele>547.13</ele>
        <time>2022-07-02T07:58:26Z</time>
      </trkpt>
      <trkpt lat="43.28247" lon="6.32024">
        <ele>546.17</ele>
        <time>2022-07-02T07:58:27Z</time>
      </trkpt>
      <trkpt lat="43.28267" lon="6.32067">
        <ele>541.36</ele>
        <time>2022-07-02T07:58:31Z</time>
      </trkpt>
      <trkpt lat="43.28293" lon="6.32204">
        <ele>532.71</ele>
        <time>2022-07-02T07:58:40Z</time>
      </trkpt>
      <trkpt lat="43.28296" lon="6.32219">
        <ele>532.23</ele>
        <time>2022-07-02T07:58:41Z</time>
      </trkpt>
      <trkpt lat="43.28306" lon="6.32244">
        <ele>531.27</ele>
        <time>2022-07-02T07:58:43Z</time>
      </trkpt>
      <trkpt lat="43.28317" lon="6.32353">
        <ele>531.75</ele>
        <time>2022-07-02T07:58:52Z</time>
      </trkpt>
      <trkpt lat="43.28317" lon="6.32384">
        <ele>530.3</ele>
        <time>2022-07-02T07:58:55Z</time>
      </trkpt>
      <trkpt lat="43.28311" lon="6.32422">
        <ele>530.3</ele>
        <time>2022-07-02T07:58:59Z</time>
      </trkpt>
      <trkpt lat="43.28302" lon="6.32475">
        <ele>530.79</ele>
        <time>2022-07-02T07:59:06Z</time>
      </trkpt>
      <trkpt lat="43.28303" lon="6.32527">
        <ele>531.27</ele>
        <time>2022-07-02T07:59:13Z</time>
      </trkpt>
      <trkpt lat="43.28303" lon="6.32535">
        <ele>530.79</ele>
        <time>2022-07-02T07:59:14Z</time>
      </trkpt>
      <trkpt lat="43.28304" lon="6.32563">
        <ele>529.34</ele>
        <time>2022-07-02T07:59:17Z</time>
      </trkpt>
      <trkpt lat="43.28313" lon="6.32623">
        <ele>531.27</ele>
        <time>2022-07-02T07:59:23Z</time>
      </trkpt>
      <trkpt lat="43.28317" lon="6.32658">
        <ele>534.15</ele>
        <time>2022-07-02T07:59:27Z</time>
      </trkpt>
      <trkpt lat="43.28316" lon="6.32667">
        <ele>534.63</ele>
        <time>2022-07-02T07:59:28Z</time>
      </trkpt>
      <trkpt lat="43.28308" lon="6.32774">
        <ele>536.07</ele>
        <time>2022-07-02T07:59:38Z</time>
      </trkpt>
      <trkpt lat="43.28304" lon="6.32785">
        <ele>535.59</ele>
        <time>2022-07-02T07:59:39Z</time>
      </trkpt>
      <trkpt lat="43.28297" lon="6.32795">
        <ele>535.59</ele>
        <time>2022-07-02T07:59:40Z</time>
      </trkpt>
      <trkpt lat="43.2829" lon="6.32801">
        <ele>535.59</ele>
        <time>2022-07-02T07:59:41Z</time>
      </trkpt>
      <trkpt lat="43.28282" lon="6.32806">
        <ele>535.59</ele>
        <time>2022-07-02T07:59:42Z</time>
      </trkpt>
      <trkpt lat="43.28273" lon="6.3281">
        <ele>535.59</ele>
        <time>2022-07-02T07:59:43Z</time>
      </trkpt>
      <trkpt lat="43.28264" lon="6.32814">
        <ele>535.59</ele>
        <time>2022-07-02T07:59:44Z</time>
      </trkpt>
      <trkpt lat="43.28255" lon="6.32817">
        <ele>535.11</ele>
        <time>2022-07-02T07:59:45Z</time>
      </trkpt>
      <trkpt lat="43.28246" lon="6.32819">
        <ele>534.63</ele>
        <time>2022-07-02T07:59:46Z</time>
      </trkpt>
      <trkpt lat="43.28235" lon="6.3282">
        <ele>534.63</ele>
        <time>2022-07-02T07:59:47Z</time>
      </trkpt>
      <trkpt lat="43.28214" lon="6.32824">
        <ele>533.67</ele>
        <time>2022-07-02T07:59:49Z</time>
      </trkpt>
      <trkpt lat="43.28204" lon="6.32829">
        <ele>533.19</ele>
        <time>2022-07-02T07:59:50Z</time>
      </trkpt>
      <trkpt lat="43.28195" lon="6.32837">
        <ele>532.23</ele>
        <time>2022-07-02T07:59:51Z</time>
      </trkpt>
      <trkpt lat="43.28189" lon="6.32848">
        <ele>531.27</ele>
        <time>2022-07-02T07:59:52Z</time>
      </trkpt>
      <trkpt lat="43.28185" lon="6.32862">
        <ele>530.79</ele>
        <time>2022-07-02T07:59:53Z</time>
      </trkpt>
      <trkpt lat="43.28182" lon="6.32877">
        <ele>529.82</ele>
        <time>2022-07-02T07:59:54Z</time>
      </trkpt>
      <trkpt lat="43.28179" lon="6.32892">
        <ele>529.34</ele>
        <time>2022-07-02T07:59:55Z</time>
      </trkpt>
      <trkpt lat="43.28158" lon="6.3295">
        <ele>524.54</ele>
        <time>2022-07-02T08:00:00Z</time>
      </trkpt>
      <trkpt lat="43.2815" lon="6.32955">
        <ele>523.09</ele>
        <time>2022-07-02T08:00:01Z</time>
      </trkpt>
      <trkpt lat="43.28138" lon="6.32953">
        <ele>521.65</ele>
        <time>2022-07-02T08:00:02Z</time>
      </trkpt>
      <trkpt lat="43.28125" lon="6.32948">
        <ele>520.69</ele>
        <time>2022-07-02T08:00:03Z</time>
      </trkpt>
      <trkpt lat="43.28115" lon="6.32942">
        <ele>520.21</ele>
        <time>2022-07-02T08:00:04Z</time>
      </trkpt>
      <trkpt lat="43.28107" lon="6.32935">
        <ele>519.25</ele>
        <time>2022-07-02T08:00:05Z</time>
      </trkpt>
      <trkpt lat="43.28099" lon="6.32928">
        <ele>518.77</ele>
        <time>2022-07-02T08:00:06Z</time>
      </trkpt>
      <trkpt lat="43.28083" lon="6.32914">
        <ele>517.33</ele>
        <time>2022-07-02T08:00:08Z</time>
      </trkpt>
      <trkpt lat="43.28076" lon="6.32908">
        <ele>516.37</ele>
        <time>2022-07-02T08:00:09Z</time>
      </trkpt>
      <trkpt lat="43.28067" lon="6.32906">
        <ele>515.4</ele>
        <time>2022-07-02T08:00:10Z</time>
      </trkpt>
      <trkpt lat="43.28058" lon="6.32906">
        <ele>514.92</ele>
        <time>2022-07-02T08:00:11Z</time>
      </trkpt>
      <trkpt lat="43.28049" lon="6.32909">
        <ele>513.96</ele>
        <time>2022-07-02T08:00:12Z</time>
      </trkpt>
      <trkpt lat="43.2804" lon="6.32914">
        <ele>513</ele>
        <time>2022-07-02T08:00:13Z</time>
      </trkpt>
      <trkpt lat="43.28031" lon="6.3292">
        <ele>512.04</ele>
        <time>2022-07-02T08:00:14Z</time>
      </trkpt>
      <trkpt lat="43.28024" lon="6.32925">
        <ele>511.08</ele>
        <time>2022-07-02T08:00:15Z</time>
      </trkpt>
      <trkpt lat="43.28016" lon="6.32927">
        <ele>510.6</ele>
        <time>2022-07-02T08:00:16Z</time>
      </trkpt>
      <trkpt lat="43.2801" lon="6.32924">
        <ele>511.08</ele>
        <time>2022-07-02T08:00:17Z</time>
      </trkpt>
      <trkpt lat="43.28006" lon="6.32918">
        <ele>510.6</ele>
        <time>2022-07-02T08:00:18Z</time>
      </trkpt>
      <trkpt lat="43.28008" lon="6.3291">
        <ele>510.12</ele>
        <time>2022-07-02T08:00:19Z</time>
      </trkpt>
      <trkpt lat="43.28009" lon="6.329">
        <ele>509.64</ele>
        <time>2022-07-02T08:00:20Z</time>
      </trkpt>
      <trkpt lat="43.28034" lon="6.32827">
        <ele>504.35</ele>
        <time>2022-07-02T08:00:27Z</time>
      </trkpt>
      <trkpt lat="43.2804" lon="6.32802">
        <ele>502.43</ele>
        <time>2022-07-02T08:00:29Z</time>
      </trkpt>
      <trkpt lat="43.2804" lon="6.32788">
        <ele>501.95</ele>
        <time>2022-07-02T08:00:30Z</time>
      </trkpt>
      <trkpt lat="43.28038" lon="6.32774">
        <ele>501.46</ele>
        <time>2022-07-02T08:00:31Z</time>
      </trkpt>
      <trkpt lat="43.28034" lon="6.32762">
        <ele>500.5</ele>
        <time>2022-07-02T08:00:32Z</time>
      </trkpt>
      <trkpt lat="43.28028" lon="6.3275">
        <ele>499.54</ele>
        <time>2022-07-02T08:00:33Z</time>
      </trkpt>
      <trkpt lat="43.28019" lon="6.32739">
        <ele>499.54</ele>
        <time>2022-07-02T08:00:34Z</time>
      </trkpt>
      <trkpt lat="43.2801" lon="6.3273">
        <ele>498.58</ele>
        <time>2022-07-02T08:00:35Z</time>
      </trkpt>
      <trkpt lat="43.28" lon="6.32723">
        <ele>497.62</ele>
        <time>2022-07-02T08:00:36Z</time>
      </trkpt>
      <trkpt lat="43.27991" lon="6.32716">
        <ele>496.66</ele>
        <time>2022-07-02T08:00:37Z</time>
      </trkpt>
      <trkpt lat="43.27981" lon="6.3271">
        <ele>496.18</ele>
        <time>2022-07-02T08:00:38Z</time>
      </trkpt>
      <trkpt lat="43.27971" lon="6.32705">
        <ele>495.22</ele>
        <time>2022-07-02T08:00:39Z</time>
      </trkpt>
      <trkpt lat="43.27961" lon="6.32701">
        <ele>494.74</ele>
        <time>2022-07-02T08:00:40Z</time>
      </trkpt>
      <trkpt lat="43.27863" lon="6.32648">
        <ele>488.01</ele>
        <time>2022-07-02T08:00:50Z</time>
      </trkpt>
      <trkpt lat="43.27855" lon="6.32637">
        <ele>487.05</ele>
        <time>2022-07-02T08:00:51Z</time>
      </trkpt>
      <trkpt lat="43.27848" lon="6.32624">
        <ele>487.05</ele>
        <time>2022-07-02T08:00:52Z</time>
      </trkpt>
      <trkpt lat="43.27841" lon="6.32612">
        <ele>486.56</ele>
        <time>2022-07-02T08:00:53Z</time>
      </trkpt>
      <trkpt lat="43.27833" lon="6.326">
        <ele>485.6</ele>
        <time>2022-07-02T08:00:54Z</time>
      </trkpt>
      <trkpt lat="43.27825" lon="6.3259">
        <ele>484.64</ele>
        <time>2022-07-02T08:00:55Z</time>
      </trkpt>
      <trkpt lat="43.27817" lon="6.3258">
        <ele>484.16</ele>
        <time>2022-07-02T08:00:56Z</time>
      </trkpt>
      <trkpt lat="43.27808" lon="6.3257">
        <ele>483.68</ele>
        <time>2022-07-02T08:00:57Z</time>
      </trkpt>
      <trkpt lat="43.27728" lon="6.32458">
        <ele>481.28</ele>
        <time>2022-07-02T08:01:08Z</time>
      </trkpt>
      <trkpt lat="43.2772" lon="6.32449">
        <ele>480.8</ele>
        <time>2022-07-02T08:01:09Z</time>
      </trkpt>
      <trkpt lat="43.27712" lon="6.32441">
        <ele>480.32</ele>
        <time>2022-07-02T08:01:10Z</time>
      </trkpt>
      <trkpt lat="43.27703" lon="6.32434">
        <ele>479.84</ele>
        <time>2022-07-02T08:01:11Z</time>
      </trkpt>
      <trkpt lat="43.27694" lon="6.32429">
        <ele>479.35</ele>
        <time>2022-07-02T08:01:12Z</time>
      </trkpt>
      <trkpt lat="43.27666" lon="6.32413">
        <ele>477.43</ele>
        <time>2022-07-02T08:01:15Z</time>
      </trkpt>
      <trkpt lat="43.27657" lon="6.3241">
        <ele>476.47</ele>
        <time>2022-07-02T08:01:16Z</time>
      </trkpt>
      <trkpt lat="43.27647" lon="6.32411">
        <ele>475.99</ele>
        <time>2022-07-02T08:01:17Z</time>
      </trkpt>
      <trkpt lat="43.27638" lon="6.32414">
        <ele>475.51</ele>
        <time>2022-07-02T08:01:18Z</time>
      </trkpt>
      <trkpt lat="43.27629" lon="6.3242">
        <ele>475.03</ele>
        <time>2022-07-02T08:01:19Z</time>
      </trkpt>
      <trkpt lat="43.2762" lon="6.32427">
        <ele>474.07</ele>
        <time>2022-07-02T08:01:20Z</time>
      </trkpt>
      <trkpt lat="43.27612" lon="6.32433">
        <ele>473.59</ele>
        <time>2022-07-02T08:01:21Z</time>
      </trkpt>
      <trkpt lat="43.27603" lon="6.32436">
        <ele>473.59</ele>
        <time>2022-07-02T08:01:22Z</time>
      </trkpt>
      <trkpt lat="43.27593" lon="6.32437">
        <ele>472.63</ele>
        <time>2022-07-02T08:01:23Z</time>
      </trkpt>
      <trkpt lat="43.27583" lon="6.32436">
        <ele>472.63</ele>
        <time>2022-07-02T08:01:24Z</time>
      </trkpt>
      <trkpt lat="43.27574" lon="6.32434">
        <ele>472.14</ele>
        <time>2022-07-02T08:01:25Z</time>
      </trkpt>
      <trkpt lat="43.27555" lon="6.32433">
        <ele>471.18</ele>
        <time>2022-07-02T08:01:27Z</time>
      </trkpt>
      <trkpt lat="43.27546" lon="6.32433">
        <ele>471.18</ele>
        <time>2022-07-02T08:01:28Z</time>
      </trkpt>
      <trkpt lat="43.27537" lon="6.32434">
        <ele>471.66</ele>
        <time>2022-07-02T08:01:29Z</time>
      </trkpt>
      <trkpt lat="43.2753" lon="6.32438">
        <ele>471.66</ele>
        <time>2022-07-02T08:01:30Z</time>
      </trkpt>
      <trkpt lat="43.27526" lon="6.32446">
        <ele>471.66</ele>
        <time>2022-07-02T08:01:31Z</time>
      </trkpt>
      <trkpt lat="43.27525" lon="6.32458">
        <ele>471.18</ele>
        <time>2022-07-02T08:01:32Z</time>
      </trkpt>
      <trkpt lat="43.27526" lon="6.3247">
        <ele>470.22</ele>
        <time>2022-07-02T08:01:33Z</time>
      </trkpt>
      <trkpt lat="43.27528" lon="6.32481">
        <ele>470.22</ele>
        <time>2022-07-02T08:01:34Z</time>
      </trkpt>
      <trkpt lat="43.27534" lon="6.32515">
        <ele>468.78</ele>
        <time>2022-07-02T08:01:37Z</time>
      </trkpt>
      <trkpt lat="43.27535" lon="6.32527">
        <ele>468.3</ele>
        <time>2022-07-02T08:01:38Z</time>
      </trkpt>
      <trkpt lat="43.27534" lon="6.32538">
        <ele>467.82</ele>
        <time>2022-07-02T08:01:39Z</time>
      </trkpt>
      <trkpt lat="43.27522" lon="6.32601">
        <ele>463.97</ele>
        <time>2022-07-02T08:01:45Z</time>
      </trkpt>
      <trkpt lat="43.2752" lon="6.32609">
        <ele>463.49</ele>
        <time>2022-07-02T08:01:46Z</time>
      </trkpt>
      <trkpt lat="43.27516" lon="6.32611">
        <ele>463.01</ele>
        <time>2022-07-02T08:01:47Z</time>
      </trkpt>
      <trkpt lat="43.27512" lon="6.3261">
        <ele>462.05</ele>
        <time>2022-07-02T08:01:48Z</time>
      </trkpt>
      <trkpt lat="43.27508" lon="6.32605">
        <ele>461.57</ele>
        <time>2022-07-02T08:01:49Z</time>
      </trkpt>
      <trkpt lat="43.27504" lon="6.32597">
        <ele>461.57</ele>
        <time>2022-07-02T08:01:50Z</time>
      </trkpt>
      <trkpt lat="43.275" lon="6.32588">
        <ele>461.09</ele>
        <time>2022-07-02T08:01:51Z</time>
      </trkpt>
      <trkpt lat="43.27495" lon="6.32581">
        <ele>460.61</ele>
        <time>2022-07-02T08:01:52Z</time>
      </trkpt>
      <trkpt lat="43.27491" lon="6.32573">
        <ele>460.61</ele>
        <time>2022-07-02T08:01:53Z</time>
      </trkpt>
      <trkpt lat="43.27486" lon="6.32565">
        <ele>460.13</ele>
        <time>2022-07-02T08:01:54Z</time>
      </trkpt>
      <trkpt lat="43.27464" lon="6.32526">
        <ele>458.21</ele>
        <time>2022-07-02T08:01:58Z</time>
      </trkpt>
      <trkpt lat="43.27452" lon="6.32506">
        <ele>456.76</ele>
        <time>2022-07-02T08:02:00Z</time>
      </trkpt>
      <trkpt lat="43.27447" lon="6.32494">
        <ele>456.28</ele>
        <time>2022-07-02T08:02:01Z</time>
      </trkpt>
      <trkpt lat="43.27445" lon="6.32481">
        <ele>456.28</ele>
        <time>2022-07-02T08:02:02Z</time>
      </trkpt>
      <trkpt lat="43.27443" lon="6.32466">
        <ele>455.8</ele>
        <time>2022-07-02T08:02:03Z</time>
      </trkpt>
      <trkpt lat="43.2744" lon="6.32452">
        <ele>456.28</ele>
        <time>2022-07-02T08:02:04Z</time>
      </trkpt>
      <trkpt lat="43.27438" lon="6.32438">
        <ele>455.8</ele>
        <time>2022-07-02T08:02:05Z</time>
      </trkpt>
      <trkpt lat="43.27425" lon="6.32325">
        <ele>452.44</ele>
        <time>2022-07-02T08:02:13Z</time>
      </trkpt>
      <trkpt lat="43.27425" lon="6.3231">
        <ele>451.48</ele>
        <time>2022-07-02T08:02:14Z</time>
      </trkpt>
      <trkpt lat="43.27428" lon="6.32295">
        <ele>451</ele>
        <time>2022-07-02T08:02:15Z</time>
      </trkpt>
      <trkpt lat="43.27431" lon="6.3228">
        <ele>450.52</ele>
        <time>2022-07-02T08:02:16Z</time>
      </trkpt>
      <trkpt lat="43.27434" lon="6.32265">
        <ele>450.03</ele>
        <time>2022-07-02T08:02:17Z</time>
      </trkpt>
      <trkpt lat="43.27439" lon="6.32251">
        <ele>450.03</ele>
        <time>2022-07-02T08:02:18Z</time>
      </trkpt>
      <trkpt lat="43.27445" lon="6.32238">
        <ele>449.55</ele>
        <time>2022-07-02T08:02:19Z</time>
      </trkpt>
      <trkpt lat="43.27454" lon="6.32228">
        <ele>449.55</ele>
        <time>2022-07-02T08:02:20Z</time>
      </trkpt>
      <trkpt lat="43.27461" lon="6.32219">
        <ele>448.59</ele>
        <time>2022-07-02T08:02:21Z</time>
      </trkpt>
      <trkpt lat="43.27467" lon="6.32209">
        <ele>448.11</ele>
        <time>2022-07-02T08:02:22Z</time>
      </trkpt>
      <trkpt lat="43.27469" lon="6.32199">
        <ele>447.63</ele>
        <time>2022-07-02T08:02:23Z</time>
      </trkpt>
      <trkpt lat="43.27464" lon="6.3219">
        <ele>447.63</ele>
        <time>2022-07-02T08:02:24Z</time>
      </trkpt>
      <trkpt lat="43.27455" lon="6.32181">
        <ele>446.67</ele>
        <time>2022-07-02T08:02:25Z</time>
      </trkpt>
      <trkpt lat="43.27447" lon="6.32173">
        <ele>446.19</ele>
        <time>2022-07-02T08:02:26Z</time>
      </trkpt>
      <trkpt lat="43.27438" lon="6.32168">
        <ele>445.71</ele>
        <time>2022-07-02T08:02:27Z</time>
      </trkpt>
      <trkpt lat="43.27429" lon="6.32164">
        <ele>445.23</ele>
        <time>2022-07-02T08:02:28Z</time>
      </trkpt>
      <trkpt lat="43.27421" lon="6.32161">
        <ele>444.27</ele>
        <time>2022-07-02T08:02:29Z</time>
      </trkpt>
      <trkpt lat="43.27412" lon="6.32159">
        <ele>443.79</ele>
        <time>2022-07-02T08:02:30Z</time>
      </trkpt>
      <trkpt lat="43.27332" lon="6.32138">
        <ele>438.5</ele>
        <time>2022-07-02T08:02:39Z</time>
      </trkpt>
      <trkpt lat="43.27324" lon="6.32134">
        <ele>438.02</ele>
        <time>2022-07-02T08:02:40Z</time>
      </trkpt>
      <trkpt lat="43.27308" lon="6.32124">
        <ele>437.06</ele>
        <time>2022-07-02T08:02:42Z</time>
      </trkpt>
      <trkpt lat="43.27299" lon="6.32119">
        <ele>436.58</ele>
        <time>2022-07-02T08:02:43Z</time>
      </trkpt>
      <trkpt lat="43.27291" lon="6.32116">
        <ele>436.1</ele>
        <time>2022-07-02T08:02:44Z</time>
      </trkpt>
      <trkpt lat="43.27284" lon="6.32117">
        <ele>435.61</ele>
        <time>2022-07-02T08:02:45Z</time>
      </trkpt>
      <trkpt lat="43.27277" lon="6.32122">
        <ele>434.65</ele>
        <time>2022-07-02T08:02:46Z</time>
      </trkpt>
      <trkpt lat="43.27271" lon="6.32129">
        <ele>434.17</ele>
        <time>2022-07-02T08:02:47Z</time>
      </trkpt>
      <trkpt lat="43.27263" lon="6.32136">
        <ele>434.17</ele>
        <time>2022-07-02T08:02:48Z</time>
      </trkpt>
      <trkpt lat="43.27255" lon="6.32139">
        <ele>433.21</ele>
        <time>2022-07-02T08:02:49Z</time>
      </trkpt>
      <trkpt lat="43.27247" lon="6.32137">
        <ele>432.73</ele>
        <time>2022-07-02T08:02:50Z</time>
      </trkpt>
      <trkpt lat="43.27239" lon="6.32132">
        <ele>432.25</ele>
        <time>2022-07-02T08:02:51Z</time>
      </trkpt>
      <trkpt lat="43.27233" lon="6.32124">
        <ele>431.77</ele>
        <time>2022-07-02T08:02:52Z</time>
      </trkpt>
      <trkpt lat="43.27226" lon="6.32116">
        <ele>431.77</ele>
        <time>2022-07-02T08:02:53Z</time>
      </trkpt>
      <trkpt lat="43.27206" lon="6.32094">
        <ele>430.81</ele>
        <time>2022-07-02T08:02:56Z</time>
      </trkpt>
      <trkpt lat="43.27192" lon="6.32088">
        <ele>429.85</ele>
        <time>2022-07-02T08:02:58Z</time>
      </trkpt>
      <trkpt lat="43.27183" lon="6.3209">
        <ele>429.37</ele>
        <time>2022-07-02T08:02:59Z</time>
      </trkpt>
      <trkpt lat="43.27174" lon="6.32093">
        <ele>429.37</ele>
        <time>2022-07-02T08:03:00Z</time>
      </trkpt>
      <trkpt lat="43.27164" lon="6.3209">
        <ele>428.89</ele>
        <time>2022-07-02T08:03:01Z</time>
      </trkpt>
      <trkpt lat="43.27154" lon="6.32087">
        <ele>428.4</ele>
        <time>2022-07-02T08:03:02Z</time>
      </trkpt>
      <trkpt lat="43.27144" lon="6.32085">
        <ele>427.92</ele>
        <time>2022-07-02T08:03:03Z</time>
      </trkpt>
      <trkpt lat="43.27135" lon="6.32086">
        <ele>427.44</ele>
        <time>2022-07-02T08:03:04Z</time>
      </trkpt>
      <trkpt lat="43.27125" lon="6.3209">
        <ele>426.96</ele>
        <time>2022-07-02T08:03:05Z</time>
      </trkpt>
      <trkpt lat="43.27106" lon="6.32096">
        <ele>426</ele>
        <time>2022-07-02T08:03:07Z</time>
      </trkpt>
      <trkpt lat="43.27097" lon="6.32095">
        <ele>425.04</ele>
        <time>2022-07-02T08:03:08Z</time>
      </trkpt>
      <trkpt lat="43.27088" lon="6.32091">
        <ele>425.04</ele>
        <time>2022-07-02T08:03:09Z</time>
      </trkpt>
      <trkpt lat="43.2708" lon="6.32084">
        <ele>424.08</ele>
        <time>2022-07-02T08:03:10Z</time>
      </trkpt>
      <trkpt lat="43.27076" lon="6.32073">
        <ele>423.6</ele>
        <time>2022-07-02T08:03:11Z</time>
      </trkpt>
      <trkpt lat="43.27072" lon="6.32061">
        <ele>423.6</ele>
        <time>2022-07-02T08:03:12Z</time>
      </trkpt>
      <trkpt lat="43.27067" lon="6.32048">
        <ele>423.6</ele>
        <time>2022-07-02T08:03:13Z</time>
      </trkpt>
      <trkpt lat="43.27061" lon="6.32036">
        <ele>423.6</ele>
        <time>2022-07-02T08:03:14Z</time>
      </trkpt>
      <trkpt lat="43.27054" lon="6.32025">
        <ele>423.12</ele>
        <time>2022-07-02T08:03:15Z</time>
      </trkpt>
      <trkpt lat="43.27045" lon="6.32016">
        <ele>422.64</ele>
        <time>2022-07-02T08:03:16Z</time>
      </trkpt>
      <trkpt lat="43.27036" lon="6.32009">
        <ele>422.64</ele>
        <time>2022-07-02T08:03:17Z</time>
      </trkpt>
      <trkpt lat="43.27026" lon="6.32002">
        <ele>422.64</ele>
        <time>2022-07-02T08:03:18Z</time>
      </trkpt>
      <trkpt lat="43.27016" lon="6.31998">
        <ele>422.16</ele>
        <time>2022-07-02T08:03:19Z</time>
      </trkpt>
      <trkpt lat="43.27006" lon="6.31996">
        <ele>422.16</ele>
        <time>2022-07-02T08:03:20Z</time>
      </trkpt>
      <trkpt lat="43.26996" lon="6.31996">
        <ele>422.64</ele>
        <time>2022-07-02T08:03:21Z</time>
      </trkpt>
      <trkpt lat="43.26986" lon="6.31999">
        <ele>423.12</ele>
        <time>2022-07-02T08:03:22Z</time>
      </trkpt>
      <trkpt lat="43.26976" lon="6.32005">
        <ele>423.12</ele>
        <time>2022-07-02T08:03:23Z</time>
      </trkpt>
      <trkpt lat="43.26967" lon="6.32012">
        <ele>423.6</ele>
        <time>2022-07-02T08:03:24Z</time>
      </trkpt>
      <trkpt lat="43.26959" lon="6.32022">
        <ele>423.12</ele>
        <time>2022-07-02T08:03:25Z</time>
      </trkpt>
      <trkpt lat="43.26955" lon="6.32037">
        <ele>423.12</ele>
        <time>2022-07-02T08:03:26Z</time>
      </trkpt>
      <trkpt lat="43.26953" lon="6.32052">
        <ele>422.64</ele>
        <time>2022-07-02T08:03:27Z</time>
      </trkpt>
      <trkpt lat="43.2695" lon="6.32067">
        <ele>422.16</ele>
        <time>2022-07-02T08:03:28Z</time>
      </trkpt>
      <trkpt lat="43.2691" lon="6.32192">
        <ele>418.79</ele>
        <time>2022-07-02T08:03:37Z</time>
      </trkpt>
      <trkpt lat="43.269" lon="6.3221">
        <ele>417.83</ele>
        <time>2022-07-02T08:03:39Z</time>
      </trkpt>
      <trkpt lat="43.26893" lon="6.32209">
        <ele>416.87</ele>
        <time>2022-07-02T08:03:40Z</time>
      </trkpt>
      <trkpt lat="43.26887" lon="6.32204">
        <ele>416.39</ele>
        <time>2022-07-02T08:03:41Z</time>
      </trkpt>
      <trkpt lat="43.26884" lon="6.32194">
        <ele>415.91</ele>
        <time>2022-07-02T08:03:42Z</time>
      </trkpt>
      <trkpt lat="43.26882" lon="6.32181">
        <ele>416.39</ele>
        <time>2022-07-02T08:03:43Z</time>
      </trkpt>
      <trkpt lat="43.2688" lon="6.32166">
        <ele>415.91</ele>
        <time>2022-07-02T08:03:44Z</time>
      </trkpt>
      <trkpt lat="43.26854" lon="6.32017">
        <ele>411.58</ele>
        <time>2022-07-02T08:03:55Z</time>
      </trkpt>
      <trkpt lat="43.26845" lon="6.3196">
        <ele>410.14</ele>
        <time>2022-07-02T08:03:59Z</time>
      </trkpt>
      <trkpt lat="43.26845" lon="6.31945">
        <ele>409.66</ele>
        <time>2022-07-02T08:04:00Z</time>
      </trkpt>
      <trkpt lat="43.26846" lon="6.31931">
        <ele>409.18</ele>
        <time>2022-07-02T08:04:01Z</time>
      </trkpt>
      <trkpt lat="43.26847" lon="6.31918">
        <ele>409.18</ele>
        <time>2022-07-02T08:04:02Z</time>
      </trkpt>
      <trkpt lat="43.26849" lon="6.31905">
        <ele>408.7</ele>
        <time>2022-07-02T08:04:03Z</time>
      </trkpt>
      <trkpt lat="43.26847" lon="6.31892">
        <ele>408.22</ele>
        <time>2022-07-02T08:04:04Z</time>
      </trkpt>
      <trkpt lat="43.26842" lon="6.3188">
        <ele>407.74</ele>
        <time>2022-07-02T08:04:05Z</time>
      </trkpt>
      <trkpt lat="43.26835" lon="6.3187">
        <ele>407.26</ele>
        <time>2022-07-02T08:04:06Z</time>
      </trkpt>
      <trkpt lat="43.26827" lon="6.31861">
        <ele>406.77</ele>
        <time>2022-07-02T08:04:07Z</time>
      </trkpt>
      <trkpt lat="43.26818" lon="6.31854">
        <ele>405.81</ele>
        <time>2022-07-02T08:04:08Z</time>
      </trkpt>
      <trkpt lat="43.26808" lon="6.31847">
        <ele>405.33</ele>
        <time>2022-07-02T08:04:09Z</time>
      </trkpt>
      <trkpt lat="43.26799" lon="6.31842">
        <ele>404.37</ele>
        <time>2022-07-02T08:04:10Z</time>
      </trkpt>
      <trkpt lat="43.26789" lon="6.31839">
        <ele>403.89</ele>
        <time>2022-07-02T08:04:11Z</time>
      </trkpt>
      <trkpt lat="43.26779" lon="6.31837">
        <ele>403.41</ele>
        <time>2022-07-02T08:04:12Z</time>
      </trkpt>
      <trkpt lat="43.26768" lon="6.31836">
        <ele>402.45</ele>
        <time>2022-07-02T08:04:13Z</time>
      </trkpt>
      <trkpt lat="43.2676" lon="6.31837">
        <ele>401.97</ele>
        <time>2022-07-02T08:04:14Z</time>
      </trkpt>
      <trkpt lat="43.26752" lon="6.31842">
        <ele>401.01</ele>
        <time>2022-07-02T08:04:15Z</time>
      </trkpt>
      <trkpt lat="43.26745" lon="6.3185">
        <ele>400.53</ele>
        <time>2022-07-02T08:04:16Z</time>
      </trkpt>
      <trkpt lat="43.26738" lon="6.31856">
        <ele>400.05</ele>
        <time>2022-07-02T08:04:17Z</time>
      </trkpt>
      <trkpt lat="43.26728" lon="6.31858">
        <ele>399.08</ele>
        <time>2022-07-02T08:04:18Z</time>
      </trkpt>
      <trkpt lat="43.26709" lon="6.31859">
        <ele>397.64</ele>
        <time>2022-07-02T08:04:20Z</time>
      </trkpt>
      <trkpt lat="43.267" lon="6.31864">
        <ele>396.68</ele>
        <time>2022-07-02T08:04:21Z</time>
      </trkpt>
      <trkpt lat="43.26692" lon="6.31873">
        <ele>395.72</ele>
        <time>2022-07-02T08:04:22Z</time>
      </trkpt>
      <trkpt lat="43.26685" lon="6.31883">
        <ele>395.24</ele>
        <time>2022-07-02T08:04:23Z</time>
      </trkpt>
      <trkpt lat="43.26678" lon="6.31895">
        <ele>394.28</ele>
        <time>2022-07-02T08:04:24Z</time>
      </trkpt>
      <trkpt lat="43.26673" lon="6.31906">
        <ele>393.32</ele>
        <time>2022-07-02T08:04:25Z</time>
      </trkpt>
      <trkpt lat="43.26666" lon="6.31917">
        <ele>392.84</ele>
        <time>2022-07-02T08:04:26Z</time>
      </trkpt>
      <trkpt lat="43.26658" lon="6.31924">
        <ele>391.87</ele>
        <time>2022-07-02T08:04:27Z</time>
      </trkpt>
      <trkpt lat="43.26648" lon="6.31927">
        <ele>391.39</ele>
        <time>2022-07-02T08:04:28Z</time>
      </trkpt>
      <trkpt lat="43.26637" lon="6.31927">
        <ele>390.43</ele>
        <time>2022-07-02T08:04:29Z</time>
      </trkpt>
      <trkpt lat="43.26625" lon="6.31925">
        <ele>390.43</ele>
        <time>2022-07-02T08:04:30Z</time>
      </trkpt>
      <trkpt lat="43.26615" lon="6.31925">
        <ele>389.47</ele>
        <time>2022-07-02T08:04:31Z</time>
      </trkpt>
      <trkpt lat="43.26595" lon="6.31924">
        <ele>388.03</ele>
        <time>2022-07-02T08:04:33Z</time>
      </trkpt>
      <trkpt lat="43.26585" lon="6.3192">
        <ele>387.55</ele>
        <time>2022-07-02T08:04:34Z</time>
      </trkpt>
      <trkpt lat="43.26564" lon="6.31909">
        <ele>386.11</ele>
        <time>2022-07-02T08:04:36Z</time>
      </trkpt>
      <trkpt lat="43.26553" lon="6.31906">
        <ele>385.15</ele>
        <time>2022-07-02T08:04:37Z</time>
      </trkpt>
      <trkpt lat="43.26522" lon="6.31898">
        <ele>382.74</ele>
        <time>2022-07-02T08:04:40Z</time>
      </trkpt>
      <trkpt lat="43.26512" lon="6.31892">
        <ele>381.78</ele>
        <time>2022-07-02T08:04:41Z</time>
      </trkpt>
      <trkpt lat="43.26502" lon="6.31886">
        <ele>380.34</ele>
        <time>2022-07-02T08:04:42Z</time>
      </trkpt>
      <trkpt lat="43.26484" lon="6.31871">
        <ele>378.9</ele>
        <time>2022-07-02T08:04:44Z</time>
      </trkpt>
      <trkpt lat="43.26475" lon="6.3187">
        <ele>378.42</ele>
        <time>2022-07-02T08:04:45Z</time>
      </trkpt>
      <trkpt lat="43.26467" lon="6.31876">
        <ele>377.94</ele>
        <time>2022-07-02T08:04:46Z</time>
      </trkpt>
      <trkpt lat="43.26461" lon="6.31886">
        <ele>377.94</ele>
        <time>2022-07-02T08:04:47Z</time>
      </trkpt>
      <trkpt lat="43.26456" lon="6.31898">
        <ele>377.45</ele>
        <time>2022-07-02T08:04:48Z</time>
      </trkpt>
      <trkpt lat="43.26397" lon="6.32033">
        <ele>372.17</ele>
        <time>2022-07-02T08:04:59Z</time>
      </trkpt>
      <trkpt lat="43.26389" lon="6.32043">
        <ele>371.21</ele>
        <time>2022-07-02T08:05:00Z</time>
      </trkpt>
      <trkpt lat="43.26381" lon="6.32053">
        <ele>370.73</ele>
        <time>2022-07-02T08:05:01Z</time>
      </trkpt>
      <trkpt lat="43.26342" lon="6.32103">
        <ele>368.32</ele>
        <time>2022-07-02T08:05:06Z</time>
      </trkpt>
      <trkpt lat="43.26336" lon="6.32106">
        <ele>367.36</ele>
        <time>2022-07-02T08:05:07Z</time>
      </trkpt>
      <trkpt lat="43.2633" lon="6.32104">
        <ele>366.88</ele>
        <time>2022-07-02T08:05:08Z</time>
      </trkpt>
      <trkpt lat="43.26326" lon="6.32098">
        <ele>366.88</ele>
        <time>2022-07-02T08:05:09Z</time>
      </trkpt>
      <trkpt lat="43.26326" lon="6.32089">
        <ele>366.88</ele>
        <time>2022-07-02T08:05:10Z</time>
      </trkpt>
      <trkpt lat="43.26325" lon="6.32079">
        <ele>366.4</ele>
        <time>2022-07-02T08:05:11Z</time>
      </trkpt>
      <trkpt lat="43.26323" lon="6.32069">
        <ele>365.92</ele>
        <time>2022-07-02T08:05:12Z</time>
      </trkpt>
      <trkpt lat="43.26321" lon="6.32058">
        <ele>365.44</ele>
        <time>2022-07-02T08:05:13Z</time>
      </trkpt>
      <trkpt lat="43.26304" lon="6.31976">
        <ele>360.15</ele>
        <time>2022-07-02T08:05:20Z</time>
      </trkpt>
      <trkpt lat="43.26299" lon="6.31966">
        <ele>359.67</ele>
        <time>2022-07-02T08:05:21Z</time>
      </trkpt>
      <trkpt lat="43.26291" lon="6.31958">
        <ele>359.19</ele>
        <time>2022-07-02T08:05:22Z</time>
      </trkpt>
      <trkpt lat="43.26283" lon="6.31956">
        <ele>358.71</ele>
        <time>2022-07-02T08:05:23Z</time>
      </trkpt>
      <trkpt lat="43.26273" lon="6.31958">
        <ele>358.71</ele>
        <time>2022-07-02T08:05:24Z</time>
      </trkpt>
      <trkpt lat="43.26263" lon="6.31962">
        <ele>358.23</ele>
        <time>2022-07-02T08:05:25Z</time>
      </trkpt>
      <trkpt lat="43.26243" lon="6.31966">
        <ele>356.79</ele>
        <time>2022-07-02T08:05:27Z</time>
      </trkpt>
      <trkpt lat="43.26232" lon="6.31966">
        <ele>356.31</ele>
        <time>2022-07-02T08:05:28Z</time>
      </trkpt>
      <trkpt lat="43.26221" lon="6.31963">
        <ele>355.83</ele>
        <time>2022-07-02T08:05:29Z</time>
      </trkpt>
      <trkpt lat="43.26211" lon="6.31957">
        <ele>355.34</ele>
        <time>2022-07-02T08:05:30Z</time>
      </trkpt>
      <trkpt lat="43.26202" lon="6.31948">
        <ele>354.38</ele>
        <time>2022-07-02T08:05:31Z</time>
      </trkpt>
      <trkpt lat="43.26193" lon="6.31939">
        <ele>353.9</ele>
        <time>2022-07-02T08:05:32Z</time>
      </trkpt>
      <trkpt lat="43.26147" lon="6.31899">
        <ele>349.1</ele>
        <time>2022-07-02T08:05:37Z</time>
      </trkpt>
      <trkpt lat="43.26138" lon="6.31889">
        <ele>348.13</ele>
        <time>2022-07-02T08:05:38Z</time>
      </trkpt>
      <trkpt lat="43.2613" lon="6.31879">
        <ele>348.13</ele>
        <time>2022-07-02T08:05:39Z</time>
      </trkpt>
      <trkpt lat="43.26117" lon="6.3186">
        <ele>346.21</ele>
        <time>2022-07-02T08:05:41Z</time>
      </trkpt>
      <trkpt lat="43.2611" lon="6.31857">
        <ele>346.21</ele>
        <time>2022-07-02T08:05:42Z</time>
      </trkpt>
      <trkpt lat="43.26103" lon="6.31859">
        <ele>345.73</ele>
        <time>2022-07-02T08:05:43Z</time>
      </trkpt>
      <trkpt lat="43.26097" lon="6.31868">
        <ele>345.25</ele>
        <time>2022-07-02T08:05:44Z</time>
      </trkpt>
      <trkpt lat="43.26092" lon="6.31878">
        <ele>345.25</ele>
        <time>2022-07-02T08:05:45Z</time>
      </trkpt>
      <trkpt lat="43.26087" lon="6.3189">
        <ele>344.77</ele>
        <time>2022-07-02T08:05:46Z</time>
      </trkpt>
      <trkpt lat="43.26083" lon="6.31902">
        <ele>344.29</ele>
        <time>2022-07-02T08:05:47Z</time>
      </trkpt>
      <trkpt lat="43.26079" lon="6.31914">
        <ele>343.81</ele>
        <time>2022-07-02T08:05:48Z</time>
      </trkpt>
      <trkpt lat="43.26054" lon="6.31974">
        <ele>340.44</ele>
        <time>2022-07-02T08:05:53Z</time>
      </trkpt>
      <trkpt lat="43.26035" lon="6.32008">
        <ele>338.52</ele>
        <time>2022-07-02T08:05:56Z</time>
      </trkpt>
      <trkpt lat="43.26031" lon="6.32021">
        <ele>338.04</ele>
        <time>2022-07-02T08:05:57Z</time>
      </trkpt>
      <trkpt lat="43.26029" lon="6.32035">
        <ele>337.56</ele>
        <time>2022-07-02T08:05:58Z</time>
      </trkpt>
      <trkpt lat="43.26007" lon="6.321">
        <ele>333.23</ele>
        <time>2022-07-02T08:06:03Z</time>
      </trkpt>
      <trkpt lat="43.25999" lon="6.32109">
        <ele>332.75</ele>
        <time>2022-07-02T08:06:04Z</time>
      </trkpt>
      <trkpt lat="43.2599" lon="6.32113">
        <ele>331.79</ele>
        <time>2022-07-02T08:06:05Z</time>
      </trkpt>
      <trkpt lat="43.2598" lon="6.32112">
        <ele>330.83</ele>
        <time>2022-07-02T08:06:06Z</time>
      </trkpt>
      <trkpt lat="43.2597" lon="6.32108">
        <ele>330.35</ele>
        <time>2022-07-02T08:06:07Z</time>
      </trkpt>
      <trkpt lat="43.2596" lon="6.32104">
        <ele>328.91</ele>
        <time>2022-07-02T08:06:08Z</time>
      </trkpt>
      <trkpt lat="43.25951" lon="6.32102">
        <ele>327.95</ele>
        <time>2022-07-02T08:06:09Z</time>
      </trkpt>
      <trkpt lat="43.25941" lon="6.32102">
        <ele>326.99</ele>
        <time>2022-07-02T08:06:10Z</time>
      </trkpt>
      <trkpt lat="43.25931" lon="6.32103">
        <ele>326.99</ele>
        <time>2022-07-02T08:06:11Z</time>
      </trkpt>
      <trkpt lat="43.25923" lon="6.32108">
        <ele>326.5</ele>
        <time>2022-07-02T08:06:12Z</time>
      </trkpt>
      <trkpt lat="43.25915" lon="6.32116">
        <ele>326.02</ele>
        <time>2022-07-02T08:06:13Z</time>
      </trkpt>
      <trkpt lat="43.25908" lon="6.32125">
        <ele>326.02</ele>
        <time>2022-07-02T08:06:14Z</time>
      </trkpt>
      <trkpt lat="43.25901" lon="6.32136">
        <ele>325.54</ele>
        <time>2022-07-02T08:06:15Z</time>
      </trkpt>
      <trkpt lat="43.25895" lon="6.32146">
        <ele>325.06</ele>
        <time>2022-07-02T08:06:16Z</time>
      </trkpt>
      <trkpt lat="43.25888" lon="6.32156">
        <ele>324.58</ele>
        <time>2022-07-02T08:06:17Z</time>
      </trkpt>
      <trkpt lat="43.25833" lon="6.32242">
        <ele>321.22</ele>
        <time>2022-07-02T08:06:25Z</time>
      </trkpt>
      <trkpt lat="43.2583" lon="6.32255">
        <ele>320.74</ele>
        <time>2022-07-02T08:06:26Z</time>
      </trkpt>
      <trkpt lat="43.2583" lon="6.3227">
        <ele>320.74</ele>
        <time>2022-07-02T08:06:27Z</time>
      </trkpt>
      <trkpt lat="43.25832" lon="6.32284">
        <ele>319.78</ele>
        <time>2022-07-02T08:06:28Z</time>
      </trkpt>
      <trkpt lat="43.25836" lon="6.32298">
        <ele>318.81</ele>
        <time>2022-07-02T08:06:29Z</time>
      </trkpt>
      <trkpt lat="43.25842" lon="6.3231">
        <ele>317.85</ele>
        <time>2022-07-02T08:06:30Z</time>
      </trkpt>
      <trkpt lat="43.25848" lon="6.32323">
        <ele>316.89</ele>
        <time>2022-07-02T08:06:31Z</time>
      </trkpt>
      <trkpt lat="43.25854" lon="6.32335">
        <ele>315.93</ele>
        <time>2022-07-02T08:06:32Z</time>
      </trkpt>
      <trkpt lat="43.25858" lon="6.32349">
        <ele>314.97</ele>
        <time>2022-07-02T08:06:33Z</time>
      </trkpt>
      <trkpt lat="43.2586" lon="6.32363">
        <ele>314.01</ele>
        <time>2022-07-02T08:06:34Z</time>
      </trkpt>
      <trkpt lat="43.25859" lon="6.32378">
        <ele>313.53</ele>
        <time>2022-07-02T08:06:35Z</time>
      </trkpt>
      <trkpt lat="43.25855" lon="6.32391">
        <ele>312.57</ele>
        <time>2022-07-02T08:06:36Z</time>
      </trkpt>
      <trkpt lat="43.2585" lon="6.32404">
        <ele>311.6</ele>
        <time>2022-07-02T08:06:37Z</time>
      </trkpt>
      <trkpt lat="43.25843" lon="6.32411">
        <ele>311.12</ele>
        <time>2022-07-02T08:06:38Z</time>
      </trkpt>
      <trkpt lat="43.25833" lon="6.32413">
        <ele>310.16</ele>
        <time>2022-07-02T08:06:39Z</time>
      </trkpt>
      <trkpt lat="43.25823" lon="6.32411">
        <ele>309.68</ele>
        <time>2022-07-02T08:06:40Z</time>
      </trkpt>
      <trkpt lat="43.25813" lon="6.32408">
        <ele>309.2</ele>
        <time>2022-07-02T08:06:41Z</time>
      </trkpt>
      <trkpt lat="43.25803" lon="6.32403">
        <ele>308.72</ele>
        <time>2022-07-02T08:06:42Z</time>
      </trkpt>
      <trkpt lat="43.25764" lon="6.32387">
        <ele>306.32</ele>
        <time>2022-07-02T08:06:46Z</time>
      </trkpt>
      <trkpt lat="43.25755" lon="6.32389">
        <ele>304.39</ele>
        <time>2022-07-02T08:06:47Z</time>
      </trkpt>
      <trkpt lat="43.25746" lon="6.32394">
        <ele>303.43</ele>
        <time>2022-07-02T08:06:48Z</time>
      </trkpt>
      <trkpt lat="43.25738" lon="6.32402">
        <ele>303.43</ele>
        <time>2022-07-02T08:06:49Z</time>
      </trkpt>
      <trkpt lat="43.25732" lon="6.32412">
        <ele>302.95</ele>
        <time>2022-07-02T08:06:50Z</time>
      </trkpt>
      <trkpt lat="43.25727" lon="6.32423">
        <ele>302.47</ele>
        <time>2022-07-02T08:06:51Z</time>
      </trkpt>
      <trkpt lat="43.25722" lon="6.32435">
        <ele>301.99</ele>
        <time>2022-07-02T08:06:52Z</time>
      </trkpt>
      <trkpt lat="43.2572" lon="6.32448">
        <ele>301.03</ele>
        <time>2022-07-02T08:06:53Z</time>
      </trkpt>
      <trkpt lat="43.25721" lon="6.32461">
        <ele>301.03</ele>
        <time>2022-07-02T08:06:54Z</time>
      </trkpt>
      <trkpt lat="43.25725" lon="6.32473">
        <ele>301.03</ele>
        <time>2022-07-02T08:06:55Z</time>
      </trkpt>
      <trkpt lat="43.2573" lon="6.32484">
        <ele>300.55</ele>
        <time>2022-07-02T08:06:56Z</time>
      </trkpt>
      <trkpt lat="43.25737" lon="6.32493">
        <ele>299.59</ele>
        <time>2022-07-02T08:06:57Z</time>
      </trkpt>
      <trkpt lat="43.25745" lon="6.32501">
        <ele>298.63</ele>
        <time>2022-07-02T08:06:58Z</time>
      </trkpt>
      <trkpt lat="43.25753" lon="6.32509">
        <ele>297.18</ele>
        <time>2022-07-02T08:06:59Z</time>
      </trkpt>
      <trkpt lat="43.25805" lon="6.32574">
        <ele>292.86</ele>
        <time>2022-07-02T08:07:06Z</time>
      </trkpt>
      <trkpt lat="43.25806" lon="6.32586">
        <ele>292.38</ele>
        <time>2022-07-02T08:07:07Z</time>
      </trkpt>
      <trkpt lat="43.25804" lon="6.32597">
        <ele>292.38</ele>
        <time>2022-07-02T08:07:08Z</time>
      </trkpt>
      <trkpt lat="43.25799" lon="6.32606">
        <ele>291.42</ele>
        <time>2022-07-02T08:07:09Z</time>
      </trkpt>
      <trkpt lat="43.25794" lon="6.3261">
        <ele>290.94</ele>
        <time>2022-07-02T08:07:10Z</time>
      </trkpt>
      <trkpt lat="43.25785" lon="6.32608">
        <ele>290.46</ele>
        <time>2022-07-02T08:07:11Z</time>
      </trkpt>
      <trkpt lat="43.25777" lon="6.32607">
        <ele>289.97</ele>
        <time>2022-07-02T08:07:12Z</time>
      </trkpt>
      <trkpt lat="43.25768" lon="6.32606">
        <ele>289.01</ele>
        <time>2022-07-02T08:07:13Z</time>
      </trkpt>
      <trkpt lat="43.25759" lon="6.32608">
        <ele>288.53</ele>
        <time>2022-07-02T08:07:14Z</time>
      </trkpt>
      <trkpt lat="43.2575" lon="6.3261">
        <ele>288.05</ele>
        <time>2022-07-02T08:07:15Z</time>
      </trkpt>
      <trkpt lat="43.2574" lon="6.32613">
        <ele>287.57</ele>
        <time>2022-07-02T08:07:16Z</time>
      </trkpt>
      <trkpt lat="43.2573" lon="6.32616">
        <ele>287.09</ele>
        <time>2022-07-02T08:07:17Z</time>
      </trkpt>
      <trkpt lat="43.25721" lon="6.32622">
        <ele>286.61</ele>
        <time>2022-07-02T08:07:18Z</time>
      </trkpt>
      <trkpt lat="43.25712" lon="6.32629">
        <ele>286.61</ele>
        <time>2022-07-02T08:07:19Z</time>
      </trkpt>
      <trkpt lat="43.25695" lon="6.32643">
        <ele>285.17</ele>
        <time>2022-07-02T08:07:21Z</time>
      </trkpt>
      <trkpt lat="43.25686" lon="6.32649">
        <ele>284.69</ele>
        <time>2022-07-02T08:07:22Z</time>
      </trkpt>
      <trkpt lat="43.25676" lon="6.32653">
        <ele>284.21</ele>
        <time>2022-07-02T08:07:23Z</time>
      </trkpt>
      <trkpt lat="43.25666" lon="6.32656">
        <ele>283.25</ele>
        <time>2022-07-02T08:07:24Z</time>
      </trkpt>
      <trkpt lat="43.25656" lon="6.32659">
        <ele>282.77</ele>
        <time>2022-07-02T08:07:25Z</time>
      </trkpt>
      <trkpt lat="43.25645" lon="6.32663">
        <ele>281.8</ele>
        <time>2022-07-02T08:07:26Z</time>
      </trkpt>
      <trkpt lat="43.25635" lon="6.32666">
        <ele>281.32</ele>
        <time>2022-07-02T08:07:27Z</time>
      </trkpt>
      <trkpt lat="43.25625" lon="6.32664">
        <ele>280.36</ele>
        <time>2022-07-02T08:07:28Z</time>
      </trkpt>
      <trkpt lat="43.25616" lon="6.32656">
        <ele>279.88</ele>
        <time>2022-07-02T08:07:29Z</time>
      </trkpt>
      <trkpt lat="43.25609" lon="6.32646">
        <ele>278.92</ele>
        <time>2022-07-02T08:07:30Z</time>
      </trkpt>
      <trkpt lat="43.25602" lon="6.32636">
        <ele>278.44</ele>
        <time>2022-07-02T08:07:31Z</time>
      </trkpt>
      <trkpt lat="43.25593" lon="6.32628">
        <ele>277.96</ele>
        <time>2022-07-02T08:07:32Z</time>
      </trkpt>
      <trkpt lat="43.25584" lon="6.32624">
        <ele>277</ele>
        <time>2022-07-02T08:07:33Z</time>
      </trkpt>
      <trkpt lat="43.25575" lon="6.32624">
        <ele>276.04</ele>
        <time>2022-07-02T08:07:34Z</time>
      </trkpt>
      <trkpt lat="43.25566" lon="6.32627">
        <ele>276.04</ele>
        <time>2022-07-02T08:07:35Z</time>
      </trkpt>
      <trkpt lat="43.25557" lon="6.32632">
        <ele>275.07</ele>
        <time>2022-07-02T08:07:36Z</time>
      </trkpt>
      <trkpt lat="43.25549" lon="6.32638">
        <ele>274.59</ele>
        <time>2022-07-02T08:07:37Z</time>
      </trkpt>
      <trkpt lat="43.25494" lon="6.32683">
        <ele>270.27</ele>
        <time>2022-07-02T08:07:43Z</time>
      </trkpt>
      <trkpt lat="43.25486" lon="6.32693">
        <ele>269.79</ele>
        <time>2022-07-02T08:07:44Z</time>
      </trkpt>
      <trkpt lat="43.2548" lon="6.32705">
        <ele>269.79</ele>
        <time>2022-07-02T08:07:45Z</time>
      </trkpt>
      <trkpt lat="43.25475" lon="6.32718">
        <ele>268.83</ele>
        <time>2022-07-02T08:07:46Z</time>
      </trkpt>
      <trkpt lat="43.2547" lon="6.32731">
        <ele>267.86</ele>
        <time>2022-07-02T08:07:47Z</time>
      </trkpt>
      <trkpt lat="43.25464" lon="6.32741">
        <ele>267.38</ele>
        <time>2022-07-02T08:07:48Z</time>
      </trkpt>
      <trkpt lat="43.25456" lon="6.32745">
        <ele>267.86</ele>
        <time>2022-07-02T08:07:49Z</time>
      </trkpt>
      <trkpt lat="43.25446" lon="6.32745">
        <ele>266.9</ele>
        <time>2022-07-02T08:07:50Z</time>
      </trkpt>
      <trkpt lat="43.25433" lon="6.32741">
        <ele>266.42</ele>
        <time>2022-07-02T08:07:51Z</time>
      </trkpt>
      <trkpt lat="43.25423" lon="6.32737">
        <ele>265.46</ele>
        <time>2022-07-02T08:07:52Z</time>
      </trkpt>
      <trkpt lat="43.25412" lon="6.32735">
        <ele>264.98</ele>
        <time>2022-07-02T08:07:53Z</time>
      </trkpt>
      <trkpt lat="43.25402" lon="6.32734">
        <ele>264.02</ele>
        <time>2022-07-02T08:07:54Z</time>
      </trkpt>
      <trkpt lat="43.25391" lon="6.32737">
        <ele>263.54</ele>
        <time>2022-07-02T08:07:55Z</time>
      </trkpt>
      <trkpt lat="43.25382" lon="6.32741">
        <ele>263.06</ele>
        <time>2022-07-02T08:07:56Z</time>
      </trkpt>
      <trkpt lat="43.25372" lon="6.32748">
        <ele>262.58</ele>
        <time>2022-07-02T08:07:57Z</time>
      </trkpt>
      <trkpt lat="43.25363" lon="6.32756">
        <ele>261.62</ele>
        <time>2022-07-02T08:07:58Z</time>
      </trkpt>
      <trkpt lat="43.25354" lon="6.32764">
        <ele>261.14</ele>
        <time>2022-07-02T08:07:59Z</time>
      </trkpt>
      <trkpt lat="43.25273" lon="6.32863">
        <ele>257.77</ele>
        <time>2022-07-02T08:08:09Z</time>
      </trkpt>
      <trkpt lat="43.25256" lon="6.32881">
        <ele>258.73</ele>
        <time>2022-07-02T08:08:11Z</time>
      </trkpt>
      <trkpt lat="43.25252" lon="6.32893">
        <ele>257.77</ele>
        <time>2022-07-02T08:08:12Z</time>
      </trkpt>
      <trkpt lat="43.25252" lon="6.32908">
        <ele>256.81</ele>
        <time>2022-07-02T08:08:13Z</time>
      </trkpt>
      <trkpt lat="43.25257" lon="6.3292">
        <ele>255.85</ele>
        <time>2022-07-02T08:08:14Z</time>
      </trkpt>
      <trkpt lat="43.25264" lon="6.32931">
        <ele>255.37</ele>
        <time>2022-07-02T08:08:15Z</time>
      </trkpt>
      <trkpt lat="43.25271" lon="6.32941">
        <ele>254.89</ele>
        <time>2022-07-02T08:08:16Z</time>
      </trkpt>
      <trkpt lat="43.25279" lon="6.3295">
        <ele>254.41</ele>
        <time>2022-07-02T08:08:17Z</time>
      </trkpt>
      <trkpt lat="43.25303" lon="6.32977">
        <ele>252.48</ele>
        <time>2022-07-02T08:08:20Z</time>
      </trkpt>
      <trkpt lat="43.25312" lon="6.32983">
        <ele>252</ele>
        <time>2022-07-02T08:08:21Z</time>
      </trkpt>
      <trkpt lat="43.25322" lon="6.32985">
        <ele>251.52</ele>
        <time>2022-07-02T08:08:22Z</time>
      </trkpt>
      <trkpt lat="43.25333" lon="6.32986">
        <ele>250.56</ele>
        <time>2022-07-02T08:08:23Z</time>
      </trkpt>
      <trkpt lat="43.25343" lon="6.32987">
        <ele>250.08</ele>
        <time>2022-07-02T08:08:24Z</time>
      </trkpt>
      <trkpt lat="43.25362" lon="6.32986">
        <ele>248.64</ele>
        <time>2022-07-02T08:08:26Z</time>
      </trkpt>
      <trkpt lat="43.25371" lon="6.32983">
        <ele>247.68</ele>
        <time>2022-07-02T08:08:27Z</time>
      </trkpt>
      <trkpt lat="43.2538" lon="6.32981">
        <ele>247.2</ele>
        <time>2022-07-02T08:08:28Z</time>
      </trkpt>
      <trkpt lat="43.25388" lon="6.32983">
        <ele>246.72</ele>
        <time>2022-07-02T08:08:29Z</time>
      </trkpt>
      <trkpt lat="43.25393" lon="6.32989">
        <ele>245.75</ele>
        <time>2022-07-02T08:08:30Z</time>
      </trkpt>
      <trkpt lat="43.25393" lon="6.32999">
        <ele>245.27</ele>
        <time>2022-07-02T08:08:31Z</time>
      </trkpt>
      <trkpt lat="43.25393" lon="6.3301">
        <ele>245.27</ele>
        <time>2022-07-02T08:08:32Z</time>
      </trkpt>
      <trkpt lat="43.25392" lon="6.33019">
        <ele>244.79</ele>
        <time>2022-07-02T08:08:33Z</time>
      </trkpt>
      <trkpt lat="43.25388" lon="6.33027">
        <ele>244.79</ele>
        <time>2022-07-02T08:08:34Z</time>
      </trkpt>
      <trkpt lat="43.25382" lon="6.33032">
        <ele>244.79</ele>
        <time>2022-07-02T08:08:35Z</time>
      </trkpt>
      <trkpt lat="43.25376" lon="6.33039">
        <ele>243.83</ele>
        <time>2022-07-02T08:08:36Z</time>
      </trkpt>
      <trkpt lat="43.25359" lon="6.33061">
        <ele>242.87</ele>
        <time>2022-07-02T08:08:39Z</time>
      </trkpt>
      <trkpt lat="43.25356" lon="6.33072">
        <ele>242.39</ele>
        <time>2022-07-02T08:08:40Z</time>
      </trkpt>
      <trkpt lat="43.25354" lon="6.33084">
        <ele>242.39</ele>
        <time>2022-07-02T08:08:41Z</time>
      </trkpt>
      <trkpt lat="43.25353" lon="6.33098">
        <ele>241.43</ele>
        <time>2022-07-02T08:08:42Z</time>
      </trkpt>
      <trkpt lat="43.25353" lon="6.3311">
        <ele>241.43</ele>
        <time>2022-07-02T08:08:43Z</time>
      </trkpt>
      <trkpt lat="43.25354" lon="6.33135">
        <ele>240.47</ele>
        <time>2022-07-02T08:08:45Z</time>
      </trkpt>
      <trkpt lat="43.25356" lon="6.33158">
        <ele>239.02</ele>
        <time>2022-07-02T08:08:47Z</time>
      </trkpt>
      <trkpt lat="43.25352" lon="6.33167">
        <ele>238.54</ele>
        <time>2022-07-02T08:08:48Z</time>
      </trkpt>
      <trkpt lat="43.25346" lon="6.33172">
        <ele>237.58</ele>
        <time>2022-07-02T08:08:49Z</time>
      </trkpt>
      <trkpt lat="43.25338" lon="6.33172">
        <ele>237.1</ele>
        <time>2022-07-02T08:08:50Z</time>
      </trkpt>
      <trkpt lat="43.25331" lon="6.33169">
        <ele>236.62</ele>
        <time>2022-07-02T08:08:51Z</time>
      </trkpt>
      <trkpt lat="43.25325" lon="6.33164">
        <ele>235.66</ele>
        <time>2022-07-02T08:08:52Z</time>
      </trkpt>
      <trkpt lat="43.2532" lon="6.33157">
        <ele>235.18</ele>
        <time>2022-07-02T08:08:53Z</time>
      </trkpt>
      <trkpt lat="43.25319" lon="6.33146">
        <ele>233.74</ele>
        <time>2022-07-02T08:08:54Z</time>
      </trkpt>
      <trkpt lat="43.25319" lon="6.33136">
        <ele>232.78</ele>
        <time>2022-07-02T08:08:55Z</time>
      </trkpt>
      <trkpt lat="43.25318" lon="6.33124">
        <ele>231.81</ele>
        <time>2022-07-02T08:08:56Z</time>
      </trkpt>
      <trkpt lat="43.25313" lon="6.33115">
        <ele>230.85</ele>
        <time>2022-07-02T08:08:57Z</time>
      </trkpt>
      <trkpt lat="43.25307" lon="6.33108">
        <ele>230.37</ele>
        <time>2022-07-02T08:08:58Z</time>
      </trkpt>
      <trkpt lat="43.25299" lon="6.33102">
        <ele>229.89</ele>
        <time>2022-07-02T08:08:59Z</time>
      </trkpt>
      <trkpt lat="43.25291" lon="6.33097">
        <ele>229.41</ele>
        <time>2022-07-02T08:09:00Z</time>
      </trkpt>
      <trkpt lat="43.25282" lon="6.33092">
        <ele>228.45</ele>
        <time>2022-07-02T08:09:01Z</time>
      </trkpt>
      <trkpt lat="43.25234" lon="6.3307">
        <ele>223.64</ele>
        <time>2022-07-02T08:09:07Z</time>
      </trkpt>
      <trkpt lat="43.25227" lon="6.33063">
        <ele>223.64</ele>
        <time>2022-07-02T08:09:08Z</time>
      </trkpt>
      <trkpt lat="43.25197" lon="6.3304">
        <ele>220.76</ele>
        <time>2022-07-02T08:09:12Z</time>
      </trkpt>
      <trkpt lat="43.25191" lon="6.33034">
        <ele>221.24</ele>
        <time>2022-07-02T08:09:13Z</time>
      </trkpt>
      <trkpt lat="43.25182" lon="6.33032">
        <ele>220.76</ele>
        <time>2022-07-02T08:09:14Z</time>
      </trkpt>
      <trkpt lat="43.25173" lon="6.33031">
        <ele>220.76</ele>
        <time>2022-07-02T08:09:15Z</time>
      </trkpt>
      <trkpt lat="43.25164" lon="6.33032">
        <ele>220.76</ele>
        <time>2022-07-02T08:09:16Z</time>
      </trkpt>
      <trkpt lat="43.25155" lon="6.33033">
        <ele>221.24</ele>
        <time>2022-07-02T08:09:17Z</time>
      </trkpt>
      <trkpt lat="43.25147" lon="6.33037">
        <ele>222.2</ele>
        <time>2022-07-02T08:09:18Z</time>
      </trkpt>
      <trkpt lat="43.25138" lon="6.33041">
        <ele>222.2</ele>
        <time>2022-07-02T08:09:19Z</time>
      </trkpt>
      <trkpt lat="43.2513" lon="6.33048">
        <ele>221.72</ele>
        <time>2022-07-02T08:09:20Z</time>
      </trkpt>
      <trkpt lat="43.25122" lon="6.33055">
        <ele>222.2</ele>
        <time>2022-07-02T08:09:21Z</time>
      </trkpt>
      <trkpt lat="43.25114" lon="6.33063">
        <ele>222.68</ele>
        <time>2022-07-02T08:09:22Z</time>
      </trkpt>
      <trkpt lat="43.25107" lon="6.33073">
        <ele>223.16</ele>
        <time>2022-07-02T08:09:23Z</time>
      </trkpt>
      <trkpt lat="43.25101" lon="6.33083">
        <ele>223.16</ele>
        <time>2022-07-02T08:09:24Z</time>
      </trkpt>
      <trkpt lat="43.25095" lon="6.33093">
        <ele>223.16</ele>
        <time>2022-07-02T08:09:25Z</time>
      </trkpt>
      <trkpt lat="43.25066" lon="6.3315">
        <ele>222.2</ele>
        <time>2022-07-02T08:09:30Z</time>
      </trkpt>
      <trkpt lat="43.25042" lon="6.33196">
        <ele>220.76</ele>
        <time>2022-07-02T08:09:34Z</time>
      </trkpt>
      <trkpt lat="43.2503" lon="6.33218">
        <ele>220.28</ele>
        <time>2022-07-02T08:09:36Z</time>
      </trkpt>
      <trkpt lat="43.25019" lon="6.3324">
        <ele>219.32</ele>
        <time>2022-07-02T08:09:38Z</time>
      </trkpt>
      <trkpt lat="43.25012" lon="6.33249">
        <ele>218.84</ele>
        <time>2022-07-02T08:09:39Z</time>
      </trkpt>
      <trkpt lat="43.25005" lon="6.33257">
        <ele>218.84</ele>
        <time>2022-07-02T08:09:40Z</time>
      </trkpt>
      <trkpt lat="43.24997" lon="6.33262">
        <ele>218.36</ele>
        <time>2022-07-02T08:09:41Z</time>
      </trkpt>
      <trkpt lat="43.24986" lon="6.33265">
        <ele>217.88</ele>
        <time>2022-07-02T08:09:42Z</time>
      </trkpt>
      <trkpt lat="43.24976" lon="6.33269">
        <ele>217.88</ele>
        <time>2022-07-02T08:09:43Z</time>
      </trkpt>
      <trkpt lat="43.24946" lon="6.33281">
        <ele>216.43</ele>
        <time>2022-07-02T08:09:46Z</time>
      </trkpt>
      <trkpt lat="43.24935" lon="6.33279">
        <ele>216.43</ele>
        <time>2022-07-02T08:09:47Z</time>
      </trkpt>
      <trkpt lat="43.24925" lon="6.33277">
        <ele>215.95</ele>
        <time>2022-07-02T08:09:48Z</time>
      </trkpt>
      <trkpt lat="43.24915" lon="6.33273">
        <ele>214.99</ele>
        <time>2022-07-02T08:09:49Z</time>
      </trkpt>
      <trkpt lat="43.24906" lon="6.3327">
        <ele>214.51</ele>
        <time>2022-07-02T08:09:50Z</time>
      </trkpt>
      <trkpt lat="43.24886" lon="6.33261">
        <ele>213.55</ele>
        <time>2022-07-02T08:09:52Z</time>
      </trkpt>
      <trkpt lat="43.24878" lon="6.33255">
        <ele>212.59</ele>
        <time>2022-07-02T08:09:53Z</time>
      </trkpt>
      <trkpt lat="43.24872" lon="6.33246">
        <ele>211.63</ele>
        <time>2022-07-02T08:09:54Z</time>
      </trkpt>
      <trkpt lat="43.24866" lon="6.33236">
        <ele>211.63</ele>
        <time>2022-07-02T08:09:55Z</time>
      </trkpt>
      <trkpt lat="43.24862" lon="6.33224">
        <ele>211.15</ele>
        <time>2022-07-02T08:09:56Z</time>
      </trkpt>
      <trkpt lat="43.24857" lon="6.33213">
        <ele>210.67</ele>
        <time>2022-07-02T08:09:57Z</time>
      </trkpt>
      <trkpt lat="43.2485" lon="6.33203">
        <ele>210.19</ele>
        <time>2022-07-02T08:09:58Z</time>
      </trkpt>
      <trkpt lat="43.24842" lon="6.33195">
        <ele>209.7</ele>
        <time>2022-07-02T08:09:59Z</time>
      </trkpt>
      <trkpt lat="43.24834" lon="6.33188">
        <ele>209.22</ele>
        <time>2022-07-02T08:10:00Z</time>
      </trkpt>
      <trkpt lat="43.24825" lon="6.33182">
        <ele>209.22</ele>
        <time>2022-07-02T08:10:01Z</time>
      </trkpt>
      <trkpt lat="43.24816" lon="6.33178">
        <ele>208.74</ele>
        <time>2022-07-02T08:10:02Z</time>
      </trkpt>
      <trkpt lat="43.24807" lon="6.33175">
        <ele>208.26</ele>
        <time>2022-07-02T08:10:03Z</time>
      </trkpt>
      <trkpt lat="43.24798" lon="6.33173">
        <ele>207.78</ele>
        <time>2022-07-02T08:10:04Z</time>
      </trkpt>
      <trkpt lat="43.24791" lon="6.33173">
        <ele>207.3</ele>
        <time>2022-07-02T08:10:05Z</time>
      </trkpt>
      <trkpt lat="43.24783" lon="6.33174">
        <ele>206.82</ele>
        <time>2022-07-02T08:10:06Z</time>
      </trkpt>
      <trkpt lat="43.24774" lon="6.33177">
        <ele>206.82</ele>
        <time>2022-07-02T08:10:07Z</time>
      </trkpt>
      <trkpt lat="43.24767" lon="6.3318">
        <ele>206.34</ele>
        <time>2022-07-02T08:10:08Z</time>
      </trkpt>
      <trkpt lat="43.24758" lon="6.33183">
        <ele>205.86</ele>
        <time>2022-07-02T08:10:09Z</time>
      </trkpt>
      <trkpt lat="43.24741" lon="6.33191">
        <ele>205.38</ele>
        <time>2022-07-02T08:10:11Z</time>
      </trkpt>
      <trkpt lat="43.24732" lon="6.33197">
        <ele>204.9</ele>
        <time>2022-07-02T08:10:12Z</time>
      </trkpt>
      <trkpt lat="43.24697" lon="6.33226">
        <ele>202.49</ele>
        <time>2022-07-02T08:10:16Z</time>
      </trkpt>
      <trkpt lat="43.2467" lon="6.33246">
        <ele>200.57</ele>
        <time>2022-07-02T08:10:19Z</time>
      </trkpt>
      <trkpt lat="43.24662" lon="6.33255">
        <ele>199.61</ele>
        <time>2022-07-02T08:10:20Z</time>
      </trkpt>
      <trkpt lat="43.24646" lon="6.33275">
        <ele>198.65</ele>
        <time>2022-07-02T08:10:22Z</time>
      </trkpt>
      <trkpt lat="43.24639" lon="6.33286">
        <ele>198.17</ele>
        <time>2022-07-02T08:10:23Z</time>
      </trkpt>
      <trkpt lat="43.24591" lon="6.3337">
        <ele>197.21</ele>
        <time>2022-07-02T08:10:31Z</time>
      </trkpt>
      <trkpt lat="43.24521" lon="6.33476">
        <ele>199.61</ele>
        <time>2022-07-02T08:10:42Z</time>
      </trkpt>
      <trkpt lat="43.24498" lon="6.33497">
        <ele>201.53</ele>
        <time>2022-07-02T08:10:45Z</time>
      </trkpt>
      <trkpt lat="43.2449" lon="6.33502">
        <ele>202.01</ele>
        <time>2022-07-02T08:10:46Z</time>
      </trkpt>
      <trkpt lat="43.24482" lon="6.33505">
        <ele>201.53</ele>
        <time>2022-07-02T08:10:47Z</time>
      </trkpt>
      <trkpt lat="43.24474" lon="6.33507">
        <ele>201.05</ele>
        <time>2022-07-02T08:10:48Z</time>
      </trkpt>
      <trkpt lat="43.24465" lon="6.33509">
        <ele>201.05</ele>
        <time>2022-07-02T08:10:49Z</time>
      </trkpt>
      <trkpt lat="43.24457" lon="6.3351">
        <ele>201.53</ele>
        <time>2022-07-02T08:10:50Z</time>
      </trkpt>
      <trkpt lat="43.24449" lon="6.33514">
        <ele>202.01</ele>
        <time>2022-07-02T08:10:51Z</time>
      </trkpt>
      <trkpt lat="43.24443" lon="6.33521">
        <ele>202.01</ele>
        <time>2022-07-02T08:10:52Z</time>
      </trkpt>
      <trkpt lat="43.24438" lon="6.33531">
        <ele>202.01</ele>
        <time>2022-07-02T08:10:53Z</time>
      </trkpt>
      <trkpt lat="43.24438" lon="6.33543">
        <ele>201.05</ele>
        <time>2022-07-02T08:10:54Z</time>
      </trkpt>
      <trkpt lat="43.24437" lon="6.33555">
        <ele>201.05</ele>
        <time>2022-07-02T08:10:55Z</time>
      </trkpt>
      <trkpt lat="43.24434" lon="6.33679">
        <ele>200.57</ele>
        <time>2022-07-02T08:11:06Z</time>
      </trkpt>
      <trkpt lat="43.24434" lon="6.3369">
        <ele>200.57</ele>
        <time>2022-07-02T08:11:07Z</time>
      </trkpt>
      <trkpt lat="43.24431" lon="6.3377">
        <ele>199.61</ele>
        <time>2022-07-02T08:11:14Z</time>
      </trkpt>
      <trkpt lat="43.24429" lon="6.33781">
        <ele>199.61</ele>
        <time>2022-07-02T08:11:15Z</time>
      </trkpt>
      <trkpt lat="43.24424" lon="6.33791">
        <ele>199.61</ele>
        <time>2022-07-02T08:11:16Z</time>
      </trkpt>
      <trkpt lat="43.24419" lon="6.338">
        <ele>199.61</ele>
        <time>2022-07-02T08:11:17Z</time>
      </trkpt>
      <trkpt lat="43.24413" lon="6.33808">
        <ele>199.61</ele>
        <time>2022-07-02T08:11:18Z</time>
      </trkpt>
      <trkpt lat="43.24408" lon="6.33818">
        <ele>199.61</ele>
        <time>2022-07-02T08:11:19Z</time>
      </trkpt>
      <trkpt lat="43.2436" lon="6.33926">
        <ele>198.17</ele>
        <time>2022-07-02T08:11:31Z</time>
      </trkpt>
      <trkpt lat="43.24349" lon="6.33952">
        <ele>198.17</ele>
        <time>2022-07-02T08:11:34Z</time>
      </trkpt>
      <trkpt lat="43.24345" lon="6.3396">
        <ele>197.69</ele>
        <time>2022-07-02T08:11:35Z</time>
      </trkpt>
      <trkpt lat="43.24341" lon="6.33968">
        <ele>197.21</ele>
        <time>2022-07-02T08:11:36Z</time>
      </trkpt>
      <trkpt lat="43.24275" lon="6.34035">
        <ele>195.28</ele>
        <time>2022-07-02T08:11:48Z</time>
      </trkpt>
      <trkpt lat="43.24266" lon="6.34044">
        <ele>194.8</ele>
        <time>2022-07-02T08:11:51Z</time>
      </trkpt>
      <trkpt lat="43.24268" lon="6.34047">
        <ele>194.8</ele>
        <time>2022-07-02T08:11:52Z</time>
      </trkpt>
      <trkpt lat="43.24271" lon="6.34047">
        <ele>194.8</ele>
        <time>2022-07-02T08:11:53Z</time>
      </trkpt>
      <trkpt lat="43.24274" lon="6.34046">
        <ele>194.8</ele>
        <time>2022-07-02T08:11:54Z</time>
      </trkpt>
      <trkpt lat="43.24278" lon="6.34044">
        <ele>194.8</ele>
        <time>2022-07-02T08:11:55Z</time>
      </trkpt>
      <trkpt lat="43.24281" lon="6.34042">
        <ele>194.32</ele>
        <time>2022-07-02T08:11:56Z</time>
      </trkpt>
      <trkpt lat="43.24331" lon="6.34002">
        <ele>194.8</ele>
        <time>2022-07-02T08:12:13Z</time>
      </trkpt>
      <trkpt lat="43.24357" lon="6.33964">
        <ele>194.32</ele>
        <time>2022-07-02T08:12:25Z</time>
      </trkpt>
      <trkpt lat="43.24374" lon="6.33924">
        <ele>195.28</ele>
        <time>2022-07-02T08:12:36Z</time>
      </trkpt>
      <trkpt lat="43.24397" lon="6.3388">
        <ele>198.17</ele>
        <time>2022-07-02T08:12:50Z</time>
      </trkpt>
      <trkpt lat="43.24424" lon="6.3384">
        <ele>200.57</ele>
        <time>2022-07-02T08:13:04Z</time>
      </trkpt>
      <trkpt lat="43.24433" lon="6.33834">
        <ele>200.57</ele>
        <time>2022-07-02T08:13:08Z</time>
      </trkpt>
      <trkpt lat="43.24436" lon="6.33835">
        <ele>200.57</ele>
        <time>2022-07-02T08:13:09Z</time>
      </trkpt>
      <trkpt lat="43.24449" lon="6.33866">
        <ele>199.61</ele>
        <time>2022-07-02T08:13:20Z</time>
      </trkpt>
      <trkpt lat="43.2445" lon="6.33917">
        <ele>198.17</ele>
        <time>2022-07-02T08:13:34Z</time>
      </trkpt>
      <trkpt lat="43.24446" lon="6.33976">
        <ele>199.13</ele>
        <time>2022-07-02T08:13:50Z</time>
      </trkpt>
      <trkpt lat="43.24466" lon="6.34015">
        <ele>199.61</ele>
        <time>2022-07-02T08:14:01Z</time>
      </trkpt>
      <trkpt lat="43.24511" lon="6.34032">
        <ele>197.69</ele>
        <time>2022-07-02T08:14:15Z</time>
      </trkpt>
      <trkpt lat="43.24557" lon="6.34027">
        <ele>196.73</ele>
        <time>2022-07-02T08:14:30Z</time>
      </trkpt>
      <trkpt lat="43.2459" lon="6.34028">
        <ele>202.98</ele>
        <time>2022-07-02T08:14:43Z</time>
      </trkpt>
      <trkpt lat="43.2463" lon="6.34068">
        <ele>210.67</ele>
        <time>2022-07-02T08:14:59Z</time>
      </trkpt>
      <trkpt lat="43.24675" lon="6.34077">
        <ele>213.07</ele>
        <time>2022-07-02T08:15:14Z</time>
      </trkpt>
      <trkpt lat="43.24719" lon="6.34079">
        <ele>216.91</ele>
        <time>2022-07-02T08:15:29Z</time>
      </trkpt>
      <trkpt lat="43.2476" lon="6.34078">
        <ele>223.16</ele>
        <time>2022-07-02T08:15:43Z</time>
      </trkpt>
      <trkpt lat="43.24791" lon="6.3407">
        <ele>229.41</ele>
        <time>2022-07-02T08:15:55Z</time>
      </trkpt>
      <trkpt lat="43.24822" lon="6.34104">
        <ele>231.81</ele>
        <time>2022-07-02T08:16:08Z</time>
      </trkpt>
      <trkpt lat="43.24838" lon="6.3413">
        <ele>233.26</ele>
        <time>2022-07-02T08:16:16Z</time>
      </trkpt>
      <trkpt lat="43.24841" lon="6.34132">
        <ele>233.74</ele>
        <time>2022-07-02T08:16:17Z</time>
      </trkpt>
      <trkpt lat="43.24844" lon="6.34134">
        <ele>233.74</ele>
        <time>2022-07-02T08:16:18Z</time>
      </trkpt>
      <trkpt lat="43.24847" lon="6.34135">
        <ele>233.74</ele>
        <time>2022-07-02T08:16:19Z</time>
      </trkpt>
      <trkpt lat="43.2485" lon="6.34135">
        <ele>234.22</ele>
        <time>2022-07-02T08:16:20Z</time>
      </trkpt>
      <trkpt lat="43.24853" lon="6.34134">
        <ele>234.22</ele>
        <time>2022-07-02T08:16:21Z</time>
      </trkpt>
      <trkpt lat="43.24855" lon="6.34131">
        <ele>234.7</ele>
        <time>2022-07-02T08:16:22Z</time>
      </trkpt>
      <trkpt lat="43.24857" lon="6.34128">
        <ele>235.18</ele>
        <time>2022-07-02T08:16:23Z</time>
      </trkpt>
      <trkpt lat="43.24858" lon="6.34124">
        <ele>235.18</ele>
        <time>2022-07-02T08:16:24Z</time>
      </trkpt>
      <trkpt lat="43.24858" lon="6.3412">
        <ele>235.66</ele>
        <time>2022-07-02T08:16:25Z</time>
      </trkpt>
      <trkpt lat="43.24858" lon="6.34115">
        <ele>236.14</ele>
        <time>2022-07-02T08:16:26Z</time>
      </trkpt>
      <trkpt lat="43.24857" lon="6.34111">
        <ele>236.14</ele>
        <time>2022-07-02T08:16:27Z</time>
      </trkpt>
      <trkpt lat="43.24857" lon="6.34106">
        <ele>236.62</ele>
        <time>2022-07-02T08:16:28Z</time>
      </trkpt>
      <trkpt lat="43.24857" lon="6.34101">
        <ele>237.1</ele>
        <time>2022-07-02T08:16:29Z</time>
      </trkpt>
      <trkpt lat="43.24871" lon="6.34067">
        <ele>240.47</ele>
        <time>2022-07-02T08:16:38Z</time>
      </trkpt>
      <trkpt lat="43.24891" lon="6.34038">
        <ele>243.83</ele>
        <time>2022-07-02T08:16:48Z</time>
      </trkpt>
      <trkpt lat="43.24913" lon="6.33984">
        <ele>249.12</ele>
        <time>2022-07-02T08:17:01Z</time>
      </trkpt>
      <trkpt lat="43.2494" lon="6.33954">
        <ele>247.2</ele>
        <time>2022-07-02T08:17:12Z</time>
      </trkpt>
      <trkpt lat="43.24982" lon="6.3397">
        <ele>244.79</ele>
        <time>2022-07-02T08:17:25Z</time>
      </trkpt>
      <trkpt lat="43.24982" lon="6.33975">
        <ele>244.79</ele>
        <time>2022-07-02T08:17:26Z</time>
      </trkpt>
      <trkpt lat="43.2498" lon="6.33979">
        <ele>244.79</ele>
        <time>2022-07-02T08:17:27Z</time>
      </trkpt>
      <trkpt lat="43.24978" lon="6.33983">
        <ele>244.31</ele>
        <time>2022-07-02T08:17:28Z</time>
      </trkpt>
      <trkpt lat="43.24977" lon="6.33987">
        <ele>244.31</ele>
        <time>2022-07-02T08:17:29Z</time>
      </trkpt>
      <trkpt lat="43.24975" lon="6.3399">
        <ele>244.31</ele>
        <time>2022-07-02T08:17:30Z</time>
      </trkpt>
      <trkpt lat="43.24972" lon="6.33993">
        <ele>244.31</ele>
        <time>2022-07-02T08:17:31Z</time>
      </trkpt>
      <trkpt lat="43.24959" lon="6.3404">
        <ele>242.87</ele>
        <time>2022-07-02T08:17:43Z</time>
      </trkpt>
      <trkpt lat="43.24971" lon="6.34101">
        <ele>241.43</ele>
        <time>2022-07-02T08:17:58Z</time>
      </trkpt>
      <trkpt lat="43.24996" lon="6.34141">
        <ele>243.83</ele>
        <time>2022-07-02T08:18:10Z</time>
      </trkpt>
      <trkpt lat="43.25021" lon="6.34177">
        <ele>248.16</ele>
        <time>2022-07-02T08:18:22Z</time>
      </trkpt>
      <trkpt lat="43.2505" lon="6.34222">
        <ele>251.04</ele>
        <time>2022-07-02T08:18:37Z</time>
      </trkpt>
      <trkpt lat="43.25074" lon="6.3425">
        <ele>252.96</ele>
        <time>2022-07-02T08:18:48Z</time>
      </trkpt>
      <trkpt lat="43.25102" lon="6.34263">
        <ele>252.96</ele>
        <time>2022-07-02T08:18:58Z</time>
      </trkpt>
      <trkpt lat="43.25141" lon="6.34275">
        <ele>253.93</ele>
        <time>2022-07-02T08:19:11Z</time>
      </trkpt>
      <trkpt lat="43.2517" lon="6.34296">
        <ele>257.29</ele>
        <time>2022-07-02T08:19:23Z</time>
      </trkpt>
      <trkpt lat="43.25204" lon="6.34343">
        <ele>261.14</ele>
        <time>2022-07-02T08:19:39Z</time>
      </trkpt>
      <trkpt lat="43.2522" lon="6.34389">
        <ele>262.58</ele>
        <time>2022-07-02T08:19:52Z</time>
      </trkpt>
      <trkpt lat="43.25225" lon="6.34437">
        <ele>265.46</ele>
        <time>2022-07-02T08:20:06Z</time>
      </trkpt>
      <trkpt lat="43.25219" lon="6.34456">
        <ele>266.42</ele>
        <time>2022-07-02T08:20:12Z</time>
      </trkpt>
      <trkpt lat="43.2522" lon="6.3446">
        <ele>266.42</ele>
        <time>2022-07-02T08:20:13Z</time>
      </trkpt>
      <trkpt lat="43.25236" lon="6.34484">
        <ele>268.35</ele>
        <time>2022-07-02T08:20:24Z</time>
      </trkpt>
      <trkpt lat="43.25269" lon="6.34457">
        <ele>269.79</ele>
        <time>2022-07-02T08:20:37Z</time>
      </trkpt>
      <trkpt lat="43.25294" lon="6.34423">
        <ele>271.71</ele>
        <time>2022-07-02T08:20:49Z</time>
      </trkpt>
      <trkpt lat="43.25316" lon="6.34398">
        <ele>272.67</ele>
        <time>2022-07-02T08:20:59Z</time>
      </trkpt>
      <trkpt lat="43.25359" lon="6.34369">
        <ele>276.04</ele>
        <time>2022-07-02T08:21:15Z</time>
      </trkpt>
      <trkpt lat="43.25406" lon="6.34351">
        <ele>275.56</ele>
        <time>2022-07-02T08:21:31Z</time>
      </trkpt>
      <trkpt lat="43.25432" lon="6.34364">
        <ele>279.4</ele>
        <time>2022-07-02T08:21:43Z</time>
      </trkpt>
      <trkpt lat="43.25453" lon="6.34407">
        <ele>279.4</ele>
        <time>2022-07-02T08:21:56Z</time>
      </trkpt>
      <trkpt lat="43.25478" lon="6.34458">
        <ele>282.77</ele>
        <time>2022-07-02T08:22:11Z</time>
      </trkpt>
      <trkpt lat="43.25491" lon="6.34512">
        <ele>283.73</ele>
        <time>2022-07-02T08:22:25Z</time>
      </trkpt>
      <trkpt lat="43.25491" lon="6.34573">
        <ele>288.53</ele>
        <time>2022-07-02T08:22:39Z</time>
      </trkpt>
      <trkpt lat="43.25489" lon="6.34624">
        <ele>292.38</ele>
        <time>2022-07-02T08:22:51Z</time>
      </trkpt>
      <trkpt lat="43.25479" lon="6.34664">
        <ele>295.26</ele>
        <time>2022-07-02T08:23:02Z</time>
      </trkpt>
      <trkpt lat="43.25473" lon="6.34711">
        <ele>296.7</ele>
        <time>2022-07-02T08:23:14Z</time>
      </trkpt>
      <trkpt lat="43.25466" lon="6.3477">
        <ele>299.59</ele>
        <time>2022-07-02T08:23:28Z</time>
      </trkpt>
      <trkpt lat="43.25465" lon="6.34828">
        <ele>301.99</ele>
        <time>2022-07-02T08:23:42Z</time>
      </trkpt>
      <trkpt lat="43.2548" lon="6.34871">
        <ele>301.51</ele>
        <time>2022-07-02T08:23:53Z</time>
      </trkpt>
      <trkpt lat="43.25483" lon="6.34871">
        <ele>301.03</ele>
        <time>2022-07-02T08:23:54Z</time>
      </trkpt>
      <trkpt lat="43.25487" lon="6.34871">
        <ele>301.03</ele>
        <time>2022-07-02T08:23:55Z</time>
      </trkpt>
      <trkpt lat="43.25492" lon="6.3487">
        <ele>301.03</ele>
        <time>2022-07-02T08:23:56Z</time>
      </trkpt>
      <trkpt lat="43.25496" lon="6.34869">
        <ele>301.03</ele>
        <time>2022-07-02T08:23:57Z</time>
      </trkpt>
      <trkpt lat="43.255" lon="6.34868">
        <ele>300.55</ele>
        <time>2022-07-02T08:23:58Z</time>
      </trkpt>
      <trkpt lat="43.25504" lon="6.34867">
        <ele>300.07</ele>
        <time>2022-07-02T08:23:59Z</time>
      </trkpt>
      <trkpt lat="43.25519" lon="6.34883">
        <ele>295.74</ele>
        <time>2022-07-02T08:24:07Z</time>
      </trkpt>
      <trkpt lat="43.25566" lon="6.34904">
        <ele>289.01</ele>
        <time>2022-07-02T08:24:21Z</time>
      </trkpt>
      <trkpt lat="43.25611" lon="6.34898">
        <ele>287.57</ele>
        <time>2022-07-02T08:24:34Z</time>
      </trkpt>
      <trkpt lat="43.25651" lon="6.3488">
        <ele>288.53</ele>
        <time>2022-07-02T08:24:47Z</time>
      </trkpt>
      <trkpt lat="43.25684" lon="6.34832">
        <ele>296.22</ele>
        <time>2022-07-02T08:25:01Z</time>
      </trkpt>
      <trkpt lat="43.25709" lon="6.34837">
        <ele>309.2</ele>
        <time>2022-07-02T08:25:11Z</time>
      </trkpt>
      <trkpt lat="43.25708" lon="6.34884">
        <ele>314.01</ele>
        <time>2022-07-02T08:25:23Z</time>
      </trkpt>
      <trkpt lat="43.25724" lon="6.34931">
        <ele>319.3</ele>
        <time>2022-07-02T08:25:35Z</time>
      </trkpt>
      <trkpt lat="43.25743" lon="6.34918">
        <ele>319.78</ele>
        <time>2022-07-02T08:25:43Z</time>
      </trkpt>
      <trkpt lat="43.25782" lon="6.34912">
        <ele>320.74</ele>
        <time>2022-07-02T08:25:55Z</time>
      </trkpt>
      <trkpt lat="43.25829" lon="6.34889">
        <ele>321.22</ele>
        <time>2022-07-02T08:26:10Z</time>
      </trkpt>
      <trkpt lat="43.2586" lon="6.34862">
        <ele>323.62</ele>
        <time>2022-07-02T08:26:22Z</time>
      </trkpt>
      <trkpt lat="43.25878" lon="6.34895">
        <ele>326.5</ele>
        <time>2022-07-02T08:26:32Z</time>
      </trkpt>
      <trkpt lat="43.259" lon="6.34954">
        <ele>329.39</ele>
        <time>2022-07-02T08:26:47Z</time>
      </trkpt>
      <trkpt lat="43.25936" lon="6.34967">
        <ele>329.39</ele>
        <time>2022-07-02T08:26:58Z</time>
      </trkpt>
      <trkpt lat="43.25971" lon="6.34987">
        <ele>332.75</ele>
        <time>2022-07-02T08:27:10Z</time>
      </trkpt>
      <trkpt lat="43.25984" lon="6.35035">
        <ele>335.64</ele>
        <time>2022-07-02T08:27:22Z</time>
      </trkpt>
      <trkpt lat="43.26002" lon="6.35081">
        <ele>339.96</ele>
        <time>2022-07-02T08:27:34Z</time>
      </trkpt>
      <trkpt lat="43.26022" lon="6.3513">
        <ele>338.52</ele>
        <time>2022-07-02T08:27:48Z</time>
      </trkpt>
      <trkpt lat="43.26034" lon="6.35173">
        <ele>340.44</ele>
        <time>2022-07-02T08:27:59Z</time>
      </trkpt>
      <trkpt lat="43.26053" lon="6.3522">
        <ele>341.41</ele>
        <time>2022-07-02T08:28:10Z</time>
      </trkpt>
      <trkpt lat="43.26077" lon="6.35258">
        <ele>339.48</ele>
        <time>2022-07-02T08:28:21Z</time>
      </trkpt>
      <trkpt lat="43.26091" lon="6.353">
        <ele>341.89</ele>
        <time>2022-07-02T08:28:32Z</time>
      </trkpt>
      <trkpt lat="43.26127" lon="6.353">
        <ele>348.13</ele>
        <time>2022-07-02T08:28:44Z</time>
      </trkpt>
      <trkpt lat="43.26144" lon="6.35341">
        <ele>352.46</ele>
        <time>2022-07-02T08:28:55Z</time>
      </trkpt>
      <trkpt lat="43.26115" lon="6.35367">
        <ele>354.86</ele>
        <time>2022-07-02T08:29:06Z</time>
      </trkpt>
      <trkpt lat="43.26081" lon="6.35378">
        <ele>355.83</ele>
        <time>2022-07-02T08:29:17Z</time>
      </trkpt>
      <trkpt lat="43.2606" lon="6.35413">
        <ele>359.19</ele>
        <time>2022-07-02T08:29:29Z</time>
      </trkpt>
      <trkpt lat="43.26044" lon="6.3546">
        <ele>363.04</ele>
        <time>2022-07-02T08:29:41Z</time>
      </trkpt>
      <trkpt lat="43.26037" lon="6.35505">
        <ele>365.92</ele>
        <time>2022-07-02T08:29:53Z</time>
      </trkpt>
      <trkpt lat="43.26038" lon="6.3556">
        <ele>368.8</ele>
        <time>2022-07-02T08:30:07Z</time>
      </trkpt>
      <trkpt lat="43.26038" lon="6.35611">
        <ele>370.73</ele>
        <time>2022-07-02T08:30:20Z</time>
      </trkpt>
      <trkpt lat="43.26029" lon="6.35663">
        <ele>371.69</ele>
        <time>2022-07-02T08:30:33Z</time>
      </trkpt>
      <trkpt lat="43.26019" lon="6.35701">
        <ele>371.69</ele>
        <time>2022-07-02T08:30:42Z</time>
      </trkpt>
      <trkpt lat="43.26017" lon="6.35705">
        <ele>371.69</ele>
        <time>2022-07-02T08:30:43Z</time>
      </trkpt>
      <trkpt lat="43.26014" lon="6.35709">
        <ele>371.21</ele>
        <time>2022-07-02T08:30:44Z</time>
      </trkpt>
      <trkpt lat="43.2601" lon="6.35713">
        <ele>371.21</ele>
        <time>2022-07-02T08:30:45Z</time>
      </trkpt>
      <trkpt lat="43.26008" lon="6.35717">
        <ele>371.21</ele>
        <time>2022-07-02T08:30:46Z</time>
      </trkpt>
      <trkpt lat="43.26005" lon="6.3572">
        <ele>371.21</ele>
        <time>2022-07-02T08:30:47Z</time>
      </trkpt>
      <trkpt lat="43.26003" lon="6.35723">
        <ele>371.21</ele>
        <time>2022-07-02T08:30:48Z</time>
      </trkpt>
      <trkpt lat="43.26" lon="6.35744">
        <ele>371.21</ele>
        <time>2022-07-02T08:30:53Z</time>
      </trkpt>
      <trkpt lat="43.26002" lon="6.3575">
        <ele>372.17</ele>
        <time>2022-07-02T08:30:54Z</time>
      </trkpt>
      <trkpt lat="43.26005" lon="6.35754">
        <ele>372.65</ele>
        <time>2022-07-02T08:30:55Z</time>
      </trkpt>
      <trkpt lat="43.26008" lon="6.35757">
        <ele>372.65</ele>
        <time>2022-07-02T08:30:56Z</time>
      </trkpt>
      <trkpt lat="43.26011" lon="6.35758">
        <ele>373.13</ele>
        <time>2022-07-02T08:30:57Z</time>
      </trkpt>
      <trkpt lat="43.26014" lon="6.35757">
        <ele>373.13</ele>
        <time>2022-07-02T08:30:58Z</time>
      </trkpt>
      <trkpt lat="43.26018" lon="6.35756">
        <ele>373.13</ele>
        <time>2022-07-02T08:30:59Z</time>
      </trkpt>
      <trkpt lat="43.26059" lon="6.35729">
        <ele>373.61</ele>
        <time>2022-07-02T08:31:13Z</time>
      </trkpt>
      <trkpt lat="43.26086" lon="6.35683">
        <ele>374.09</ele>
        <time>2022-07-02T08:31:27Z</time>
      </trkpt>
      <trkpt lat="43.26111" lon="6.35643">
        <ele>374.57</ele>
        <time>2022-07-02T08:31:40Z</time>
      </trkpt>
      <trkpt lat="43.2613" lon="6.35588">
        <ele>376.49</ele>
        <time>2022-07-02T08:31:54Z</time>
      </trkpt>
      <trkpt lat="43.26164" lon="6.35585">
        <ele>376.49</ele>
        <time>2022-07-02T08:32:06Z</time>
      </trkpt>
      <trkpt lat="43.26205" lon="6.35582">
        <ele>375.53</ele>
        <time>2022-07-02T08:32:20Z</time>
      </trkpt>
      <trkpt lat="43.26245" lon="6.35578">
        <ele>376.01</ele>
        <time>2022-07-02T08:32:34Z</time>
      </trkpt>
      <trkpt lat="43.26278" lon="6.35579">
        <ele>376.49</ele>
        <time>2022-07-02T08:32:47Z</time>
      </trkpt>
      <trkpt lat="43.26319" lon="6.35577">
        <ele>377.94</ele>
        <time>2022-07-02T08:32:59Z</time>
      </trkpt>
      <trkpt lat="43.26336" lon="6.35596">
        <ele>391.39</ele>
        <time>2022-07-02T08:33:10Z</time>
      </trkpt>
      <trkpt lat="43.2636" lon="6.35642">
        <ele>397.16</ele>
        <time>2022-07-02T08:33:23Z</time>
      </trkpt>
      <trkpt lat="43.26383" lon="6.35706">
        <ele>404.37</ele>
        <time>2022-07-02T08:33:40Z</time>
      </trkpt>
      <trkpt lat="43.2639" lon="6.35755">
        <ele>410.62</ele>
        <time>2022-07-02T08:33:53Z</time>
      </trkpt>
      <trkpt lat="43.26392" lon="6.35803">
        <ele>416.39</ele>
        <time>2022-07-02T08:34:06Z</time>
      </trkpt>
      <trkpt lat="43.2642" lon="6.35812">
        <ele>419.75</ele>
        <time>2022-07-02T08:34:16Z</time>
      </trkpt>
      <trkpt lat="43.26442" lon="6.35834">
        <ele>423.6</ele>
        <time>2022-07-02T08:34:26Z</time>
      </trkpt>
      <trkpt lat="43.26451" lon="6.35808">
        <ele>425.52</ele>
        <time>2022-07-02T08:34:34Z</time>
      </trkpt>
      <trkpt lat="43.26471" lon="6.35766">
        <ele>426</ele>
        <time>2022-07-02T08:34:47Z</time>
      </trkpt>
      <trkpt lat="43.26502" lon="6.35776">
        <ele>424.56</ele>
        <time>2022-07-02T08:34:57Z</time>
      </trkpt>
      <trkpt lat="43.26544" lon="6.3579">
        <ele>425.04</ele>
        <time>2022-07-02T08:35:11Z</time>
      </trkpt>
      <trkpt lat="43.26577" lon="6.35802">
        <ele>423.12</ele>
        <time>2022-07-02T08:35:22Z</time>
      </trkpt>
      <trkpt lat="43.26615" lon="6.3582">
        <ele>418.79</ele>
        <time>2022-07-02T08:35:35Z</time>
      </trkpt>
      <trkpt lat="43.26644" lon="6.35852">
        <ele>417.35</ele>
        <time>2022-07-02T08:35:48Z</time>
      </trkpt>
      <trkpt lat="43.26657" lon="6.35865">
        <ele>417.35</ele>
        <time>2022-07-02T08:35:54Z</time>
      </trkpt>
      <trkpt lat="43.2666" lon="6.35866">
        <ele>417.35</ele>
        <time>2022-07-02T08:35:55Z</time>
      </trkpt>
      <trkpt lat="43.26662" lon="6.35866">
        <ele>417.35</ele>
        <time>2022-07-02T08:35:56Z</time>
      </trkpt>
      <trkpt lat="43.26665" lon="6.35866">
        <ele>417.83</ele>
        <time>2022-07-02T08:35:57Z</time>
      </trkpt>
      <trkpt lat="43.26667" lon="6.35866">
        <ele>417.83</ele>
        <time>2022-07-02T08:35:58Z</time>
      </trkpt>
      <trkpt lat="43.2667" lon="6.35865">
        <ele>417.83</ele>
        <time>2022-07-02T08:35:59Z</time>
      </trkpt>
      <trkpt lat="43.26673" lon="6.35864">
        <ele>417.83</ele>
        <time>2022-07-02T08:36:00Z</time>
      </trkpt>
      <trkpt lat="43.26712" lon="6.35859">
        <ele>421.68</ele>
        <time>2022-07-02T08:36:14Z</time>
      </trkpt>
      <trkpt lat="43.26746" lon="6.35881">
        <ele>423.12</ele>
        <time>2022-07-02T08:36:25Z</time>
      </trkpt>
      <trkpt lat="43.26775" lon="6.35893">
        <ele>428.89</ele>
        <time>2022-07-02T08:36:36Z</time>
      </trkpt>
      <trkpt lat="43.26783" lon="6.35931">
        <ele>432.25</ele>
        <time>2022-07-02T08:36:45Z</time>
      </trkpt>
      <trkpt lat="43.26773" lon="6.35969">
        <ele>435.61</ele>
        <time>2022-07-02T08:36:55Z</time>
      </trkpt>
      <trkpt lat="43.26771" lon="6.35981">
        <ele>437.06</ele>
        <time>2022-07-02T08:36:59Z</time>
      </trkpt>
      <trkpt lat="43.26772" lon="6.35985">
        <ele>437.54</ele>
        <time>2022-07-02T08:37:00Z</time>
      </trkpt>
      <trkpt lat="43.26773" lon="6.35989">
        <ele>438.02</ele>
        <time>2022-07-02T08:37:01Z</time>
      </trkpt>
      <trkpt lat="43.26775" lon="6.35993">
        <ele>438.5</ele>
        <time>2022-07-02T08:37:02Z</time>
      </trkpt>
      <trkpt lat="43.26776" lon="6.35997">
        <ele>438.98</ele>
        <time>2022-07-02T08:37:03Z</time>
      </trkpt>
      <trkpt lat="43.26777" lon="6.36">
        <ele>439.46</ele>
        <time>2022-07-02T08:37:04Z</time>
      </trkpt>
      <trkpt lat="43.26779" lon="6.36004">
        <ele>440.42</ele>
        <time>2022-07-02T08:37:05Z</time>
      </trkpt>
      <trkpt lat="43.26787" lon="6.36045">
        <ele>446.19</ele>
        <time>2022-07-02T08:37:16Z</time>
      </trkpt>
      <trkpt lat="43.26785" lon="6.36094">
        <ele>450.03</ele>
        <time>2022-07-02T08:37:28Z</time>
      </trkpt>
      <trkpt lat="43.26772" lon="6.36117">
        <ele>453.4</ele>
        <time>2022-07-02T08:37:37Z</time>
      </trkpt>
      <trkpt lat="43.26773" lon="6.36121">
        <ele>453.4</ele>
        <time>2022-07-02T08:37:38Z</time>
      </trkpt>
      <trkpt lat="43.26774" lon="6.36126">
        <ele>453.88</ele>
        <time>2022-07-02T08:37:39Z</time>
      </trkpt>
      <trkpt lat="43.26775" lon="6.36131">
        <ele>454.36</ele>
        <time>2022-07-02T08:37:40Z</time>
      </trkpt>
      <trkpt lat="43.26776" lon="6.36135">
        <ele>454.84</ele>
        <time>2022-07-02T08:37:41Z</time>
      </trkpt>
      <trkpt lat="43.26777" lon="6.36139">
        <ele>455.32</ele>
        <time>2022-07-02T08:37:42Z</time>
      </trkpt>
      <trkpt lat="43.26777" lon="6.36144">
        <ele>455.8</ele>
        <time>2022-07-02T08:37:43Z</time>
      </trkpt>
      <trkpt lat="43.26777" lon="6.36147">
        <ele>456.28</ele>
        <time>2022-07-02T08:37:44Z</time>
      </trkpt>
      <trkpt lat="43.26777" lon="6.36151">
        <ele>456.28</ele>
        <time>2022-07-02T08:37:45Z</time>
      </trkpt>
      <trkpt lat="43.2677" lon="6.3619">
        <ele>461.57</ele>
        <time>2022-07-02T08:37:55Z</time>
      </trkpt>
      <trkpt lat="43.26772" lon="6.36196">
        <ele>462.53</ele>
        <time>2022-07-02T08:37:57Z</time>
      </trkpt>
      <trkpt lat="43.26775" lon="6.36197">
        <ele>463.01</ele>
        <time>2022-07-02T08:37:58Z</time>
      </trkpt>
      <trkpt lat="43.26779" lon="6.36198">
        <ele>463.49</ele>
        <time>2022-07-02T08:37:59Z</time>
      </trkpt>
      <trkpt lat="43.26809" lon="6.36217">
        <ele>466.38</ele>
        <time>2022-07-02T08:38:10Z</time>
      </trkpt>
      <trkpt lat="43.26828" lon="6.36269">
        <ele>464.93</ele>
        <time>2022-07-02T08:38:21Z</time>
      </trkpt>
      <trkpt lat="43.26817" lon="6.36293">
        <ele>463.01</ele>
        <time>2022-07-02T08:38:25Z</time>
      </trkpt>
      <trkpt lat="43.26809" lon="6.36301">
        <ele>462.53</ele>
        <time>2022-07-02T08:38:26Z</time>
      </trkpt>
      <trkpt lat="43.26806" lon="6.36307">
        <ele>462.05</ele>
        <time>2022-07-02T08:38:27Z</time>
      </trkpt>
      <trkpt lat="43.26769" lon="6.36362">
        <ele>460.61</ele>
        <time>2022-07-02T08:38:37Z</time>
      </trkpt>
      <trkpt lat="43.26768" lon="6.3637">
        <ele>460.13</ele>
        <time>2022-07-02T08:38:38Z</time>
      </trkpt>
      <trkpt lat="43.26768" lon="6.36378">
        <ele>460.13</ele>
        <time>2022-07-02T08:38:39Z</time>
      </trkpt>
      <trkpt lat="43.2677" lon="6.36385">
        <ele>460.13</ele>
        <time>2022-07-02T08:38:40Z</time>
      </trkpt>
      <trkpt lat="43.26772" lon="6.36391">
        <ele>459.17</ele>
        <time>2022-07-02T08:38:41Z</time>
      </trkpt>
      <trkpt lat="43.26773" lon="6.36398">
        <ele>459.17</ele>
        <time>2022-07-02T08:38:42Z</time>
      </trkpt>
      <trkpt lat="43.26773" lon="6.36404">
        <ele>458.69</ele>
        <time>2022-07-02T08:38:43Z</time>
      </trkpt>
      <trkpt lat="43.26769" lon="6.36412">
        <ele>457.72</ele>
        <time>2022-07-02T08:38:44Z</time>
      </trkpt>
      <trkpt lat="43.26766" lon="6.36419">
        <ele>456.76</ele>
        <time>2022-07-02T08:38:45Z</time>
      </trkpt>
      <trkpt lat="43.26744" lon="6.36461">
        <ele>454.84</ele>
        <time>2022-07-02T08:38:51Z</time>
      </trkpt>
      <trkpt lat="43.2674" lon="6.36477">
        <ele>454.36</ele>
        <time>2022-07-02T08:38:54Z</time>
      </trkpt>
      <trkpt lat="43.26743" lon="6.3648">
        <ele>454.36</ele>
        <time>2022-07-02T08:38:55Z</time>
      </trkpt>
      <trkpt lat="43.26747" lon="6.36483">
        <ele>453.88</ele>
        <time>2022-07-02T08:38:56Z</time>
      </trkpt>
      <trkpt lat="43.2675" lon="6.36487">
        <ele>453.88</ele>
        <time>2022-07-02T08:38:57Z</time>
      </trkpt>
      <trkpt lat="43.26755" lon="6.3649">
        <ele>453.88</ele>
        <time>2022-07-02T08:38:58Z</time>
      </trkpt>
      <trkpt lat="43.2676" lon="6.36491">
        <ele>453.88</ele>
        <time>2022-07-02T08:38:59Z</time>
      </trkpt>
      <trkpt lat="43.26766" lon="6.36491">
        <ele>453.88</ele>
        <time>2022-07-02T08:39:00Z</time>
      </trkpt>
      <trkpt lat="43.26814" lon="6.36497">
        <ele>454.36</ele>
        <time>2022-07-02T08:39:13Z</time>
      </trkpt>
      <trkpt lat="43.26852" lon="6.3649">
        <ele>449.55</ele>
        <time>2022-07-02T08:39:27Z</time>
      </trkpt>
      <trkpt lat="43.26861" lon="6.36523">
        <ele>450.52</ele>
        <time>2022-07-02T08:39:37Z</time>
      </trkpt>
      <trkpt lat="43.2684" lon="6.36568">
        <ele>451.96</ele>
        <time>2022-07-02T08:39:52Z</time>
      </trkpt>
      <trkpt lat="43.26838" lon="6.36612">
        <ele>453.88</ele>
        <time>2022-07-02T08:40:03Z</time>
      </trkpt>
      <trkpt lat="43.26833" lon="6.36664">
        <ele>457.72</ele>
        <time>2022-07-02T08:40:17Z</time>
      </trkpt>
      <trkpt lat="43.26837" lon="6.36702">
        <ele>459.65</ele>
        <time>2022-07-02T08:40:27Z</time>
      </trkpt>
      <trkpt lat="43.2684" lon="6.36705">
        <ele>460.13</ele>
        <time>2022-07-02T08:40:28Z</time>
      </trkpt>
      <trkpt lat="43.26842" lon="6.36706">
        <ele>460.13</ele>
        <time>2022-07-02T08:40:29Z</time>
      </trkpt>
      <trkpt lat="43.26844" lon="6.36707">
        <ele>460.13</ele>
        <time>2022-07-02T08:40:30Z</time>
      </trkpt>
      <trkpt lat="43.26847" lon="6.36706">
        <ele>460.61</ele>
        <time>2022-07-02T08:40:31Z</time>
      </trkpt>
      <trkpt lat="43.26849" lon="6.36704">
        <ele>460.61</ele>
        <time>2022-07-02T08:40:32Z</time>
      </trkpt>
      <trkpt lat="43.26852" lon="6.36702">
        <ele>460.61</ele>
        <time>2022-07-02T08:40:33Z</time>
      </trkpt>
      <trkpt lat="43.26853" lon="6.36699">
        <ele>461.09</ele>
        <time>2022-07-02T08:40:34Z</time>
      </trkpt>
      <trkpt lat="43.26853" lon="6.36696">
        <ele>461.09</ele>
        <time>2022-07-02T08:40:35Z</time>
      </trkpt>
      <trkpt lat="43.26853" lon="6.36692">
        <ele>461.09</ele>
        <time>2022-07-02T08:40:36Z</time>
      </trkpt>
      <trkpt lat="43.26854" lon="6.36689">
        <ele>461.09</ele>
        <time>2022-07-02T08:40:37Z</time>
      </trkpt>
      <trkpt lat="43.26882" lon="6.36654">
        <ele>460.61</ele>
        <time>2022-07-02T08:40:50Z</time>
      </trkpt>
      <trkpt lat="43.26917" lon="6.36623">
        <ele>460.61</ele>
        <time>2022-07-02T08:41:04Z</time>
      </trkpt>
      <trkpt lat="43.26963" lon="6.36615">
        <ele>459.65</ele>
        <time>2022-07-02T08:41:20Z</time>
      </trkpt>
      <trkpt lat="43.2701" lon="6.36638">
        <ele>458.69</ele>
        <time>2022-07-02T08:41:36Z</time>
      </trkpt>
      <trkpt lat="43.27051" lon="6.36658">
        <ele>456.76</ele>
        <time>2022-07-02T08:41:50Z</time>
      </trkpt>
      <trkpt lat="43.27082" lon="6.36671">
        <ele>454.36</ele>
        <time>2022-07-02T08:42:02Z</time>
      </trkpt>
      <trkpt lat="43.27102" lon="6.36697">
        <ele>456.76</ele>
        <time>2022-07-02T08:42:12Z</time>
      </trkpt>
      <trkpt lat="43.27119" lon="6.36737">
        <ele>459.17</ele>
        <time>2022-07-02T08:42:24Z</time>
      </trkpt>
      <trkpt lat="43.27136" lon="6.36763">
        <ele>459.17</ele>
        <time>2022-07-02T08:42:34Z</time>
      </trkpt>
      <trkpt lat="43.27139" lon="6.36764">
        <ele>459.65</ele>
        <time>2022-07-02T08:42:35Z</time>
      </trkpt>
      <trkpt lat="43.27142" lon="6.36763">
        <ele>459.65</ele>
        <time>2022-07-02T08:42:36Z</time>
      </trkpt>
      <trkpt lat="43.27144" lon="6.36762">
        <ele>460.13</ele>
        <time>2022-07-02T08:42:37Z</time>
      </trkpt>
      <trkpt lat="43.27148" lon="6.3676">
        <ele>460.61</ele>
        <time>2022-07-02T08:42:38Z</time>
      </trkpt>
      <trkpt lat="43.27151" lon="6.36758">
        <ele>460.61</ele>
        <time>2022-07-02T08:42:39Z</time>
      </trkpt>
      <trkpt lat="43.27154" lon="6.36755">
        <ele>461.09</ele>
        <time>2022-07-02T08:42:40Z</time>
      </trkpt>
      <trkpt lat="43.27171" lon="6.36697">
        <ele>465.42</ele>
        <time>2022-07-02T08:42:52Z</time>
      </trkpt>
      <trkpt lat="43.27187" lon="6.36636">
        <ele>471.18</ele>
        <time>2022-07-02T08:43:07Z</time>
      </trkpt>
      <trkpt lat="43.27191" lon="6.36623">
        <ele>472.63</ele>
        <time>2022-07-02T08:43:11Z</time>
      </trkpt>
      <trkpt lat="43.27205" lon="6.36589">
        <ele>475.03</ele>
        <time>2022-07-02T08:43:21Z</time>
      </trkpt>
      <trkpt lat="43.2721" lon="6.36543">
        <ele>477.43</ele>
        <time>2022-07-02T08:43:32Z</time>
      </trkpt>
      <trkpt lat="43.27196" lon="6.36484">
        <ele>482.72</ele>
        <time>2022-07-02T08:43:46Z</time>
      </trkpt>
      <trkpt lat="43.27194" lon="6.36432">
        <ele>488.01</ele>
        <time>2022-07-02T08:43:58Z</time>
      </trkpt>
      <trkpt lat="43.27198" lon="6.36404">
        <ele>490.89</ele>
        <time>2022-07-02T08:44:07Z</time>
      </trkpt>
      <trkpt lat="43.27201" lon="6.36402">
        <ele>491.37</ele>
        <time>2022-07-02T08:44:08Z</time>
      </trkpt>
      <trkpt lat="43.27203" lon="6.36401">
        <ele>491.85</ele>
        <time>2022-07-02T08:44:09Z</time>
      </trkpt>
      <trkpt lat="43.27206" lon="6.364">
        <ele>492.33</ele>
        <time>2022-07-02T08:44:10Z</time>
      </trkpt>
      <trkpt lat="43.27209" lon="6.36398">
        <ele>492.33</ele>
        <time>2022-07-02T08:44:11Z</time>
      </trkpt>
      <trkpt lat="43.27246" lon="6.36394">
        <ele>492.81</ele>
        <time>2022-07-02T08:44:24Z</time>
      </trkpt>
      <trkpt lat="43.27285" lon="6.36401">
        <ele>492.33</ele>
        <time>2022-07-02T08:44:38Z</time>
      </trkpt>
      <trkpt lat="43.2733" lon="6.36396">
        <ele>493.77</ele>
        <time>2022-07-02T08:44:55Z</time>
      </trkpt>
      <trkpt lat="43.27356" lon="6.36418">
        <ele>492.81</ele>
        <time>2022-07-02T08:45:06Z</time>
      </trkpt>
      <trkpt lat="43.27384" lon="6.36456">
        <ele>490.89</ele>
        <time>2022-07-02T08:45:19Z</time>
      </trkpt>
      <trkpt lat="43.27412" lon="6.36451">
        <ele>489.93</ele>
        <time>2022-07-02T08:45:29Z</time>
      </trkpt>
      <trkpt lat="43.27448" lon="6.36466">
        <ele>489.45</ele>
        <time>2022-07-02T08:45:41Z</time>
      </trkpt>
      <trkpt lat="43.27469" lon="6.3645">
        <ele>489.45</ele>
        <time>2022-07-02T08:45:50Z</time>
      </trkpt>
      <trkpt lat="43.27505" lon="6.36406">
        <ele>493.29</ele>
        <time>2022-07-02T08:46:06Z</time>
      </trkpt>
      <trkpt lat="43.27535" lon="6.36417">
        <ele>497.62</ele>
        <time>2022-07-02T08:46:18Z</time>
      </trkpt>
      <trkpt lat="43.27557" lon="6.36462">
        <ele>500.98</ele>
        <time>2022-07-02T08:46:32Z</time>
      </trkpt>
      <trkpt lat="43.27578" lon="6.36508">
        <ele>503.87</ele>
        <time>2022-07-02T08:46:46Z</time>
      </trkpt>
      <trkpt lat="43.27602" lon="6.36503">
        <ele>506.27</ele>
        <time>2022-07-02T08:46:55Z</time>
      </trkpt>
      <trkpt lat="43.27627" lon="6.36526">
        <ele>508.67</ele>
        <time>2022-07-02T08:47:06Z</time>
      </trkpt>
      <trkpt lat="43.27655" lon="6.36548">
        <ele>511.08</ele>
        <time>2022-07-02T08:47:18Z</time>
      </trkpt>
      <trkpt lat="43.27686" lon="6.36526">
        <ele>514.44</ele>
        <time>2022-07-02T08:47:30Z</time>
      </trkpt>
      <trkpt lat="43.27712" lon="6.36492">
        <ele>516.37</ele>
        <time>2022-07-02T08:47:42Z</time>
      </trkpt>
      <trkpt lat="43.27738" lon="6.36485">
        <ele>518.77</ele>
        <time>2022-07-02T08:47:52Z</time>
      </trkpt>
      <trkpt lat="43.27765" lon="6.36471">
        <ele>521.65</ele>
        <time>2022-07-02T08:48:01Z</time>
      </trkpt>
      <trkpt lat="43.27789" lon="6.36434">
        <ele>525.5</ele>
        <time>2022-07-02T08:48:13Z</time>
      </trkpt>
      <trkpt lat="43.27839" lon="6.36398">
        <ele>529.34</ele>
        <time>2022-07-02T08:48:29Z</time>
      </trkpt>
      <trkpt lat="43.27867" lon="6.36373">
        <ele>532.23</ele>
        <time>2022-07-02T08:48:40Z</time>
      </trkpt>
      <trkpt lat="43.27894" lon="6.3633">
        <ele>535.59</ele>
        <time>2022-07-02T08:48:54Z</time>
      </trkpt>
      <trkpt lat="43.27895" lon="6.36327">
        <ele>536.07</ele>
        <time>2022-07-02T08:48:55Z</time>
      </trkpt>
      <trkpt lat="43.27897" lon="6.36324">
        <ele>536.55</ele>
        <time>2022-07-02T08:48:56Z</time>
      </trkpt>
      <trkpt lat="43.27899" lon="6.36321">
        <ele>537.03</ele>
        <time>2022-07-02T08:48:57Z</time>
      </trkpt>
      <trkpt lat="43.27902" lon="6.36318">
        <ele>537.03</ele>
        <time>2022-07-02T08:48:58Z</time>
      </trkpt>
      <trkpt lat="43.27904" lon="6.36316">
        <ele>537.03</ele>
        <time>2022-07-02T08:48:59Z</time>
      </trkpt>
      <trkpt lat="43.27951" lon="6.36289">
        <ele>538.48</ele>
        <time>2022-07-02T08:49:15Z</time>
      </trkpt>
      <trkpt lat="43.27982" lon="6.36296">
        <ele>538.96</ele>
        <time>2022-07-02T08:49:26Z</time>
      </trkpt>
      <trkpt lat="43.28012" lon="6.36291">
        <ele>540.4</ele>
        <time>2022-07-02T08:49:36Z</time>
      </trkpt>
      <trkpt lat="43.28056" lon="6.36277">
        <ele>541.36</ele>
        <time>2022-07-02T08:49:51Z</time>
      </trkpt>
      <trkpt lat="43.28086" lon="6.3628">
        <ele>544.24</ele>
        <time>2022-07-02T08:50:03Z</time>
      </trkpt>
      <trkpt lat="43.28114" lon="6.36257">
        <ele>551.45</ele>
        <time>2022-07-02T08:50:16Z</time>
      </trkpt>
      <trkpt lat="43.28145" lon="6.36226">
        <ele>555.3</ele>
        <time>2022-07-02T08:50:32Z</time>
      </trkpt>
      <trkpt lat="43.28178" lon="6.362">
        <ele>560.11</ele>
        <time>2022-07-02T08:50:47Z</time>
      </trkpt>
      <trkpt lat="43.28204" lon="6.36177">
        <ele>562.51</ele>
        <time>2022-07-02T08:51:00Z</time>
      </trkpt>
      <trkpt lat="43.2823" lon="6.36156">
        <ele>564.43</ele>
        <time>2022-07-02T08:51:12Z</time>
      </trkpt>
      <trkpt lat="43.28261" lon="6.36129">
        <ele>565.39</ele>
        <time>2022-07-02T08:51:25Z</time>
      </trkpt>
      <trkpt lat="43.28286" lon="6.36108">
        <ele>567.8</ele>
        <time>2022-07-02T08:51:37Z</time>
      </trkpt>
      <trkpt lat="43.28317" lon="6.36088">
        <ele>569.24</ele>
        <time>2022-07-02T08:51:49Z</time>
      </trkpt>
      <trkpt lat="43.28354" lon="6.36085">
        <ele>568.28</ele>
        <time>2022-07-02T08:52:03Z</time>
      </trkpt>
      <trkpt lat="43.28382" lon="6.36097">
        <ele>570.68</ele>
        <time>2022-07-02T08:52:14Z</time>
      </trkpt>
      <trkpt lat="43.28412" lon="6.36118">
        <ele>572.6</ele>
        <time>2022-07-02T08:52:27Z</time>
      </trkpt>
      <trkpt lat="43.28441" lon="6.36134">
        <ele>575.01</ele>
        <time>2022-07-02T08:52:41Z</time>
      </trkpt>
      <trkpt lat="43.28452" lon="6.36136">
        <ele>577.41</ele>
        <time>2022-07-02T08:52:47Z</time>
      </trkpt>
      <trkpt lat="43.28484" lon="6.36131">
        <ele>581.73</ele>
        <time>2022-07-02T08:52:59Z</time>
      </trkpt>
      <trkpt lat="43.28502" lon="6.36104">
        <ele>585.58</ele>
        <time>2022-07-02T08:53:11Z</time>
      </trkpt>
      <trkpt lat="43.28501" lon="6.36101">
        <ele>586.54</ele>
        <time>2022-07-02T08:53:12Z</time>
      </trkpt>
      <trkpt lat="43.28499" lon="6.36098">
        <ele>587.02</ele>
        <time>2022-07-02T08:53:13Z</time>
      </trkpt>
      <trkpt lat="43.28498" lon="6.36096">
        <ele>587.5</ele>
        <time>2022-07-02T08:53:14Z</time>
      </trkpt>
      <trkpt lat="43.28496" lon="6.36094">
        <ele>587.98</ele>
        <time>2022-07-02T08:53:15Z</time>
      </trkpt>
      <trkpt lat="43.28494" lon="6.36092">
        <ele>588.46</ele>
        <time>2022-07-02T08:53:16Z</time>
      </trkpt>
      <trkpt lat="43.28491" lon="6.36091">
        <ele>588.95</ele>
        <time>2022-07-02T08:53:17Z</time>
      </trkpt>
      <trkpt lat="43.28464" lon="6.36099">
        <ele>592.79</ele>
        <time>2022-07-02T08:53:29Z</time>
      </trkpt>
      <trkpt lat="43.28438" lon="6.36091">
        <ele>597.12</ele>
        <time>2022-07-02T08:53:39Z</time>
      </trkpt>
      <trkpt lat="43.28436" lon="6.36088">
        <ele>597.6</ele>
        <time>2022-07-02T08:53:40Z</time>
      </trkpt>
      <trkpt lat="43.28434" lon="6.36086">
        <ele>597.6</ele>
        <time>2022-07-02T08:53:41Z</time>
      </trkpt>
      <trkpt lat="43.284" lon="6.36051">
        <ele>598.08</ele>
        <time>2022-07-02T08:53:54Z</time>
      </trkpt>
      <trkpt lat="43.28359" lon="6.36028">
        <ele>597.6</ele>
        <time>2022-07-02T08:54:08Z</time>
      </trkpt>
      <trkpt lat="43.28323" lon="6.36021">
        <ele>599.52</ele>
        <time>2022-07-02T08:54:21Z</time>
      </trkpt>
      <trkpt lat="43.28283" lon="6.36017">
        <ele>602.88</ele>
        <time>2022-07-02T08:54:35Z</time>
      </trkpt>
      <trkpt lat="43.28249" lon="6.36017">
        <ele>603.85</ele>
        <time>2022-07-02T08:54:47Z</time>
      </trkpt>
      <trkpt lat="43.28217" lon="6.35998">
        <ele>603.85</ele>
        <time>2022-07-02T08:54:58Z</time>
      </trkpt>
      <trkpt lat="43.28201" lon="6.35956">
        <ele>605.77</ele>
        <time>2022-07-02T08:55:09Z</time>
      </trkpt>
      <trkpt lat="43.28181" lon="6.35894">
        <ele>606.73</ele>
        <time>2022-07-02T08:55:22Z</time>
      </trkpt>
      <trkpt lat="43.28163" lon="6.35845">
        <ele>609.61</ele>
        <time>2022-07-02T08:55:34Z</time>
      </trkpt>
      <trkpt lat="43.28135" lon="6.35819">
        <ele>611.54</ele>
        <time>2022-07-02T08:55:46Z</time>
      </trkpt>
      <trkpt lat="43.28132" lon="6.35818">
        <ele>611.54</ele>
        <time>2022-07-02T08:55:47Z</time>
      </trkpt>
      <trkpt lat="43.2813" lon="6.35817">
        <ele>612.02</ele>
        <time>2022-07-02T08:55:48Z</time>
      </trkpt>
      <trkpt lat="43.28127" lon="6.35816">
        <ele>612.02</ele>
        <time>2022-07-02T08:55:49Z</time>
      </trkpt>
      <trkpt lat="43.28124" lon="6.35814">
        <ele>612.5</ele>
        <time>2022-07-02T08:55:50Z</time>
      </trkpt>
      <trkpt lat="43.28122" lon="6.35814">
        <ele>612.98</ele>
        <time>2022-07-02T08:55:51Z</time>
      </trkpt>
      <trkpt lat="43.28119" lon="6.35813">
        <ele>612.98</ele>
        <time>2022-07-02T08:55:52Z</time>
      </trkpt>
      <trkpt lat="43.28083" lon="6.35801">
        <ele>614.42</ele>
        <time>2022-07-02T08:56:06Z</time>
      </trkpt>
      <trkpt lat="43.28081" lon="6.358">
        <ele>614.42</ele>
        <time>2022-07-02T08:56:07Z</time>
      </trkpt>
      <trkpt lat="43.28078" lon="6.35798">
        <ele>614.42</ele>
        <time>2022-07-02T08:56:08Z</time>
      </trkpt>
      <trkpt lat="43.28075" lon="6.35798">
        <ele>615.38</ele>
        <time>2022-07-02T08:56:09Z</time>
      </trkpt>
      <trkpt lat="43.28073" lon="6.35796">
        <ele>615.38</ele>
        <time>2022-07-02T08:56:10Z</time>
      </trkpt>
      <trkpt lat="43.28071" lon="6.35794">
        <ele>614.9</ele>
        <time>2022-07-02T08:56:11Z</time>
      </trkpt>
      <trkpt lat="43.28069" lon="6.35792">
        <ele>614.9</ele>
        <time>2022-07-02T08:56:12Z</time>
      </trkpt>
      <trkpt lat="43.2805" lon="6.35754">
        <ele>616.34</ele>
        <time>2022-07-02T08:56:25Z</time>
      </trkpt>
      <trkpt lat="43.28047" lon="6.35722">
        <ele>618.26</ele>
        <time>2022-07-02T08:56:35Z</time>
      </trkpt>
      <trkpt lat="43.28042" lon="6.35673">
        <ele>620.19</ele>
        <time>2022-07-02T08:56:48Z</time>
      </trkpt>
      <trkpt lat="43.28039" lon="6.35663">
        <ele>619.71</ele>
        <time>2022-07-02T08:56:51Z</time>
      </trkpt>
      <trkpt lat="43.28013" lon="6.35645">
        <ele>620.67</ele>
        <time>2022-07-02T08:57:03Z</time>
      </trkpt>
      <trkpt lat="43.27984" lon="6.35638">
        <ele>621.15</ele>
        <time>2022-07-02T08:57:15Z</time>
      </trkpt>
      <trkpt lat="43.27951" lon="6.35612">
        <ele>625.96</ele>
        <time>2022-07-02T08:57:30Z</time>
      </trkpt>
      <trkpt lat="43.27928" lon="6.35586">
        <ele>628.36</ele>
        <time>2022-07-02T08:57:42Z</time>
      </trkpt>
      <trkpt lat="43.27899" lon="6.35588">
        <ele>629.8</ele>
        <time>2022-07-02T08:57:53Z</time>
      </trkpt>
      <trkpt lat="43.27859" lon="6.35578">
        <ele>630.28</ele>
        <time>2022-07-02T08:58:07Z</time>
      </trkpt>
      <trkpt lat="43.27827" lon="6.35561">
        <ele>629.8</ele>
        <time>2022-07-02T08:58:19Z</time>
      </trkpt>
      <trkpt lat="43.27825" lon="6.35552">
        <ele>629.8</ele>
        <time>2022-07-02T08:58:21Z</time>
      </trkpt>
      <trkpt lat="43.27826" lon="6.35547">
        <ele>629.32</ele>
        <time>2022-07-02T08:58:22Z</time>
      </trkpt>
      <trkpt lat="43.27827" lon="6.35542">
        <ele>629.32</ele>
        <time>2022-07-02T08:58:23Z</time>
      </trkpt>
      <trkpt lat="43.27828" lon="6.35537">
        <ele>629.8</ele>
        <time>2022-07-02T08:58:24Z</time>
      </trkpt>
      <trkpt lat="43.27829" lon="6.35532">
        <ele>629.8</ele>
        <time>2022-07-02T08:58:25Z</time>
      </trkpt>
      <trkpt lat="43.27831" lon="6.35526">
        <ele>629.8</ele>
        <time>2022-07-02T08:58:26Z</time>
      </trkpt>
      <trkpt lat="43.27834" lon="6.35521">
        <ele>629.8</ele>
        <time>2022-07-02T08:58:27Z</time>
      </trkpt>
      <trkpt lat="43.27837" lon="6.35516">
        <ele>629.8</ele>
        <time>2022-07-02T08:58:28Z</time>
      </trkpt>
      <trkpt lat="43.2784" lon="6.35511">
        <ele>629.8</ele>
        <time>2022-07-02T08:58:29Z</time>
      </trkpt>
      <trkpt lat="43.27852" lon="6.35484">
        <ele>628.84</ele>
        <time>2022-07-02T08:58:33Z</time>
      </trkpt>
      <trkpt lat="43.27855" lon="6.35477">
        <ele>628.84</ele>
        <time>2022-07-02T08:58:34Z</time>
      </trkpt>
      <trkpt lat="43.27858" lon="6.35469">
        <ele>628.84</ele>
        <time>2022-07-02T08:58:35Z</time>
      </trkpt>
      <trkpt lat="43.27861" lon="6.3546">
        <ele>628.36</ele>
        <time>2022-07-02T08:58:36Z</time>
      </trkpt>
      <trkpt lat="43.27863" lon="6.35451">
        <ele>628.36</ele>
        <time>2022-07-02T08:58:37Z</time>
      </trkpt>
      <trkpt lat="43.27866" lon="6.35432">
        <ele>628.36</ele>
        <time>2022-07-02T08:58:39Z</time>
      </trkpt>
      <trkpt lat="43.27879" lon="6.35343">
        <ele>625.47</ele>
        <time>2022-07-02T08:58:48Z</time>
      </trkpt>
      <trkpt lat="43.27881" lon="6.35333">
        <ele>624.99</ele>
        <time>2022-07-02T08:58:49Z</time>
      </trkpt>
      <trkpt lat="43.27892" lon="6.35276">
        <ele>622.11</ele>
        <time>2022-07-02T08:58:55Z</time>
      </trkpt>
      <trkpt lat="43.27892" lon="6.35266">
        <ele>621.63</ele>
        <time>2022-07-02T08:58:56Z</time>
      </trkpt>
      <trkpt lat="43.27891" lon="6.35256">
        <ele>622.11</ele>
        <time>2022-07-02T08:58:57Z</time>
      </trkpt>
      <trkpt lat="43.27886" lon="6.35221">
        <ele>621.63</ele>
        <time>2022-07-02T08:59:01Z</time>
      </trkpt>
      <trkpt lat="43.27886" lon="6.35213">
        <ele>621.63</ele>
        <time>2022-07-02T08:59:02Z</time>
      </trkpt>
      <trkpt lat="43.27888" lon="6.35205">
        <ele>621.15</ele>
        <time>2022-07-02T08:59:03Z</time>
      </trkpt>
      <trkpt lat="43.27891" lon="6.35197">
        <ele>620.67</ele>
        <time>2022-07-02T08:59:04Z</time>
      </trkpt>
      <trkpt lat="43.27894" lon="6.35189">
        <ele>620.19</ele>
        <time>2022-07-02T08:59:05Z</time>
      </trkpt>
      <trkpt lat="43.27927" lon="6.35108">
        <ele>616.82</ele>
        <time>2022-07-02T08:59:16Z</time>
      </trkpt>
      <trkpt lat="43.27932" lon="6.35103">
        <ele>616.82</ele>
        <time>2022-07-02T08:59:17Z</time>
      </trkpt>
      <trkpt lat="43.27937" lon="6.35098">
        <ele>616.34</ele>
        <time>2022-07-02T08:59:18Z</time>
      </trkpt>
      <trkpt lat="43.27942" lon="6.35094">
        <ele>615.86</ele>
        <time>2022-07-02T08:59:19Z</time>
      </trkpt>
      <trkpt lat="43.27947" lon="6.3509">
        <ele>615.38</ele>
        <time>2022-07-02T08:59:20Z</time>
      </trkpt>
      <trkpt lat="43.27953" lon="6.35085">
        <ele>614.9</ele>
        <time>2022-07-02T08:59:21Z</time>
      </trkpt>
      <trkpt lat="43.27958" lon="6.3508">
        <ele>614.42</ele>
        <time>2022-07-02T08:59:22Z</time>
      </trkpt>
      <trkpt lat="43.27987" lon="6.35045">
        <ele>612.02</ele>
        <time>2022-07-02T08:59:28Z</time>
      </trkpt>
      <trkpt lat="43.2799" lon="6.35037">
        <ele>611.54</ele>
        <time>2022-07-02T08:59:29Z</time>
      </trkpt>
      <trkpt lat="43.27993" lon="6.35029">
        <ele>611.06</ele>
        <time>2022-07-02T08:59:30Z</time>
      </trkpt>
      <trkpt lat="43.27995" lon="6.35021">
        <ele>610.57</ele>
        <time>2022-07-02T08:59:31Z</time>
      </trkpt>
      <trkpt lat="43.27996" lon="6.35013">
        <ele>610.57</ele>
        <time>2022-07-02T08:59:32Z</time>
      </trkpt>
      <trkpt lat="43.27997" lon="6.35006">
        <ele>610.09</ele>
        <time>2022-07-02T08:59:33Z</time>
      </trkpt>
      <trkpt lat="43.27997" lon="6.34998">
        <ele>610.09</ele>
        <time>2022-07-02T08:59:34Z</time>
      </trkpt>
      <trkpt lat="43.27992" lon="6.34884">
        <ele>608.17</ele>
        <time>2022-07-02T08:59:47Z</time>
      </trkpt>
      <trkpt lat="43.27993" lon="6.34875">
        <ele>608.17</ele>
        <time>2022-07-02T08:59:48Z</time>
      </trkpt>
      <trkpt lat="43.27996" lon="6.34868">
        <ele>608.65</ele>
        <time>2022-07-02T08:59:49Z</time>
      </trkpt>
      <trkpt lat="43.28001" lon="6.34861">
        <ele>608.65</ele>
        <time>2022-07-02T08:59:50Z</time>
      </trkpt>
      <trkpt lat="43.28005" lon="6.34856">
        <ele>608.65</ele>
        <time>2022-07-02T08:59:51Z</time>
      </trkpt>
      <trkpt lat="43.28011" lon="6.34851">
        <ele>608.65</ele>
        <time>2022-07-02T08:59:52Z</time>
      </trkpt>
      <trkpt lat="43.28017" lon="6.34847">
        <ele>608.65</ele>
        <time>2022-07-02T08:59:53Z</time>
      </trkpt>
      <trkpt lat="43.28023" lon="6.34843">
        <ele>608.17</ele>
        <time>2022-07-02T08:59:54Z</time>
      </trkpt>
      <trkpt lat="43.28028" lon="6.3484">
        <ele>608.17</ele>
        <time>2022-07-02T08:59:55Z</time>
      </trkpt>
      <trkpt lat="43.28045" lon="6.34827">
        <ele>607.21</ele>
        <time>2022-07-02T08:59:58Z</time>
      </trkpt>
      <trkpt lat="43.2805" lon="6.34822">
        <ele>607.21</ele>
        <time>2022-07-02T08:59:59Z</time>
      </trkpt>
      <trkpt lat="43.28055" lon="6.34816">
        <ele>607.21</ele>
        <time>2022-07-02T09:00:00Z</time>
      </trkpt>
      <trkpt lat="43.2806" lon="6.3481">
        <ele>606.73</ele>
        <time>2022-07-02T09:00:01Z</time>
      </trkpt>
      <trkpt lat="43.28065" lon="6.34803">
        <ele>607.21</ele>
        <time>2022-07-02T09:00:02Z</time>
      </trkpt>
      <trkpt lat="43.28103" lon="6.34737">
        <ele>606.73</ele>
        <time>2022-07-02T09:00:11Z</time>
      </trkpt>
      <trkpt lat="43.28108" lon="6.3473">
        <ele>606.73</ele>
        <time>2022-07-02T09:00:12Z</time>
      </trkpt>
      <trkpt lat="43.28112" lon="6.34723">
        <ele>607.21</ele>
        <time>2022-07-02T09:00:13Z</time>
      </trkpt>
      <trkpt lat="43.28117" lon="6.34718">
        <ele>607.21</ele>
        <time>2022-07-02T09:00:14Z</time>
      </trkpt>
      <trkpt lat="43.28122" lon="6.34713">
        <ele>607.69</ele>
        <time>2022-07-02T09:00:15Z</time>
      </trkpt>
      <trkpt lat="43.28127" lon="6.34708">
        <ele>607.69</ele>
        <time>2022-07-02T09:00:16Z</time>
      </trkpt>
      <trkpt lat="43.28168" lon="6.34672">
        <ele>608.65</ele>
        <time>2022-07-02T09:00:23Z</time>
      </trkpt>
      <trkpt lat="43.28182" lon="6.34656">
        <ele>608.65</ele>
        <time>2022-07-02T09:00:26Z</time>
      </trkpt>
      <trkpt lat="43.28185" lon="6.34651">
        <ele>608.65</ele>
        <time>2022-07-02T09:00:27Z</time>
      </trkpt>
      <trkpt lat="43.28187" lon="6.34647">
        <ele>609.13</ele>
        <time>2022-07-02T09:00:28Z</time>
      </trkpt>
      <trkpt lat="43.28188" lon="6.34638">
        <ele>608.65</ele>
        <time>2022-07-02T09:00:38Z</time>
      </trkpt>
      <trkpt lat="43.28185" lon="6.34633">
        <ele>606.73</ele>
        <time>2022-07-02T09:01:39Z</time>
      </trkpt>
      <trkpt lat="43.28183" lon="6.3463">
        <ele>608.17</ele>
        <time>2022-07-02T09:02:02Z</time>
      </trkpt>
      <trkpt lat="43.28188" lon="6.34626">
        <ele>609.13</ele>
        <time>2022-07-02T09:02:29Z</time>
      </trkpt>
      <trkpt lat="43.28185" lon="6.34621">
        <ele>609.13</ele>
        <time>2022-07-02T09:03:00Z</time>
      </trkpt>
      <trkpt lat="43.28181" lon="6.34623">
        <ele>609.61</ele>
        <time>2022-07-02T09:03:57Z</time>
      </trkpt>
      <trkpt lat="43.28183" lon="6.34626">
        <ele>610.57</ele>
        <time>2022-07-02T09:04:27Z</time>
      </trkpt>
      <trkpt lat="43.28185" lon="6.34629">
        <ele>611.06</ele>
        <time>2022-07-02T09:05:08Z</time>
      </trkpt>
      <trkpt lat="43.28181" lon="6.34625">
        <ele>609.61</ele>
        <time>2022-07-02T09:05:35Z</time>
      </trkpt>
      <trkpt lat="43.2818" lon="6.34624">
        <ele>609.61</ele>
        <time>2022-07-02T09:05:36Z</time>
      </trkpt>
      <trkpt lat="43.2818" lon="6.34622">
        <ele>609.61</ele>
        <time>2022-07-02T09:05:37Z</time>
      </trkpt>
      <trkpt lat="43.28174" lon="6.34586">
        <ele>607.21</ele>
        <time>2022-07-02T09:05:48Z</time>
      </trkpt>
      <trkpt lat="43.28177" lon="6.34533">
        <ele>603.85</ele>
        <time>2022-07-02T09:05:58Z</time>
      </trkpt>
      <trkpt lat="43.28179" lon="6.34528">
        <ele>603.36</ele>
        <time>2022-07-02T09:05:59Z</time>
      </trkpt>
      <trkpt lat="43.28185" lon="6.34518">
        <ele>602.4</ele>
        <time>2022-07-02T09:06:01Z</time>
      </trkpt>
      <trkpt lat="43.28209" lon="6.34496">
        <ele>600.96</ele>
        <time>2022-07-02T09:06:06Z</time>
      </trkpt>
      <trkpt lat="43.28214" lon="6.3449">
        <ele>600.48</ele>
        <time>2022-07-02T09:06:07Z</time>
      </trkpt>
      <trkpt lat="43.28219" lon="6.34484">
        <ele>600</ele>
        <time>2022-07-02T09:06:08Z</time>
      </trkpt>
      <trkpt lat="43.28224" lon="6.34479">
        <ele>599.52</ele>
        <time>2022-07-02T09:06:09Z</time>
      </trkpt>
      <trkpt lat="43.28229" lon="6.34474">
        <ele>599.04</ele>
        <time>2022-07-02T09:06:10Z</time>
      </trkpt>
      <trkpt lat="43.28237" lon="6.34462">
        <ele>598.56</ele>
        <time>2022-07-02T09:06:12Z</time>
      </trkpt>
      <trkpt lat="43.2824" lon="6.34454">
        <ele>598.08</ele>
        <time>2022-07-02T09:06:13Z</time>
      </trkpt>
      <trkpt lat="43.28241" lon="6.34445">
        <ele>597.6</ele>
        <time>2022-07-02T09:06:14Z</time>
      </trkpt>
      <trkpt lat="43.28243" lon="6.34436">
        <ele>597.6</ele>
        <time>2022-07-02T09:06:15Z</time>
      </trkpt>
      <trkpt lat="43.28244" lon="6.34427">
        <ele>597.12</ele>
        <time>2022-07-02T09:06:16Z</time>
      </trkpt>
      <trkpt lat="43.28245" lon="6.34419">
        <ele>596.64</ele>
        <time>2022-07-02T09:06:17Z</time>
      </trkpt>
      <trkpt lat="43.28244" lon="6.34402">
        <ele>595.67</ele>
        <time>2022-07-02T09:06:19Z</time>
      </trkpt>
      <trkpt lat="43.28243" lon="6.34393">
        <ele>595.19</ele>
        <time>2022-07-02T09:06:20Z</time>
      </trkpt>
      <trkpt lat="43.28239" lon="6.34385">
        <ele>594.23</ele>
        <time>2022-07-02T09:06:21Z</time>
      </trkpt>
      <trkpt lat="43.28235" lon="6.34377">
        <ele>593.75</ele>
        <time>2022-07-02T09:06:22Z</time>
      </trkpt>
      <trkpt lat="43.28231" lon="6.34369">
        <ele>592.79</ele>
        <time>2022-07-02T09:06:23Z</time>
      </trkpt>
      <trkpt lat="43.28167" lon="6.34273">
        <ele>583.66</ele>
        <time>2022-07-02T09:06:36Z</time>
      </trkpt>
      <trkpt lat="43.28159" lon="6.34256">
        <ele>582.22</ele>
        <time>2022-07-02T09:06:38Z</time>
      </trkpt>
      <trkpt lat="43.28158" lon="6.34248">
        <ele>581.73</ele>
        <time>2022-07-02T09:06:39Z</time>
      </trkpt>
      <trkpt lat="43.28157" lon="6.34239">
        <ele>580.77</ele>
        <time>2022-07-02T09:06:40Z</time>
      </trkpt>
      <trkpt lat="43.28158" lon="6.34229">
        <ele>580.29</ele>
        <time>2022-07-02T09:06:41Z</time>
      </trkpt>
      <trkpt lat="43.2816" lon="6.3422">
        <ele>579.33</ele>
        <time>2022-07-02T09:06:42Z</time>
      </trkpt>
      <trkpt lat="43.28163" lon="6.3421">
        <ele>578.85</ele>
        <time>2022-07-02T09:06:43Z</time>
      </trkpt>
      <trkpt lat="43.28165" lon="6.34201">
        <ele>577.89</ele>
        <time>2022-07-02T09:06:44Z</time>
      </trkpt>
      <trkpt lat="43.28167" lon="6.34191">
        <ele>577.41</ele>
        <time>2022-07-02T09:06:45Z</time>
      </trkpt>
      <trkpt lat="43.28169" lon="6.34181">
        <ele>576.45</ele>
        <time>2022-07-02T09:06:46Z</time>
      </trkpt>
      <trkpt lat="43.2817" lon="6.34171">
        <ele>575.97</ele>
        <time>2022-07-02T09:06:47Z</time>
      </trkpt>
      <trkpt lat="43.28169" lon="6.34161">
        <ele>575.49</ele>
        <time>2022-07-02T09:06:48Z</time>
      </trkpt>
      <trkpt lat="43.28167" lon="6.34151">
        <ele>574.53</ele>
        <time>2022-07-02T09:06:49Z</time>
      </trkpt>
      <trkpt lat="43.28164" lon="6.34141">
        <ele>573.56</ele>
        <time>2022-07-02T09:06:50Z</time>
      </trkpt>
      <trkpt lat="43.2816" lon="6.3413">
        <ele>573.56</ele>
        <time>2022-07-02T09:06:51Z</time>
      </trkpt>
      <trkpt lat="43.28157" lon="6.3412">
        <ele>573.08</ele>
        <time>2022-07-02T09:06:52Z</time>
      </trkpt>
      <trkpt lat="43.28154" lon="6.3411">
        <ele>572.6</ele>
        <time>2022-07-02T09:06:53Z</time>
      </trkpt>
      <trkpt lat="43.28152" lon="6.34079">
        <ele>570.68</ele>
        <time>2022-07-02T09:06:56Z</time>
      </trkpt>
      <trkpt lat="43.28152" lon="6.34069">
        <ele>570.2</ele>
        <time>2022-07-02T09:06:57Z</time>
      </trkpt>
      <trkpt lat="43.28152" lon="6.34059">
        <ele>569.72</ele>
        <time>2022-07-02T09:06:58Z</time>
      </trkpt>
      <trkpt lat="43.28159" lon="6.34032">
        <ele>567.8</ele>
        <time>2022-07-02T09:07:01Z</time>
      </trkpt>
      <trkpt lat="43.2817" lon="6.33999">
        <ele>565.39</ele>
        <time>2022-07-02T09:07:05Z</time>
      </trkpt>
      <trkpt lat="43.28179" lon="6.33961">
        <ele>562.51</ele>
        <time>2022-07-02T09:07:09Z</time>
      </trkpt>
      <trkpt lat="43.2819" lon="6.33887">
        <ele>557.22</ele>
        <time>2022-07-02T09:07:16Z</time>
      </trkpt>
      <trkpt lat="43.28194" lon="6.33878">
        <ele>556.26</ele>
        <time>2022-07-02T09:07:17Z</time>
      </trkpt>
      <trkpt lat="43.28195" lon="6.3387">
        <ele>555.78</ele>
        <time>2022-07-02T09:07:18Z</time>
      </trkpt>
      <trkpt lat="43.28199" lon="6.33864">
        <ele>554.82</ele>
        <time>2022-07-02T09:07:19Z</time>
      </trkpt>
      <trkpt lat="43.28204" lon="6.33861">
        <ele>554.34</ele>
        <time>2022-07-02T09:07:20Z</time>
      </trkpt>
      <trkpt lat="43.2821" lon="6.3386">
        <ele>553.38</ele>
        <time>2022-07-02T09:07:21Z</time>
      </trkpt>
      <trkpt lat="43.28218" lon="6.3386">
        <ele>552.9</ele>
        <time>2022-07-02T09:07:22Z</time>
      </trkpt>
      <trkpt lat="43.28225" lon="6.3386">
        <ele>552.9</ele>
        <time>2022-07-02T09:07:23Z</time>
      </trkpt>
      <trkpt lat="43.28233" lon="6.33861">
        <ele>552.9</ele>
        <time>2022-07-02T09:07:24Z</time>
      </trkpt>
      <trkpt lat="43.2824" lon="6.33863">
        <ele>553.86</ele>
        <time>2022-07-02T09:07:25Z</time>
      </trkpt>
      <trkpt lat="43.28247" lon="6.33866">
        <ele>553.86</ele>
        <time>2022-07-02T09:07:26Z</time>
      </trkpt>
      <trkpt lat="43.28254" lon="6.33868">
        <ele>554.82</ele>
        <time>2022-07-02T09:07:27Z</time>
      </trkpt>
      <trkpt lat="43.28261" lon="6.33869">
        <ele>554.82</ele>
        <time>2022-07-02T09:07:28Z</time>
      </trkpt>
      <trkpt lat="43.28268" lon="6.3387">
        <ele>554.82</ele>
        <time>2022-07-02T09:07:29Z</time>
      </trkpt>
      <trkpt lat="43.28296" lon="6.33867">
        <ele>555.3</ele>
        <time>2022-07-02T09:07:33Z</time>
      </trkpt>
      <trkpt lat="43.28301" lon="6.33865">
        <ele>555.3</ele>
        <time>2022-07-02T09:07:34Z</time>
      </trkpt>
      <trkpt lat="43.28305" lon="6.33859">
        <ele>555.78</ele>
        <time>2022-07-02T09:07:35Z</time>
      </trkpt>
      <trkpt lat="43.28309" lon="6.33851">
        <ele>555.78</ele>
        <time>2022-07-02T09:07:36Z</time>
      </trkpt>
      <trkpt lat="43.28311" lon="6.33842">
        <ele>555.78</ele>
        <time>2022-07-02T09:07:37Z</time>
      </trkpt>
      <trkpt lat="43.28313" lon="6.33832">
        <ele>556.26</ele>
        <time>2022-07-02T09:07:38Z</time>
      </trkpt>
      <trkpt lat="43.28314" lon="6.33822">
        <ele>556.26</ele>
        <time>2022-07-02T09:07:39Z</time>
      </trkpt>
      <trkpt lat="43.28316" lon="6.33812">
        <ele>556.74</ele>
        <time>2022-07-02T09:07:40Z</time>
      </trkpt>
      <trkpt lat="43.28325" lon="6.33715">
        <ele>559.14</ele>
        <time>2022-07-02T09:07:49Z</time>
      </trkpt>
      <trkpt lat="43.28323" lon="6.33705">
        <ele>559.62</ele>
        <time>2022-07-02T09:07:50Z</time>
      </trkpt>
      <trkpt lat="43.2832" lon="6.33695">
        <ele>559.62</ele>
        <time>2022-07-02T09:07:51Z</time>
      </trkpt>
      <trkpt lat="43.28315" lon="6.33687">
        <ele>560.11</ele>
        <time>2022-07-02T09:07:52Z</time>
      </trkpt>
      <trkpt lat="43.28309" lon="6.3368">
        <ele>560.59</ele>
        <time>2022-07-02T09:07:53Z</time>
      </trkpt>
      <trkpt lat="43.28303" lon="6.33674">
        <ele>560.59</ele>
        <time>2022-07-02T09:07:54Z</time>
      </trkpt>
      <trkpt lat="43.28296" lon="6.33668">
        <ele>560.59</ele>
        <time>2022-07-02T09:07:55Z</time>
      </trkpt>
      <trkpt lat="43.28243" lon="6.33611">
        <ele>562.99</ele>
        <time>2022-07-02T09:08:04Z</time>
      </trkpt>
      <trkpt lat="43.28239" lon="6.33604">
        <ele>563.47</ele>
        <time>2022-07-02T09:08:05Z</time>
      </trkpt>
      <trkpt lat="43.28236" lon="6.33597">
        <ele>563.95</ele>
        <time>2022-07-02T09:08:06Z</time>
      </trkpt>
      <trkpt lat="43.28235" lon="6.33589">
        <ele>563.95</ele>
        <time>2022-07-02T09:08:07Z</time>
      </trkpt>
      <trkpt lat="43.28236" lon="6.33581">
        <ele>564.43</ele>
        <time>2022-07-02T09:08:08Z</time>
      </trkpt>
      <trkpt lat="43.28239" lon="6.33573">
        <ele>564.43</ele>
        <time>2022-07-02T09:08:09Z</time>
      </trkpt>
      <trkpt lat="43.28242" lon="6.33565">
        <ele>564.91</ele>
        <time>2022-07-02T09:08:10Z</time>
      </trkpt>
      <trkpt lat="43.28244" lon="6.33557">
        <ele>564.91</ele>
        <time>2022-07-02T09:08:11Z</time>
      </trkpt>
      <trkpt lat="43.28246" lon="6.33547">
        <ele>564.91</ele>
        <time>2022-07-02T09:08:12Z</time>
      </trkpt>
      <trkpt lat="43.28247" lon="6.33538">
        <ele>564.91</ele>
        <time>2022-07-02T09:08:13Z</time>
      </trkpt>
      <trkpt lat="43.28247" lon="6.33528">
        <ele>564.91</ele>
        <time>2022-07-02T09:08:14Z</time>
      </trkpt>
      <trkpt lat="43.28247" lon="6.33518">
        <ele>565.39</ele>
        <time>2022-07-02T09:08:15Z</time>
      </trkpt>
      <trkpt lat="43.28245" lon="6.33509">
        <ele>565.39</ele>
        <time>2022-07-02T09:08:16Z</time>
      </trkpt>
      <trkpt lat="43.28242" lon="6.33499">
        <ele>565.87</ele>
        <time>2022-07-02T09:08:17Z</time>
      </trkpt>
      <trkpt lat="43.28237" lon="6.33479">
        <ele>566.83</ele>
        <time>2022-07-02T09:08:19Z</time>
      </trkpt>
      <trkpt lat="43.28235" lon="6.33459">
        <ele>567.8</ele>
        <time>2022-07-02T09:08:21Z</time>
      </trkpt>
      <trkpt lat="43.28235" lon="6.33449">
        <ele>568.28</ele>
        <time>2022-07-02T09:08:22Z</time>
      </trkpt>
      <trkpt lat="43.28236" lon="6.3344">
        <ele>568.76</ele>
        <time>2022-07-02T09:08:23Z</time>
      </trkpt>
      <trkpt lat="43.28237" lon="6.3343">
        <ele>568.76</ele>
        <time>2022-07-02T09:08:24Z</time>
      </trkpt>
      <trkpt lat="43.28239" lon="6.33421">
        <ele>568.76</ele>
        <time>2022-07-02T09:08:25Z</time>
      </trkpt>
      <trkpt lat="43.28263" lon="6.33352">
        <ele>569.72</ele>
        <time>2022-07-02T09:08:32Z</time>
      </trkpt>
      <trkpt lat="43.28269" lon="6.33343">
        <ele>569.72</ele>
        <time>2022-07-02T09:08:33Z</time>
      </trkpt>
      <trkpt lat="43.28276" lon="6.33336">
        <ele>569.72</ele>
        <time>2022-07-02T09:08:34Z</time>
      </trkpt>
      <trkpt lat="43.28282" lon="6.3333">
        <ele>569.72</ele>
        <time>2022-07-02T09:08:35Z</time>
      </trkpt>
      <trkpt lat="43.28289" lon="6.33325">
        <ele>569.72</ele>
        <time>2022-07-02T09:08:36Z</time>
      </trkpt>
      <trkpt lat="43.28297" lon="6.3332">
        <ele>570.2</ele>
        <time>2022-07-02T09:08:37Z</time>
      </trkpt>
      <trkpt lat="43.28356" lon="6.33289">
        <ele>568.28</ele>
        <time>2022-07-02T09:08:45Z</time>
      </trkpt>
      <trkpt lat="43.28362" lon="6.33284">
        <ele>568.28</ele>
        <time>2022-07-02T09:08:46Z</time>
      </trkpt>
      <trkpt lat="43.28366" lon="6.33277">
        <ele>568.28</ele>
        <time>2022-07-02T09:08:47Z</time>
      </trkpt>
      <trkpt lat="43.28369" lon="6.33267">
        <ele>568.28</ele>
        <time>2022-07-02T09:08:48Z</time>
      </trkpt>
      <trkpt lat="43.2837" lon="6.33257">
        <ele>568.28</ele>
        <time>2022-07-02T09:08:49Z</time>
      </trkpt>
      <trkpt lat="43.28371" lon="6.33247">
        <ele>568.28</ele>
        <time>2022-07-02T09:08:50Z</time>
      </trkpt>
      <trkpt lat="43.28372" lon="6.33236">
        <ele>568.28</ele>
        <time>2022-07-02T09:08:51Z</time>
      </trkpt>
      <trkpt lat="43.28375" lon="6.33193">
        <ele>568.28</ele>
        <time>2022-07-02T09:08:55Z</time>
      </trkpt>
      <trkpt lat="43.28376" lon="6.33183">
        <ele>568.28</ele>
        <time>2022-07-02T09:08:56Z</time>
      </trkpt>
      <trkpt lat="43.2838" lon="6.33174">
        <ele>568.76</ele>
        <time>2022-07-02T09:08:57Z</time>
      </trkpt>
      <trkpt lat="43.28383" lon="6.33166">
        <ele>568.76</ele>
        <time>2022-07-02T09:08:58Z</time>
      </trkpt>
      <trkpt lat="43.28389" lon="6.33159">
        <ele>568.76</ele>
        <time>2022-07-02T09:08:59Z</time>
      </trkpt>
      <trkpt lat="43.28395" lon="6.33154">
        <ele>568.76</ele>
        <time>2022-07-02T09:09:00Z</time>
      </trkpt>
      <trkpt lat="43.28401" lon="6.3315">
        <ele>568.28</ele>
        <time>2022-07-02T09:09:01Z</time>
      </trkpt>
      <trkpt lat="43.28408" lon="6.33146">
        <ele>568.28</ele>
        <time>2022-07-02T09:09:02Z</time>
      </trkpt>
      <trkpt lat="43.28414" lon="6.33143">
        <ele>568.28</ele>
        <time>2022-07-02T09:09:03Z</time>
      </trkpt>
      <trkpt lat="43.28421" lon="6.3314">
        <ele>568.28</ele>
        <time>2022-07-02T09:09:04Z</time>
      </trkpt>
      <trkpt lat="43.28429" lon="6.33138">
        <ele>568.76</ele>
        <time>2022-07-02T09:09:05Z</time>
      </trkpt>
      <trkpt lat="43.28437" lon="6.33137">
        <ele>568.76</ele>
        <time>2022-07-02T09:09:06Z</time>
      </trkpt>
      <trkpt lat="43.28444" lon="6.33137">
        <ele>568.76</ele>
        <time>2022-07-02T09:09:07Z</time>
      </trkpt>
      <trkpt lat="43.28453" lon="6.33136">
        <ele>568.76</ele>
        <time>2022-07-02T09:09:08Z</time>
      </trkpt>
      <trkpt lat="43.2854" lon="6.33132">
        <ele>565.87</ele>
        <time>2022-07-02T09:09:18Z</time>
      </trkpt>
      <trkpt lat="43.28572" lon="6.33129">
        <ele>563.95</ele>
        <time>2022-07-02T09:09:22Z</time>
      </trkpt>
      <trkpt lat="43.28581" lon="6.33124">
        <ele>563.47</ele>
        <time>2022-07-02T09:09:23Z</time>
      </trkpt>
      <trkpt lat="43.28588" lon="6.3312">
        <ele>562.99</ele>
        <time>2022-07-02T09:09:24Z</time>
      </trkpt>
      <trkpt lat="43.28596" lon="6.33113">
        <ele>562.03</ele>
        <time>2022-07-02T09:09:25Z</time>
      </trkpt>
      <trkpt lat="43.28603" lon="6.33105">
        <ele>560.59</ele>
        <time>2022-07-02T09:09:26Z</time>
      </trkpt>
      <trkpt lat="43.28608" lon="6.33095">
        <ele>559.62</ele>
        <time>2022-07-02T09:09:27Z</time>
      </trkpt>
      <trkpt lat="43.28611" lon="6.33083">
        <ele>558.66</ele>
        <time>2022-07-02T09:09:28Z</time>
      </trkpt>
      <trkpt lat="43.28613" lon="6.3307">
        <ele>558.18</ele>
        <time>2022-07-02T09:09:29Z</time>
      </trkpt>
      <trkpt lat="43.28612" lon="6.33057">
        <ele>557.7</ele>
        <time>2022-07-02T09:09:30Z</time>
      </trkpt>
      <trkpt lat="43.28611" lon="6.33045">
        <ele>557.22</ele>
        <time>2022-07-02T09:09:31Z</time>
      </trkpt>
      <trkpt lat="43.2861" lon="6.33034">
        <ele>556.74</ele>
        <time>2022-07-02T09:09:32Z</time>
      </trkpt>
      <trkpt lat="43.28591" lon="6.32892">
        <ele>550.97</ele>
        <time>2022-07-02T09:09:44Z</time>
      </trkpt>
      <trkpt lat="43.28591" lon="6.32882">
        <ele>550.49</ele>
        <time>2022-07-02T09:09:45Z</time>
      </trkpt>
      <trkpt lat="43.28592" lon="6.32862">
        <ele>550.01</ele>
        <time>2022-07-02T09:09:47Z</time>
      </trkpt>
      <trkpt lat="43.28594" lon="6.32853">
        <ele>549.53</ele>
        <time>2022-07-02T09:09:48Z</time>
      </trkpt>
      <trkpt lat="43.28598" lon="6.32845">
        <ele>549.05</ele>
        <time>2022-07-02T09:09:49Z</time>
      </trkpt>
      <trkpt lat="43.28603" lon="6.32837">
        <ele>548.57</ele>
        <time>2022-07-02T09:09:50Z</time>
      </trkpt>
      <trkpt lat="43.28609" lon="6.3283">
        <ele>548.57</ele>
        <time>2022-07-02T09:09:51Z</time>
      </trkpt>
      <trkpt lat="43.28614" lon="6.32822">
        <ele>547.61</ele>
        <time>2022-07-02T09:09:52Z</time>
      </trkpt>
      <trkpt lat="43.28633" lon="6.32785">
        <ele>543.28</ele>
        <time>2022-07-02T09:09:58Z</time>
      </trkpt>
      <trkpt lat="43.28632" lon="6.32781">
        <ele>542.8</ele>
        <time>2022-07-02T09:09:59Z</time>
      </trkpt>
      <trkpt lat="43.28627" lon="6.32778">
        <ele>540.88</ele>
        <time>2022-07-02T09:10:00Z</time>
      </trkpt>
      <trkpt lat="43.28624" lon="6.32775">
        <ele>540.88</ele>
        <time>2022-07-02T09:10:01Z</time>
      </trkpt>
      <trkpt lat="43.28621" lon="6.32775">
        <ele>540.4</ele>
        <time>2022-07-02T09:10:02Z</time>
      </trkpt>
      <trkpt lat="43.28616" lon="6.32775">
        <ele>539.92</ele>
        <time>2022-07-02T09:10:03Z</time>
      </trkpt>
      <trkpt lat="43.28574" lon="6.32777">
        <ele>539.44</ele>
        <time>2022-07-02T09:10:15Z</time>
      </trkpt>
      <trkpt lat="43.28522" lon="6.3277">
        <ele>546.17</ele>
        <time>2022-07-02T09:10:30Z</time>
      </trkpt>
      <trkpt lat="43.28482" lon="6.32736">
        <ele>546.65</ele>
        <time>2022-07-02T09:10:43Z</time>
      </trkpt>
      <trkpt lat="43.28438" lon="6.32724">
        <ele>552.9</ele>
        <time>2022-07-02T09:10:59Z</time>
      </trkpt>
      <trkpt lat="43.28402" lon="6.32715">
        <ele>559.14</ele>
        <time>2022-07-02T09:11:12Z</time>
      </trkpt>
      <trkpt lat="43.28358" lon="6.32683">
        <ele>556.26</ele>
        <time>2022-07-02T09:11:26Z</time>
      </trkpt>
      <trkpt lat="43.2833" lon="6.32657">
        <ele>553.38</ele>
        <time>2022-07-02T09:11:37Z</time>
      </trkpt>
      <trkpt lat="43.28306" lon="6.32608">
        <ele>550.01</ele>
        <time>2022-07-02T09:11:49Z</time>
      </trkpt>
      <trkpt lat="43.28306" lon="6.32529">
        <ele>548.09</ele>
        <time>2022-07-02T09:12:04Z</time>
      </trkpt>
      <trkpt lat="43.28307" lon="6.32524">
        <ele>548.09</ele>
        <time>2022-07-02T09:12:05Z</time>
      </trkpt>
      <trkpt lat="43.28308" lon="6.32518">
        <ele>548.57</ele>
        <time>2022-07-02T09:12:06Z</time>
      </trkpt>
      <trkpt lat="43.28309" lon="6.32513">
        <ele>548.57</ele>
        <time>2022-07-02T09:12:07Z</time>
      </trkpt>
      <trkpt lat="43.2831" lon="6.32508">
        <ele>548.57</ele>
        <time>2022-07-02T09:12:08Z</time>
      </trkpt>
      <trkpt lat="43.28312" lon="6.32503">
        <ele>549.05</ele>
        <time>2022-07-02T09:12:09Z</time>
      </trkpt>
      <trkpt lat="43.28312" lon="6.32498">
        <ele>549.05</ele>
        <time>2022-07-02T09:12:10Z</time>
      </trkpt>
      <trkpt lat="43.28312" lon="6.32493">
        <ele>549.53</ele>
        <time>2022-07-02T09:12:11Z</time>
      </trkpt>
      <trkpt lat="43.28313" lon="6.32488">
        <ele>550.01</ele>
        <time>2022-07-02T09:12:12Z</time>
      </trkpt>
      <trkpt lat="43.28319" lon="6.32466">
        <ele>550.49</ele>
        <time>2022-07-02T09:12:16Z</time>
      </trkpt>
      <trkpt lat="43.28323" lon="6.32456">
        <ele>550.97</ele>
        <time>2022-07-02T09:12:18Z</time>
      </trkpt>
      <trkpt lat="43.28331" lon="6.32424">
        <ele>550.97</ele>
        <time>2022-07-02T09:12:23Z</time>
      </trkpt>
      <trkpt lat="43.28333" lon="6.32408">
        <ele>550.97</ele>
        <time>2022-07-02T09:12:25Z</time>
      </trkpt>
      <trkpt lat="43.28334" lon="6.32387">
        <ele>550.49</ele>
        <time>2022-07-02T09:12:27Z</time>
      </trkpt>
      <trkpt lat="43.28331" lon="6.32356">
        <ele>549.53</ele>
        <time>2022-07-02T09:12:30Z</time>
      </trkpt>
      <trkpt lat="43.28322" lon="6.32275">
        <ele>548.09</ele>
        <time>2022-07-02T09:12:39Z</time>
      </trkpt>
      <trkpt lat="43.28295" lon="6.32201">
        <ele>546.65</ele>
        <time>2022-07-02T09:12:49Z</time>
      </trkpt>
      <trkpt lat="43.28284" lon="6.32136">
        <ele>544.72</ele>
        <time>2022-07-02T09:13:00Z</time>
      </trkpt>
      <trkpt lat="43.28278" lon="6.32097">
        <ele>546.17</ele>
        <time>2022-07-02T09:13:12Z</time>
      </trkpt>
      <trkpt lat="43.28268" lon="6.32062">
        <ele>548.57</ele>
        <time>2022-07-02T09:13:24Z</time>
      </trkpt>
      <trkpt lat="43.28249" lon="6.32022">
        <ele>552.9</ele>
        <time>2022-07-02T09:13:41Z</time>
      </trkpt>
      <trkpt lat="43.28251" lon="6.31987">
        <ele>553.38</ele>
        <time>2022-07-02T09:13:54Z</time>
      </trkpt>
      <trkpt lat="43.28289" lon="6.31949">
        <ele>550.49</ele>
        <time>2022-07-02T09:14:10Z</time>
      </trkpt>
      <trkpt lat="43.28317" lon="6.31928">
        <ele>547.61</ele>
        <time>2022-07-02T09:14:20Z</time>
      </trkpt>
      <trkpt lat="43.28345" lon="6.31901">
        <ele>545.69</ele>
        <time>2022-07-02T09:14:30Z</time>
      </trkpt>
      <trkpt lat="43.28368" lon="6.31843">
        <ele>543.76</ele>
        <time>2022-07-02T09:14:42Z</time>
      </trkpt>
      <trkpt lat="43.28391" lon="6.31766">
        <ele>541.84</ele>
        <time>2022-07-02T09:15:00Z</time>
      </trkpt>
      <trkpt lat="43.28407" lon="6.31724">
        <ele>542.8</ele>
        <time>2022-07-02T09:15:14Z</time>
      </trkpt>
      <trkpt lat="43.28424" lon="6.3169">
        <ele>546.17</ele>
        <time>2022-07-02T09:15:27Z</time>
      </trkpt>
      <trkpt lat="43.2843" lon="6.31631">
        <ele>553.38</ele>
        <time>2022-07-02T09:15:44Z</time>
      </trkpt>
      <trkpt lat="43.28432" lon="6.31559">
        <ele>563.47</ele>
        <time>2022-07-02T09:16:02Z</time>
      </trkpt>
      <trkpt lat="43.28433" lon="6.31477">
        <ele>570.68</ele>
        <time>2022-07-02T09:16:24Z</time>
      </trkpt>
      <trkpt lat="43.28452" lon="6.31429">
        <ele>574.53</ele>
        <time>2022-07-02T09:16:40Z</time>
      </trkpt>
      <trkpt lat="43.28477" lon="6.31414">
        <ele>575.97</ele>
        <time>2022-07-02T09:16:51Z</time>
      </trkpt>
      <trkpt lat="43.28508" lon="6.31386">
        <ele>577.41</ele>
        <time>2022-07-02T09:17:05Z</time>
      </trkpt>
      <trkpt lat="43.28518" lon="6.31344">
        <ele>578.85</ele>
        <time>2022-07-02T09:17:17Z</time>
      </trkpt>
      <trkpt lat="43.28519" lon="6.31341">
        <ele>579.33</ele>
        <time>2022-07-02T09:17:18Z</time>
      </trkpt>
      <trkpt lat="43.28522" lon="6.3133">
        <ele>580.29</ele>
        <time>2022-07-02T09:17:22Z</time>
      </trkpt>
      <trkpt lat="43.28529" lon="6.31265">
        <ele>583.18</ele>
        <time>2022-07-02T09:17:40Z</time>
      </trkpt>
      <trkpt lat="43.28534" lon="6.31224">
        <ele>587.02</ele>
        <time>2022-07-02T09:17:52Z</time>
      </trkpt>
      <trkpt lat="43.28509" lon="6.31206">
        <ele>588.46</ele>
        <time>2022-07-02T09:18:03Z</time>
      </trkpt>
      <trkpt lat="43.2845" lon="6.31178">
        <ele>592.31</ele>
        <time>2022-07-02T09:18:21Z</time>
      </trkpt>
      <trkpt lat="43.28414" lon="6.31133">
        <ele>597.6</ele>
        <time>2022-07-02T09:18:36Z</time>
      </trkpt>
      <trkpt lat="43.28403" lon="6.31107">
        <ele>600</ele>
        <time>2022-07-02T09:18:44Z</time>
      </trkpt>
      <trkpt lat="43.28416" lon="6.31109">
        <ele>601.92</ele>
        <time>2022-07-02T09:18:50Z</time>
      </trkpt>
      <trkpt lat="43.28448" lon="6.31149">
        <ele>604.81</ele>
        <time>2022-07-02T09:19:04Z</time>
      </trkpt>
      <trkpt lat="43.2848" lon="6.31161">
        <ele>605.77</ele>
        <time>2022-07-02T09:19:16Z</time>
      </trkpt>
      <trkpt lat="43.28509" lon="6.31161">
        <ele>610.57</ele>
        <time>2022-07-02T09:19:28Z</time>
      </trkpt>
      <trkpt lat="43.28536" lon="6.31158">
        <ele>614.42</ele>
        <time>2022-07-02T09:19:38Z</time>
      </trkpt>
      <trkpt lat="43.28564" lon="6.31162">
        <ele>621.15</ele>
        <time>2022-07-02T09:19:49Z</time>
      </trkpt>
      <trkpt lat="43.28579" lon="6.31193">
        <ele>624.51</ele>
        <time>2022-07-02T09:20:01Z</time>
      </trkpt>
      <trkpt lat="43.28589" lon="6.31243">
        <ele>628.36</ele>
        <time>2022-07-02T09:20:16Z</time>
      </trkpt>
      <trkpt lat="43.28603" lon="6.313">
        <ele>630.28</ele>
        <time>2022-07-02T09:20:33Z</time>
      </trkpt>
      <trkpt lat="43.28615" lon="6.31347">
        <ele>633.17</ele>
        <time>2022-07-02T09:20:47Z</time>
      </trkpt>
      <trkpt lat="43.28624" lon="6.31397">
        <ele>635.57</ele>
        <time>2022-07-02T09:21:02Z</time>
      </trkpt>
      <trkpt lat="43.28633" lon="6.31419">
        <ele>636.53</ele>
        <time>2022-07-02T09:21:10Z</time>
      </trkpt>
      <trkpt lat="43.28641" lon="6.31394">
        <ele>637.01</ele>
        <time>2022-07-02T09:21:18Z</time>
      </trkpt>
      <trkpt lat="43.28636" lon="6.3133">
        <ele>639.89</ele>
        <time>2022-07-02T09:21:34Z</time>
      </trkpt>
      <trkpt lat="43.28634" lon="6.31272">
        <ele>645.18</ele>
        <time>2022-07-02T09:21:50Z</time>
      </trkpt>
      <trkpt lat="43.28638" lon="6.31236">
        <ele>647.59</ele>
        <time>2022-07-02T09:22:01Z</time>
      </trkpt>
      <trkpt lat="43.28642" lon="6.31189">
        <ele>649.99</ele>
        <time>2022-07-02T09:22:15Z</time>
      </trkpt>
      <trkpt lat="43.28638" lon="6.31131">
        <ele>654.8</ele>
        <time>2022-07-02T09:22:33Z</time>
      </trkpt>
      <trkpt lat="43.28631" lon="6.3108">
        <ele>658.64</ele>
        <time>2022-07-02T09:22:51Z</time>
      </trkpt>
      <trkpt lat="43.28621" lon="6.3105">
        <ele>661.04</ele>
        <time>2022-07-02T09:23:02Z</time>
      </trkpt>
      <trkpt lat="43.28606" lon="6.31022">
        <ele>663.93</ele>
        <time>2022-07-02T09:23:13Z</time>
      </trkpt>
      <trkpt lat="43.28574" lon="6.31002">
        <ele>668.73</ele>
        <time>2022-07-02T09:23:29Z</time>
      </trkpt>
      <trkpt lat="43.28543" lon="6.30986">
        <ele>671.62</ele>
        <time>2022-07-02T09:23:43Z</time>
      </trkpt>
      <trkpt lat="43.28516" lon="6.30962">
        <ele>675.46</ele>
        <time>2022-07-02T09:23:57Z</time>
      </trkpt>
      <trkpt lat="43.28489" lon="6.30938">
        <ele>679.79</ele>
        <time>2022-07-02T09:24:10Z</time>
      </trkpt>
      <trkpt lat="43.28469" lon="6.30906">
        <ele>682.19</ele>
        <time>2022-07-02T09:24:21Z</time>
      </trkpt>
      <trkpt lat="43.28455" lon="6.3087">
        <ele>685.08</ele>
        <time>2022-07-02T09:24:30Z</time>
      </trkpt>
      <trkpt lat="43.28445" lon="6.30847">
        <ele>686.52</ele>
        <time>2022-07-02T09:24:35Z</time>
      </trkpt>
      <trkpt lat="43.28397" lon="6.30783">
        <ele>688.92</ele>
        <time>2022-07-02T09:24:48Z</time>
      </trkpt>
      <trkpt lat="43.28351" lon="6.30717">
        <ele>692.77</ele>
        <time>2022-07-02T09:25:01Z</time>
      </trkpt>
      <trkpt lat="43.28308" lon="6.30664">
        <ele>695.65</ele>
        <time>2022-07-02T09:25:11Z</time>
      </trkpt>
      <trkpt lat="43.28283" lon="6.30632">
        <ele>697.57</ele>
        <time>2022-07-02T09:25:17Z</time>
      </trkpt>
      <trkpt lat="43.28275" lon="6.30617">
        <ele>698.05</ele>
        <time>2022-07-02T09:25:19Z</time>
      </trkpt>
      <trkpt lat="43.28262" lon="6.30584">
        <ele>699.98</ele>
        <time>2022-07-02T09:25:24Z</time>
      </trkpt>
      <trkpt lat="43.28262" lon="6.30553">
        <ele>700.46</ele>
        <time>2022-07-02T09:25:28Z</time>
      </trkpt>
      <trkpt lat="43.28267" lon="6.30531">
        <ele>701.42</ele>
        <time>2022-07-02T09:25:31Z</time>
      </trkpt>
      <trkpt lat="43.28256" lon="6.30469">
        <ele>702.38</ele>
        <time>2022-07-02T09:25:38Z</time>
      </trkpt>
      <trkpt lat="43.28233" lon="6.30381">
        <ele>702.38</ele>
        <time>2022-07-02T09:25:46Z</time>
      </trkpt>
      <trkpt lat="43.28234" lon="6.30277">
        <ele>703.82</ele>
        <time>2022-07-02T09:25:56Z</time>
      </trkpt>
      <trkpt lat="43.28231" lon="6.30225">
        <ele>704.78</ele>
        <time>2022-07-02T09:26:01Z</time>
      </trkpt>
      <trkpt lat="43.28229" lon="6.30216">
        <ele>705.75</ele>
        <time>2022-07-02T09:26:02Z</time>
      </trkpt>
      <trkpt lat="43.28227" lon="6.30206">
        <ele>706.23</ele>
        <time>2022-07-02T09:26:03Z</time>
      </trkpt>
      <trkpt lat="43.28219" lon="6.3018">
        <ele>707.67</ele>
        <time>2022-07-02T09:26:06Z</time>
      </trkpt>
      <trkpt lat="43.28217" lon="6.30165">
        <ele>708.63</ele>
        <time>2022-07-02T09:26:08Z</time>
      </trkpt>
      <trkpt lat="43.2821" lon="6.30136">
        <ele>710.55</ele>
        <time>2022-07-02T09:26:12Z</time>
      </trkpt>
      <trkpt lat="43.28206" lon="6.30119">
        <ele>711.51</ele>
        <time>2022-07-02T09:26:15Z</time>
      </trkpt>
      <trkpt lat="43.28193" lon="6.30058">
        <ele>715.36</ele>
        <time>2022-07-02T09:26:26Z</time>
      </trkpt>
      <trkpt lat="43.28186" lon="6.29987">
        <ele>717.28</ele>
        <time>2022-07-02T09:26:38Z</time>
      </trkpt>
      <trkpt lat="43.28187" lon="6.29951">
        <ele>718.72</ele>
        <time>2022-07-02T09:26:44Z</time>
      </trkpt>
      <trkpt lat="43.28164" lon="6.29895">
        <ele>720.65</ele>
        <time>2022-07-02T09:26:52Z</time>
      </trkpt>
      <trkpt lat="43.2816" lon="6.29881">
        <ele>720.65</ele>
        <time>2022-07-02T09:26:54Z</time>
      </trkpt>
      <trkpt lat="43.28136" lon="6.29819">
        <ele>722.09</ele>
        <time>2022-07-02T09:27:05Z</time>
      </trkpt>
      <trkpt lat="43.28113" lon="6.29781">
        <ele>719.68</ele>
        <time>2022-07-02T09:27:16Z</time>
      </trkpt>
      <trkpt lat="43.28068" lon="6.29737">
        <ele>714.4</ele>
        <time>2022-07-02T09:27:32Z</time>
      </trkpt>
      <trkpt lat="43.28014" lon="6.29723">
        <ele>715.84</ele>
        <time>2022-07-02T09:27:49Z</time>
      </trkpt>
      <trkpt lat="43.27969" lon="6.2972">
        <ele>719.2</ele>
        <time>2022-07-02T09:28:04Z</time>
      </trkpt>
      <trkpt lat="43.27925" lon="6.29726">
        <ele>717.76</ele>
        <time>2022-07-02T09:28:20Z</time>
      </trkpt>
      <trkpt lat="43.27906" lon="6.297">
        <ele>715.84</ele>
        <time>2022-07-02T09:28:31Z</time>
      </trkpt>
      <trkpt lat="43.27919" lon="6.29659">
        <ele>714.4</ele>
        <time>2022-07-02T09:28:42Z</time>
      </trkpt>
      <trkpt lat="43.2795" lon="6.29629">
        <ele>716.8</ele>
        <time>2022-07-02T09:28:56Z</time>
      </trkpt>
      <trkpt lat="43.27974" lon="6.29598">
        <ele>717.28</ele>
        <time>2022-07-02T09:29:07Z</time>
      </trkpt>
      <trkpt lat="43.27993" lon="6.29549">
        <ele>717.28</ele>
        <time>2022-07-02T09:29:21Z</time>
      </trkpt>
      <trkpt lat="43.2801" lon="6.295">
        <ele>716.32</ele>
        <time>2022-07-02T09:29:34Z</time>
      </trkpt>
      <trkpt lat="43.28019" lon="6.29444">
        <ele>714.4</ele>
        <time>2022-07-02T09:29:47Z</time>
      </trkpt>
      <trkpt lat="43.28017" lon="6.29392">
        <ele>713.44</ele>
        <time>2022-07-02T09:29:59Z</time>
      </trkpt>
      <trkpt lat="43.28013" lon="6.29342">
        <ele>713.44</ele>
        <time>2022-07-02T09:30:10Z</time>
      </trkpt>
      <trkpt lat="43.27997" lon="6.29264">
        <ele>713.44</ele>
        <time>2022-07-02T09:30:27Z</time>
      </trkpt>
      <trkpt lat="43.2799" lon="6.29199">
        <ele>714.88</ele>
        <time>2022-07-02T09:30:43Z</time>
      </trkpt>
      <trkpt lat="43.28005" lon="6.29175">
        <ele>715.36</ele>
        <time>2022-07-02T09:30:52Z</time>
      </trkpt>
      <trkpt lat="43.28021" lon="6.29136">
        <ele>716.8</ele>
        <time>2022-07-02T09:31:05Z</time>
      </trkpt>
      <trkpt lat="43.28028" lon="6.29089">
        <ele>717.28</ele>
        <time>2022-07-02T09:31:18Z</time>
      </trkpt>
      <trkpt lat="43.28034" lon="6.29039">
        <ele>717.76</ele>
        <time>2022-07-02T09:31:33Z</time>
      </trkpt>
      <trkpt lat="43.2806" lon="6.29046">
        <ele>717.76</ele>
        <time>2022-07-02T09:31:45Z</time>
      </trkpt>
      <trkpt lat="43.2809" lon="6.2907">
        <ele>718.72</ele>
        <time>2022-07-02T09:32:00Z</time>
      </trkpt>
      <trkpt lat="43.28116" lon="6.2909">
        <ele>718.24</ele>
        <time>2022-07-02T09:32:12Z</time>
      </trkpt>
      <trkpt lat="43.28148" lon="6.2912">
        <ele>717.76</ele>
        <time>2022-07-02T09:32:27Z</time>
      </trkpt>
      <trkpt lat="43.28173" lon="6.2916">
        <ele>720.16</ele>
        <time>2022-07-02T09:32:42Z</time>
      </trkpt>
      <trkpt lat="43.28181" lon="6.29198">
        <ele>721.61</ele>
        <time>2022-07-02T09:32:54Z</time>
      </trkpt>
      <trkpt lat="43.28184" lon="6.29232">
        <ele>724.49</ele>
        <time>2022-07-02T09:33:05Z</time>
      </trkpt>
      <trkpt lat="43.28189" lon="6.29268">
        <ele>729.78</ele>
        <time>2022-07-02T09:33:17Z</time>
      </trkpt>
      <trkpt lat="43.28195" lon="6.29302">
        <ele>735.55</ele>
        <time>2022-07-02T09:33:28Z</time>
      </trkpt>
      <trkpt lat="43.28207" lon="6.29343">
        <ele>743.72</ele>
        <time>2022-07-02T09:33:40Z</time>
      </trkpt>
      <trkpt lat="43.28225" lon="6.29389">
        <ele>754.77</ele>
        <time>2022-07-02T09:33:54Z</time>
      </trkpt>
      <trkpt lat="43.28232" lon="6.29428">
        <ele>761.5</ele>
        <time>2022-07-02T09:34:05Z</time>
      </trkpt>
      <trkpt lat="43.28233" lon="6.29431">
        <ele>761.98</ele>
        <time>2022-07-02T09:34:06Z</time>
      </trkpt>
      <trkpt lat="43.28233" lon="6.29435">
        <ele>762.46</ele>
        <time>2022-07-02T09:34:07Z</time>
      </trkpt>
      <trkpt lat="43.28227" lon="6.2948">
        <ele>769.19</ele>
        <time>2022-07-02T09:34:21Z</time>
      </trkpt>
      <trkpt lat="43.28206" lon="6.29477">
        <ele>777.36</ele>
        <time>2022-07-02T09:34:32Z</time>
      </trkpt>
      <trkpt lat="43.28205" lon="6.29474">
        <ele>777.84</ele>
        <time>2022-07-02T09:34:33Z</time>
      </trkpt>
      <trkpt lat="43.28204" lon="6.29471">
        <ele>778.81</ele>
        <time>2022-07-02T09:34:34Z</time>
      </trkpt>
      <trkpt lat="43.28204" lon="6.29468">
        <ele>778.32</ele>
        <time>2022-07-02T09:34:35Z</time>
      </trkpt>
      <trkpt lat="43.28203" lon="6.29464">
        <ele>778.81</ele>
        <time>2022-07-02T09:34:36Z</time>
      </trkpt>
      <trkpt lat="43.28203" lon="6.2946">
        <ele>779.29</ele>
        <time>2022-07-02T09:34:37Z</time>
      </trkpt>
      <trkpt lat="43.28202" lon="6.29456">
        <ele>779.77</ele>
        <time>2022-07-02T09:34:38Z</time>
      </trkpt>
      <trkpt lat="43.28201" lon="6.29453">
        <ele>780.73</ele>
        <time>2022-07-02T09:34:39Z</time>
      </trkpt>
      <trkpt lat="43.282" lon="6.2945">
        <ele>781.21</ele>
        <time>2022-07-02T09:34:40Z</time>
      </trkpt>
      <trkpt lat="43.28198" lon="6.29433">
        <ele>784.57</ele>
        <time>2022-07-02T09:34:46Z</time>
      </trkpt>
      <trkpt lat="43.28199" lon="6.29422">
        <ele>787.46</ele>
        <time>2022-07-02T09:34:50Z</time>
      </trkpt>
      <trkpt lat="43.28195" lon="6.29407">
        <ele>790.82</ele>
        <time>2022-07-02T09:34:56Z</time>
      </trkpt>
      <trkpt lat="43.28193" lon="6.29403">
        <ele>790.82</ele>
        <time>2022-07-02T09:34:57Z</time>
      </trkpt>
      <trkpt lat="43.28165" lon="6.29368">
        <ele>791.78</ele>
        <time>2022-07-02T09:35:10Z</time>
      </trkpt>
      <trkpt lat="43.28157" lon="6.29358">
        <ele>793.22</ele>
        <time>2022-07-02T09:35:14Z</time>
      </trkpt>
      <trkpt lat="43.28155" lon="6.29353">
        <ele>793.71</ele>
        <time>2022-07-02T09:35:15Z</time>
      </trkpt>
      <trkpt lat="43.28155" lon="6.29348">
        <ele>794.19</ele>
        <time>2022-07-02T09:35:16Z</time>
      </trkpt>
      <trkpt lat="43.28155" lon="6.29343">
        <ele>794.67</ele>
        <time>2022-07-02T09:35:17Z</time>
      </trkpt>
      <trkpt lat="43.28154" lon="6.29339">
        <ele>795.15</ele>
        <time>2022-07-02T09:35:18Z</time>
      </trkpt>
      <trkpt lat="43.28153" lon="6.29335">
        <ele>795.63</ele>
        <time>2022-07-02T09:35:19Z</time>
      </trkpt>
      <trkpt lat="43.28128" lon="6.2931">
        <ele>800.92</ele>
        <time>2022-07-02T09:35:30Z</time>
      </trkpt>
      <trkpt lat="43.281" lon="6.29316">
        <ele>799.47</ele>
        <time>2022-07-02T09:35:42Z</time>
      </trkpt>
      <trkpt lat="43.28104" lon="6.29311">
        <ele>788.9</ele>
        <time>2022-07-02T09:36:27Z</time>
      </trkpt>
      <trkpt lat="43.28107" lon="6.2931">
        <ele>788.9</ele>
        <time>2022-07-02T09:36:28Z</time>
      </trkpt>
      <trkpt lat="43.28109" lon="6.2931">
        <ele>788.9</ele>
        <time>2022-07-02T09:36:29Z</time>
      </trkpt>
      <trkpt lat="43.28112" lon="6.2931">
        <ele>788.42</ele>
        <time>2022-07-02T09:36:30Z</time>
      </trkpt>
      <trkpt lat="43.28114" lon="6.2931">
        <ele>788.42</ele>
        <time>2022-07-02T09:36:31Z</time>
      </trkpt>
      <trkpt lat="43.28117" lon="6.29309">
        <ele>788.42</ele>
        <time>2022-07-02T09:36:32Z</time>
      </trkpt>
      <trkpt lat="43.2812" lon="6.29309">
        <ele>787.94</ele>
        <time>2022-07-02T09:36:33Z</time>
      </trkpt>
      <trkpt lat="43.2814" lon="6.29307">
        <ele>785.05</ele>
        <time>2022-07-02T09:36:40Z</time>
      </trkpt>
      <trkpt lat="43.28142" lon="6.2931">
        <ele>784.57</ele>
        <time>2022-07-02T09:36:41Z</time>
      </trkpt>
      <trkpt lat="43.28144" lon="6.29313">
        <ele>784.09</ele>
        <time>2022-07-02T09:36:42Z</time>
      </trkpt>
      <trkpt lat="43.28154" lon="6.2935">
        <ele>780.25</ele>
        <time>2022-07-02T09:36:51Z</time>
      </trkpt>
      <trkpt lat="43.28156" lon="6.29354">
        <ele>779.77</ele>
        <time>2022-07-02T09:36:52Z</time>
      </trkpt>
      <trkpt lat="43.28159" lon="6.29356">
        <ele>779.29</ele>
        <time>2022-07-02T09:36:53Z</time>
      </trkpt>
      <trkpt lat="43.28162" lon="6.2936">
        <ele>778.81</ele>
        <time>2022-07-02T09:36:54Z</time>
      </trkpt>
      <trkpt lat="43.28166" lon="6.29363">
        <ele>778.32</ele>
        <time>2022-07-02T09:36:55Z</time>
      </trkpt>
      <trkpt lat="43.28169" lon="6.29367">
        <ele>777.84</ele>
        <time>2022-07-02T09:36:56Z</time>
      </trkpt>
      <trkpt lat="43.28172" lon="6.29372">
        <ele>777.36</ele>
        <time>2022-07-02T09:36:57Z</time>
      </trkpt>
      <trkpt lat="43.28176" lon="6.29376">
        <ele>776.4</ele>
        <time>2022-07-02T09:36:58Z</time>
      </trkpt>
      <trkpt lat="43.28179" lon="6.2938">
        <ele>775.92</ele>
        <time>2022-07-02T09:36:59Z</time>
      </trkpt>
      <trkpt lat="43.28183" lon="6.29385">
        <ele>774.96</ele>
        <time>2022-07-02T09:37:00Z</time>
      </trkpt>
      <trkpt lat="43.28186" lon="6.2939">
        <ele>774.48</ele>
        <time>2022-07-02T09:37:01Z</time>
      </trkpt>
      <trkpt lat="43.28189" lon="6.29396">
        <ele>774</ele>
        <time>2022-07-02T09:37:02Z</time>
      </trkpt>
      <trkpt lat="43.28191" lon="6.29402">
        <ele>773.04</ele>
        <time>2022-07-02T09:37:03Z</time>
      </trkpt>
      <trkpt lat="43.28193" lon="6.2941">
        <ele>772.08</ele>
        <time>2022-07-02T09:37:04Z</time>
      </trkpt>
      <trkpt lat="43.28194" lon="6.29418">
        <ele>771.6</ele>
        <time>2022-07-02T09:37:05Z</time>
      </trkpt>
      <trkpt lat="43.28195" lon="6.29427">
        <ele>770.63</ele>
        <time>2022-07-02T09:37:06Z</time>
      </trkpt>
      <trkpt lat="43.28196" lon="6.29436">
        <ele>769.67</ele>
        <time>2022-07-02T09:37:07Z</time>
      </trkpt>
      <trkpt lat="43.28198" lon="6.29446">
        <ele>768.71</ele>
        <time>2022-07-02T09:37:08Z</time>
      </trkpt>
      <trkpt lat="43.28205" lon="6.29472">
        <ele>766.31</ele>
        <time>2022-07-02T09:37:11Z</time>
      </trkpt>
      <trkpt lat="43.28209" lon="6.29476">
        <ele>765.83</ele>
        <time>2022-07-02T09:37:12Z</time>
      </trkpt>
      <trkpt lat="43.28215" lon="6.29478">
        <ele>764.87</ele>
        <time>2022-07-02T09:37:13Z</time>
      </trkpt>
      <trkpt lat="43.28221" lon="6.29477">
        <ele>763.42</ele>
        <time>2022-07-02T09:37:14Z</time>
      </trkpt>
      <trkpt lat="43.28228" lon="6.29473">
        <ele>762.46</ele>
        <time>2022-07-02T09:37:15Z</time>
      </trkpt>
      <trkpt lat="43.28234" lon="6.29467">
        <ele>761.5</ele>
        <time>2022-07-02T09:37:16Z</time>
      </trkpt>
      <trkpt lat="43.28236" lon="6.29457">
        <ele>760.06</ele>
        <time>2022-07-02T09:37:17Z</time>
      </trkpt>
      <trkpt lat="43.28237" lon="6.29447">
        <ele>760.06</ele>
        <time>2022-07-02T09:37:18Z</time>
      </trkpt>
      <trkpt lat="43.28236" lon="6.29439">
        <ele>759.1</ele>
        <time>2022-07-02T09:37:19Z</time>
      </trkpt>
      <trkpt lat="43.28235" lon="6.29428">
        <ele>758.62</ele>
        <time>2022-07-02T09:37:20Z</time>
      </trkpt>
      <trkpt lat="43.28234" lon="6.29416">
        <ele>757.18</ele>
        <time>2022-07-02T09:37:21Z</time>
      </trkpt>
      <trkpt lat="43.28232" lon="6.29404">
        <ele>756.21</ele>
        <time>2022-07-02T09:37:22Z</time>
      </trkpt>
      <trkpt lat="43.28229" lon="6.29395">
        <ele>755.73</ele>
        <time>2022-07-02T09:37:23Z</time>
      </trkpt>
      <trkpt lat="43.28226" lon="6.29386">
        <ele>755.73</ele>
        <time>2022-07-02T09:37:24Z</time>
      </trkpt>
      <trkpt lat="43.28221" lon="6.29376">
        <ele>754.77</ele>
        <time>2022-07-02T09:37:25Z</time>
      </trkpt>
      <trkpt lat="43.28213" lon="6.29363">
        <ele>753.81</ele>
        <time>2022-07-02T09:37:26Z</time>
      </trkpt>
      <trkpt lat="43.282" lon="6.29326">
        <ele>750.93</ele>
        <time>2022-07-02T09:37:29Z</time>
      </trkpt>
      <trkpt lat="43.28197" lon="6.29313">
        <ele>749.97</ele>
        <time>2022-07-02T09:37:30Z</time>
      </trkpt>
      <trkpt lat="43.28196" lon="6.293">
        <ele>749</ele>
        <time>2022-07-02T09:37:31Z</time>
      </trkpt>
      <trkpt lat="43.28191" lon="6.29254">
        <ele>745.64</ele>
        <time>2022-07-02T09:37:34Z</time>
      </trkpt>
      <trkpt lat="43.28175" lon="6.2917">
        <ele>741.79</ele>
        <time>2022-07-02T09:37:40Z</time>
      </trkpt>
      <trkpt lat="43.28169" lon="6.29155">
        <ele>741.79</ele>
        <time>2022-07-02T09:37:41Z</time>
      </trkpt>
      <trkpt lat="43.28164" lon="6.29143">
        <ele>740.83</ele>
        <time>2022-07-02T09:37:42Z</time>
      </trkpt>
      <trkpt lat="43.28157" lon="6.29134">
        <ele>740.35</ele>
        <time>2022-07-02T09:37:43Z</time>
      </trkpt>
      <trkpt lat="43.28149" lon="6.29125">
        <ele>739.39</ele>
        <time>2022-07-02T09:37:44Z</time>
      </trkpt>
      <trkpt lat="43.28142" lon="6.2912">
        <ele>738.91</ele>
        <time>2022-07-02T09:37:45Z</time>
      </trkpt>
      <trkpt lat="43.28137" lon="6.29116">
        <ele>738.43</ele>
        <time>2022-07-02T09:37:46Z</time>
      </trkpt>
      <trkpt lat="43.28132" lon="6.2911">
        <ele>737.47</ele>
        <time>2022-07-02T09:37:47Z</time>
      </trkpt>
      <trkpt lat="43.2813" lon="6.29105">
        <ele>736.51</ele>
        <time>2022-07-02T09:37:48Z</time>
      </trkpt>
      <trkpt lat="43.28128" lon="6.29098">
        <ele>736.03</ele>
        <time>2022-07-02T09:37:49Z</time>
      </trkpt>
      <trkpt lat="43.2813" lon="6.29093">
        <ele>736.03</ele>
        <time>2022-07-02T09:37:50Z</time>
      </trkpt>
      <trkpt lat="43.28133" lon="6.2909">
        <ele>735.07</ele>
        <time>2022-07-02T09:37:51Z</time>
      </trkpt>
      <trkpt lat="43.28137" lon="6.29089">
        <ele>734.58</ele>
        <time>2022-07-02T09:37:52Z</time>
      </trkpt>
      <trkpt lat="43.28141" lon="6.29092">
        <ele>733.62</ele>
        <time>2022-07-02T09:37:53Z</time>
      </trkpt>
      <trkpt lat="43.28145" lon="6.29095">
        <ele>733.14</ele>
        <time>2022-07-02T09:37:54Z</time>
      </trkpt>
      <trkpt lat="43.28176" lon="6.29122">
        <ele>728.82</ele>
        <time>2022-07-02T09:38:00Z</time>
      </trkpt>
      <trkpt lat="43.28184" lon="6.29122">
        <ele>727.86</ele>
        <time>2022-07-02T09:38:01Z</time>
      </trkpt>
      <trkpt lat="43.2819" lon="6.29119">
        <ele>727.37</ele>
        <time>2022-07-02T09:38:02Z</time>
      </trkpt>
      <trkpt lat="43.28193" lon="6.29111">
        <ele>727.37</ele>
        <time>2022-07-02T09:38:03Z</time>
      </trkpt>
      <trkpt lat="43.28195" lon="6.29102">
        <ele>727.37</ele>
        <time>2022-07-02T09:38:04Z</time>
      </trkpt>
      <trkpt lat="43.28191" lon="6.29093">
        <ele>726.89</ele>
        <time>2022-07-02T09:38:05Z</time>
      </trkpt>
      <trkpt lat="43.28186" lon="6.29085">
        <ele>726.89</ele>
        <time>2022-07-02T09:38:06Z</time>
      </trkpt>
      <trkpt lat="43.28126" lon="6.2903">
        <ele>722.57</ele>
        <time>2022-07-02T09:38:15Z</time>
      </trkpt>
      <trkpt lat="43.28066" lon="6.28983">
        <ele>720.16</ele>
        <time>2022-07-02T09:38:23Z</time>
      </trkpt>
      <trkpt lat="43.2806" lon="6.28974">
        <ele>719.68</ele>
        <time>2022-07-02T09:38:24Z</time>
      </trkpt>
      <trkpt lat="43.28054" lon="6.28964">
        <ele>719.2</ele>
        <time>2022-07-02T09:38:25Z</time>
      </trkpt>
      <trkpt lat="43.28019" lon="6.28883">
        <ele>716.8</ele>
        <time>2022-07-02T09:38:32Z</time>
      </trkpt>
      <trkpt lat="43.28011" lon="6.28871">
        <ele>716.32</ele>
        <time>2022-07-02T09:38:33Z</time>
      </trkpt>
      <trkpt lat="43.28003" lon="6.28861">
        <ele>716.32</ele>
        <time>2022-07-02T09:38:34Z</time>
      </trkpt>
      <trkpt lat="43.27957" lon="6.28802">
        <ele>714.88</ele>
        <time>2022-07-02T09:38:40Z</time>
      </trkpt>
      <trkpt lat="43.27952" lon="6.2879">
        <ele>714.4</ele>
        <time>2022-07-02T09:38:41Z</time>
      </trkpt>
      <trkpt lat="43.27947" lon="6.28778">
        <ele>714.4</ele>
        <time>2022-07-02T09:38:42Z</time>
      </trkpt>
      <trkpt lat="43.27944" lon="6.28766">
        <ele>714.4</ele>
        <time>2022-07-02T09:38:43Z</time>
      </trkpt>
      <trkpt lat="43.27943" lon="6.28754">
        <ele>713.92</ele>
        <time>2022-07-02T09:38:44Z</time>
      </trkpt>
      <trkpt lat="43.27943" lon="6.28742">
        <ele>713.92</ele>
        <time>2022-07-02T09:38:45Z</time>
      </trkpt>
      <trkpt lat="43.27945" lon="6.2873">
        <ele>713.92</ele>
        <time>2022-07-02T09:38:46Z</time>
      </trkpt>
      <trkpt lat="43.27951" lon="6.28723">
        <ele>713.44</ele>
        <time>2022-07-02T09:38:47Z</time>
      </trkpt>
      <trkpt lat="43.27958" lon="6.28718">
        <ele>713.44</ele>
        <time>2022-07-02T09:38:48Z</time>
      </trkpt>
      <trkpt lat="43.27967" lon="6.28716">
        <ele>713.44</ele>
        <time>2022-07-02T09:38:49Z</time>
      </trkpt>
      <trkpt lat="43.27976" lon="6.28716">
        <ele>712.95</ele>
        <time>2022-07-02T09:38:50Z</time>
      </trkpt>
      <trkpt lat="43.27985" lon="6.28719">
        <ele>712.47</ele>
        <time>2022-07-02T09:38:51Z</time>
      </trkpt>
      <trkpt lat="43.27993" lon="6.28723">
        <ele>712.47</ele>
        <time>2022-07-02T09:38:52Z</time>
      </trkpt>
      <trkpt lat="43.28002" lon="6.28728">
        <ele>712.47</ele>
        <time>2022-07-02T09:38:53Z</time>
      </trkpt>
      <trkpt lat="43.28029" lon="6.28744">
        <ele>711.99</ele>
        <time>2022-07-02T09:38:56Z</time>
      </trkpt>
      <trkpt lat="43.28038" lon="6.28752">
        <ele>711.99</ele>
        <time>2022-07-02T09:38:57Z</time>
      </trkpt>
      <trkpt lat="43.28045" lon="6.28761">
        <ele>711.99</ele>
        <time>2022-07-02T09:38:58Z</time>
      </trkpt>
      <trkpt lat="43.28052" lon="6.28772">
        <ele>711.99</ele>
        <time>2022-07-02T09:38:59Z</time>
      </trkpt>
      <trkpt lat="43.28059" lon="6.28783">
        <ele>711.99</ele>
        <time>2022-07-02T09:39:00Z</time>
      </trkpt>
      <trkpt lat="43.28123" lon="6.28882">
        <ele>711.03</ele>
        <time>2022-07-02T09:39:09Z</time>
      </trkpt>
      <trkpt lat="43.28146" lon="6.28909">
        <ele>711.51</ele>
        <time>2022-07-02T09:39:12Z</time>
      </trkpt>
      <trkpt lat="43.28159" lon="6.28927">
        <ele>711.51</ele>
        <time>2022-07-02T09:39:14Z</time>
      </trkpt>
      <trkpt lat="43.28166" lon="6.28933">
        <ele>711.51</ele>
        <time>2022-07-02T09:39:15Z</time>
      </trkpt>
      <trkpt lat="43.28175" lon="6.28932">
        <ele>711.03</ele>
        <time>2022-07-02T09:39:16Z</time>
      </trkpt>
      <trkpt lat="43.28181" lon="6.28929">
        <ele>710.55</ele>
        <time>2022-07-02T09:39:17Z</time>
      </trkpt>
      <trkpt lat="43.28191" lon="6.28925">
        <ele>711.03</ele>
        <time>2022-07-02T09:39:18Z</time>
      </trkpt>
      <trkpt lat="43.28282" lon="6.28911">
        <ele>711.51</ele>
        <time>2022-07-02T09:39:27Z</time>
      </trkpt>
      <trkpt lat="43.28317" lon="6.2891">
        <ele>711.99</ele>
        <time>2022-07-02T09:39:31Z</time>
      </trkpt>
      <trkpt lat="43.28324" lon="6.28915">
        <ele>712.47</ele>
        <time>2022-07-02T09:39:32Z</time>
      </trkpt>
      <trkpt lat="43.28329" lon="6.28924">
        <ele>712.47</ele>
        <time>2022-07-02T09:39:33Z</time>
      </trkpt>
      <trkpt lat="43.28332" lon="6.28936">
        <ele>712.95</ele>
        <time>2022-07-02T09:39:34Z</time>
      </trkpt>
      <trkpt lat="43.28334" lon="6.28948">
        <ele>712.95</ele>
        <time>2022-07-02T09:39:35Z</time>
      </trkpt>
      <trkpt lat="43.28334" lon="6.28961">
        <ele>712.95</ele>
        <time>2022-07-02T09:39:36Z</time>
      </trkpt>
      <trkpt lat="43.28333" lon="6.28974">
        <ele>712.95</ele>
        <time>2022-07-02T09:39:37Z</time>
      </trkpt>
      <trkpt lat="43.28331" lon="6.28987">
        <ele>712.95</ele>
        <time>2022-07-02T09:39:38Z</time>
      </trkpt>
      <trkpt lat="43.28329" lon="6.29001">
        <ele>712.95</ele>
        <time>2022-07-02T09:39:39Z</time>
      </trkpt>
      <trkpt lat="43.2832" lon="6.29164">
        <ele>715.84</ele>
        <time>2022-07-02T09:39:51Z</time>
      </trkpt>
      <trkpt lat="43.28324" lon="6.29177">
        <ele>715.84</ele>
        <time>2022-07-02T09:39:52Z</time>
      </trkpt>
      <trkpt lat="43.28328" lon="6.29188">
        <ele>716.32</ele>
        <time>2022-07-02T09:39:53Z</time>
      </trkpt>
      <trkpt lat="43.28339" lon="6.29214">
        <ele>717.28</ele>
        <time>2022-07-02T09:39:56Z</time>
      </trkpt>
      <trkpt lat="43.28344" lon="6.29218">
        <ele>717.76</ele>
        <time>2022-07-02T09:39:57Z</time>
      </trkpt>
      <trkpt lat="43.28348" lon="6.29221">
        <ele>718.72</ele>
        <time>2022-07-02T09:39:58Z</time>
      </trkpt>
      <trkpt lat="43.28354" lon="6.29221">
        <ele>721.13</ele>
        <time>2022-07-02T09:40:06Z</time>
      </trkpt>
      <trkpt lat="43.28355" lon="6.29214">
        <ele>726.89</ele>
        <time>2022-07-02T09:40:22Z</time>
      </trkpt>
      <trkpt lat="43.28351" lon="6.29205">
        <ele>738.91</ele>
        <time>2022-07-02T09:40:49Z</time>
      </trkpt>
      <trkpt lat="43.2835" lon="6.29206">
        <ele>736.99</ele>
        <time>2022-07-02T09:41:05Z</time>
      </trkpt>
      <trkpt lat="43.28344" lon="6.29205">
        <ele>729.78</ele>
        <time>2022-07-02T09:41:26Z</time>
      </trkpt>
      <trkpt lat="43.28342" lon="6.29201">
        <ele>726.89</ele>
        <time>2022-07-02T09:41:50Z</time>
      </trkpt>
      <trkpt lat="43.28345" lon="6.29202">
        <ele>724.49</ele>
        <time>2022-07-02T09:42:16Z</time>
      </trkpt>
      <trkpt lat="43.28347" lon="6.29205">
        <ele>714.88</ele>
        <time>2022-07-02T09:43:09Z</time>
      </trkpt>
      <trkpt lat="43.28346" lon="6.29199">
        <ele>698.05</ele>
        <time>2022-07-02T09:44:06Z</time>
      </trkpt>
      <trkpt lat="43.28345" lon="6.29189">
        <ele>697.09</ele>
        <time>2022-07-02T09:44:08Z</time>
      </trkpt>
      <trkpt lat="43.28345" lon="6.29185">
        <ele>696.61</ele>
        <time>2022-07-02T09:44:09Z</time>
      </trkpt>
      <trkpt lat="43.28345" lon="6.2918">
        <ele>696.13</ele>
        <time>2022-07-02T09:44:10Z</time>
      </trkpt>
      <trkpt lat="43.28344" lon="6.29175">
        <ele>695.65</ele>
        <time>2022-07-02T09:44:11Z</time>
      </trkpt>
      <trkpt lat="43.28342" lon="6.29169">
        <ele>695.17</ele>
        <time>2022-07-02T09:44:12Z</time>
      </trkpt>
      <trkpt lat="43.28335" lon="6.29148">
        <ele>693.73</ele>
        <time>2022-07-02T09:44:15Z</time>
      </trkpt>
      <trkpt lat="43.28335" lon="6.2914">
        <ele>692.77</ele>
        <time>2022-07-02T09:44:16Z</time>
      </trkpt>
      <trkpt lat="43.28336" lon="6.29111">
        <ele>690.36</ele>
        <time>2022-07-02T09:44:19Z</time>
      </trkpt>
      <trkpt lat="43.28349" lon="6.29035">
        <ele>683.15</ele>
        <time>2022-07-02T09:44:25Z</time>
      </trkpt>
      <trkpt lat="43.28371" lon="6.28939">
        <ele>675.46</ele>
        <time>2022-07-02T09:44:32Z</time>
      </trkpt>
      <trkpt lat="43.28373" lon="6.28925">
        <ele>674.5</ele>
        <time>2022-07-02T09:44:33Z</time>
      </trkpt>
      <trkpt lat="43.28373" lon="6.28911">
        <ele>674.02</ele>
        <time>2022-07-02T09:44:34Z</time>
      </trkpt>
      <trkpt lat="43.28373" lon="6.28885">
        <ele>671.62</ele>
        <time>2022-07-02T09:44:36Z</time>
      </trkpt>
      <trkpt lat="43.28371" lon="6.28872">
        <ele>670.18</ele>
        <time>2022-07-02T09:44:37Z</time>
      </trkpt>
      <trkpt lat="43.28366" lon="6.2886">
        <ele>669.22</ele>
        <time>2022-07-02T09:44:38Z</time>
      </trkpt>
      <trkpt lat="43.2836" lon="6.28848">
        <ele>667.77</ele>
        <time>2022-07-02T09:44:39Z</time>
      </trkpt>
      <trkpt lat="43.28353" lon="6.28837">
        <ele>666.33</ele>
        <time>2022-07-02T09:44:40Z</time>
      </trkpt>
      <trkpt lat="43.28345" lon="6.28828">
        <ele>665.37</ele>
        <time>2022-07-02T09:44:41Z</time>
      </trkpt>
      <trkpt lat="43.28336" lon="6.2882">
        <ele>664.41</ele>
        <time>2022-07-02T09:44:42Z</time>
      </trkpt>
      <trkpt lat="43.28326" lon="6.28813">
        <ele>662.97</ele>
        <time>2022-07-02T09:44:43Z</time>
      </trkpt>
      <trkpt lat="43.28315" lon="6.28807">
        <ele>661.52</ele>
        <time>2022-07-02T09:44:44Z</time>
      </trkpt>
      <trkpt lat="43.28305" lon="6.28803">
        <ele>660.08</ele>
        <time>2022-07-02T09:44:45Z</time>
      </trkpt>
      <trkpt lat="43.28294" lon="6.288">
        <ele>659.12</ele>
        <time>2022-07-02T09:44:46Z</time>
      </trkpt>
      <trkpt lat="43.28283" lon="6.28798">
        <ele>657.68</ele>
        <time>2022-07-02T09:44:47Z</time>
      </trkpt>
      <trkpt lat="43.28272" lon="6.28797">
        <ele>656.24</ele>
        <time>2022-07-02T09:44:48Z</time>
      </trkpt>
      <trkpt lat="43.28261" lon="6.28796">
        <ele>654.8</ele>
        <time>2022-07-02T09:44:49Z</time>
      </trkpt>
      <trkpt lat="43.28203" lon="6.2879">
        <ele>647.59</ele>
        <time>2022-07-02T09:44:55Z</time>
      </trkpt>
      <trkpt lat="43.28195" lon="6.28784">
        <ele>646.62</ele>
        <time>2022-07-02T09:44:56Z</time>
      </trkpt>
      <trkpt lat="43.2819" lon="6.28775">
        <ele>645.18</ele>
        <time>2022-07-02T09:44:57Z</time>
      </trkpt>
      <trkpt lat="43.28185" lon="6.28765">
        <ele>643.74</ele>
        <time>2022-07-02T09:44:58Z</time>
      </trkpt>
      <trkpt lat="43.2818" lon="6.28753">
        <ele>642.78</ele>
        <time>2022-07-02T09:44:59Z</time>
      </trkpt>
      <trkpt lat="43.28177" lon="6.28743">
        <ele>641.34</ele>
        <time>2022-07-02T09:45:00Z</time>
      </trkpt>
      <trkpt lat="43.28148" lon="6.28642">
        <ele>633.17</ele>
        <time>2022-07-02T09:45:08Z</time>
      </trkpt>
      <trkpt lat="43.28147" lon="6.28629">
        <ele>632.2</ele>
        <time>2022-07-02T09:45:09Z</time>
      </trkpt>
      <trkpt lat="43.28147" lon="6.28617">
        <ele>631.72</ele>
        <time>2022-07-02T09:45:10Z</time>
      </trkpt>
      <trkpt lat="43.28149" lon="6.28603">
        <ele>630.76</ele>
        <time>2022-07-02T09:45:11Z</time>
      </trkpt>
      <trkpt lat="43.2815" lon="6.28588">
        <ele>630.28</ele>
        <time>2022-07-02T09:45:12Z</time>
      </trkpt>
      <trkpt lat="43.2815" lon="6.28556">
        <ele>628.36</ele>
        <time>2022-07-02T09:45:14Z</time>
      </trkpt>
      <trkpt lat="43.28149" lon="6.28527">
        <ele>626.44</ele>
        <time>2022-07-02T09:45:16Z</time>
      </trkpt>
      <trkpt lat="43.28146" lon="6.28514">
        <ele>625.47</ele>
        <time>2022-07-02T09:45:17Z</time>
      </trkpt>
      <trkpt lat="43.28141" lon="6.285">
        <ele>624.51</ele>
        <time>2022-07-02T09:45:18Z</time>
      </trkpt>
      <trkpt lat="43.28134" lon="6.28488">
        <ele>623.55</ele>
        <time>2022-07-02T09:45:19Z</time>
      </trkpt>
      <trkpt lat="43.28125" lon="6.28478">
        <ele>622.59</ele>
        <time>2022-07-02T09:45:20Z</time>
      </trkpt>
      <trkpt lat="43.28115" lon="6.28472">
        <ele>621.63</ele>
        <time>2022-07-02T09:45:21Z</time>
      </trkpt>
      <trkpt lat="43.28105" lon="6.28467">
        <ele>621.63</ele>
        <time>2022-07-02T09:45:22Z</time>
      </trkpt>
      <trkpt lat="43.28095" lon="6.28465">
        <ele>620.19</ele>
        <time>2022-07-02T09:45:23Z</time>
      </trkpt>
      <trkpt lat="43.28084" lon="6.28464">
        <ele>619.23</ele>
        <time>2022-07-02T09:45:24Z</time>
      </trkpt>
      <trkpt lat="43.28002" lon="6.28455">
        <ele>612.02</ele>
        <time>2022-07-02T09:45:32Z</time>
      </trkpt>
      <trkpt lat="43.27991" lon="6.28452">
        <ele>611.54</ele>
        <time>2022-07-02T09:45:33Z</time>
      </trkpt>
      <trkpt lat="43.2798" lon="6.28447">
        <ele>610.57</ele>
        <time>2022-07-02T09:45:34Z</time>
      </trkpt>
      <trkpt lat="43.2797" lon="6.28443">
        <ele>610.09</ele>
        <time>2022-07-02T09:45:35Z</time>
      </trkpt>
      <trkpt lat="43.2796" lon="6.2844">
        <ele>609.61</ele>
        <time>2022-07-02T09:45:36Z</time>
      </trkpt>
      <trkpt lat="43.27949" lon="6.28438">
        <ele>609.13</ele>
        <time>2022-07-02T09:45:37Z</time>
      </trkpt>
      <trkpt lat="43.2793" lon="6.28433">
        <ele>608.17</ele>
        <time>2022-07-02T09:45:39Z</time>
      </trkpt>
      <trkpt lat="43.27924" lon="6.28426">
        <ele>608.17</ele>
        <time>2022-07-02T09:45:40Z</time>
      </trkpt>
      <trkpt lat="43.27919" lon="6.28416">
        <ele>608.17</ele>
        <time>2022-07-02T09:45:41Z</time>
      </trkpt>
      <trkpt lat="43.27915" lon="6.28406">
        <ele>608.17</ele>
        <time>2022-07-02T09:45:42Z</time>
      </trkpt>
      <trkpt lat="43.27912" lon="6.28391">
        <ele>608.17</ele>
        <time>2022-07-02T09:45:43Z</time>
      </trkpt>
      <trkpt lat="43.27911" lon="6.28376">
        <ele>608.17</ele>
        <time>2022-07-02T09:45:44Z</time>
      </trkpt>
      <trkpt lat="43.27912" lon="6.28362">
        <ele>607.69</ele>
        <time>2022-07-02T09:45:45Z</time>
      </trkpt>
      <trkpt lat="43.27912" lon="6.28347">
        <ele>607.69</ele>
        <time>2022-07-02T09:45:46Z</time>
      </trkpt>
      <trkpt lat="43.27926" lon="6.28201">
        <ele>600</ele>
        <time>2022-07-02T09:45:56Z</time>
      </trkpt>
      <trkpt lat="43.27929" lon="6.28187">
        <ele>599.52</ele>
        <time>2022-07-02T09:45:57Z</time>
      </trkpt>
      <trkpt lat="43.27934" lon="6.28174">
        <ele>598.08</ele>
        <time>2022-07-02T09:45:58Z</time>
      </trkpt>
      <trkpt lat="43.27986" lon="6.28004">
        <ele>587.5</ele>
        <time>2022-07-02T09:46:10Z</time>
      </trkpt>
      <trkpt lat="43.28026" lon="6.27842">
        <ele>578.37</ele>
        <time>2022-07-02T09:46:21Z</time>
      </trkpt>
      <trkpt lat="43.28036" lon="6.27803">
        <ele>575.97</ele>
        <time>2022-07-02T09:46:24Z</time>
      </trkpt>
      <trkpt lat="43.28036" lon="6.27793">
        <ele>575.49</ele>
        <time>2022-07-02T09:46:25Z</time>
      </trkpt>
      <trkpt lat="43.28033" lon="6.27783">
        <ele>575.01</ele>
        <time>2022-07-02T09:46:26Z</time>
      </trkpt>
      <trkpt lat="43.28027" lon="6.27779">
        <ele>574.53</ele>
        <time>2022-07-02T09:46:27Z</time>
      </trkpt>
      <trkpt lat="43.2802" lon="6.27779">
        <ele>574.04</ele>
        <time>2022-07-02T09:46:28Z</time>
      </trkpt>
      <trkpt lat="43.28013" lon="6.27782">
        <ele>573.56</ele>
        <time>2022-07-02T09:46:29Z</time>
      </trkpt>
      <trkpt lat="43.28006" lon="6.27786">
        <ele>572.6</ele>
        <time>2022-07-02T09:46:30Z</time>
      </trkpt>
      <trkpt lat="43.27998" lon="6.27792">
        <ele>572.12</ele>
        <time>2022-07-02T09:46:31Z</time>
      </trkpt>
      <trkpt lat="43.27909" lon="6.27871">
        <ele>564.43</ele>
        <time>2022-07-02T09:46:42Z</time>
      </trkpt>
      <trkpt lat="43.27844" lon="6.27913">
        <ele>560.59</ele>
        <time>2022-07-02T09:46:49Z</time>
      </trkpt>
      <trkpt lat="43.27834" lon="6.27914">
        <ele>560.11</ele>
        <time>2022-07-02T09:46:50Z</time>
      </trkpt>
      <trkpt lat="43.27824" lon="6.2791">
        <ele>559.62</ele>
        <time>2022-07-02T09:46:51Z</time>
      </trkpt>
      <trkpt lat="43.27815" lon="6.27903">
        <ele>559.14</ele>
        <time>2022-07-02T09:46:52Z</time>
      </trkpt>
      <trkpt lat="43.27808" lon="6.27894">
        <ele>558.66</ele>
        <time>2022-07-02T09:46:53Z</time>
      </trkpt>
      <trkpt lat="43.278" lon="6.27885">
        <ele>558.18</ele>
        <time>2022-07-02T09:46:54Z</time>
      </trkpt>
      <trkpt lat="43.27791" lon="6.27879">
        <ele>557.7</ele>
        <time>2022-07-02T09:46:55Z</time>
      </trkpt>
      <trkpt lat="43.27781" lon="6.27875">
        <ele>557.22</ele>
        <time>2022-07-02T09:46:56Z</time>
      </trkpt>
      <trkpt lat="43.27764" lon="6.27865">
        <ele>556.26</ele>
        <time>2022-07-02T09:46:58Z</time>
      </trkpt>
      <trkpt lat="43.27757" lon="6.27857">
        <ele>555.78</ele>
        <time>2022-07-02T09:46:59Z</time>
      </trkpt>
      <trkpt lat="43.27752" lon="6.27846">
        <ele>555.78</ele>
        <time>2022-07-02T09:47:00Z</time>
      </trkpt>
      <trkpt lat="43.27748" lon="6.27834">
        <ele>555.3</ele>
        <time>2022-07-02T09:47:01Z</time>
      </trkpt>
      <trkpt lat="43.27744" lon="6.27822">
        <ele>554.82</ele>
        <time>2022-07-02T09:47:02Z</time>
      </trkpt>
      <trkpt lat="43.2772" lon="6.27746">
        <ele>550.97</ele>
        <time>2022-07-02T09:47:08Z</time>
      </trkpt>
      <trkpt lat="43.27714" lon="6.27734">
        <ele>550.49</ele>
        <time>2022-07-02T09:47:09Z</time>
      </trkpt>
      <trkpt lat="43.27708" lon="6.27724">
        <ele>550.01</ele>
        <time>2022-07-02T09:47:10Z</time>
      </trkpt>
      <trkpt lat="43.27663" lon="6.27623">
        <ele>544.72</ele>
        <time>2022-07-02T09:47:19Z</time>
      </trkpt>
      <trkpt lat="43.27611" lon="6.27477">
        <ele>536.07</ele>
        <time>2022-07-02T09:47:32Z</time>
      </trkpt>
      <trkpt lat="43.27605" lon="6.27467">
        <ele>535.59</ele>
        <time>2022-07-02T09:47:33Z</time>
      </trkpt>
      <trkpt lat="43.27594" lon="6.27451">
        <ele>534.63</ele>
        <time>2022-07-02T09:47:35Z</time>
      </trkpt>
      <trkpt lat="43.27592" lon="6.27443">
        <ele>534.63</ele>
        <time>2022-07-02T09:47:36Z</time>
      </trkpt>
      <trkpt lat="43.27593" lon="6.27435">
        <ele>534.63</ele>
        <time>2022-07-02T09:47:37Z</time>
      </trkpt>
      <trkpt lat="43.27596" lon="6.27428">
        <ele>533.67</ele>
        <time>2022-07-02T09:47:38Z</time>
      </trkpt>
      <trkpt lat="43.27601" lon="6.27428">
        <ele>532.71</ele>
        <time>2022-07-02T09:47:39Z</time>
      </trkpt>
      <trkpt lat="43.27605" lon="6.27432">
        <ele>532.71</ele>
        <time>2022-07-02T09:47:40Z</time>
      </trkpt>
      <trkpt lat="43.27609" lon="6.27439">
        <ele>532.23</ele>
        <time>2022-07-02T09:47:41Z</time>
      </trkpt>
      <trkpt lat="43.27613" lon="6.27447">
        <ele>531.27</ele>
        <time>2022-07-02T09:47:42Z</time>
      </trkpt>
      <trkpt lat="43.27616" lon="6.27457">
        <ele>530.79</ele>
        <time>2022-07-02T09:47:43Z</time>
      </trkpt>
      <trkpt lat="43.27673" lon="6.2758">
        <ele>523.58</ele>
        <time>2022-07-02T09:47:55Z</time>
      </trkpt>
      <trkpt lat="43.2776" lon="6.27677">
        <ele>516.37</ele>
        <time>2022-07-02T09:48:06Z</time>
      </trkpt>
      <trkpt lat="43.27777" lon="6.27695">
        <ele>514.92</ele>
        <time>2022-07-02T09:48:08Z</time>
      </trkpt>
      <trkpt lat="43.27784" lon="6.27706">
        <ele>513.96</ele>
        <time>2022-07-02T09:48:09Z</time>
      </trkpt>
      <trkpt lat="43.27791" lon="6.27718">
        <ele>513.48</ele>
        <time>2022-07-02T09:48:10Z</time>
      </trkpt>
      <trkpt lat="43.27796" lon="6.27731">
        <ele>513.48</ele>
        <time>2022-07-02T09:48:11Z</time>
      </trkpt>
      <trkpt lat="43.278" lon="6.27744">
        <ele>513</ele>
        <time>2022-07-02T09:48:12Z</time>
      </trkpt>
      <trkpt lat="43.27811" lon="6.27782">
        <ele>510.6</ele>
        <time>2022-07-02T09:48:15Z</time>
      </trkpt>
      <trkpt lat="43.27816" lon="6.27792">
        <ele>509.64</ele>
        <time>2022-07-02T09:48:16Z</time>
      </trkpt>
      <trkpt lat="43.27822" lon="6.27799">
        <ele>509.16</ele>
        <time>2022-07-02T09:48:17Z</time>
      </trkpt>
      <trkpt lat="43.2783" lon="6.27802">
        <ele>508.19</ele>
        <time>2022-07-02T09:48:18Z</time>
      </trkpt>
      <trkpt lat="43.27839" lon="6.278">
        <ele>508.19</ele>
        <time>2022-07-02T09:48:19Z</time>
      </trkpt>
      <trkpt lat="43.27847" lon="6.27794">
        <ele>508.19</ele>
        <time>2022-07-02T09:48:20Z</time>
      </trkpt>
      <trkpt lat="43.27855" lon="6.27785">
        <ele>507.71</ele>
        <time>2022-07-02T09:48:21Z</time>
      </trkpt>
      <trkpt lat="43.27861" lon="6.27774">
        <ele>507.71</ele>
        <time>2022-07-02T09:48:22Z</time>
      </trkpt>
      <trkpt lat="43.27868" lon="6.27764">
        <ele>507.23</ele>
        <time>2022-07-02T09:48:23Z</time>
      </trkpt>
      <trkpt lat="43.27875" lon="6.27755">
        <ele>506.75</ele>
        <time>2022-07-02T09:48:24Z</time>
      </trkpt>
      <trkpt lat="43.27882" lon="6.27746">
        <ele>506.27</ele>
        <time>2022-07-02T09:48:25Z</time>
      </trkpt>
      <trkpt lat="43.2789" lon="6.27738">
        <ele>505.79</ele>
        <time>2022-07-02T09:48:26Z</time>
      </trkpt>
      <trkpt lat="43.27904" lon="6.2772">
        <ele>504.83</ele>
        <time>2022-07-02T09:48:28Z</time>
      </trkpt>
      <trkpt lat="43.27911" lon="6.2771">
        <ele>504.83</ele>
        <time>2022-07-02T09:48:29Z</time>
      </trkpt>
      <trkpt lat="43.27937" lon="6.2767">
        <ele>503.39</ele>
        <time>2022-07-02T09:48:33Z</time>
      </trkpt>
      <trkpt lat="43.27967" lon="6.27635">
        <ele>501.46</ele>
        <time>2022-07-02T09:48:37Z</time>
      </trkpt>
      <trkpt lat="43.27973" lon="6.27622">
        <ele>500.98</ele>
        <time>2022-07-02T09:48:38Z</time>
      </trkpt>
      <trkpt lat="43.27978" lon="6.27609">
        <ele>500.5</ele>
        <time>2022-07-02T09:48:39Z</time>
      </trkpt>
      <trkpt lat="43.27982" lon="6.27595">
        <ele>500.02</ele>
        <time>2022-07-02T09:48:40Z</time>
      </trkpt>
      <trkpt lat="43.27985" lon="6.2758">
        <ele>499.06</ele>
        <time>2022-07-02T09:48:41Z</time>
      </trkpt>
      <trkpt lat="43.27996" lon="6.27538">
        <ele>497.62</ele>
        <time>2022-07-02T09:48:44Z</time>
      </trkpt>
      <trkpt lat="43.28001" lon="6.27525">
        <ele>496.66</ele>
        <time>2022-07-02T09:48:45Z</time>
      </trkpt>
      <trkpt lat="43.28008" lon="6.27514">
        <ele>495.7</ele>
        <time>2022-07-02T09:48:46Z</time>
      </trkpt>
      <trkpt lat="43.28017" lon="6.27505">
        <ele>495.22</ele>
        <time>2022-07-02T09:48:47Z</time>
      </trkpt>
      <trkpt lat="43.28026" lon="6.27498">
        <ele>493.77</ele>
        <time>2022-07-02T09:48:48Z</time>
      </trkpt>
      <trkpt lat="43.28036" lon="6.27492">
        <ele>492.81</ele>
        <time>2022-07-02T09:48:49Z</time>
      </trkpt>
      <trkpt lat="43.28047" lon="6.2749">
        <ele>492.33</ele>
        <time>2022-07-02T09:48:50Z</time>
      </trkpt>
      <trkpt lat="43.28057" lon="6.2749">
        <ele>491.37</ele>
        <time>2022-07-02T09:48:51Z</time>
      </trkpt>
      <trkpt lat="43.28067" lon="6.27491">
        <ele>490.41</ele>
        <time>2022-07-02T09:48:52Z</time>
      </trkpt>
      <trkpt lat="43.28162" lon="6.27509">
        <ele>483.2</ele>
        <time>2022-07-02T09:49:01Z</time>
      </trkpt>
      <trkpt lat="43.28172" lon="6.27514">
        <ele>482.24</ele>
        <time>2022-07-02T09:49:02Z</time>
      </trkpt>
      <trkpt lat="43.2821" lon="6.27538">
        <ele>478.87</ele>
        <time>2022-07-02T09:49:06Z</time>
      </trkpt>
      <trkpt lat="43.28221" lon="6.27541">
        <ele>478.39</ele>
        <time>2022-07-02T09:49:07Z</time>
      </trkpt>
      <trkpt lat="43.28233" lon="6.2754">
        <ele>477.91</ele>
        <time>2022-07-02T09:49:08Z</time>
      </trkpt>
      <trkpt lat="43.28277" lon="6.27537">
        <ele>475.99</ele>
        <time>2022-07-02T09:49:12Z</time>
      </trkpt>
      <trkpt lat="43.28287" lon="6.27539">
        <ele>475.03</ele>
        <time>2022-07-02T09:49:13Z</time>
      </trkpt>
      <trkpt lat="43.28294" lon="6.27544">
        <ele>474.07</ele>
        <time>2022-07-02T09:49:14Z</time>
      </trkpt>
      <trkpt lat="43.28301" lon="6.27551">
        <ele>473.59</ele>
        <time>2022-07-02T09:49:15Z</time>
      </trkpt>
      <trkpt lat="43.28306" lon="6.27562">
        <ele>472.63</ele>
        <time>2022-07-02T09:49:16Z</time>
      </trkpt>
      <trkpt lat="43.2831" lon="6.27575">
        <ele>471.66</ele>
        <time>2022-07-02T09:49:17Z</time>
      </trkpt>
      <trkpt lat="43.2831" lon="6.27589">
        <ele>471.18</ele>
        <time>2022-07-02T09:49:18Z</time>
      </trkpt>
      <trkpt lat="43.28308" lon="6.27603">
        <ele>470.7</ele>
        <time>2022-07-02T09:49:19Z</time>
      </trkpt>
      <trkpt lat="43.28306" lon="6.27617">
        <ele>470.22</ele>
        <time>2022-07-02T09:49:20Z</time>
      </trkpt>
      <trkpt lat="43.28303" lon="6.2763">
        <ele>469.26</ele>
        <time>2022-07-02T09:49:21Z</time>
      </trkpt>
      <trkpt lat="43.28302" lon="6.27643">
        <ele>468.3</ele>
        <time>2022-07-02T09:49:22Z</time>
      </trkpt>
      <trkpt lat="43.28302" lon="6.27656">
        <ele>467.34</ele>
        <time>2022-07-02T09:49:23Z</time>
      </trkpt>
      <trkpt lat="43.28303" lon="6.27669">
        <ele>466.38</ele>
        <time>2022-07-02T09:49:24Z</time>
      </trkpt>
      <trkpt lat="43.28308" lon="6.27715">
        <ele>463.01</ele>
        <time>2022-07-02T09:49:28Z</time>
      </trkpt>
      <trkpt lat="43.28311" lon="6.2772">
        <ele>462.53</ele>
        <time>2022-07-02T09:49:29Z</time>
      </trkpt>
      <trkpt lat="43.28314" lon="6.2772">
        <ele>462.05</ele>
        <time>2022-07-02T09:49:30Z</time>
      </trkpt>
      <trkpt lat="43.28315" lon="6.27715">
        <ele>462.05</ele>
        <time>2022-07-02T09:49:31Z</time>
      </trkpt>
      <trkpt lat="43.28315" lon="6.27708">
        <ele>461.57</ele>
        <time>2022-07-02T09:49:32Z</time>
      </trkpt>
      <trkpt lat="43.28314" lon="6.27701">
        <ele>461.57</ele>
        <time>2022-07-02T09:49:33Z</time>
      </trkpt>
      <trkpt lat="43.28313" lon="6.27692">
        <ele>461.09</ele>
        <time>2022-07-02T09:49:34Z</time>
      </trkpt>
      <trkpt lat="43.28312" lon="6.27682">
        <ele>460.61</ele>
        <time>2022-07-02T09:49:35Z</time>
      </trkpt>
      <trkpt lat="43.28311" lon="6.27661">
        <ele>459.65</ele>
        <time>2022-07-02T09:49:37Z</time>
      </trkpt>
      <trkpt lat="43.28311" lon="6.2765">
        <ele>459.17</ele>
        <time>2022-07-02T09:49:38Z</time>
      </trkpt>
      <trkpt lat="43.28313" lon="6.27639">
        <ele>459.17</ele>
        <time>2022-07-02T09:49:39Z</time>
      </trkpt>
      <trkpt lat="43.28316" lon="6.27628">
        <ele>458.69</ele>
        <time>2022-07-02T09:49:40Z</time>
      </trkpt>
      <trkpt lat="43.28321" lon="6.27618">
        <ele>458.21</ele>
        <time>2022-07-02T09:49:41Z</time>
      </trkpt>
      <trkpt lat="43.28325" lon="6.27608">
        <ele>458.21</ele>
        <time>2022-07-02T09:49:42Z</time>
      </trkpt>
      <trkpt lat="43.28359" lon="6.27527">
        <ele>454.36</ele>
        <time>2022-07-02T09:49:49Z</time>
      </trkpt>
      <trkpt lat="43.28359" lon="6.27515">
        <ele>453.88</ele>
        <time>2022-07-02T09:49:50Z</time>
      </trkpt>
      <trkpt lat="43.28355" lon="6.27504">
        <ele>453.88</ele>
        <time>2022-07-02T09:49:51Z</time>
      </trkpt>
      <trkpt lat="43.28348" lon="6.27495">
        <ele>452.92</ele>
        <time>2022-07-02T09:49:52Z</time>
      </trkpt>
      <trkpt lat="43.2834" lon="6.27488">
        <ele>452.44</ele>
        <time>2022-07-02T09:49:53Z</time>
      </trkpt>
      <trkpt lat="43.28331" lon="6.27482">
        <ele>451.96</ele>
        <time>2022-07-02T09:49:54Z</time>
      </trkpt>
      <trkpt lat="43.28289" lon="6.27451">
        <ele>448.59</ele>
        <time>2022-07-02T09:49:59Z</time>
      </trkpt>
      <trkpt lat="43.2825" lon="6.27432">
        <ele>445.71</ele>
        <time>2022-07-02T09:50:03Z</time>
      </trkpt>
      <trkpt lat="43.28243" lon="6.27422">
        <ele>446.19</ele>
        <time>2022-07-02T09:50:04Z</time>
      </trkpt>
      <trkpt lat="43.28239" lon="6.27411">
        <ele>445.71</ele>
        <time>2022-07-02T09:50:05Z</time>
      </trkpt>
      <trkpt lat="43.28237" lon="6.27399">
        <ele>446.19</ele>
        <time>2022-07-02T09:50:06Z</time>
      </trkpt>
      <trkpt lat="43.28236" lon="6.27386">
        <ele>445.71</ele>
        <time>2022-07-02T09:50:07Z</time>
      </trkpt>
      <trkpt lat="43.28237" lon="6.27373">
        <ele>445.71</ele>
        <time>2022-07-02T09:50:08Z</time>
      </trkpt>
      <trkpt lat="43.28239" lon="6.27361">
        <ele>445.23</ele>
        <time>2022-07-02T09:50:09Z</time>
      </trkpt>
      <trkpt lat="43.28241" lon="6.2735">
        <ele>445.23</ele>
        <time>2022-07-02T09:50:10Z</time>
      </trkpt>
      <trkpt lat="43.28243" lon="6.27339">
        <ele>445.23</ele>
        <time>2022-07-02T09:50:11Z</time>
      </trkpt>
      <trkpt lat="43.28244" lon="6.2733">
        <ele>445.23</ele>
        <time>2022-07-02T09:50:12Z</time>
      </trkpt>
      <trkpt lat="43.28242" lon="6.27324">
        <ele>445.23</ele>
        <time>2022-07-02T09:50:13Z</time>
      </trkpt>
      <trkpt lat="43.28238" lon="6.27321">
        <ele>444.27</ele>
        <time>2022-07-02T09:50:14Z</time>
      </trkpt>
      <trkpt lat="43.28233" lon="6.27321">
        <ele>444.27</ele>
        <time>2022-07-02T09:50:15Z</time>
      </trkpt>
      <trkpt lat="43.28228" lon="6.27324">
        <ele>443.79</ele>
        <time>2022-07-02T09:50:16Z</time>
      </trkpt>
      <trkpt lat="43.28224" lon="6.27329">
        <ele>443.79</ele>
        <time>2022-07-02T09:50:17Z</time>
      </trkpt>
      <trkpt lat="43.28179" lon="6.27365">
        <ele>440.42</ele>
        <time>2022-07-02T09:50:24Z</time>
      </trkpt>
      <trkpt lat="43.28171" lon="6.27368">
        <ele>439.94</ele>
        <time>2022-07-02T09:50:25Z</time>
      </trkpt>
      <trkpt lat="43.28163" lon="6.27369">
        <ele>438.98</ele>
        <time>2022-07-02T09:50:26Z</time>
      </trkpt>
      <trkpt lat="43.28155" lon="6.27368">
        <ele>438.5</ele>
        <time>2022-07-02T09:50:27Z</time>
      </trkpt>
      <trkpt lat="43.28148" lon="6.27364">
        <ele>438.02</ele>
        <time>2022-07-02T09:50:28Z</time>
      </trkpt>
      <trkpt lat="43.28142" lon="6.27357">
        <ele>437.54</ele>
        <time>2022-07-02T09:50:29Z</time>
      </trkpt>
      <trkpt lat="43.28136" lon="6.27348">
        <ele>437.06</ele>
        <time>2022-07-02T09:50:30Z</time>
      </trkpt>
      <trkpt lat="43.28129" lon="6.27341">
        <ele>436.58</ele>
        <time>2022-07-02T09:50:31Z</time>
      </trkpt>
      <trkpt lat="43.28122" lon="6.27336">
        <ele>436.1</ele>
        <time>2022-07-02T09:50:32Z</time>
      </trkpt>
      <trkpt lat="43.28113" lon="6.27331">
        <ele>435.13</ele>
        <time>2022-07-02T09:50:33Z</time>
      </trkpt>
      <trkpt lat="43.28094" lon="6.27323">
        <ele>434.17</ele>
        <time>2022-07-02T09:50:35Z</time>
      </trkpt>
      <trkpt lat="43.28084" lon="6.27316">
        <ele>433.21</ele>
        <time>2022-07-02T09:50:36Z</time>
      </trkpt>
      <trkpt lat="43.28075" lon="6.27309">
        <ele>432.73</ele>
        <time>2022-07-02T09:50:37Z</time>
      </trkpt>
      <trkpt lat="43.28065" lon="6.27304">
        <ele>431.77</ele>
        <time>2022-07-02T09:50:38Z</time>
      </trkpt>
      <trkpt lat="43.28054" lon="6.27301">
        <ele>430.81</ele>
        <time>2022-07-02T09:50:39Z</time>
      </trkpt>
      <trkpt lat="43.28043" lon="6.27301">
        <ele>430.33</ele>
        <time>2022-07-02T09:50:40Z</time>
      </trkpt>
      <trkpt lat="43.28032" lon="6.27303">
        <ele>429.37</ele>
        <time>2022-07-02T09:50:41Z</time>
      </trkpt>
      <trkpt lat="43.28021" lon="6.27307">
        <ele>428.4</ele>
        <time>2022-07-02T09:50:42Z</time>
      </trkpt>
      <trkpt lat="43.2801" lon="6.27312">
        <ele>426.96</ele>
        <time>2022-07-02T09:50:43Z</time>
      </trkpt>
      <trkpt lat="43.2791" lon="6.27366">
        <ele>417.35</ele>
        <time>2022-07-02T09:50:52Z</time>
      </trkpt>
      <trkpt lat="43.27893" lon="6.2738">
        <ele>415.43</ele>
        <time>2022-07-02T09:50:54Z</time>
      </trkpt>
      <trkpt lat="43.27885" lon="6.27382">
        <ele>414.95</ele>
        <time>2022-07-02T09:50:55Z</time>
      </trkpt>
      <trkpt lat="43.27878" lon="6.2738">
        <ele>413.98</ele>
        <time>2022-07-02T09:50:56Z</time>
      </trkpt>
      <trkpt lat="43.27871" lon="6.27375">
        <ele>413.5</ele>
        <time>2022-07-02T09:50:57Z</time>
      </trkpt>
      <trkpt lat="43.27867" lon="6.27367">
        <ele>413.02</ele>
        <time>2022-07-02T09:50:58Z</time>
      </trkpt>
      <trkpt lat="43.27864" lon="6.27357">
        <ele>413.02</ele>
        <time>2022-07-02T09:50:59Z</time>
      </trkpt>
      <trkpt lat="43.27863" lon="6.27346">
        <ele>412.54</ele>
        <time>2022-07-02T09:51:00Z</time>
      </trkpt>
      <trkpt lat="43.27863" lon="6.27335">
        <ele>411.58</ele>
        <time>2022-07-02T09:51:01Z</time>
      </trkpt>
      <trkpt lat="43.27863" lon="6.27322">
        <ele>411.1</ele>
        <time>2022-07-02T09:51:02Z</time>
      </trkpt>
      <trkpt lat="43.27867" lon="6.27271">
        <ele>407.74</ele>
        <time>2022-07-02T09:51:06Z</time>
      </trkpt>
      <trkpt lat="43.27907" lon="6.27135">
        <ele>399.08</ele>
        <time>2022-07-02T09:51:16Z</time>
      </trkpt>
      <trkpt lat="43.27914" lon="6.27107">
        <ele>397.16</ele>
        <time>2022-07-02T09:51:18Z</time>
      </trkpt>
      <trkpt lat="43.27915" lon="6.27093">
        <ele>396.2</ele>
        <time>2022-07-02T09:51:19Z</time>
      </trkpt>
      <trkpt lat="43.27914" lon="6.2708">
        <ele>395.24</ele>
        <time>2022-07-02T09:51:20Z</time>
      </trkpt>
      <trkpt lat="43.2791" lon="6.27055">
        <ele>392.84</ele>
        <time>2022-07-02T09:51:22Z</time>
      </trkpt>
      <trkpt lat="43.27911" lon="6.27042">
        <ele>391.39</ele>
        <time>2022-07-02T09:51:23Z</time>
      </trkpt>
      <trkpt lat="43.27915" lon="6.27031">
        <ele>391.39</ele>
        <time>2022-07-02T09:51:24Z</time>
      </trkpt>
      <trkpt lat="43.27922" lon="6.27024">
        <ele>390.91</ele>
        <time>2022-07-02T09:51:25Z</time>
      </trkpt>
      <trkpt lat="43.27929" lon="6.27017">
        <ele>389.95</ele>
        <time>2022-07-02T09:51:26Z</time>
      </trkpt>
      <trkpt lat="43.27936" lon="6.27009">
        <ele>389.47</ele>
        <time>2022-07-02T09:51:27Z</time>
      </trkpt>
      <trkpt lat="43.27942" lon="6.26999">
        <ele>388.99</ele>
        <time>2022-07-02T09:51:28Z</time>
      </trkpt>
      <trkpt lat="43.27946" lon="6.26988">
        <ele>388.03</ele>
        <time>2022-07-02T09:51:29Z</time>
      </trkpt>
      <trkpt lat="43.27951" lon="6.26976">
        <ele>387.55</ele>
        <time>2022-07-02T09:51:30Z</time>
      </trkpt>
      <trkpt lat="43.27953" lon="6.26964">
        <ele>386.59</ele>
        <time>2022-07-02T09:51:31Z</time>
      </trkpt>
      <trkpt lat="43.27953" lon="6.26951">
        <ele>385.63</ele>
        <time>2022-07-02T09:51:32Z</time>
      </trkpt>
      <trkpt lat="43.27951" lon="6.26938">
        <ele>384.18</ele>
        <time>2022-07-02T09:51:33Z</time>
      </trkpt>
      <trkpt lat="43.27949" lon="6.26925">
        <ele>383.7</ele>
        <time>2022-07-02T09:51:34Z</time>
      </trkpt>
      <trkpt lat="43.27952" lon="6.26912">
        <ele>384.18</ele>
        <time>2022-07-02T09:51:35Z</time>
      </trkpt>
      <trkpt lat="43.27955" lon="6.269">
        <ele>383.22</ele>
        <time>2022-07-02T09:51:36Z</time>
      </trkpt>
      <trkpt lat="43.2796" lon="6.26889">
        <ele>383.22</ele>
        <time>2022-07-02T09:51:37Z</time>
      </trkpt>
      <trkpt lat="43.27967" lon="6.2688">
        <ele>382.26</ele>
        <time>2022-07-02T09:51:38Z</time>
      </trkpt>
      <trkpt lat="43.27975" lon="6.26872">
        <ele>381.3</ele>
        <time>2022-07-02T09:51:39Z</time>
      </trkpt>
      <trkpt lat="43.27983" lon="6.26864">
        <ele>380.34</ele>
        <time>2022-07-02T09:51:40Z</time>
      </trkpt>
      <trkpt lat="43.27992" lon="6.26856">
        <ele>379.38</ele>
        <time>2022-07-02T09:51:41Z</time>
      </trkpt>
      <trkpt lat="43.28008" lon="6.26836">
        <ele>377.45</ele>
        <time>2022-07-02T09:51:43Z</time>
      </trkpt>
      <trkpt lat="43.28014" lon="6.26824">
        <ele>376.49</ele>
        <time>2022-07-02T09:51:44Z</time>
      </trkpt>
      <trkpt lat="43.28021" lon="6.26812">
        <ele>375.53</ele>
        <time>2022-07-02T09:51:45Z</time>
      </trkpt>
      <trkpt lat="43.28046" lon="6.26749">
        <ele>370.24</ele>
        <time>2022-07-02T09:51:50Z</time>
      </trkpt>
      <trkpt lat="43.28047" lon="6.26738">
        <ele>369.76</ele>
        <time>2022-07-02T09:51:51Z</time>
      </trkpt>
      <trkpt lat="43.28045" lon="6.26729">
        <ele>368.8</ele>
        <time>2022-07-02T09:51:52Z</time>
      </trkpt>
      <trkpt lat="43.28039" lon="6.26723">
        <ele>367.36</ele>
        <time>2022-07-02T09:51:53Z</time>
      </trkpt>
      <trkpt lat="43.28032" lon="6.2672">
        <ele>366.4</ele>
        <time>2022-07-02T09:51:54Z</time>
      </trkpt>
      <trkpt lat="43.28024" lon="6.26719">
        <ele>365.44</ele>
        <time>2022-07-02T09:51:55Z</time>
      </trkpt>
      <trkpt lat="43.28016" lon="6.26719">
        <ele>364.48</ele>
        <time>2022-07-02T09:51:56Z</time>
      </trkpt>
      <trkpt lat="43.2799" lon="6.2672">
        <ele>362.07</ele>
        <time>2022-07-02T09:51:59Z</time>
      </trkpt>
      <trkpt lat="43.27982" lon="6.26723">
        <ele>361.11</ele>
        <time>2022-07-02T09:52:00Z</time>
      </trkpt>
      <trkpt lat="43.27973" lon="6.26729">
        <ele>361.59</ele>
        <time>2022-07-02T09:52:01Z</time>
      </trkpt>
      <trkpt lat="43.27966" lon="6.26738">
        <ele>361.11</ele>
        <time>2022-07-02T09:52:02Z</time>
      </trkpt>
      <trkpt lat="43.2796" lon="6.26746">
        <ele>360.63</ele>
        <time>2022-07-02T09:52:03Z</time>
      </trkpt>
      <trkpt lat="43.27948" lon="6.26758">
        <ele>359.67</ele>
        <time>2022-07-02T09:52:05Z</time>
      </trkpt>
      <trkpt lat="43.27943" lon="6.2676">
        <ele>359.19</ele>
        <time>2022-07-02T09:52:06Z</time>
      </trkpt>
      <trkpt lat="43.27939" lon="6.26759">
        <ele>359.19</ele>
        <time>2022-07-02T09:52:07Z</time>
      </trkpt>
      <trkpt lat="43.2794" lon="6.26755">
        <ele>359.19</ele>
        <time>2022-07-02T09:52:08Z</time>
      </trkpt>
      <trkpt lat="43.27944" lon="6.26751">
        <ele>358.71</ele>
        <time>2022-07-02T09:52:09Z</time>
      </trkpt>
      <trkpt lat="43.27949" lon="6.26746">
        <ele>358.23</ele>
        <time>2022-07-02T09:52:10Z</time>
      </trkpt>
      <trkpt lat="43.27954" lon="6.26742">
        <ele>357.27</ele>
        <time>2022-07-02T09:52:11Z</time>
      </trkpt>
      <trkpt lat="43.2796" lon="6.26736">
        <ele>356.79</ele>
        <time>2022-07-02T09:52:12Z</time>
      </trkpt>
      <trkpt lat="43.27966" lon="6.26729">
        <ele>356.31</ele>
        <time>2022-07-02T09:52:13Z</time>
      </trkpt>
      <trkpt lat="43.27983" lon="6.26707">
        <ele>354.86</ele>
        <time>2022-07-02T09:52:16Z</time>
      </trkpt>
      <trkpt lat="43.27991" lon="6.26701">
        <ele>354.38</ele>
        <time>2022-07-02T09:52:17Z</time>
      </trkpt>
      <trkpt lat="43.27999" lon="6.26696">
        <ele>353.9</ele>
        <time>2022-07-02T09:52:18Z</time>
      </trkpt>
      <trkpt lat="43.28008" lon="6.26691">
        <ele>353.42</ele>
        <time>2022-07-02T09:52:19Z</time>
      </trkpt>
      <trkpt lat="43.28017" lon="6.26687">
        <ele>352.94</ele>
        <time>2022-07-02T09:52:20Z</time>
      </trkpt>
      <trkpt lat="43.28036" lon="6.26677">
        <ele>351.02</ele>
        <time>2022-07-02T09:52:22Z</time>
      </trkpt>
      <trkpt lat="43.28045" lon="6.26671">
        <ele>351.02</ele>
        <time>2022-07-02T09:52:23Z</time>
      </trkpt>
      <trkpt lat="43.28053" lon="6.26663">
        <ele>350.06</ele>
        <time>2022-07-02T09:52:24Z</time>
      </trkpt>
      <trkpt lat="43.28138" lon="6.26613">
        <ele>342.37</ele>
        <time>2022-07-02T09:52:33Z</time>
      </trkpt>
      <trkpt lat="43.28145" lon="6.2661">
        <ele>341.41</ele>
        <time>2022-07-02T09:52:34Z</time>
      </trkpt>
      <trkpt lat="43.28152" lon="6.26608">
        <ele>339.96</ele>
        <time>2022-07-02T09:52:35Z</time>
      </trkpt>
      <trkpt lat="43.28157" lon="6.26609">
        <ele>339</ele>
        <time>2022-07-02T09:52:36Z</time>
      </trkpt>
      <trkpt lat="43.28158" lon="6.26613">
        <ele>337.56</ele>
        <time>2022-07-02T09:52:37Z</time>
      </trkpt>
      <trkpt lat="43.28158" lon="6.2662">
        <ele>337.08</ele>
        <time>2022-07-02T09:52:38Z</time>
      </trkpt>
      <trkpt lat="43.28156" lon="6.26626">
        <ele>336.12</ele>
        <time>2022-07-02T09:52:39Z</time>
      </trkpt>
      <trkpt lat="43.28153" lon="6.26633">
        <ele>335.64</ele>
        <time>2022-07-02T09:52:40Z</time>
      </trkpt>
      <trkpt lat="43.28125" lon="6.26726">
        <ele>328.43</ele>
        <time>2022-07-02T09:52:49Z</time>
      </trkpt>
      <trkpt lat="43.28094" lon="6.26884">
        <ele>318.33</ele>
        <time>2022-07-02T09:53:00Z</time>
      </trkpt>
      <trkpt lat="43.28092" lon="6.2691">
        <ele>316.41</ele>
        <time>2022-07-02T09:53:02Z</time>
      </trkpt>
      <trkpt lat="43.28092" lon="6.2692">
        <ele>314.97</ele>
        <time>2022-07-02T09:53:03Z</time>
      </trkpt>
      <trkpt lat="43.28096" lon="6.26927">
        <ele>314.97</ele>
        <time>2022-07-02T09:53:04Z</time>
      </trkpt>
      <trkpt lat="43.281" lon="6.26931">
        <ele>314.49</ele>
        <time>2022-07-02T09:53:05Z</time>
      </trkpt>
      <trkpt lat="43.28106" lon="6.26929">
        <ele>314.49</ele>
        <time>2022-07-02T09:53:06Z</time>
      </trkpt>
      <trkpt lat="43.28111" lon="6.26922">
        <ele>314.01</ele>
        <time>2022-07-02T09:53:07Z</time>
      </trkpt>
      <trkpt lat="43.28116" lon="6.26915">
        <ele>313.53</ele>
        <time>2022-07-02T09:53:08Z</time>
      </trkpt>
      <trkpt lat="43.28121" lon="6.26909">
        <ele>313.53</ele>
        <time>2022-07-02T09:53:09Z</time>
      </trkpt>
      <trkpt lat="43.28126" lon="6.26902">
        <ele>312.57</ele>
        <time>2022-07-02T09:53:10Z</time>
      </trkpt>
      <trkpt lat="43.28149" lon="6.26869">
        <ele>311.12</ele>
        <time>2022-07-02T09:53:14Z</time>
      </trkpt>
      <trkpt lat="43.28157" lon="6.26864">
        <ele>310.16</ele>
        <time>2022-07-02T09:53:15Z</time>
      </trkpt>
      <trkpt lat="43.28163" lon="6.26857">
        <ele>310.16</ele>
        <time>2022-07-02T09:53:16Z</time>
      </trkpt>
      <trkpt lat="43.28183" lon="6.26833">
        <ele>307.76</ele>
        <time>2022-07-02T09:53:19Z</time>
      </trkpt>
      <trkpt lat="43.28188" lon="6.26822">
        <ele>306.8</ele>
        <time>2022-07-02T09:53:20Z</time>
      </trkpt>
      <trkpt lat="43.28217" lon="6.26768">
        <ele>304.39</ele>
        <time>2022-07-02T09:53:25Z</time>
      </trkpt>
      <trkpt lat="43.28225" lon="6.26759">
        <ele>303.91</ele>
        <time>2022-07-02T09:53:26Z</time>
      </trkpt>
      <trkpt lat="43.28283" lon="6.26707">
        <ele>300.07</ele>
        <time>2022-07-02T09:53:32Z</time>
      </trkpt>
      <trkpt lat="43.28333" lon="6.26667">
        <ele>295.74</ele>
        <time>2022-07-02T09:53:37Z</time>
      </trkpt>
      <trkpt lat="43.2835" lon="6.26657">
        <ele>293.82</ele>
        <time>2022-07-02T09:53:39Z</time>
      </trkpt>
      <trkpt lat="43.28356" lon="6.26648">
        <ele>292.86</ele>
        <time>2022-07-02T09:53:40Z</time>
      </trkpt>
      <trkpt lat="43.2836" lon="6.26637">
        <ele>292.38</ele>
        <time>2022-07-02T09:53:41Z</time>
      </trkpt>
      <trkpt lat="43.2837" lon="6.26615">
        <ele>290.46</ele>
        <time>2022-07-02T09:53:43Z</time>
      </trkpt>
      <trkpt lat="43.28445" lon="6.26502">
        <ele>283.73</ele>
        <time>2022-07-02T09:53:53Z</time>
      </trkpt>
      <trkpt lat="43.28501" lon="6.26431">
        <ele>277</ele>
        <time>2022-07-02T09:53:59Z</time>
      </trkpt>
      <trkpt lat="43.28543" lon="6.2637">
        <ele>272.67</ele>
        <time>2022-07-02T09:54:04Z</time>
      </trkpt>
      <trkpt lat="43.28552" lon="6.26362">
        <ele>272.19</ele>
        <time>2022-07-02T09:54:05Z</time>
      </trkpt>
      <trkpt lat="43.28559" lon="6.26354">
        <ele>271.23</ele>
        <time>2022-07-02T09:54:06Z</time>
      </trkpt>
      <trkpt lat="43.28566" lon="6.26344">
        <ele>270.75</ele>
        <time>2022-07-02T09:54:07Z</time>
      </trkpt>
      <trkpt lat="43.28568" lon="6.26332">
        <ele>269.79</ele>
        <time>2022-07-02T09:54:08Z</time>
      </trkpt>
      <trkpt lat="43.2857" lon="6.26319">
        <ele>269.31</ele>
        <time>2022-07-02T09:54:09Z</time>
      </trkpt>
      <trkpt lat="43.28572" lon="6.26306">
        <ele>268.35</ele>
        <time>2022-07-02T09:54:10Z</time>
      </trkpt>
      <trkpt lat="43.28577" lon="6.26232">
        <ele>264.5</ele>
        <time>2022-07-02T09:54:15Z</time>
      </trkpt>
      <trkpt lat="43.28575" lon="6.26217">
        <ele>263.54</ele>
        <time>2022-07-02T09:54:16Z</time>
      </trkpt>
      <trkpt lat="43.28572" lon="6.26201">
        <ele>262.58</ele>
        <time>2022-07-02T09:54:17Z</time>
      </trkpt>
      <trkpt lat="43.28544" lon="6.26046">
        <ele>254.89</ele>
        <time>2022-07-02T09:54:26Z</time>
      </trkpt>
      <trkpt lat="43.28544" lon="6.26028">
        <ele>254.41</ele>
        <time>2022-07-02T09:54:27Z</time>
      </trkpt>
      <trkpt lat="43.28545" lon="6.26011">
        <ele>252.96</ele>
        <time>2022-07-02T09:54:28Z</time>
      </trkpt>
      <trkpt lat="43.28549" lon="6.25997">
        <ele>252</ele>
        <time>2022-07-02T09:54:29Z</time>
      </trkpt>
      <trkpt lat="43.28555" lon="6.25985">
        <ele>250.56</ele>
        <time>2022-07-02T09:54:30Z</time>
      </trkpt>
      <trkpt lat="43.28563" lon="6.25977">
        <ele>250.08</ele>
        <time>2022-07-02T09:54:31Z</time>
      </trkpt>
      <trkpt lat="43.28572" lon="6.25968">
        <ele>248.64</ele>
        <time>2022-07-02T09:54:32Z</time>
      </trkpt>
      <trkpt lat="43.28579" lon="6.25957">
        <ele>248.16</ele>
        <time>2022-07-02T09:54:33Z</time>
      </trkpt>
      <trkpt lat="43.28585" lon="6.25943">
        <ele>246.72</ele>
        <time>2022-07-02T09:54:34Z</time>
      </trkpt>
      <trkpt lat="43.28589" lon="6.25929">
        <ele>245.75</ele>
        <time>2022-07-02T09:54:35Z</time>
      </trkpt>
      <trkpt lat="43.28596" lon="6.25916">
        <ele>244.79</ele>
        <time>2022-07-02T09:54:36Z</time>
      </trkpt>
      <trkpt lat="43.28603" lon="6.25904">
        <ele>243.35</ele>
        <time>2022-07-02T09:54:37Z</time>
      </trkpt>
      <trkpt lat="43.28612" lon="6.25895">
        <ele>242.39</ele>
        <time>2022-07-02T09:54:38Z</time>
      </trkpt>
      <trkpt lat="43.28623" lon="6.25888">
        <ele>240.95</ele>
        <time>2022-07-02T09:54:39Z</time>
      </trkpt>
      <trkpt lat="43.28634" lon="6.25883">
        <ele>239.02</ele>
        <time>2022-07-02T09:54:40Z</time>
      </trkpt>
      <trkpt lat="43.28645" lon="6.25877">
        <ele>237.58</ele>
        <time>2022-07-02T09:54:41Z</time>
      </trkpt>
      <trkpt lat="43.28655" lon="6.25868">
        <ele>236.62</ele>
        <time>2022-07-02T09:54:42Z</time>
      </trkpt>
      <trkpt lat="43.28665" lon="6.2586">
        <ele>235.66</ele>
        <time>2022-07-02T09:54:43Z</time>
      </trkpt>
      <trkpt lat="43.28675" lon="6.25855">
        <ele>234.7</ele>
        <time>2022-07-02T09:54:44Z</time>
      </trkpt>
      <trkpt lat="43.28685" lon="6.25857">
        <ele>233.74</ele>
        <time>2022-07-02T09:54:45Z</time>
      </trkpt>
      <trkpt lat="43.28695" lon="6.2586">
        <ele>232.78</ele>
        <time>2022-07-02T09:54:46Z</time>
      </trkpt>
      <trkpt lat="43.28704" lon="6.25864">
        <ele>231.81</ele>
        <time>2022-07-02T09:54:47Z</time>
      </trkpt>
      <trkpt lat="43.28711" lon="6.25863">
        <ele>231.33</ele>
        <time>2022-07-02T09:54:48Z</time>
      </trkpt>
      <trkpt lat="43.28718" lon="6.25858">
        <ele>230.37</ele>
        <time>2022-07-02T09:54:49Z</time>
      </trkpt>
      <trkpt lat="43.28722" lon="6.25848">
        <ele>229.89</ele>
        <time>2022-07-02T09:54:50Z</time>
      </trkpt>
      <trkpt lat="43.28725" lon="6.25838">
        <ele>228.93</ele>
        <time>2022-07-02T09:54:51Z</time>
      </trkpt>
      <trkpt lat="43.28728" lon="6.25828">
        <ele>227.97</ele>
        <time>2022-07-02T09:54:52Z</time>
      </trkpt>
      <trkpt lat="43.28731" lon="6.25819">
        <ele>227.49</ele>
        <time>2022-07-02T09:54:53Z</time>
      </trkpt>
      <trkpt lat="43.28735" lon="6.25811">
        <ele>227.01</ele>
        <time>2022-07-02T09:54:54Z</time>
      </trkpt>
      <trkpt lat="43.2874" lon="6.25804">
        <ele>226.53</ele>
        <time>2022-07-02T09:54:55Z</time>
      </trkpt>
      <trkpt lat="43.28746" lon="6.25796">
        <ele>226.05</ele>
        <time>2022-07-02T09:54:56Z</time>
      </trkpt>
      <trkpt lat="43.28752" lon="6.25789">
        <ele>225.57</ele>
        <time>2022-07-02T09:54:57Z</time>
      </trkpt>
      <trkpt lat="43.28758" lon="6.25781">
        <ele>225.09</ele>
        <time>2022-07-02T09:54:58Z</time>
      </trkpt>
      <trkpt lat="43.28765" lon="6.25774">
        <ele>224.12</ele>
        <time>2022-07-02T09:54:59Z</time>
      </trkpt>
      <trkpt lat="43.28795" lon="6.25746">
        <ele>222.2</ele>
        <time>2022-07-02T09:55:03Z</time>
      </trkpt>
      <trkpt lat="43.28803" lon="6.25741">
        <ele>221.24</ele>
        <time>2022-07-02T09:55:04Z</time>
      </trkpt>
      <trkpt lat="43.28812" lon="6.25738">
        <ele>220.28</ele>
        <time>2022-07-02T09:55:05Z</time>
      </trkpt>
      <trkpt lat="43.28822" lon="6.25734">
        <ele>219.8</ele>
        <time>2022-07-02T09:55:06Z</time>
      </trkpt>
      <trkpt lat="43.28829" lon="6.25726">
        <ele>218.84</ele>
        <time>2022-07-02T09:55:07Z</time>
      </trkpt>
      <trkpt lat="43.28834" lon="6.25716">
        <ele>218.36</ele>
        <time>2022-07-02T09:55:08Z</time>
      </trkpt>
      <trkpt lat="43.28837" lon="6.25703">
        <ele>217.4</ele>
        <time>2022-07-02T09:55:09Z</time>
      </trkpt>
      <trkpt lat="43.2884" lon="6.25691">
        <ele>216.43</ele>
        <time>2022-07-02T09:55:10Z</time>
      </trkpt>
      <trkpt lat="43.28845" lon="6.25679">
        <ele>216.43</ele>
        <time>2022-07-02T09:55:11Z</time>
      </trkpt>
      <trkpt lat="43.28851" lon="6.25669">
        <ele>216.43</ele>
        <time>2022-07-02T09:55:12Z</time>
      </trkpt>
      <trkpt lat="43.28858" lon="6.25659">
        <ele>215.95</ele>
        <time>2022-07-02T09:55:13Z</time>
      </trkpt>
      <trkpt lat="43.28866" lon="6.2565">
        <ele>215.47</ele>
        <time>2022-07-02T09:55:14Z</time>
      </trkpt>
      <trkpt lat="43.2888" lon="6.25631">
        <ele>214.51</ele>
        <time>2022-07-02T09:55:16Z</time>
      </trkpt>
      <trkpt lat="43.28886" lon="6.2562">
        <ele>214.03</ele>
        <time>2022-07-02T09:55:17Z</time>
      </trkpt>
      <trkpt lat="43.28912" lon="6.25579">
        <ele>211.63</ele>
        <time>2022-07-02T09:55:21Z</time>
      </trkpt>
      <trkpt lat="43.28967" lon="6.25506">
        <ele>206.34</ele>
        <time>2022-07-02T09:55:28Z</time>
      </trkpt>
      <trkpt lat="43.28985" lon="6.25469">
        <ele>203.94</ele>
        <time>2022-07-02T09:55:31Z</time>
      </trkpt>
      <trkpt lat="43.29005" lon="6.25434">
        <ele>201.53</ele>
        <time>2022-07-02T09:55:34Z</time>
      </trkpt>
      <trkpt lat="43.29013" lon="6.25425">
        <ele>200.57</ele>
        <time>2022-07-02T09:55:35Z</time>
      </trkpt>
      <trkpt lat="43.29021" lon="6.25417">
        <ele>199.61</ele>
        <time>2022-07-02T09:55:36Z</time>
      </trkpt>
      <trkpt lat="43.29029" lon="6.25409">
        <ele>199.61</ele>
        <time>2022-07-02T09:55:37Z</time>
      </trkpt>
      <trkpt lat="43.29037" lon="6.25402">
        <ele>198.65</ele>
        <time>2022-07-02T09:55:38Z</time>
      </trkpt>
      <trkpt lat="43.29057" lon="6.25379">
        <ele>198.17</ele>
        <time>2022-07-02T09:55:41Z</time>
      </trkpt>
      <trkpt lat="43.29063" lon="6.2537">
        <ele>198.17</ele>
        <time>2022-07-02T09:55:42Z</time>
      </trkpt>
      <trkpt lat="43.29125" lon="6.25236">
        <ele>192.4</ele>
        <time>2022-07-02T09:55:56Z</time>
      </trkpt>
      <trkpt lat="43.2915" lon="6.25137">
        <ele>190</ele>
        <time>2022-07-02T09:56:05Z</time>
      </trkpt>
      <trkpt lat="43.29156" lon="6.25128">
        <ele>190</ele>
        <time>2022-07-02T09:56:06Z</time>
      </trkpt>
      <trkpt lat="43.29161" lon="6.2512">
        <ele>190</ele>
        <time>2022-07-02T09:56:07Z</time>
      </trkpt>
      <trkpt lat="43.29168" lon="6.25113">
        <ele>190</ele>
        <time>2022-07-02T09:56:08Z</time>
      </trkpt>
      <trkpt lat="43.29174" lon="6.25106">
        <ele>190</ele>
        <time>2022-07-02T09:56:09Z</time>
      </trkpt>
      <trkpt lat="43.2926" lon="6.25029">
        <ele>188.56</ele>
        <time>2022-07-02T09:56:22Z</time>
      </trkpt>
      <trkpt lat="43.29336" lon="6.24945">
        <ele>185.67</ele>
        <time>2022-07-02T09:56:34Z</time>
      </trkpt>
      <trkpt lat="43.29341" lon="6.24935">
        <ele>185.67</ele>
        <time>2022-07-02T09:56:35Z</time>
      </trkpt>
      <trkpt lat="43.29395" lon="6.24846">
        <ele>183.75</ele>
        <time>2022-07-02T09:56:45Z</time>
      </trkpt>
      <trkpt lat="43.29401" lon="6.24838">
        <ele>183.27</ele>
        <time>2022-07-02T09:56:46Z</time>
      </trkpt>
      <trkpt lat="43.29407" lon="6.24829">
        <ele>183.27</ele>
        <time>2022-07-02T09:56:47Z</time>
      </trkpt>
      <trkpt lat="43.29459" lon="6.24754">
        <ele>181.83</ele>
        <time>2022-07-02T09:56:56Z</time>
      </trkpt>
      <trkpt lat="43.29467" lon="6.24748">
        <ele>181.83</ele>
        <time>2022-07-02T09:56:57Z</time>
      </trkpt>
      <trkpt lat="43.29502" lon="6.24718">
        <ele>180.38</ele>
        <time>2022-07-02T09:57:02Z</time>
      </trkpt>
      <trkpt lat="43.29507" lon="6.24709">
        <ele>179.9</ele>
        <time>2022-07-02T09:57:03Z</time>
      </trkpt>
      <trkpt lat="43.29512" lon="6.247">
        <ele>179.9</ele>
        <time>2022-07-02T09:57:04Z</time>
      </trkpt>
      <trkpt lat="43.29514" lon="6.2469">
        <ele>179.42</ele>
        <time>2022-07-02T09:57:05Z</time>
      </trkpt>
      <trkpt lat="43.29516" lon="6.24679">
        <ele>179.42</ele>
        <time>2022-07-02T09:57:06Z</time>
      </trkpt>
      <trkpt lat="43.29517" lon="6.24668">
        <ele>179.42</ele>
        <time>2022-07-02T09:57:07Z</time>
      </trkpt>
      <trkpt lat="43.29541" lon="6.24544">
        <ele>178.46</ele>
        <time>2022-07-02T09:57:19Z</time>
      </trkpt>
      <trkpt lat="43.29544" lon="6.245">
        <ele>177.5</ele>
        <time>2022-07-02T09:57:23Z</time>
      </trkpt>
      <trkpt lat="43.29543" lon="6.24489">
        <ele>177.5</ele>
        <time>2022-07-02T09:57:24Z</time>
      </trkpt>
      <trkpt lat="43.29542" lon="6.24365">
        <ele>176.54</ele>
        <time>2022-07-02T09:57:36Z</time>
      </trkpt>
      <trkpt lat="43.29539" lon="6.24253">
        <ele>177.02</ele>
        <time>2022-07-02T09:57:47Z</time>
      </trkpt>
      <trkpt lat="43.29522" lon="6.24089">
        <ele>173.17</ele>
        <time>2022-07-02T09:58:02Z</time>
      </trkpt>
      <trkpt lat="43.29514" lon="6.24056">
        <ele>173.66</ele>
        <time>2022-07-02T09:58:05Z</time>
      </trkpt>
      <trkpt lat="43.29487" lon="6.23984">
        <ele>172.69</ele>
        <time>2022-07-02T09:58:12Z</time>
      </trkpt>
      <trkpt lat="43.29484" lon="6.23972">
        <ele>172.69</ele>
        <time>2022-07-02T09:58:13Z</time>
      </trkpt>
      <trkpt lat="43.29483" lon="6.2396">
        <ele>172.21</ele>
        <time>2022-07-02T09:58:14Z</time>
      </trkpt>
      <trkpt lat="43.29483" lon="6.23948">
        <ele>172.21</ele>
        <time>2022-07-02T09:58:15Z</time>
      </trkpt>
      <trkpt lat="43.29484" lon="6.23935">
        <ele>172.21</ele>
        <time>2022-07-02T09:58:16Z</time>
      </trkpt>
      <trkpt lat="43.29486" lon="6.23923">
        <ele>172.21</ele>
        <time>2022-07-02T09:58:17Z</time>
      </trkpt>
      <trkpt lat="43.295" lon="6.23769">
        <ele>167.89</ele>
        <time>2022-07-02T09:58:30Z</time>
      </trkpt>
      <trkpt lat="43.29511" lon="6.23642">
        <ele>167.41</ele>
        <time>2022-07-02T09:58:41Z</time>
      </trkpt>
      <trkpt lat="43.29478" lon="6.23456">
        <ele>165</ele>
        <time>2022-07-02T09:58:59Z</time>
      </trkpt>
      <trkpt lat="43.2945" lon="6.23356">
        <ele>163.08</ele>
        <time>2022-07-02T09:59:09Z</time>
      </trkpt>
      <trkpt lat="43.29449" lon="6.23345">
        <ele>162.6</ele>
        <time>2022-07-02T09:59:10Z</time>
      </trkpt>
      <trkpt lat="43.2945" lon="6.23334">
        <ele>162.6</ele>
        <time>2022-07-02T09:59:11Z</time>
      </trkpt>
      <trkpt lat="43.29451" lon="6.23323">
        <ele>162.6</ele>
        <time>2022-07-02T09:59:12Z</time>
      </trkpt>
      <trkpt lat="43.29452" lon="6.23312">
        <ele>162.6</ele>
        <time>2022-07-02T09:59:13Z</time>
      </trkpt>
      <trkpt lat="43.29454" lon="6.23301">
        <ele>162.6</ele>
        <time>2022-07-02T09:59:14Z</time>
      </trkpt>
      <trkpt lat="43.29457" lon="6.23291">
        <ele>162.6</ele>
        <time>2022-07-02T09:59:15Z</time>
      </trkpt>
      <trkpt lat="43.29461" lon="6.23281">
        <ele>162.6</ele>
        <time>2022-07-02T09:59:16Z</time>
      </trkpt>
      <trkpt lat="43.29465" lon="6.23272">
        <ele>162.12</ele>
        <time>2022-07-02T09:59:17Z</time>
      </trkpt>
      <trkpt lat="43.29471" lon="6.23263">
        <ele>161.64</ele>
        <time>2022-07-02T09:59:18Z</time>
      </trkpt>
      <trkpt lat="43.29524" lon="6.2315">
        <ele>162.12</ele>
        <time>2022-07-02T09:59:31Z</time>
      </trkpt>
      <trkpt lat="43.29563" lon="6.23059">
        <ele>162.6</ele>
        <time>2022-07-02T09:59:43Z</time>
      </trkpt>
      <trkpt lat="43.29568" lon="6.23055">
        <ele>162.6</ele>
        <time>2022-07-02T09:59:44Z</time>
      </trkpt>
      <trkpt lat="43.29673" lon="6.22974">
        <ele>162.12</ele>
        <time>2022-07-02T10:00:03Z</time>
      </trkpt>
      <trkpt lat="43.29704" lon="6.22945">
        <ele>162.12</ele>
        <time>2022-07-02T10:00:09Z</time>
      </trkpt>
      <trkpt lat="43.29794" lon="6.22892">
        <ele>163.08</ele>
        <time>2022-07-02T10:00:25Z</time>
      </trkpt>
      <trkpt lat="43.29881" lon="6.22866">
        <ele>163.56</ele>
        <time>2022-07-02T10:00:40Z</time>
      </trkpt>
      <trkpt lat="43.29886" lon="6.22864">
        <ele>163.56</ele>
        <time>2022-07-02T10:00:41Z</time>
      </trkpt>
      <trkpt lat="43.29889" lon="6.22859">
        <ele>163.56</ele>
        <time>2022-07-02T10:00:42Z</time>
      </trkpt>
      <trkpt lat="43.29892" lon="6.22853">
        <ele>163.56</ele>
        <time>2022-07-02T10:00:43Z</time>
      </trkpt>
      <trkpt lat="43.29892" lon="6.22847">
        <ele>163.56</ele>
        <time>2022-07-02T10:00:44Z</time>
      </trkpt>
      <trkpt lat="43.29892" lon="6.2284">
        <ele>163.56</ele>
        <time>2022-07-02T10:00:45Z</time>
      </trkpt>
      <trkpt lat="43.2989" lon="6.22832">
        <ele>164.04</ele>
        <time>2022-07-02T10:00:46Z</time>
      </trkpt>
      <trkpt lat="43.29878" lon="6.22713">
        <ele>165.96</ele>
        <time>2022-07-02T10:01:02Z</time>
      </trkpt>
      <trkpt lat="43.29874" lon="6.22692">
        <ele>165.96</ele>
        <time>2022-07-02T10:01:05Z</time>
      </trkpt>
      <trkpt lat="43.29872" lon="6.22685">
        <ele>165.96</ele>
        <time>2022-07-02T10:01:06Z</time>
      </trkpt>
      <trkpt lat="43.29869" lon="6.22678">
        <ele>165.96</ele>
        <time>2022-07-02T10:01:07Z</time>
      </trkpt>
      <trkpt lat="43.29866" lon="6.22672">
        <ele>165.96</ele>
        <time>2022-07-02T10:01:08Z</time>
      </trkpt>
      <trkpt lat="43.29863" lon="6.22665">
        <ele>165.96</ele>
        <time>2022-07-02T10:01:09Z</time>
      </trkpt>
      <trkpt lat="43.29859" lon="6.2266">
        <ele>165.96</ele>
        <time>2022-07-02T10:01:10Z</time>
      </trkpt>
      <trkpt lat="43.29855" lon="6.22654">
        <ele>165.96</ele>
        <time>2022-07-02T10:01:11Z</time>
      </trkpt>
      <trkpt lat="43.2985" lon="6.22649">
        <ele>166.93</ele>
        <time>2022-07-02T10:01:12Z</time>
      </trkpt>
      <trkpt lat="43.29845" lon="6.22644">
        <ele>167.41</ele>
        <time>2022-07-02T10:01:13Z</time>
      </trkpt>
      <trkpt lat="43.29811" lon="6.22613">
        <ele>168.37</ele>
        <time>2022-07-02T10:01:20Z</time>
      </trkpt>
      <trkpt lat="43.29805" lon="6.2261">
        <ele>168.37</ele>
        <time>2022-07-02T10:01:21Z</time>
      </trkpt>
      <trkpt lat="43.29799" lon="6.22607">
        <ele>168.37</ele>
        <time>2022-07-02T10:01:22Z</time>
      </trkpt>
      <trkpt lat="43.29793" lon="6.22607">
        <ele>168.37</ele>
        <time>2022-07-02T10:01:23Z</time>
      </trkpt>
      <trkpt lat="43.29787" lon="6.22607">
        <ele>168.37</ele>
        <time>2022-07-02T10:01:24Z</time>
      </trkpt>
      <trkpt lat="43.2978" lon="6.22607">
        <ele>168.37</ele>
        <time>2022-07-02T10:01:25Z</time>
      </trkpt>
      <trkpt lat="43.29697" lon="6.22585">
        <ele>167.41</ele>
        <time>2022-07-02T10:01:37Z</time>
      </trkpt>
      <trkpt lat="43.2969" lon="6.22583">
        <ele>166.93</ele>
        <time>2022-07-02T10:01:38Z</time>
      </trkpt>
      <trkpt lat="43.29683" lon="6.22583">
        <ele>166.45</ele>
        <time>2022-07-02T10:01:39Z</time>
      </trkpt>
      <trkpt lat="43.29675" lon="6.22584">
        <ele>166.45</ele>
        <time>2022-07-02T10:01:40Z</time>
      </trkpt>
      <trkpt lat="43.29668" lon="6.22587">
        <ele>166.45</ele>
        <time>2022-07-02T10:01:41Z</time>
      </trkpt>
      <trkpt lat="43.29661" lon="6.22591">
        <ele>166.93</ele>
        <time>2022-07-02T10:01:42Z</time>
      </trkpt>
      <trkpt lat="43.29654" lon="6.22594">
        <ele>166.93</ele>
        <time>2022-07-02T10:01:43Z</time>
      </trkpt>
      <trkpt lat="43.29639" lon="6.226">
        <ele>166.45</ele>
        <time>2022-07-02T10:01:45Z</time>
      </trkpt>
      <trkpt lat="43.29631" lon="6.22601">
        <ele>166.45</ele>
        <time>2022-07-02T10:01:46Z</time>
      </trkpt>
      <trkpt lat="43.29623" lon="6.22599">
        <ele>166.45</ele>
        <time>2022-07-02T10:01:47Z</time>
      </trkpt>
      <trkpt lat="43.29615" lon="6.22597">
        <ele>166.45</ele>
        <time>2022-07-02T10:01:48Z</time>
      </trkpt>
      <trkpt lat="43.29608" lon="6.22595">
        <ele>166.45</ele>
        <time>2022-07-02T10:01:49Z</time>
      </trkpt>
      <trkpt lat="43.29592" lon="6.2259">
        <ele>166.45</ele>
        <time>2022-07-02T10:01:51Z</time>
      </trkpt>
      <trkpt lat="43.29583" lon="6.2259">
        <ele>165.96</ele>
        <time>2022-07-02T10:01:52Z</time>
      </trkpt>
      <trkpt lat="43.29575" lon="6.2259">
        <ele>165.96</ele>
        <time>2022-07-02T10:01:53Z</time>
      </trkpt>
      <trkpt lat="43.29567" lon="6.22592">
        <ele>165.96</ele>
        <time>2022-07-02T10:01:54Z</time>
      </trkpt>
      <trkpt lat="43.29558" lon="6.22594">
        <ele>165.96</ele>
        <time>2022-07-02T10:01:55Z</time>
      </trkpt>
      <trkpt lat="43.29512" lon="6.22609">
        <ele>165.48</ele>
        <time>2022-07-02T10:02:01Z</time>
      </trkpt>
      <trkpt lat="43.29506" lon="6.22614">
        <ele>165.96</ele>
        <time>2022-07-02T10:02:02Z</time>
      </trkpt>
      <trkpt lat="43.295" lon="6.22621">
        <ele>165.96</ele>
        <time>2022-07-02T10:02:03Z</time>
      </trkpt>
      <trkpt lat="43.29495" lon="6.22628">
        <ele>165.96</ele>
        <time>2022-07-02T10:02:04Z</time>
      </trkpt>
      <trkpt lat="43.2949" lon="6.22636">
        <ele>165.96</ele>
        <time>2022-07-02T10:02:05Z</time>
      </trkpt>
      <trkpt lat="43.29485" lon="6.22644">
        <ele>165.48</ele>
        <time>2022-07-02T10:02:06Z</time>
      </trkpt>
      <trkpt lat="43.29479" lon="6.2265">
        <ele>165.48</ele>
        <time>2022-07-02T10:02:07Z</time>
      </trkpt>
      <trkpt lat="43.29472" lon="6.22653">
        <ele>165.48</ele>
        <time>2022-07-02T10:02:08Z</time>
      </trkpt>
      <trkpt lat="43.29466" lon="6.22651">
        <ele>165.48</ele>
        <time>2022-07-02T10:02:09Z</time>
      </trkpt>
      <trkpt lat="43.29459" lon="6.22648">
        <ele>165.48</ele>
        <time>2022-07-02T10:02:10Z</time>
      </trkpt>
      <trkpt lat="43.29386" lon="6.22584">
        <ele>164.52</ele>
        <time>2022-07-02T10:02:22Z</time>
      </trkpt>
      <trkpt lat="43.29378" lon="6.22569">
        <ele>164.52</ele>
        <time>2022-07-02T10:02:24Z</time>
      </trkpt>
      <trkpt lat="43.29376" lon="6.2256">
        <ele>164.52</ele>
        <time>2022-07-02T10:02:25Z</time>
      </trkpt>
      <trkpt lat="43.29374" lon="6.22551">
        <ele>164.52</ele>
        <time>2022-07-02T10:02:26Z</time>
      </trkpt>
      <trkpt lat="43.29373" lon="6.22541">
        <ele>164.52</ele>
        <time>2022-07-02T10:02:27Z</time>
      </trkpt>
      <trkpt lat="43.29373" lon="6.22532">
        <ele>164.52</ele>
        <time>2022-07-02T10:02:28Z</time>
      </trkpt>
      <trkpt lat="43.29369" lon="6.22439">
        <ele>165.48</ele>
        <time>2022-07-02T10:02:38Z</time>
      </trkpt>
      <trkpt lat="43.29362" lon="6.22296">
        <ele>165.48</ele>
        <time>2022-07-02T10:02:53Z</time>
      </trkpt>
      <trkpt lat="43.29322" lon="6.22171">
        <ele>165.96</ele>
        <time>2022-07-02T10:03:07Z</time>
      </trkpt>
      <trkpt lat="43.29253" lon="6.22001">
        <ele>164.04</ele>
        <time>2022-07-02T10:03:26Z</time>
      </trkpt>
      <trkpt lat="43.29206" lon="6.21894">
        <ele>165</ele>
        <time>2022-07-02T10:03:39Z</time>
      </trkpt>
      <trkpt lat="43.292" lon="6.21888">
        <ele>165.48</ele>
        <time>2022-07-02T10:03:40Z</time>
      </trkpt>
      <trkpt lat="43.29194" lon="6.21883">
        <ele>165.48</ele>
        <time>2022-07-02T10:03:41Z</time>
      </trkpt>
      <trkpt lat="43.29186" lon="6.21879">
        <ele>165.48</ele>
        <time>2022-07-02T10:03:42Z</time>
      </trkpt>
      <trkpt lat="43.29179" lon="6.21875">
        <ele>165.48</ele>
        <time>2022-07-02T10:03:43Z</time>
      </trkpt>
      <trkpt lat="43.29163" lon="6.21867">
        <ele>165.48</ele>
        <time>2022-07-02T10:03:45Z</time>
      </trkpt>
      <trkpt lat="43.29077" lon="6.21791">
        <ele>163.08</ele>
        <time>2022-07-02T10:03:56Z</time>
      </trkpt>
      <trkpt lat="43.29068" lon="6.21786">
        <ele>163.08</ele>
        <time>2022-07-02T10:03:57Z</time>
      </trkpt>
      <trkpt lat="43.2906" lon="6.21782">
        <ele>163.56</ele>
        <time>2022-07-02T10:03:58Z</time>
      </trkpt>
      <trkpt lat="43.28945" lon="6.21739">
        <ele>161.64</ele>
        <time>2022-07-02T10:04:11Z</time>
      </trkpt>
      <trkpt lat="43.28936" lon="6.21735">
        <ele>161.64</ele>
        <time>2022-07-02T10:04:12Z</time>
      </trkpt>
      <trkpt lat="43.288" lon="6.2169">
        <ele>158.27</ele>
        <time>2022-07-02T10:04:26Z</time>
      </trkpt>
      <trkpt lat="43.2879" lon="6.21688">
        <ele>157.79</ele>
        <time>2022-07-02T10:04:27Z</time>
      </trkpt>
      <trkpt lat="43.28782" lon="6.21689">
        <ele>156.83</ele>
        <time>2022-07-02T10:04:28Z</time>
      </trkpt>
      <trkpt lat="43.28773" lon="6.21692">
        <ele>156.83</ele>
        <time>2022-07-02T10:04:29Z</time>
      </trkpt>
      <trkpt lat="43.28765" lon="6.21694">
        <ele>156.83</ele>
        <time>2022-07-02T10:04:30Z</time>
      </trkpt>
      <trkpt lat="43.28756" lon="6.21693">
        <ele>156.35</ele>
        <time>2022-07-02T10:04:31Z</time>
      </trkpt>
      <trkpt lat="43.28749" lon="6.21688">
        <ele>156.35</ele>
        <time>2022-07-02T10:04:32Z</time>
      </trkpt>
      <trkpt lat="43.28742" lon="6.21682">
        <ele>156.35</ele>
        <time>2022-07-02T10:04:33Z</time>
      </trkpt>
      <trkpt lat="43.28734" lon="6.21679">
        <ele>155.87</ele>
        <time>2022-07-02T10:04:34Z</time>
      </trkpt>
      <trkpt lat="43.28728" lon="6.21681">
        <ele>155.87</ele>
        <time>2022-07-02T10:04:35Z</time>
      </trkpt>
      <trkpt lat="43.28722" lon="6.21683">
        <ele>156.35</ele>
        <time>2022-07-02T10:04:36Z</time>
      </trkpt>
      <trkpt lat="43.28717" lon="6.21687">
        <ele>156.35</ele>
        <time>2022-07-02T10:04:37Z</time>
      </trkpt>
      <trkpt lat="43.28711" lon="6.21689">
        <ele>156.35</ele>
        <time>2022-07-02T10:04:38Z</time>
      </trkpt>
      <trkpt lat="43.28706" lon="6.21691">
        <ele>156.83</ele>
        <time>2022-07-02T10:04:39Z</time>
      </trkpt>
      <trkpt lat="43.287" lon="6.21694">
        <ele>156.83</ele>
        <time>2022-07-02T10:04:40Z</time>
      </trkpt>
      <trkpt lat="43.28693" lon="6.21696">
        <ele>156.83</ele>
        <time>2022-07-02T10:04:41Z</time>
      </trkpt>
      <trkpt lat="43.28677" lon="6.21695">
        <ele>157.31</ele>
        <time>2022-07-02T10:04:44Z</time>
      </trkpt>
      <trkpt lat="43.28672" lon="6.21693">
        <ele>157.31</ele>
        <time>2022-07-02T10:04:45Z</time>
      </trkpt>
      <trkpt lat="43.28668" lon="6.21689">
        <ele>157.31</ele>
        <time>2022-07-02T10:04:46Z</time>
      </trkpt>
      <trkpt lat="43.28663" lon="6.21685">
        <ele>157.31</ele>
        <time>2022-07-02T10:04:47Z</time>
      </trkpt>
      <trkpt lat="43.28659" lon="6.2168">
        <ele>157.31</ele>
        <time>2022-07-02T10:04:48Z</time>
      </trkpt>
      <trkpt lat="43.28655" lon="6.21676">
        <ele>157.31</ele>
        <time>2022-07-02T10:04:49Z</time>
      </trkpt>
      <trkpt lat="43.28651" lon="6.2167">
        <ele>157.79</ele>
        <time>2022-07-02T10:04:50Z</time>
      </trkpt>
      <trkpt lat="43.28647" lon="6.21663">
        <ele>157.79</ele>
        <time>2022-07-02T10:04:51Z</time>
      </trkpt>
      <trkpt lat="43.28643" lon="6.21656">
        <ele>157.79</ele>
        <time>2022-07-02T10:04:52Z</time>
      </trkpt>
      <trkpt lat="43.28609" lon="6.21607">
        <ele>157.31</ele>
        <time>2022-07-02T10:04:59Z</time>
      </trkpt>
      <trkpt lat="43.28603" lon="6.21601">
        <ele>157.31</ele>
        <time>2022-07-02T10:05:00Z</time>
      </trkpt>
      <trkpt lat="43.28597" lon="6.21595">
        <ele>156.83</ele>
        <time>2022-07-02T10:05:01Z</time>
      </trkpt>
      <trkpt lat="43.2859" lon="6.21591">
        <ele>156.83</ele>
        <time>2022-07-02T10:05:02Z</time>
      </trkpt>
      <trkpt lat="43.28582" lon="6.21588">
        <ele>156.83</ele>
        <time>2022-07-02T10:05:03Z</time>
      </trkpt>
      <trkpt lat="43.28494" lon="6.21532">
        <ele>154.91</ele>
        <time>2022-07-02T10:05:14Z</time>
      </trkpt>
      <trkpt lat="43.28479" lon="6.21519">
        <ele>154.43</ele>
        <time>2022-07-02T10:05:16Z</time>
      </trkpt>
      <trkpt lat="43.28472" lon="6.21511">
        <ele>153.95</ele>
        <time>2022-07-02T10:05:17Z</time>
      </trkpt>
      <trkpt lat="43.28428" lon="6.21449">
        <ele>152.51</ele>
        <time>2022-07-02T10:05:24Z</time>
      </trkpt>
      <trkpt lat="43.28421" lon="6.21442">
        <ele>152.51</ele>
        <time>2022-07-02T10:05:25Z</time>
      </trkpt>
      <trkpt lat="43.28414" lon="6.21435">
        <ele>152.51</ele>
        <time>2022-07-02T10:05:26Z</time>
      </trkpt>
      <trkpt lat="43.28405" lon="6.2143">
        <ele>152.03</ele>
        <time>2022-07-02T10:05:27Z</time>
      </trkpt>
      <trkpt lat="43.28396" lon="6.21425">
        <ele>152.03</ele>
        <time>2022-07-02T10:05:28Z</time>
      </trkpt>
      <trkpt lat="43.28378" lon="6.21414">
        <ele>152.03</ele>
        <time>2022-07-02T10:05:30Z</time>
      </trkpt>
      <trkpt lat="43.28283" lon="6.21365">
        <ele>150.1</ele>
        <time>2022-07-02T10:05:41Z</time>
      </trkpt>
      <trkpt lat="43.28275" lon="6.21363">
        <ele>150.1</ele>
        <time>2022-07-02T10:05:42Z</time>
      </trkpt>
      <trkpt lat="43.28265" lon="6.21364">
        <ele>149.62</ele>
        <time>2022-07-02T10:05:43Z</time>
      </trkpt>
      <trkpt lat="43.28237" lon="6.21367">
        <ele>149.14</ele>
        <time>2022-07-02T10:05:46Z</time>
      </trkpt>
      <trkpt lat="43.28227" lon="6.21366">
        <ele>148.66</ele>
        <time>2022-07-02T10:05:47Z</time>
      </trkpt>
      <trkpt lat="43.28218" lon="6.21363">
        <ele>148.18</ele>
        <time>2022-07-02T10:05:48Z</time>
      </trkpt>
      <trkpt lat="43.2821" lon="6.21356">
        <ele>147.7</ele>
        <time>2022-07-02T10:05:49Z</time>
      </trkpt>
      <trkpt lat="43.28203" lon="6.21346">
        <ele>147.22</ele>
        <time>2022-07-02T10:05:50Z</time>
      </trkpt>
      <trkpt lat="43.28196" lon="6.21335">
        <ele>147.22</ele>
        <time>2022-07-02T10:05:51Z</time>
      </trkpt>
      <trkpt lat="43.28139" lon="6.21207">
        <ele>144.34</ele>
        <time>2022-07-02T10:06:02Z</time>
      </trkpt>
      <trkpt lat="43.28129" lon="6.21165">
        <ele>142.41</ele>
        <time>2022-07-02T10:06:05Z</time>
      </trkpt>
      <trkpt lat="43.28127" lon="6.2115">
        <ele>141.45</ele>
        <time>2022-07-02T10:06:06Z</time>
      </trkpt>
      <trkpt lat="43.28128" lon="6.21136">
        <ele>141.45</ele>
        <time>2022-07-02T10:06:07Z</time>
      </trkpt>
      <trkpt lat="43.28131" lon="6.21121">
        <ele>140.49</ele>
        <time>2022-07-02T10:06:08Z</time>
      </trkpt>
      <trkpt lat="43.28137" lon="6.21108">
        <ele>140.01</ele>
        <time>2022-07-02T10:06:09Z</time>
      </trkpt>
      <trkpt lat="43.28143" lon="6.21096">
        <ele>139.05</ele>
        <time>2022-07-02T10:06:10Z</time>
      </trkpt>
      <trkpt lat="43.28151" lon="6.21086">
        <ele>138.57</ele>
        <time>2022-07-02T10:06:11Z</time>
      </trkpt>
      <trkpt lat="43.28159" lon="6.21076">
        <ele>138.09</ele>
        <time>2022-07-02T10:06:12Z</time>
      </trkpt>
      <trkpt lat="43.28167" lon="6.21067">
        <ele>137.61</ele>
        <time>2022-07-02T10:06:13Z</time>
      </trkpt>
      <trkpt lat="43.28176" lon="6.2106">
        <ele>137.13</ele>
        <time>2022-07-02T10:06:14Z</time>
      </trkpt>
      <trkpt lat="43.28185" lon="6.21051">
        <ele>136.16</ele>
        <time>2022-07-02T10:06:15Z</time>
      </trkpt>
      <trkpt lat="43.28192" lon="6.21041">
        <ele>136.16</ele>
        <time>2022-07-02T10:06:16Z</time>
      </trkpt>
      <trkpt lat="43.28194" lon="6.21028">
        <ele>135.68</ele>
        <time>2022-07-02T10:06:17Z</time>
      </trkpt>
      <trkpt lat="43.28195" lon="6.21015">
        <ele>135.2</ele>
        <time>2022-07-02T10:06:18Z</time>
      </trkpt>
      <trkpt lat="43.28195" lon="6.21001">
        <ele>135.2</ele>
        <time>2022-07-02T10:06:19Z</time>
      </trkpt>
      <trkpt lat="43.28195" lon="6.20987">
        <ele>134.72</ele>
        <time>2022-07-02T10:06:20Z</time>
      </trkpt>
      <trkpt lat="43.28195" lon="6.20972">
        <ele>134.24</ele>
        <time>2022-07-02T10:06:21Z</time>
      </trkpt>
      <trkpt lat="43.28218" lon="6.20859">
        <ele>133.28</ele>
        <time>2022-07-02T10:06:30Z</time>
      </trkpt>
      <trkpt lat="43.2822" lon="6.20832">
        <ele>133.76</ele>
        <time>2022-07-02T10:06:32Z</time>
      </trkpt>
      <trkpt lat="43.28232" lon="6.2071">
        <ele>132.32</ele>
        <time>2022-07-02T10:06:41Z</time>
      </trkpt>
      <trkpt lat="43.28231" lon="6.20697">
        <ele>131.84</ele>
        <time>2022-07-02T10:06:42Z</time>
      </trkpt>
      <trkpt lat="43.28216" lon="6.2056">
        <ele>130.88</ele>
        <time>2022-07-02T10:06:52Z</time>
      </trkpt>
      <trkpt lat="43.28212" lon="6.20549">
        <ele>130.88</ele>
        <time>2022-07-02T10:06:53Z</time>
      </trkpt>
      <trkpt lat="43.28208" lon="6.20538">
        <ele>130.88</ele>
        <time>2022-07-02T10:06:54Z</time>
      </trkpt>
      <trkpt lat="43.28202" lon="6.20526">
        <ele>130.4</ele>
        <time>2022-07-02T10:06:55Z</time>
      </trkpt>
      <trkpt lat="43.28197" lon="6.20515">
        <ele>130.4</ele>
        <time>2022-07-02T10:06:56Z</time>
      </trkpt>
      <trkpt lat="43.28193" lon="6.20503">
        <ele>129.92</ele>
        <time>2022-07-02T10:06:57Z</time>
      </trkpt>
      <trkpt lat="43.28191" lon="6.2049">
        <ele>129.92</ele>
        <time>2022-07-02T10:06:58Z</time>
      </trkpt>
      <trkpt lat="43.2819" lon="6.20477">
        <ele>129.43</ele>
        <time>2022-07-02T10:06:59Z</time>
      </trkpt>
      <trkpt lat="43.28186" lon="6.20352">
        <ele>128.95</ele>
        <time>2022-07-02T10:07:09Z</time>
      </trkpt>
      <trkpt lat="43.28173" lon="6.20248">
        <ele>131.84</ele>
        <time>2022-07-02T10:07:19Z</time>
      </trkpt>
      <trkpt lat="43.28143" lon="6.20121">
        <ele>132.8</ele>
        <time>2022-07-02T10:07:31Z</time>
      </trkpt>
      <trkpt lat="43.28125" lon="6.20046">
        <ele>134.24</ele>
        <time>2022-07-02T10:07:38Z</time>
      </trkpt>
      <trkpt lat="43.28121" lon="6.20038">
        <ele>134.72</ele>
        <time>2022-07-02T10:07:39Z</time>
      </trkpt>
      <trkpt lat="43.28115" lon="6.20031">
        <ele>135.2</ele>
        <time>2022-07-02T10:07:40Z</time>
      </trkpt>
      <trkpt lat="43.28109" lon="6.20025">
        <ele>135.2</ele>
        <time>2022-07-02T10:07:41Z</time>
      </trkpt>
      <trkpt lat="43.28102" lon="6.20019">
        <ele>135.68</ele>
        <time>2022-07-02T10:07:42Z</time>
      </trkpt>
      <trkpt lat="43.28094" lon="6.20014">
        <ele>136.16</ele>
        <time>2022-07-02T10:07:43Z</time>
      </trkpt>
      <trkpt lat="43.28088" lon="6.20009">
        <ele>136.16</ele>
        <time>2022-07-02T10:07:44Z</time>
      </trkpt>
      <trkpt lat="43.28083" lon="6.20003">
        <ele>136.16</ele>
        <time>2022-07-02T10:07:45Z</time>
      </trkpt>
      <trkpt lat="43.28078" lon="6.19996">
        <ele>136.16</ele>
        <time>2022-07-02T10:07:46Z</time>
      </trkpt>
      <trkpt lat="43.28037" lon="6.19929">
        <ele>136.16</ele>
        <time>2022-07-02T10:07:54Z</time>
      </trkpt>
      <trkpt lat="43.28034" lon="6.19919">
        <ele>136.16</ele>
        <time>2022-07-02T10:07:55Z</time>
      </trkpt>
      <trkpt lat="43.28031" lon="6.19908">
        <ele>136.64</ele>
        <time>2022-07-02T10:07:56Z</time>
      </trkpt>
      <trkpt lat="43.28026" lon="6.19876">
        <ele>137.61</ele>
        <time>2022-07-02T10:07:59Z</time>
      </trkpt>
      <trkpt lat="43.28026" lon="6.19865">
        <ele>137.61</ele>
        <time>2022-07-02T10:08:00Z</time>
      </trkpt>
      <trkpt lat="43.28027" lon="6.19855">
        <ele>137.61</ele>
        <time>2022-07-02T10:08:01Z</time>
      </trkpt>
      <trkpt lat="43.28033" lon="6.19779">
        <ele>140.01</ele>
        <time>2022-07-02T10:08:09Z</time>
      </trkpt>
      <trkpt lat="43.28018" lon="6.19627">
        <ele>140.49</ele>
        <time>2022-07-02T10:08:24Z</time>
      </trkpt>
      <trkpt lat="43.27977" lon="6.19535">
        <ele>140.97</ele>
        <time>2022-07-02T10:08:33Z</time>
      </trkpt>
      <trkpt lat="43.27924" lon="6.19413">
        <ele>143.37</ele>
        <time>2022-07-02T10:08:45Z</time>
      </trkpt>
      <trkpt lat="43.27906" lon="6.19356">
        <ele>144.34</ele>
        <time>2022-07-02T10:08:50Z</time>
      </trkpt>
      <trkpt lat="43.27901" lon="6.19345">
        <ele>144.34</ele>
        <time>2022-07-02T10:08:51Z</time>
      </trkpt>
      <trkpt lat="43.27895" lon="6.19339">
        <ele>143.85</ele>
        <time>2022-07-02T10:08:52Z</time>
      </trkpt>
      <trkpt lat="43.27887" lon="6.19333">
        <ele>143.85</ele>
        <time>2022-07-02T10:08:53Z</time>
      </trkpt>
      <trkpt lat="43.27879" lon="6.19329">
        <ele>143.85</ele>
        <time>2022-07-02T10:08:54Z</time>
      </trkpt>
      <trkpt lat="43.27871" lon="6.19327">
        <ele>144.34</ele>
        <time>2022-07-02T10:08:55Z</time>
      </trkpt>
      <trkpt lat="43.27798" lon="6.19298">
        <ele>144.82</ele>
        <time>2022-07-02T10:09:05Z</time>
      </trkpt>
      <trkpt lat="43.27776" lon="6.19286">
        <ele>144.82</ele>
        <time>2022-07-02T10:09:08Z</time>
      </trkpt>
      <trkpt lat="43.27708" lon="6.19216">
        <ele>144.82</ele>
        <time>2022-07-02T10:09:19Z</time>
      </trkpt>
      <trkpt lat="43.27703" lon="6.19207">
        <ele>144.34</ele>
        <time>2022-07-02T10:09:20Z</time>
      </trkpt>
      <trkpt lat="43.27698" lon="6.19198">
        <ele>144.34</ele>
        <time>2022-07-02T10:09:21Z</time>
      </trkpt>
      <trkpt lat="43.27695" lon="6.19188">
        <ele>144.34</ele>
        <time>2022-07-02T10:09:22Z</time>
      </trkpt>
      <trkpt lat="43.27691" lon="6.19177">
        <ele>144.34</ele>
        <time>2022-07-02T10:09:23Z</time>
      </trkpt>
      <trkpt lat="43.27684" lon="6.19155">
        <ele>143.85</ele>
        <time>2022-07-02T10:09:25Z</time>
      </trkpt>
      <trkpt lat="43.2768" lon="6.19145">
        <ele>143.85</ele>
        <time>2022-07-02T10:09:26Z</time>
      </trkpt>
      <trkpt lat="43.27675" lon="6.19136">
        <ele>143.85</ele>
        <time>2022-07-02T10:09:27Z</time>
      </trkpt>
      <trkpt lat="43.2767" lon="6.19128">
        <ele>143.85</ele>
        <time>2022-07-02T10:09:28Z</time>
      </trkpt>
      <trkpt lat="43.27663" lon="6.1912">
        <ele>143.85</ele>
        <time>2022-07-02T10:09:29Z</time>
      </trkpt>
      <trkpt lat="43.27629" lon="6.1907">
        <ele>144.82</ele>
        <time>2022-07-02T10:09:36Z</time>
      </trkpt>
      <trkpt lat="43.27608" lon="6.1903">
        <ele>144.34</ele>
        <time>2022-07-02T10:09:41Z</time>
      </trkpt>
      <trkpt lat="43.27547" lon="6.18936">
        <ele>141.45</ele>
        <time>2022-07-02T10:09:54Z</time>
      </trkpt>
      <trkpt lat="43.27544" lon="6.18927">
        <ele>140.01</ele>
        <time>2022-07-02T10:09:55Z</time>
      </trkpt>
      <trkpt lat="43.27541" lon="6.18918">
        <ele>140.01</ele>
        <time>2022-07-02T10:09:56Z</time>
      </trkpt>
      <trkpt lat="43.2754" lon="6.18909">
        <ele>139.05</ele>
        <time>2022-07-02T10:09:57Z</time>
      </trkpt>
      <trkpt lat="43.27538" lon="6.189">
        <ele>138.57</ele>
        <time>2022-07-02T10:09:58Z</time>
      </trkpt>
      <trkpt lat="43.27531" lon="6.18836">
        <ele>132.32</ele>
        <time>2022-07-02T10:10:04Z</time>
      </trkpt>
      <trkpt lat="43.27528" lon="6.18824">
        <ele>131.84</ele>
        <time>2022-07-02T10:10:05Z</time>
      </trkpt>
      <trkpt lat="43.27525" lon="6.18813">
        <ele>130.88</ele>
        <time>2022-07-02T10:10:06Z</time>
      </trkpt>
      <trkpt lat="43.27512" lon="6.1878">
        <ele>127.99</ele>
        <time>2022-07-02T10:10:09Z</time>
      </trkpt>
      <trkpt lat="43.27506" lon="6.1877">
        <ele>127.51</ele>
        <time>2022-07-02T10:10:10Z</time>
      </trkpt>
      <trkpt lat="43.275" lon="6.18761">
        <ele>127.51</ele>
        <time>2022-07-02T10:10:11Z</time>
      </trkpt>
      <trkpt lat="43.27493" lon="6.18754">
        <ele>127.03</ele>
        <time>2022-07-02T10:10:12Z</time>
      </trkpt>
      <trkpt lat="43.27484" lon="6.18748">
        <ele>126.55</ele>
        <time>2022-07-02T10:10:13Z</time>
      </trkpt>
      <trkpt lat="43.27475" lon="6.18745">
        <ele>126.07</ele>
        <time>2022-07-02T10:10:14Z</time>
      </trkpt>
      <trkpt lat="43.27465" lon="6.18743">
        <ele>125.59</ele>
        <time>2022-07-02T10:10:15Z</time>
      </trkpt>
      <trkpt lat="43.27361" lon="6.18741">
        <ele>117.9</ele>
        <time>2022-07-02T10:10:25Z</time>
      </trkpt>
      <trkpt lat="43.2731" lon="6.18743">
        <ele>115.01</ele>
        <time>2022-07-02T10:10:30Z</time>
      </trkpt>
      <trkpt lat="43.273" lon="6.18746">
        <ele>114.53</ele>
        <time>2022-07-02T10:10:31Z</time>
      </trkpt>
      <trkpt lat="43.2729" lon="6.18752">
        <ele>114.05</ele>
        <time>2022-07-02T10:10:32Z</time>
      </trkpt>
      <trkpt lat="43.27281" lon="6.18758">
        <ele>113.57</ele>
        <time>2022-07-02T10:10:33Z</time>
      </trkpt>
      <trkpt lat="43.27271" lon="6.18765">
        <ele>112.61</ele>
        <time>2022-07-02T10:10:34Z</time>
      </trkpt>
      <trkpt lat="43.27261" lon="6.1877">
        <ele>112.13</ele>
        <time>2022-07-02T10:10:35Z</time>
      </trkpt>
      <trkpt lat="43.27251" lon="6.18775">
        <ele>111.65</ele>
        <time>2022-07-02T10:10:36Z</time>
      </trkpt>
      <trkpt lat="43.27241" lon="6.18777">
        <ele>110.69</ele>
        <time>2022-07-02T10:10:37Z</time>
      </trkpt>
      <trkpt lat="43.2723" lon="6.18777">
        <ele>110.21</ele>
        <time>2022-07-02T10:10:38Z</time>
      </trkpt>
      <trkpt lat="43.2722" lon="6.18776">
        <ele>109.25</ele>
        <time>2022-07-02T10:10:39Z</time>
      </trkpt>
      <trkpt lat="43.27209" lon="6.18772">
        <ele>108.77</ele>
        <time>2022-07-02T10:10:40Z</time>
      </trkpt>
      <trkpt lat="43.272" lon="6.18766">
        <ele>107.81</ele>
        <time>2022-07-02T10:10:41Z</time>
      </trkpt>
      <trkpt lat="43.2719" lon="6.18758">
        <ele>107.32</ele>
        <time>2022-07-02T10:10:42Z</time>
      </trkpt>
      <trkpt lat="43.27182" lon="6.18748">
        <ele>106.84</ele>
        <time>2022-07-02T10:10:43Z</time>
      </trkpt>
      <trkpt lat="43.27175" lon="6.18739">
        <ele>106.36</ele>
        <time>2022-07-02T10:10:44Z</time>
      </trkpt>
      <trkpt lat="43.27085" lon="6.18632">
        <ele>103.96</ele>
        <time>2022-07-02T10:10:57Z</time>
      </trkpt>
      <trkpt lat="43.26993" lon="6.18534">
        <ele>103</ele>
        <time>2022-07-02T10:11:11Z</time>
      </trkpt>
      <trkpt lat="43.26912" lon="6.18437">
        <ele>102.52</ele>
        <time>2022-07-02T10:11:24Z</time>
      </trkpt>
      <trkpt lat="43.26905" lon="6.18432">
        <ele>102.52</ele>
        <time>2022-07-02T10:11:25Z</time>
      </trkpt>
      <trkpt lat="43.26897" lon="6.18427">
        <ele>102.52</ele>
        <time>2022-07-02T10:11:26Z</time>
      </trkpt>
      <trkpt lat="43.26889" lon="6.18424">
        <ele>103</ele>
        <time>2022-07-02T10:11:27Z</time>
      </trkpt>
      <trkpt lat="43.26881" lon="6.18421">
        <ele>103</ele>
        <time>2022-07-02T10:11:28Z</time>
      </trkpt>
      <trkpt lat="43.2686" lon="6.18409">
        <ele>103.48</ele>
        <time>2022-07-02T10:11:31Z</time>
      </trkpt>
      <trkpt lat="43.26853" lon="6.18403">
        <ele>103.48</ele>
        <time>2022-07-02T10:11:32Z</time>
      </trkpt>
      <trkpt lat="43.26848" lon="6.18397">
        <ele>103.96</ele>
        <time>2022-07-02T10:11:33Z</time>
      </trkpt>
      <trkpt lat="43.26833" lon="6.18378">
        <ele>104.44</ele>
        <time>2022-07-02T10:11:36Z</time>
      </trkpt>
      <trkpt lat="43.26829" lon="6.18371">
        <ele>104.44</ele>
        <time>2022-07-02T10:11:37Z</time>
      </trkpt>
      <trkpt lat="43.26824" lon="6.18365">
        <ele>104.92</ele>
        <time>2022-07-02T10:11:38Z</time>
      </trkpt>
      <trkpt lat="43.2682" lon="6.18358">
        <ele>105.4</ele>
        <time>2022-07-02T10:11:39Z</time>
      </trkpt>
      <trkpt lat="43.26815" lon="6.18352">
        <ele>105.4</ele>
        <time>2022-07-02T10:11:40Z</time>
      </trkpt>
      <trkpt lat="43.26751" lon="6.18299">
        <ele>105.88</ele>
        <time>2022-07-02T10:11:51Z</time>
      </trkpt>
      <trkpt lat="43.26663" lon="6.18272">
        <ele>107.81</ele>
        <time>2022-07-02T10:12:04Z</time>
      </trkpt>
      <trkpt lat="43.2665" lon="6.18273">
        <ele>108.29</ele>
        <time>2022-07-02T10:12:06Z</time>
      </trkpt>
      <trkpt lat="43.26643" lon="6.18275">
        <ele>108.77</ele>
        <time>2022-07-02T10:12:07Z</time>
      </trkpt>
      <trkpt lat="43.26637" lon="6.18277">
        <ele>108.77</ele>
        <time>2022-07-02T10:12:08Z</time>
      </trkpt>
      <trkpt lat="43.2663" lon="6.18281">
        <ele>109.25</ele>
        <time>2022-07-02T10:12:09Z</time>
      </trkpt>
      <trkpt lat="43.26624" lon="6.18284">
        <ele>109.25</ele>
        <time>2022-07-02T10:12:10Z</time>
      </trkpt>
      <trkpt lat="43.26557" lon="6.1833">
        <ele>110.69</ele>
        <time>2022-07-02T10:12:21Z</time>
      </trkpt>
      <trkpt lat="43.2655" lon="6.18333">
        <ele>110.69</ele>
        <time>2022-07-02T10:12:22Z</time>
      </trkpt>
      <trkpt lat="43.26542" lon="6.18335">
        <ele>110.21</ele>
        <time>2022-07-02T10:12:23Z</time>
      </trkpt>
      <trkpt lat="43.26502" lon="6.18343">
        <ele>109.73</ele>
        <time>2022-07-02T10:12:28Z</time>
      </trkpt>
      <trkpt lat="43.26494" lon="6.18342">
        <ele>109.73</ele>
        <time>2022-07-02T10:12:29Z</time>
      </trkpt>
      <trkpt lat="43.26487" lon="6.18338">
        <ele>109.25</ele>
        <time>2022-07-02T10:12:30Z</time>
      </trkpt>
      <trkpt lat="43.26481" lon="6.1833">
        <ele>108.77</ele>
        <time>2022-07-02T10:12:31Z</time>
      </trkpt>
      <trkpt lat="43.26478" lon="6.18319">
        <ele>108.29</ele>
        <time>2022-07-02T10:12:32Z</time>
      </trkpt>
      <trkpt lat="43.26475" lon="6.18306">
        <ele>107.81</ele>
        <time>2022-07-02T10:12:33Z</time>
      </trkpt>
      <trkpt lat="43.26473" lon="6.18294">
        <ele>107.81</ele>
        <time>2022-07-02T10:12:34Z</time>
      </trkpt>
      <trkpt lat="43.26444" lon="6.18141">
        <ele>102.52</ele>
        <time>2022-07-02T10:12:46Z</time>
      </trkpt>
      <trkpt lat="43.26439" lon="6.18129">
        <ele>102.04</ele>
        <time>2022-07-02T10:12:47Z</time>
      </trkpt>
      <trkpt lat="43.26432" lon="6.18118">
        <ele>102.04</ele>
        <time>2022-07-02T10:12:48Z</time>
      </trkpt>
      <trkpt lat="43.26425" lon="6.18109">
        <ele>101.56</ele>
        <time>2022-07-02T10:12:49Z</time>
      </trkpt>
      <trkpt lat="43.26417" lon="6.18102">
        <ele>101.56</ele>
        <time>2022-07-02T10:12:50Z</time>
      </trkpt>
      <trkpt lat="43.26409" lon="6.18096">
        <ele>101.56</ele>
        <time>2022-07-02T10:12:51Z</time>
      </trkpt>
      <trkpt lat="43.26363" lon="6.18063">
        <ele>100.6</ele>
        <time>2022-07-02T10:12:57Z</time>
      </trkpt>
      <trkpt lat="43.26357" lon="6.18056">
        <ele>100.6</ele>
        <time>2022-07-02T10:12:58Z</time>
      </trkpt>
      <trkpt lat="43.26352" lon="6.18047">
        <ele>100.11</ele>
        <time>2022-07-02T10:12:59Z</time>
      </trkpt>
      <trkpt lat="43.26305" lon="6.17955">
        <ele>95.79</ele>
        <time>2022-07-02T10:13:08Z</time>
      </trkpt>
      <trkpt lat="43.26297" lon="6.17946">
        <ele>95.31</ele>
        <time>2022-07-02T10:13:09Z</time>
      </trkpt>
      <trkpt lat="43.26288" lon="6.17939">
        <ele>94.35</ele>
        <time>2022-07-02T10:13:10Z</time>
      </trkpt>
      <trkpt lat="43.26279" lon="6.17938">
        <ele>94.35</ele>
        <time>2022-07-02T10:13:11Z</time>
      </trkpt>
      <trkpt lat="43.2627" lon="6.1794">
        <ele>93.87</ele>
        <time>2022-07-02T10:13:12Z</time>
      </trkpt>
      <trkpt lat="43.26261" lon="6.17941">
        <ele>94.35</ele>
        <time>2022-07-02T10:13:13Z</time>
      </trkpt>
      <trkpt lat="43.26253" lon="6.17941">
        <ele>94.35</ele>
        <time>2022-07-02T10:13:14Z</time>
      </trkpt>
      <trkpt lat="43.26245" lon="6.1794">
        <ele>94.35</ele>
        <time>2022-07-02T10:13:15Z</time>
      </trkpt>
      <trkpt lat="43.26237" lon="6.17939">
        <ele>94.83</ele>
        <time>2022-07-02T10:13:16Z</time>
      </trkpt>
      <trkpt lat="43.26229" lon="6.17936">
        <ele>94.83</ele>
        <time>2022-07-02T10:13:17Z</time>
      </trkpt>
      <trkpt lat="43.26215" lon="6.17932">
        <ele>94.83</ele>
        <time>2022-07-02T10:13:19Z</time>
      </trkpt>
      <trkpt lat="43.26209" lon="6.17928">
        <ele>95.31</ele>
        <time>2022-07-02T10:13:20Z</time>
      </trkpt>
      <trkpt lat="43.26203" lon="6.17924">
        <ele>95.31</ele>
        <time>2022-07-02T10:13:21Z</time>
      </trkpt>
      <trkpt lat="43.26198" lon="6.17919">
        <ele>95.31</ele>
        <time>2022-07-02T10:13:22Z</time>
      </trkpt>
      <trkpt lat="43.26193" lon="6.17913">
        <ele>95.79</ele>
        <time>2022-07-02T10:13:23Z</time>
      </trkpt>
      <trkpt lat="43.26189" lon="6.17906">
        <ele>95.79</ele>
        <time>2022-07-02T10:13:24Z</time>
      </trkpt>
      <trkpt lat="43.26133" lon="6.17799">
        <ele>95.79</ele>
        <time>2022-07-02T10:13:36Z</time>
      </trkpt>
      <trkpt lat="43.2608" lon="6.17687">
        <ele>94.83</ele>
        <time>2022-07-02T10:13:49Z</time>
      </trkpt>
      <trkpt lat="43.26015" lon="6.17536">
        <ele>90.02</ele>
        <time>2022-07-02T10:14:03Z</time>
      </trkpt>
      <trkpt lat="43.2596" lon="6.17439">
        <ele>90.5</ele>
        <time>2022-07-02T10:14:14Z</time>
      </trkpt>
      <trkpt lat="43.25897" lon="6.17359">
        <ele>93.39</ele>
        <time>2022-07-02T10:14:26Z</time>
      </trkpt>
      <trkpt lat="43.2589" lon="6.17355">
        <ele>93.39</ele>
        <time>2022-07-02T10:14:27Z</time>
      </trkpt>
      <trkpt lat="43.25882" lon="6.17351">
        <ele>93.39</ele>
        <time>2022-07-02T10:14:28Z</time>
      </trkpt>
      <trkpt lat="43.25859" lon="6.1734">
        <ele>92.9</ele>
        <time>2022-07-02T10:14:31Z</time>
      </trkpt>
      <trkpt lat="43.25851" lon="6.17335">
        <ele>92.9</ele>
        <time>2022-07-02T10:14:32Z</time>
      </trkpt>
      <trkpt lat="43.25844" lon="6.17329">
        <ele>92.9</ele>
        <time>2022-07-02T10:14:33Z</time>
      </trkpt>
      <trkpt lat="43.25758" lon="6.17267">
        <ele>92.9</ele>
        <time>2022-07-02T10:14:45Z</time>
      </trkpt>
      <trkpt lat="43.2566" lon="6.17195">
        <ele>91.46</ele>
        <time>2022-07-02T10:14:58Z</time>
      </trkpt>
      <trkpt lat="43.2558" lon="6.17125">
        <ele>92.42</ele>
        <time>2022-07-02T10:15:11Z</time>
      </trkpt>
      <trkpt lat="43.25567" lon="6.17118">
        <ele>92.42</ele>
        <time>2022-07-02T10:15:13Z</time>
      </trkpt>
      <trkpt lat="43.2556" lon="6.17115">
        <ele>92.42</ele>
        <time>2022-07-02T10:15:14Z</time>
      </trkpt>
      <trkpt lat="43.25481" lon="6.17062">
        <ele>92.42</ele>
        <time>2022-07-02T10:15:25Z</time>
      </trkpt>
      <trkpt lat="43.25474" lon="6.17057">
        <ele>92.42</ele>
        <time>2022-07-02T10:15:26Z</time>
      </trkpt>
      <trkpt lat="43.25466" lon="6.17052">
        <ele>92.42</ele>
        <time>2022-07-02T10:15:27Z</time>
      </trkpt>
      <trkpt lat="43.25459" lon="6.17049">
        <ele>92.42</ele>
        <time>2022-07-02T10:15:28Z</time>
      </trkpt>
      <trkpt lat="43.25451" lon="6.17046">
        <ele>92.42</ele>
        <time>2022-07-02T10:15:29Z</time>
      </trkpt>
      <trkpt lat="43.25443" lon="6.17045">
        <ele>92.42</ele>
        <time>2022-07-02T10:15:30Z</time>
      </trkpt>
      <trkpt lat="43.25405" lon="6.17029">
        <ele>92.42</ele>
        <time>2022-07-02T10:15:35Z</time>
      </trkpt>
      <trkpt lat="43.25399" lon="6.17023">
        <ele>92.42</ele>
        <time>2022-07-02T10:15:36Z</time>
      </trkpt>
      <trkpt lat="43.25338" lon="6.16982">
        <ele>92.42</ele>
        <time>2022-07-02T10:15:45Z</time>
      </trkpt>
      <trkpt lat="43.25331" lon="6.1698">
        <ele>92.42</ele>
        <time>2022-07-02T10:15:46Z</time>
      </trkpt>
      <trkpt lat="43.25323" lon="6.16979">
        <ele>91.94</ele>
        <time>2022-07-02T10:15:47Z</time>
      </trkpt>
      <trkpt lat="43.25316" lon="6.16979">
        <ele>92.42</ele>
        <time>2022-07-02T10:15:48Z</time>
      </trkpt>
      <trkpt lat="43.25308" lon="6.16979">
        <ele>92.42</ele>
        <time>2022-07-02T10:15:49Z</time>
      </trkpt>
      <trkpt lat="43.25218" lon="6.17">
        <ele>92.9</ele>
        <time>2022-07-02T10:16:02Z</time>
      </trkpt>
      <trkpt lat="43.25174" lon="6.17019">
        <ele>92.42</ele>
        <time>2022-07-02T10:16:08Z</time>
      </trkpt>
      <trkpt lat="43.25165" lon="6.1702">
        <ele>91.94</ele>
        <time>2022-07-02T10:16:09Z</time>
      </trkpt>
      <trkpt lat="43.25157" lon="6.1702">
        <ele>91.94</ele>
        <time>2022-07-02T10:16:10Z</time>
      </trkpt>
      <trkpt lat="43.25083" lon="6.17016">
        <ele>90.5</ele>
        <time>2022-07-02T10:16:18Z</time>
      </trkpt>
      <trkpt lat="43.25074" lon="6.17014">
        <ele>90.02</ele>
        <time>2022-07-02T10:16:19Z</time>
      </trkpt>
      <trkpt lat="43.24998" lon="6.16985">
        <ele>89.54</ele>
        <time>2022-07-02T10:16:29Z</time>
      </trkpt>
      <trkpt lat="43.24909" lon="6.16942">
        <ele>87.14</ele>
        <time>2022-07-02T10:16:39Z</time>
      </trkpt>
      <trkpt lat="43.24874" lon="6.16905">
        <ele>86.18</ele>
        <time>2022-07-02T10:16:44Z</time>
      </trkpt>
      <trkpt lat="43.24869" lon="6.16896">
        <ele>86.18</ele>
        <time>2022-07-02T10:16:45Z</time>
      </trkpt>
      <trkpt lat="43.24865" lon="6.16887">
        <ele>85.69</ele>
        <time>2022-07-02T10:16:46Z</time>
      </trkpt>
      <trkpt lat="43.2486" lon="6.16879">
        <ele>85.69</ele>
        <time>2022-07-02T10:16:47Z</time>
      </trkpt>
      <trkpt lat="43.24855" lon="6.16871">
        <ele>85.69</ele>
        <time>2022-07-02T10:16:48Z</time>
      </trkpt>
      <trkpt lat="43.24846" lon="6.16852">
        <ele>85.69</ele>
        <time>2022-07-02T10:16:50Z</time>
      </trkpt>
      <trkpt lat="43.24841" lon="6.16843">
        <ele>85.69</ele>
        <time>2022-07-02T10:16:51Z</time>
      </trkpt>
      <trkpt lat="43.24785" lon="6.16755">
        <ele>84.25</ele>
        <time>2022-07-02T10:17:01Z</time>
      </trkpt>
      <trkpt lat="43.24721" lon="6.16662">
        <ele>84.25</ele>
        <time>2022-07-02T10:17:13Z</time>
      </trkpt>
      <trkpt lat="43.24685" lon="6.16595">
        <ele>83.77</ele>
        <time>2022-07-02T10:17:21Z</time>
      </trkpt>
      <trkpt lat="43.2468" lon="6.16589">
        <ele>84.25</ele>
        <time>2022-07-02T10:17:22Z</time>
      </trkpt>
      <trkpt lat="43.24675" lon="6.16583">
        <ele>84.25</ele>
        <time>2022-07-02T10:17:23Z</time>
      </trkpt>
      <trkpt lat="43.24669" lon="6.16578">
        <ele>83.77</ele>
        <time>2022-07-02T10:17:24Z</time>
      </trkpt>
      <trkpt lat="43.24664" lon="6.16574">
        <ele>83.77</ele>
        <time>2022-07-02T10:17:25Z</time>
      </trkpt>
      <trkpt lat="43.24654" lon="6.16563">
        <ele>84.73</ele>
        <time>2022-07-02T10:17:27Z</time>
      </trkpt>
      <trkpt lat="43.24651" lon="6.16558">
        <ele>85.69</ele>
        <time>2022-07-02T10:17:28Z</time>
      </trkpt>
      <trkpt lat="43.24637" lon="6.16534">
        <ele>85.69</ele>
        <time>2022-07-02T10:17:32Z</time>
      </trkpt>
      <trkpt lat="43.2463" lon="6.16521">
        <ele>86.18</ele>
        <time>2022-07-02T10:17:34Z</time>
      </trkpt>
      <trkpt lat="43.24623" lon="6.16509">
        <ele>87.14</ele>
        <time>2022-07-02T10:17:36Z</time>
      </trkpt>
      <trkpt lat="43.2459" lon="6.16418">
        <ele>85.69</ele>
        <time>2022-07-02T10:17:47Z</time>
      </trkpt>
      <trkpt lat="43.24548" lon="6.16225">
        <ele>78.97</ele>
        <time>2022-07-02T10:18:06Z</time>
      </trkpt>
      <trkpt lat="43.24522" lon="6.16136">
        <ele>76.08</ele>
        <time>2022-07-02T10:18:14Z</time>
      </trkpt>
      <trkpt lat="43.24519" lon="6.16125">
        <ele>76.08</ele>
        <time>2022-07-02T10:18:15Z</time>
      </trkpt>
      <trkpt lat="43.24516" lon="6.16114">
        <ele>76.56</ele>
        <time>2022-07-02T10:18:16Z</time>
      </trkpt>
      <trkpt lat="43.2451" lon="6.16085">
        <ele>77.52</ele>
        <time>2022-07-02T10:18:19Z</time>
      </trkpt>
      <trkpt lat="43.24507" lon="6.16076">
        <ele>78</ele>
        <time>2022-07-02T10:18:20Z</time>
      </trkpt>
      <trkpt lat="43.24503" lon="6.16068">
        <ele>78.97</ele>
        <time>2022-07-02T10:18:21Z</time>
      </trkpt>
      <trkpt lat="43.24499" lon="6.16061">
        <ele>78.97</ele>
        <time>2022-07-02T10:18:22Z</time>
      </trkpt>
      <trkpt lat="43.24494" lon="6.16054">
        <ele>79.93</ele>
        <time>2022-07-02T10:18:23Z</time>
      </trkpt>
      <trkpt lat="43.24476" lon="6.16026">
        <ele>81.37</ele>
        <time>2022-07-02T10:18:27Z</time>
      </trkpt>
      <trkpt lat="43.24472" lon="6.16019">
        <ele>81.37</ele>
        <time>2022-07-02T10:18:28Z</time>
      </trkpt>
      <trkpt lat="43.24464" lon="6.16005">
        <ele>81.85</ele>
        <time>2022-07-02T10:18:30Z</time>
      </trkpt>
      <trkpt lat="43.2446" lon="6.15998">
        <ele>81.85</ele>
        <time>2022-07-02T10:18:31Z</time>
      </trkpt>
      <trkpt lat="43.24397" lon="6.15891">
        <ele>78.97</ele>
        <time>2022-07-02T10:18:44Z</time>
      </trkpt>
      <trkpt lat="43.24313" lon="6.15745">
        <ele>76.56</ele>
        <time>2022-07-02T10:19:02Z</time>
      </trkpt>
      <trkpt lat="43.24223" lon="6.15613">
        <ele>73.2</ele>
        <time>2022-07-02T10:19:19Z</time>
      </trkpt>
      <trkpt lat="43.24216" lon="6.15607">
        <ele>72.72</ele>
        <time>2022-07-02T10:19:20Z</time>
      </trkpt>
      <trkpt lat="43.24209" lon="6.15603">
        <ele>72.24</ele>
        <time>2022-07-02T10:19:21Z</time>
      </trkpt>
      <trkpt lat="43.24201" lon="6.156">
        <ele>72.24</ele>
        <time>2022-07-02T10:19:22Z</time>
      </trkpt>
      <trkpt lat="43.24192" lon="6.15598">
        <ele>71.76</ele>
        <time>2022-07-02T10:19:23Z</time>
      </trkpt>
      <trkpt lat="43.24112" lon="6.15584">
        <ele>67.43</ele>
        <time>2022-07-02T10:19:31Z</time>
      </trkpt>
      <trkpt lat="43.24102" lon="6.15578">
        <ele>67.43</ele>
        <time>2022-07-02T10:19:32Z</time>
      </trkpt>
      <trkpt lat="43.24094" lon="6.15568">
        <ele>66.95</ele>
        <time>2022-07-02T10:19:33Z</time>
      </trkpt>
      <trkpt lat="43.24088" lon="6.15556">
        <ele>66.47</ele>
        <time>2022-07-02T10:19:34Z</time>
      </trkpt>
      <trkpt lat="43.24084" lon="6.15544">
        <ele>65.51</ele>
        <time>2022-07-02T10:19:35Z</time>
      </trkpt>
      <trkpt lat="43.2408" lon="6.15531">
        <ele>65.03</ele>
        <time>2022-07-02T10:19:36Z</time>
      </trkpt>
      <trkpt lat="43.24059" lon="6.15484">
        <ele>64.07</ele>
        <time>2022-07-02T10:19:40Z</time>
      </trkpt>
      <trkpt lat="43.24052" lon="6.15475">
        <ele>64.07</ele>
        <time>2022-07-02T10:19:41Z</time>
      </trkpt>
      <trkpt lat="43.23982" lon="6.15374">
        <ele>61.66</ele>
        <time>2022-07-02T10:19:52Z</time>
      </trkpt>
      <trkpt lat="43.23903" lon="6.15208">
        <ele>59.74</ele>
        <time>2022-07-02T10:20:09Z</time>
      </trkpt>
      <trkpt lat="43.23878" lon="6.15068">
        <ele>59.74</ele>
        <time>2022-07-02T10:20:23Z</time>
      </trkpt>
      <trkpt lat="43.2388" lon="6.15043">
        <ele>60.22</ele>
        <time>2022-07-02T10:20:27Z</time>
      </trkpt>
      <trkpt lat="43.23878" lon="6.15038">
        <ele>60.22</ele>
        <time>2022-07-02T10:20:28Z</time>
      </trkpt>
      <trkpt lat="43.23874" lon="6.15034">
        <ele>60.22</ele>
        <time>2022-07-02T10:20:29Z</time>
      </trkpt>
      <trkpt lat="43.2387" lon="6.15032">
        <ele>60.22</ele>
        <time>2022-07-02T10:20:30Z</time>
      </trkpt>
      <trkpt lat="43.23865" lon="6.1503">
        <ele>60.7</ele>
        <time>2022-07-02T10:20:31Z</time>
      </trkpt>
      <trkpt lat="43.2386" lon="6.15028">
        <ele>60.22</ele>
        <time>2022-07-02T10:20:32Z</time>
      </trkpt>
      <trkpt lat="43.23763" lon="6.14979">
        <ele>57.82</ele>
        <time>2022-07-02T10:20:49Z</time>
      </trkpt>
      <trkpt lat="43.23759" lon="6.14972">
        <ele>57.34</ele>
        <time>2022-07-02T10:20:50Z</time>
      </trkpt>
      <trkpt lat="43.23756" lon="6.14964">
        <ele>56.86</ele>
        <time>2022-07-02T10:20:51Z</time>
      </trkpt>
      <trkpt lat="43.23735" lon="6.14869">
        <ele>56.37</ele>
        <time>2022-07-02T10:21:01Z</time>
      </trkpt>
      <trkpt lat="43.23735" lon="6.14859">
        <ele>56.37</ele>
        <time>2022-07-02T10:21:02Z</time>
      </trkpt>
      <trkpt lat="43.23749" lon="6.14702">
        <ele>57.82</ele>
        <time>2022-07-02T10:21:19Z</time>
      </trkpt>
      <trkpt lat="43.23759" lon="6.14509">
        <ele>58.3</ele>
        <time>2022-07-02T10:21:42Z</time>
      </trkpt>
      <trkpt lat="43.23749" lon="6.14331">
        <ele>57.82</ele>
        <time>2022-07-02T10:22:01Z</time>
      </trkpt>
      <trkpt lat="43.23738" lon="6.14188">
        <ele>56.86</ele>
        <time>2022-07-02T10:22:16Z</time>
      </trkpt>
      <trkpt lat="43.23713" lon="6.13993">
        <ele>56.37</ele>
        <time>2022-07-02T10:22:36Z</time>
      </trkpt>
      <trkpt lat="43.23685" lon="6.13827">
        <ele>56.37</ele>
        <time>2022-07-02T10:22:53Z</time>
      </trkpt>
      <trkpt lat="43.23688" lon="6.13676">
        <ele>56.86</ele>
        <time>2022-07-02T10:23:09Z</time>
      </trkpt>
      <trkpt lat="43.23665" lon="6.13519">
        <ele>57.82</ele>
        <time>2022-07-02T10:23:26Z</time>
      </trkpt>
      <trkpt lat="43.23638" lon="6.13359">
        <ele>57.34</ele>
        <time>2022-07-02T10:23:43Z</time>
      </trkpt>
      <trkpt lat="43.23635" lon="6.1333">
        <ele>56.86</ele>
        <time>2022-07-02T10:23:46Z</time>
      </trkpt>
      <trkpt lat="43.23634" lon="6.1332">
        <ele>56.86</ele>
        <time>2022-07-02T10:23:47Z</time>
      </trkpt>
      <trkpt lat="43.23635" lon="6.13309">
        <ele>56.37</ele>
        <time>2022-07-02T10:23:48Z</time>
      </trkpt>
      <trkpt lat="43.23637" lon="6.133">
        <ele>56.37</ele>
        <time>2022-07-02T10:23:49Z</time>
      </trkpt>
      <trkpt lat="43.23641" lon="6.13292">
        <ele>56.37</ele>
        <time>2022-07-02T10:23:50Z</time>
      </trkpt>
      <trkpt lat="43.23646" lon="6.13284">
        <ele>56.37</ele>
        <time>2022-07-02T10:23:51Z</time>
      </trkpt>
      <trkpt lat="43.23652" lon="6.13278">
        <ele>55.89</ele>
        <time>2022-07-02T10:23:52Z</time>
      </trkpt>
      <trkpt lat="43.23658" lon="6.13272">
        <ele>55.41</ele>
        <time>2022-07-02T10:23:53Z</time>
      </trkpt>
      <trkpt lat="43.23665" lon="6.13268">
        <ele>55.41</ele>
        <time>2022-07-02T10:23:54Z</time>
      </trkpt>
      <trkpt lat="43.23672" lon="6.13263">
        <ele>55.41</ele>
        <time>2022-07-02T10:23:55Z</time>
      </trkpt>
      <trkpt lat="43.23678" lon="6.13259">
        <ele>55.41</ele>
        <time>2022-07-02T10:23:56Z</time>
      </trkpt>
      <trkpt lat="43.23684" lon="6.13253">
        <ele>54.93</ele>
        <time>2022-07-02T10:23:57Z</time>
      </trkpt>
      <trkpt lat="43.23689" lon="6.13245">
        <ele>54.93</ele>
        <time>2022-07-02T10:23:58Z</time>
      </trkpt>
      <trkpt lat="43.23692" lon="6.13237">
        <ele>54.93</ele>
        <time>2022-07-02T10:23:59Z</time>
      </trkpt>
      <trkpt lat="43.23695" lon="6.13227">
        <ele>54.45</ele>
        <time>2022-07-02T10:24:00Z</time>
      </trkpt>
      <trkpt lat="43.23697" lon="6.13218">
        <ele>54.93</ele>
        <time>2022-07-02T10:24:01Z</time>
      </trkpt>
      <trkpt lat="43.23731" lon="6.13127">
        <ele>58.3</ele>
        <time>2022-07-02T10:24:12Z</time>
      </trkpt>
      <trkpt lat="43.23735" lon="6.13111">
        <ele>58.3</ele>
        <time>2022-07-02T10:24:14Z</time>
      </trkpt>
      <trkpt lat="43.23736" lon="6.13103">
        <ele>58.78</ele>
        <time>2022-07-02T10:24:15Z</time>
      </trkpt>
      <trkpt lat="43.23736" lon="6.13095">
        <ele>58.78</ele>
        <time>2022-07-02T10:24:16Z</time>
      </trkpt>
      <trkpt lat="43.23734" lon="6.13086">
        <ele>59.26</ele>
        <time>2022-07-02T10:24:17Z</time>
      </trkpt>
      <trkpt lat="43.23732" lon="6.13078">
        <ele>59.74</ele>
        <time>2022-07-02T10:24:18Z</time>
      </trkpt>
      <trkpt lat="43.2373" lon="6.13071">
        <ele>60.22</ele>
        <time>2022-07-02T10:24:19Z</time>
      </trkpt>
      <trkpt lat="43.23727" lon="6.13063">
        <ele>61.18</ele>
        <time>2022-07-02T10:24:20Z</time>
      </trkpt>
      <trkpt lat="43.23724" lon="6.13055">
        <ele>60.7</ele>
        <time>2022-07-02T10:24:21Z</time>
      </trkpt>
      <trkpt lat="43.23721" lon="6.1304">
        <ele>61.66</ele>
        <time>2022-07-02T10:24:23Z</time>
      </trkpt>
      <trkpt lat="43.23721" lon="6.13032">
        <ele>61.66</ele>
        <time>2022-07-02T10:24:24Z</time>
      </trkpt>
      <trkpt lat="43.2372" lon="6.13025">
        <ele>61.66</ele>
        <time>2022-07-02T10:24:25Z</time>
      </trkpt>
      <trkpt lat="43.2373" lon="6.12899">
        <ele>63.58</ele>
        <time>2022-07-02T10:24:41Z</time>
      </trkpt>
      <trkpt lat="43.23744" lon="6.12764">
        <ele>65.99</ele>
        <time>2022-07-02T10:24:58Z</time>
      </trkpt>
      <trkpt lat="43.23749" lon="6.12706">
        <ele>66.95</ele>
        <time>2022-07-02T10:25:05Z</time>
      </trkpt>
      <trkpt lat="43.2375" lon="6.12637">
        <ele>67.43</ele>
        <time>2022-07-02T10:25:13Z</time>
      </trkpt>
      <trkpt lat="43.23752" lon="6.12629">
        <ele>67.43</ele>
        <time>2022-07-02T10:25:14Z</time>
      </trkpt>
      <trkpt lat="43.23754" lon="6.12621">
        <ele>67.43</ele>
        <time>2022-07-02T10:25:15Z</time>
      </trkpt>
      <trkpt lat="43.23801" lon="6.12498">
        <ele>68.39</ele>
        <time>2022-07-02T10:25:31Z</time>
      </trkpt>
      <trkpt lat="43.23864" lon="6.12325">
        <ele>69.35</ele>
        <time>2022-07-02T10:25:52Z</time>
      </trkpt>
      <trkpt lat="43.23881" lon="6.12274">
        <ele>69.83</ele>
        <time>2022-07-02T10:25:58Z</time>
      </trkpt>
      <trkpt lat="43.23882" lon="6.12264">
        <ele>69.83</ele>
        <time>2022-07-02T10:25:59Z</time>
      </trkpt>
      <trkpt lat="43.23882" lon="6.12254">
        <ele>69.83</ele>
        <time>2022-07-02T10:26:00Z</time>
      </trkpt>
      <trkpt lat="43.23881" lon="6.12244">
        <ele>69.83</ele>
        <time>2022-07-02T10:26:01Z</time>
      </trkpt>
      <trkpt lat="43.2388" lon="6.12235">
        <ele>70.31</ele>
        <time>2022-07-02T10:26:02Z</time>
      </trkpt>
      <trkpt lat="43.23878" lon="6.12226">
        <ele>70.31</ele>
        <time>2022-07-02T10:26:03Z</time>
      </trkpt>
      <trkpt lat="43.23849" lon="6.12079">
        <ele>71.27</ele>
        <time>2022-07-02T10:26:20Z</time>
      </trkpt>
      <trkpt lat="43.23856" lon="6.11962">
        <ele>72.24</ele>
        <time>2022-07-02T10:26:33Z</time>
      </trkpt>
      <trkpt lat="43.23888" lon="6.11779">
        <ele>73.2</ele>
        <time>2022-07-02T10:26:54Z</time>
      </trkpt>
      <trkpt lat="43.23892" lon="6.11763">
        <ele>73.68</ele>
        <time>2022-07-02T10:26:56Z</time>
      </trkpt>
      <trkpt lat="43.23922" lon="6.11658">
        <ele>75.12</ele>
        <time>2022-07-02T10:27:09Z</time>
      </trkpt>
      <trkpt lat="43.23923" lon="6.1165">
        <ele>75.12</ele>
        <time>2022-07-02T10:27:10Z</time>
      </trkpt>
      <trkpt lat="43.23923" lon="6.11641">
        <ele>75.12</ele>
        <time>2022-07-02T10:27:11Z</time>
      </trkpt>
      <trkpt lat="43.23922" lon="6.11633">
        <ele>75.6</ele>
        <time>2022-07-02T10:27:12Z</time>
      </trkpt>
      <trkpt lat="43.2392" lon="6.11624">
        <ele>75.6</ele>
        <time>2022-07-02T10:27:13Z</time>
      </trkpt>
      <trkpt lat="43.23919" lon="6.11616">
        <ele>75.6</ele>
        <time>2022-07-02T10:27:14Z</time>
      </trkpt>
      <trkpt lat="43.23884" lon="6.11471">
        <ele>78</ele>
        <time>2022-07-02T10:27:32Z</time>
      </trkpt>
      <trkpt lat="43.23881" lon="6.11464">
        <ele>78</ele>
        <time>2022-07-02T10:27:33Z</time>
      </trkpt>
      <trkpt lat="43.23878" lon="6.11457">
        <ele>78</ele>
        <time>2022-07-02T10:27:34Z</time>
      </trkpt>
      <trkpt lat="43.23853" lon="6.11391">
        <ele>79.93</ele>
        <time>2022-07-02T10:27:43Z</time>
      </trkpt>
      <trkpt lat="43.23852" lon="6.11383">
        <ele>80.41</ele>
        <time>2022-07-02T10:27:44Z</time>
      </trkpt>
      <trkpt lat="43.23851" lon="6.11376">
        <ele>80.41</ele>
        <time>2022-07-02T10:27:45Z</time>
      </trkpt>
      <trkpt lat="43.23851" lon="6.11369">
        <ele>80.41</ele>
        <time>2022-07-02T10:27:46Z</time>
      </trkpt>
      <trkpt lat="43.23852" lon="6.11362">
        <ele>80.89</ele>
        <time>2022-07-02T10:27:47Z</time>
      </trkpt>
      <trkpt lat="43.23852" lon="6.11354">
        <ele>80.41</ele>
        <time>2022-07-02T10:27:48Z</time>
      </trkpt>
      <trkpt lat="43.23851" lon="6.11338">
        <ele>80.89</ele>
        <time>2022-07-02T10:27:50Z</time>
      </trkpt>
      <trkpt lat="43.2385" lon="6.1133">
        <ele>80.89</ele>
        <time>2022-07-02T10:27:51Z</time>
      </trkpt>
      <trkpt lat="43.23844" lon="6.11297">
        <ele>81.37</ele>
        <time>2022-07-02T10:27:55Z</time>
      </trkpt>
      <trkpt lat="43.23844" lon="6.11289">
        <ele>81.37</ele>
        <time>2022-07-02T10:27:56Z</time>
      </trkpt>
      <trkpt lat="43.23845" lon="6.11133">
        <ele>83.29</ele>
        <time>2022-07-02T10:28:15Z</time>
      </trkpt>
      <trkpt lat="43.23842" lon="6.11117">
        <ele>83.77</ele>
        <time>2022-07-02T10:28:17Z</time>
      </trkpt>
      <trkpt lat="43.23817" lon="6.10994">
        <ele>85.21</ele>
        <time>2022-07-02T10:28:32Z</time>
      </trkpt>
      <trkpt lat="43.23807" lon="6.10856">
        <ele>87.62</ele>
        <time>2022-07-02T10:28:49Z</time>
      </trkpt>
      <trkpt lat="43.23795" lon="6.10666">
        <ele>90.02</ele>
        <time>2022-07-02T10:29:11Z</time>
      </trkpt>
      <trkpt lat="43.23759" lon="6.1054">
        <ele>92.42</ele>
        <time>2022-07-02T10:29:27Z</time>
      </trkpt>
      <trkpt lat="43.23663" lon="6.10406">
        <ele>91.94</ele>
        <time>2022-07-02T10:29:48Z</time>
      </trkpt>
      <trkpt lat="43.23618" lon="6.10336">
        <ele>92.9</ele>
        <time>2022-07-02T10:30:00Z</time>
      </trkpt>
      <trkpt lat="43.23617" lon="6.10329">
        <ele>93.39</ele>
        <time>2022-07-02T10:30:01Z</time>
      </trkpt>
      <trkpt lat="43.23615" lon="6.10322">
        <ele>93.39</ele>
        <time>2022-07-02T10:30:02Z</time>
      </trkpt>
      <trkpt lat="43.23613" lon="6.10316">
        <ele>93.39</ele>
        <time>2022-07-02T10:30:03Z</time>
      </trkpt>
      <trkpt lat="43.23609" lon="6.1031">
        <ele>92.9</ele>
        <time>2022-07-02T10:30:04Z</time>
      </trkpt>
      <trkpt lat="43.23604" lon="6.10306">
        <ele>92.9</ele>
        <time>2022-07-02T10:30:05Z</time>
      </trkpt>
      <trkpt lat="43.23598" lon="6.10303">
        <ele>92.42</ele>
        <time>2022-07-02T10:30:06Z</time>
      </trkpt>
      <trkpt lat="43.23593" lon="6.10299">
        <ele>92.42</ele>
        <time>2022-07-02T10:30:07Z</time>
      </trkpt>
      <trkpt lat="43.23587" lon="6.10295">
        <ele>91.94</ele>
        <time>2022-07-02T10:30:08Z</time>
      </trkpt>
      <trkpt lat="43.2352" lon="6.10214">
        <ele>94.35</ele>
        <time>2022-07-02T10:30:23Z</time>
      </trkpt>
      <trkpt lat="43.23443" lon="6.10105">
        <ele>96.27</ele>
        <time>2022-07-02T10:30:42Z</time>
      </trkpt>
      <trkpt lat="43.23441" lon="6.10097">
        <ele>96.27</ele>
        <time>2022-07-02T10:30:43Z</time>
      </trkpt>
      <trkpt lat="43.23439" lon="6.1009">
        <ele>96.75</ele>
        <time>2022-07-02T10:30:44Z</time>
      </trkpt>
      <trkpt lat="43.23424" lon="6.09937">
        <ele>98.67</ele>
        <time>2022-07-02T10:31:03Z</time>
      </trkpt>
      <trkpt lat="43.23419" lon="6.09719">
        <ele>101.08</ele>
        <time>2022-07-02T10:31:29Z</time>
      </trkpt>
      <trkpt lat="43.23422" lon="6.09534">
        <ele>103.48</ele>
        <time>2022-07-02T10:31:51Z</time>
      </trkpt>
      <trkpt lat="43.23442" lon="6.09359">
        <ele>106.36</ele>
        <time>2022-07-02T10:32:12Z</time>
      </trkpt>
      <trkpt lat="43.23471" lon="6.092">
        <ele>108.29</ele>
        <time>2022-07-02T10:32:31Z</time>
      </trkpt>
      <trkpt lat="43.23502" lon="6.09071">
        <ele>109.25</ele>
        <time>2022-07-02T10:32:47Z</time>
      </trkpt>
      <trkpt lat="43.23558" lon="6.08856">
        <ele>112.13</ele>
        <time>2022-07-02T10:33:14Z</time>
      </trkpt>
      <trkpt lat="43.23577" lon="6.08765">
        <ele>113.57</ele>
        <time>2022-07-02T10:33:26Z</time>
      </trkpt>
      <trkpt lat="43.23577" lon="6.08757">
        <ele>114.05</ele>
        <time>2022-07-02T10:33:27Z</time>
      </trkpt>
      <trkpt lat="43.23577" lon="6.0875">
        <ele>114.05</ele>
        <time>2022-07-02T10:33:28Z</time>
      </trkpt>
      <trkpt lat="43.23576" lon="6.08742">
        <ele>114.05</ele>
        <time>2022-07-02T10:33:29Z</time>
      </trkpt>
      <trkpt lat="43.23576" lon="6.08734">
        <ele>114.53</ele>
        <time>2022-07-02T10:33:30Z</time>
      </trkpt>
      <trkpt lat="43.23576" lon="6.08612">
        <ele>116.46</ele>
        <time>2022-07-02T10:33:46Z</time>
      </trkpt>
      <trkpt lat="43.23582" lon="6.08526">
        <ele>118.38</ele>
        <time>2022-07-02T10:34:01Z</time>
      </trkpt>
      <trkpt lat="43.23601" lon="6.08498">
        <ele>118.38</ele>
        <time>2022-07-02T10:34:11Z</time>
      </trkpt>
      <trkpt lat="43.23603" lon="6.08497">
        <ele>118.38</ele>
        <time>2022-07-02T10:34:12Z</time>
      </trkpt>
      <trkpt lat="43.23605" lon="6.08497">
        <ele>118.38</ele>
        <time>2022-07-02T10:34:13Z</time>
      </trkpt>
      <trkpt lat="43.23608" lon="6.08498">
        <ele>118.38</ele>
        <time>2022-07-02T10:34:14Z</time>
      </trkpt>
      <trkpt lat="43.23611" lon="6.08497">
        <ele>118.38</ele>
        <time>2022-07-02T10:34:29Z</time>
      </trkpt>
      <trkpt lat="43.23611" lon="6.08497">
        <ele>118.38</ele>
        <time>2022-07-02T10:34:30Z</time>
      </trkpt>
    </trkseg>
  </trk>
</gpx>